<?xml version="1.0" encoding="UTF-8" standalone="no" ?>
<gpx xmlns="http://www.topografix.com/GPX/1/1" xmlns:xsi="http://www.w3.org/2001/XMLSchema-instance" xsi:schemaLocation="http://www.topografix.com/GPX/1/1 http://www.topografix.com/GPX/1/1/gpx.xsd" version="1.1" creator="VisuGPX - https://www.visugpx.com">
  <metadata>
    <name>Randonnée Pédestre Autour de la Sénancole</name>
    <desc><![CDATA[Randonnée pédestre autour de la Sénancole, parcours varié avec quelques difficultés]]></desc>
  </metadata>
  <wpt lat="43.92335" lon="5.17919">
    <ele>454.8</ele>
    <name><![CDATA[Maison 1]]></name>
    <desc><![CDATA[]]></desc>
    <cmt><![CDATA[WAYPOINT]]></cmt>
    <type><![CDATA[]]></type>
  </wpt>
  <wpt lat="43.91062" lon="5.17447">
    <ele>371.7</ele>
    <name><![CDATA[Point De Vue ]]></name>
    <desc><![CDATA[]]></desc>
    <cmt><![CDATA[WAYPOINT]]></cmt>
    <type><![CDATA[]]></type>
  </wpt>
  <wpt lat="43.90343" lon="5.17925">
    <ele>289.4</ele>
    <name><![CDATA[Maison Troglodyte ]]></name>
    <desc><![CDATA[]]></desc>
    <cmt><![CDATA[WAYPOINT]]></cmt>
    <type><![CDATA[]]></type>
  </wpt>
  <wpt lat="43.92457" lon="5.18352">
    <ele>398.4</ele>
    <name><![CDATA[Passage difficile ]]></name>
    <desc><![CDATA[]]></desc>
    <cmt><![CDATA[WAYPOINT]]></cmt>
    <type><![CDATA[]]></type>
  </wpt>
  <trk>
    <name><![CDATA[2018-03-18 14:28]]></name>
    <desc><![CDATA[]]></desc>
    <trkseg>
      <trkpt lat="43.93091" lon="5.1888">
        <ele>428</ele>
        <time>2018-03-18T12:11:26.150Z</time>
      </trkpt>
      <trkpt lat="43.93089" lon="5.18883">
        <ele>434.8</ele>
        <time>2018-03-18T12:11:28.150Z</time>
      </trkpt>
      <trkpt lat="43.93084" lon="5.1889">
        <ele>442.6</ele>
        <time>2018-03-18T12:11:33.156Z</time>
      </trkpt>
      <trkpt lat="43.93081" lon="5.18896">
        <ele>429.5</ele>
        <time>2018-03-18T12:11:34.171Z</time>
      </trkpt>
      <trkpt lat="43.93078" lon="5.18899">
        <ele>438</ele>
        <time>2018-03-18T12:11:35.168Z</time>
      </trkpt>
      <trkpt lat="43.93087" lon="5.18899">
        <ele>424.6</ele>
        <time>2018-03-18T12:12:04.999Z</time>
      </trkpt>
      <trkpt lat="43.93088" lon="5.18899">
        <ele>424.5</ele>
        <time>2018-03-18T12:12:05.999Z</time>
      </trkpt>
      <trkpt lat="43.93096" lon="5.189">
        <ele>424.1</ele>
        <time>2018-03-18T12:12:09.999Z</time>
      </trkpt>
      <trkpt lat="43.93098" lon="5.18899">
        <ele>424.1</ele>
        <time>2018-03-18T12:12:10.999Z</time>
      </trkpt>
      <trkpt lat="43.93106" lon="5.18897">
        <ele>424</ele>
        <time>2018-03-18T12:12:16.999Z</time>
      </trkpt>
      <trkpt lat="43.93108" lon="5.18897">
        <ele>423.9</ele>
        <time>2018-03-18T12:12:17.999Z</time>
      </trkpt>
      <trkpt lat="43.93115" lon="5.189">
        <ele>423.8</ele>
        <time>2018-03-18T12:12:23.999Z</time>
      </trkpt>
      <trkpt lat="43.93117" lon="5.189">
        <ele>423.8</ele>
        <time>2018-03-18T12:12:24.999Z</time>
      </trkpt>
      <trkpt lat="43.93125" lon="5.18902">
        <ele>424.5</ele>
        <time>2018-03-18T12:12:30.999Z</time>
      </trkpt>
      <trkpt lat="43.93127" lon="5.18903">
        <ele>424.6</ele>
        <time>2018-03-18T12:12:31.999Z</time>
      </trkpt>
      <trkpt lat="43.93135" lon="5.18906">
        <ele>425.1</ele>
        <time>2018-03-18T12:12:37.999Z</time>
      </trkpt>
      <trkpt lat="43.93137" lon="5.18906">
        <ele>425.3</ele>
        <time>2018-03-18T12:12:38.999Z</time>
      </trkpt>
      <trkpt lat="43.93144" lon="5.18909">
        <ele>425.8</ele>
        <time>2018-03-18T12:12:43.999Z</time>
      </trkpt>
      <trkpt lat="43.93145" lon="5.18909">
        <ele>425.8</ele>
        <time>2018-03-18T12:12:44.999Z</time>
      </trkpt>
      <trkpt lat="43.93153" lon="5.1891">
        <ele>426.1</ele>
        <time>2018-03-18T12:12:50.999Z</time>
      </trkpt>
      <trkpt lat="43.93155" lon="5.1891">
        <ele>426.1</ele>
        <time>2018-03-18T12:12:51.999Z</time>
      </trkpt>
      <trkpt lat="43.93162" lon="5.1891">
        <ele>426.5</ele>
        <time>2018-03-18T12:12:55.999Z</time>
      </trkpt>
      <trkpt lat="43.93164" lon="5.1891">
        <ele>426.6</ele>
        <time>2018-03-18T12:12:56.999Z</time>
      </trkpt>
      <trkpt lat="43.93171" lon="5.18911">
        <ele>426.9</ele>
        <time>2018-03-18T12:13:01.999Z</time>
      </trkpt>
      <trkpt lat="43.93173" lon="5.18912">
        <ele>427</ele>
        <time>2018-03-18T12:13:02.999Z</time>
      </trkpt>
      <trkpt lat="43.93182" lon="5.18915">
        <ele>427.2</ele>
        <time>2018-03-18T12:13:07.999Z</time>
      </trkpt>
      <trkpt lat="43.93183" lon="5.18915">
        <ele>427.2</ele>
        <time>2018-03-18T12:13:08.999Z</time>
      </trkpt>
      <trkpt lat="43.93192" lon="5.18917">
        <ele>427.2</ele>
        <time>2018-03-18T12:13:14.999Z</time>
      </trkpt>
      <trkpt lat="43.93193" lon="5.18918">
        <ele>427.3</ele>
        <time>2018-03-18T12:13:15.999Z</time>
      </trkpt>
      <trkpt lat="43.93201" lon="5.18921">
        <ele>428.1</ele>
        <time>2018-03-18T12:13:23.999Z</time>
      </trkpt>
      <trkpt lat="43.93203" lon="5.1892">
        <ele>428.1</ele>
        <time>2018-03-18T12:13:24.999Z</time>
      </trkpt>
      <trkpt lat="43.93211" lon="5.18921">
        <ele>427.9</ele>
        <time>2018-03-18T12:13:30.999Z</time>
      </trkpt>
      <trkpt lat="43.93213" lon="5.18921">
        <ele>427.9</ele>
        <time>2018-03-18T12:13:31.999Z</time>
      </trkpt>
      <trkpt lat="43.93221" lon="5.18922">
        <ele>428</ele>
        <time>2018-03-18T12:13:35.999Z</time>
      </trkpt>
      <trkpt lat="43.93223" lon="5.18922">
        <ele>428.1</ele>
        <time>2018-03-18T12:13:36.999Z</time>
      </trkpt>
      <trkpt lat="43.93231" lon="5.18919">
        <ele>428.2</ele>
        <time>2018-03-18T12:13:41.999Z</time>
      </trkpt>
      <trkpt lat="43.93232" lon="5.18918">
        <ele>428.2</ele>
        <time>2018-03-18T12:13:42.999Z</time>
      </trkpt>
      <trkpt lat="43.9324" lon="5.18916">
        <ele>429.1</ele>
        <time>2018-03-18T12:13:50.999Z</time>
      </trkpt>
      <trkpt lat="43.93241" lon="5.18916">
        <ele>429.2</ele>
        <time>2018-03-18T12:13:51.999Z</time>
      </trkpt>
      <trkpt lat="43.93249" lon="5.18913">
        <ele>429.6</ele>
        <time>2018-03-18T12:13:56.999Z</time>
      </trkpt>
      <trkpt lat="43.93252" lon="5.18913">
        <ele>429.6</ele>
        <time>2018-03-18T12:13:57.999Z</time>
      </trkpt>
      <trkpt lat="43.9326" lon="5.18911">
        <ele>429.6</ele>
        <time>2018-03-18T12:14:02.999Z</time>
      </trkpt>
      <trkpt lat="43.93261" lon="5.18911">
        <ele>429.6</ele>
        <time>2018-03-18T12:14:03.999Z</time>
      </trkpt>
      <trkpt lat="43.93269" lon="5.1891">
        <ele>429.6</ele>
        <time>2018-03-18T12:14:08.999Z</time>
      </trkpt>
      <trkpt lat="43.93271" lon="5.1891">
        <ele>429.7</ele>
        <time>2018-03-18T12:14:09.999Z</time>
      </trkpt>
      <trkpt lat="43.9328" lon="5.18908">
        <ele>429.9</ele>
        <time>2018-03-18T12:14:15.999Z</time>
      </trkpt>
      <trkpt lat="43.93281" lon="5.18907">
        <ele>429.9</ele>
        <time>2018-03-18T12:14:16.999Z</time>
      </trkpt>
      <trkpt lat="43.9329" lon="5.18905">
        <ele>429.9</ele>
        <time>2018-03-18T12:14:21.999Z</time>
      </trkpt>
      <trkpt lat="43.93291" lon="5.18904">
        <ele>429.9</ele>
        <time>2018-03-18T12:14:22.999Z</time>
      </trkpt>
      <trkpt lat="43.933" lon="5.18901">
        <ele>429.9</ele>
        <time>2018-03-18T12:14:27.999Z</time>
      </trkpt>
      <trkpt lat="43.93301" lon="5.18901">
        <ele>429.9</ele>
        <time>2018-03-18T12:14:28.999Z</time>
      </trkpt>
      <trkpt lat="43.9331" lon="5.18899">
        <ele>429.9</ele>
        <time>2018-03-18T12:14:33.999Z</time>
      </trkpt>
      <trkpt lat="43.93312" lon="5.18899">
        <ele>430</ele>
        <time>2018-03-18T12:14:34.999Z</time>
      </trkpt>
      <trkpt lat="43.9332" lon="5.18895">
        <ele>430.3</ele>
        <time>2018-03-18T12:14:39.999Z</time>
      </trkpt>
      <trkpt lat="43.93322" lon="5.18894">
        <ele>430.3</ele>
        <time>2018-03-18T12:14:40.999Z</time>
      </trkpt>
      <trkpt lat="43.9333" lon="5.18891">
        <ele>430.6</ele>
        <time>2018-03-18T12:14:45.999Z</time>
      </trkpt>
      <trkpt lat="43.93331" lon="5.1889">
        <ele>430.7</ele>
        <time>2018-03-18T12:14:46.999Z</time>
      </trkpt>
      <trkpt lat="43.93339" lon="5.18885">
        <ele>430.7</ele>
        <time>2018-03-18T12:14:52.999Z</time>
      </trkpt>
      <trkpt lat="43.9334" lon="5.18884">
        <ele>430.6</ele>
        <time>2018-03-18T12:14:53.999Z</time>
      </trkpt>
      <trkpt lat="43.93348" lon="5.18882">
        <ele>430.6</ele>
        <time>2018-03-18T12:14:57.999Z</time>
      </trkpt>
      <trkpt lat="43.93349" lon="5.18881">
        <ele>430.6</ele>
        <time>2018-03-18T12:14:58.999Z</time>
      </trkpt>
      <trkpt lat="43.93357" lon="5.18878">
        <ele>431</ele>
        <time>2018-03-18T12:15:06.999Z</time>
      </trkpt>
      <trkpt lat="43.93359" lon="5.18878">
        <ele>431.1</ele>
        <time>2018-03-18T12:15:07.999Z</time>
      </trkpt>
      <trkpt lat="43.93366" lon="5.18878">
        <ele>431.4</ele>
        <time>2018-03-18T12:15:12.999Z</time>
      </trkpt>
      <trkpt lat="43.93368" lon="5.18878">
        <ele>431.3</ele>
        <time>2018-03-18T12:15:13.999Z</time>
      </trkpt>
      <trkpt lat="43.93376" lon="5.18878">
        <ele>431.2</ele>
        <time>2018-03-18T12:15:18.999Z</time>
      </trkpt>
      <trkpt lat="43.93377" lon="5.18878">
        <ele>431.1</ele>
        <time>2018-03-18T12:15:19.999Z</time>
      </trkpt>
      <trkpt lat="43.93386" lon="5.18875">
        <ele>431</ele>
        <time>2018-03-18T12:15:24.999Z</time>
      </trkpt>
      <trkpt lat="43.93387" lon="5.18874">
        <ele>430.9</ele>
        <time>2018-03-18T12:15:25.999Z</time>
      </trkpt>
      <trkpt lat="43.93394" lon="5.18867">
        <ele>430.7</ele>
        <time>2018-03-18T12:15:30.999Z</time>
      </trkpt>
      <trkpt lat="43.93395" lon="5.18866">
        <ele>430.8</ele>
        <time>2018-03-18T12:15:31.999Z</time>
      </trkpt>
      <trkpt lat="43.93392" lon="5.18856">
        <ele>431.1</ele>
        <time>2018-03-18T12:15:40.999Z</time>
      </trkpt>
      <trkpt lat="43.93391" lon="5.18854">
        <ele>431.2</ele>
        <time>2018-03-18T12:15:41.999Z</time>
      </trkpt>
      <trkpt lat="43.93384" lon="5.18848">
        <ele>431.8</ele>
        <time>2018-03-18T12:15:48.999Z</time>
      </trkpt>
      <trkpt lat="43.93383" lon="5.18847">
        <ele>431.9</ele>
        <time>2018-03-18T12:15:49.999Z</time>
      </trkpt>
      <trkpt lat="43.93376" lon="5.1884">
        <ele>432.7</ele>
        <time>2018-03-18T12:15:57.999Z</time>
      </trkpt>
      <trkpt lat="43.93375" lon="5.18839">
        <ele>432.7</ele>
        <time>2018-03-18T12:15:58.999Z</time>
      </trkpt>
      <trkpt lat="43.93371" lon="5.18831">
        <ele>433.4</ele>
        <time>2018-03-18T12:16:04.999Z</time>
      </trkpt>
      <trkpt lat="43.93369" lon="5.18829">
        <ele>433.5</ele>
        <time>2018-03-18T12:16:05.999Z</time>
      </trkpt>
      <trkpt lat="43.93364" lon="5.18819">
        <ele>433.7</ele>
        <time>2018-03-18T12:16:10.999Z</time>
      </trkpt>
      <trkpt lat="43.93363" lon="5.18819">
        <ele>433.8</ele>
        <time>2018-03-18T12:16:11.999Z</time>
      </trkpt>
      <trkpt lat="43.93359" lon="5.18812">
        <ele>433.5</ele>
        <time>2018-03-18T12:16:15.999Z</time>
      </trkpt>
      <trkpt lat="43.93357" lon="5.1881">
        <ele>433.5</ele>
        <time>2018-03-18T12:16:16.999Z</time>
      </trkpt>
      <trkpt lat="43.9335" lon="5.18803">
        <ele>433.2</ele>
        <time>2018-03-18T12:16:20.999Z</time>
      </trkpt>
      <trkpt lat="43.93349" lon="5.18801">
        <ele>433.1</ele>
        <time>2018-03-18T12:16:21.999Z</time>
      </trkpt>
      <trkpt lat="43.93343" lon="5.18793">
        <ele>432.9</ele>
        <time>2018-03-18T12:16:28.999Z</time>
      </trkpt>
      <trkpt lat="43.93342" lon="5.18791">
        <ele>432.9</ele>
        <time>2018-03-18T12:16:29.999Z</time>
      </trkpt>
      <trkpt lat="43.93336" lon="5.18782">
        <ele>433</ele>
        <time>2018-03-18T12:16:37.999Z</time>
      </trkpt>
      <trkpt lat="43.93336" lon="5.18781">
        <ele>433</ele>
        <time>2018-03-18T12:16:38.999Z</time>
      </trkpt>
      <trkpt lat="43.93335" lon="5.1877">
        <ele>432.9</ele>
        <time>2018-03-18T12:16:46.999Z</time>
      </trkpt>
      <trkpt lat="43.93336" lon="5.18768">
        <ele>432.8</ele>
        <time>2018-03-18T12:16:47.999Z</time>
      </trkpt>
      <trkpt lat="43.93343" lon="5.18762">
        <ele>433.1</ele>
        <time>2018-03-18T12:17:06.999Z</time>
      </trkpt>
      <trkpt lat="43.93344" lon="5.18762">
        <ele>433.2</ele>
        <time>2018-03-18T12:17:07.999Z</time>
      </trkpt>
      <trkpt lat="43.93352" lon="5.1876">
        <ele>434.5</ele>
        <time>2018-03-18T12:17:19.999Z</time>
      </trkpt>
      <trkpt lat="43.93353" lon="5.1876">
        <ele>434.7</ele>
        <time>2018-03-18T12:17:20.999Z</time>
      </trkpt>
      <trkpt lat="43.93354" lon="5.1876">
        <ele>435</ele>
        <time>2018-03-18T12:17:21.999Z</time>
      </trkpt>
      <trkpt lat="43.93363" lon="5.1876">
        <ele>441</ele>
        <time>2018-03-18T12:17:42.999Z</time>
      </trkpt>
      <trkpt lat="43.93363" lon="5.1876">
        <ele>441.5</ele>
        <time>2018-03-18T12:17:43.999Z</time>
      </trkpt>
      <trkpt lat="43.93364" lon="5.1876">
        <ele>442</ele>
        <time>2018-03-18T12:17:44.999Z</time>
      </trkpt>
      <trkpt lat="43.93369" lon="5.1876">
        <ele>444.9</ele>
        <time>2018-03-18T12:17:53.999Z</time>
      </trkpt>
      <trkpt lat="43.93371" lon="5.18761">
        <ele>445.2</ele>
        <time>2018-03-18T12:17:54.999Z</time>
      </trkpt>
      <trkpt lat="43.9338" lon="5.18763">
        <ele>446.2</ele>
        <time>2018-03-18T12:17:59.999Z</time>
      </trkpt>
      <trkpt lat="43.93381" lon="5.18763">
        <ele>446.3</ele>
        <time>2018-03-18T12:18:00.999Z</time>
      </trkpt>
      <trkpt lat="43.9339" lon="5.18763">
        <ele>447.3</ele>
        <time>2018-03-18T12:18:09.999Z</time>
      </trkpt>
      <trkpt lat="43.93393" lon="5.18762">
        <ele>447.4</ele>
        <time>2018-03-18T12:18:10.999Z</time>
      </trkpt>
      <trkpt lat="43.93395" lon="5.18761">
        <ele>447.5</ele>
        <time>2018-03-18T12:18:12.999Z</time>
      </trkpt>
      <trkpt lat="43.93396" lon="5.18761">
        <ele>447.6</ele>
        <time>2018-03-18T12:18:13.999Z</time>
      </trkpt>
      <trkpt lat="43.93397" lon="5.18753">
        <ele>447.6</ele>
        <time>2018-03-18T12:18:17.999Z</time>
      </trkpt>
      <trkpt lat="43.93397" lon="5.1875">
        <ele>447.5</ele>
        <time>2018-03-18T12:18:18.999Z</time>
      </trkpt>
      <trkpt lat="43.93397" lon="5.18746">
        <ele>447.3</ele>
        <time>2018-03-18T12:18:20.999Z</time>
      </trkpt>
      <trkpt lat="43.93397" lon="5.18745">
        <ele>447.3</ele>
        <time>2018-03-18T12:18:21.999Z</time>
      </trkpt>
      <trkpt lat="43.93397" lon="5.1874">
        <ele>447.3</ele>
        <time>2018-03-18T12:18:25.999Z</time>
      </trkpt>
      <trkpt lat="43.93399" lon="5.18739">
        <ele>447.3</ele>
        <time>2018-03-18T12:18:26.999Z</time>
      </trkpt>
      <trkpt lat="43.93404" lon="5.18736">
        <ele>448.7</ele>
        <time>2018-03-18T12:18:33.999Z</time>
      </trkpt>
      <trkpt lat="43.93404" lon="5.18736">
        <ele>449</ele>
        <time>2018-03-18T12:18:34.999Z</time>
      </trkpt>
      <trkpt lat="43.93413" lon="5.18738">
        <ele>452</ele>
        <time>2018-03-18T12:18:45.999Z</time>
      </trkpt>
      <trkpt lat="43.93415" lon="5.18738">
        <ele>452.3</ele>
        <time>2018-03-18T12:18:46.999Z</time>
      </trkpt>
      <trkpt lat="43.93417" lon="5.18739">
        <ele>452.5</ele>
        <time>2018-03-18T12:18:47.999Z</time>
      </trkpt>
      <trkpt lat="43.93421" lon="5.18742">
        <ele>452.9</ele>
        <time>2018-03-18T12:18:49.999Z</time>
      </trkpt>
      <trkpt lat="43.93424" lon="5.18744">
        <ele>453.1</ele>
        <time>2018-03-18T12:18:50.999Z</time>
      </trkpt>
      <trkpt lat="43.93428" lon="5.18746">
        <ele>453.4</ele>
        <time>2018-03-18T12:18:54.999Z</time>
      </trkpt>
      <trkpt lat="43.93429" lon="5.18747">
        <ele>453.6</ele>
        <time>2018-03-18T12:18:55.999Z</time>
      </trkpt>
      <trkpt lat="43.93437" lon="5.18751">
        <ele>455.5</ele>
        <time>2018-03-18T12:19:06.999Z</time>
      </trkpt>
      <trkpt lat="43.93437" lon="5.18752">
        <ele>455.6</ele>
        <time>2018-03-18T12:19:07.999Z</time>
      </trkpt>
      <trkpt lat="43.93438" lon="5.18752">
        <ele>455.6</ele>
        <time>2018-03-18T12:19:08.999Z</time>
      </trkpt>
      <trkpt lat="43.93446" lon="5.18751">
        <ele>460.3</ele>
        <time>2018-03-18T12:19:21.999Z</time>
      </trkpt>
      <trkpt lat="43.9345" lon="5.18752">
        <ele>460.8</ele>
        <time>2018-03-18T12:19:22.999Z</time>
      </trkpt>
      <trkpt lat="43.93451" lon="5.18753">
        <ele>460.9</ele>
        <time>2018-03-18T12:19:23.999Z</time>
      </trkpt>
      <trkpt lat="43.93455" lon="5.18754">
        <ele>465.1</ele>
        <time>2018-03-18T12:19:42.999Z</time>
      </trkpt>
      <trkpt lat="43.93455" lon="5.18754">
        <ele>465.2</ele>
        <time>2018-03-18T12:19:43.999Z</time>
      </trkpt>
      <trkpt lat="43.93459" lon="5.18756">
        <ele>466.3</ele>
        <time>2018-03-18T12:19:50.999Z</time>
      </trkpt>
      <trkpt lat="43.93459" lon="5.18756">
        <ele>466.6</ele>
        <time>2018-03-18T12:19:51.999Z</time>
      </trkpt>
      <trkpt lat="43.93464" lon="5.18747">
        <ele>471</ele>
        <time>2018-03-18T12:20:21.999Z</time>
      </trkpt>
      <trkpt lat="43.93466" lon="5.18748">
        <ele>471.2</ele>
        <time>2018-03-18T12:20:22.999Z</time>
      </trkpt>
      <trkpt lat="43.93468" lon="5.18749">
        <ele>471.2</ele>
        <time>2018-03-18T12:20:23.999Z</time>
      </trkpt>
      <trkpt lat="43.9347" lon="5.18749">
        <ele>471.3</ele>
        <time>2018-03-18T12:20:24.999Z</time>
      </trkpt>
      <trkpt lat="43.93473" lon="5.18749">
        <ele>471.4</ele>
        <time>2018-03-18T12:20:25.999Z</time>
      </trkpt>
      <trkpt lat="43.93479" lon="5.1875">
        <ele>471.9</ele>
        <time>2018-03-18T12:20:28.999Z</time>
      </trkpt>
      <trkpt lat="43.9348" lon="5.1875">
        <ele>472.1</ele>
        <time>2018-03-18T12:20:29.999Z</time>
      </trkpt>
      <trkpt lat="43.93488" lon="5.18752">
        <ele>473.5</ele>
        <time>2018-03-18T12:20:41.999Z</time>
      </trkpt>
      <trkpt lat="43.93489" lon="5.18752">
        <ele>473.7</ele>
        <time>2018-03-18T12:20:42.999Z</time>
      </trkpt>
      <trkpt lat="43.9349" lon="5.18752">
        <ele>473.8</ele>
        <time>2018-03-18T12:20:43.999Z</time>
      </trkpt>
      <trkpt lat="43.93497" lon="5.18752">
        <ele>474.9</ele>
        <time>2018-03-18T12:20:49.999Z</time>
      </trkpt>
      <trkpt lat="43.935" lon="5.18752">
        <ele>475.1</ele>
        <time>2018-03-18T12:20:50.999Z</time>
      </trkpt>
      <trkpt lat="43.93509" lon="5.18751">
        <ele>475.4</ele>
        <time>2018-03-18T12:20:54.999Z</time>
      </trkpt>
      <trkpt lat="43.9351" lon="5.18751">
        <ele>475.4</ele>
        <time>2018-03-18T12:20:55.999Z</time>
      </trkpt>
      <trkpt lat="43.93517" lon="5.18749">
        <ele>474.8</ele>
        <time>2018-03-18T12:21:08.999Z</time>
      </trkpt>
      <trkpt lat="43.93519" lon="5.18747">
        <ele>474.9</ele>
        <time>2018-03-18T12:21:09.999Z</time>
      </trkpt>
      <trkpt lat="43.93526" lon="5.1874">
        <ele>475.2</ele>
        <time>2018-03-18T12:21:16.999Z</time>
      </trkpt>
      <trkpt lat="43.93526" lon="5.18739">
        <ele>475.3</ele>
        <time>2018-03-18T12:21:17.999Z</time>
      </trkpt>
      <trkpt lat="43.93534" lon="5.18734">
        <ele>476.8</ele>
        <time>2018-03-18T12:21:28.999Z</time>
      </trkpt>
      <trkpt lat="43.93535" lon="5.18734">
        <ele>476.9</ele>
        <time>2018-03-18T12:21:29.999Z</time>
      </trkpt>
      <trkpt lat="43.93542" lon="5.18731">
        <ele>478.3</ele>
        <time>2018-03-18T12:21:37.999Z</time>
      </trkpt>
      <trkpt lat="43.93543" lon="5.1873">
        <ele>478.4</ele>
        <time>2018-03-18T12:21:38.999Z</time>
      </trkpt>
      <trkpt lat="43.93551" lon="5.18731">
        <ele>479.6</ele>
        <time>2018-03-18T12:21:44.999Z</time>
      </trkpt>
      <trkpt lat="43.93553" lon="5.18731">
        <ele>479.8</ele>
        <time>2018-03-18T12:21:45.999Z</time>
      </trkpt>
      <trkpt lat="43.93561" lon="5.18731">
        <ele>481.8</ele>
        <time>2018-03-18T12:21:56.999Z</time>
      </trkpt>
      <trkpt lat="43.93562" lon="5.18731">
        <ele>482</ele>
        <time>2018-03-18T12:21:57.999Z</time>
      </trkpt>
      <trkpt lat="43.93571" lon="5.18727">
        <ele>483.4</ele>
        <time>2018-03-18T12:22:04.999Z</time>
      </trkpt>
      <trkpt lat="43.93571" lon="5.18727">
        <ele>483.6</ele>
        <time>2018-03-18T12:22:05.999Z</time>
      </trkpt>
      <trkpt lat="43.93579" lon="5.18722">
        <ele>485.4</ele>
        <time>2018-03-18T12:22:14.999Z</time>
      </trkpt>
      <trkpt lat="43.9358" lon="5.18722">
        <ele>485.6</ele>
        <time>2018-03-18T12:22:15.999Z</time>
      </trkpt>
      <trkpt lat="43.93589" lon="5.18723">
        <ele>488</ele>
        <time>2018-03-18T12:22:27.999Z</time>
      </trkpt>
      <trkpt lat="43.9359" lon="5.18722">
        <ele>488.2</ele>
        <time>2018-03-18T12:22:28.999Z</time>
      </trkpt>
      <trkpt lat="43.93598" lon="5.18723">
        <ele>488.8</ele>
        <time>2018-03-18T12:22:36.999Z</time>
      </trkpt>
      <trkpt lat="43.93599" lon="5.18723">
        <ele>488.8</ele>
        <time>2018-03-18T12:22:37.999Z</time>
      </trkpt>
      <trkpt lat="43.93608" lon="5.18724">
        <ele>489.7</ele>
        <time>2018-03-18T12:22:48.999Z</time>
      </trkpt>
      <trkpt lat="43.93609" lon="5.18723">
        <ele>489.8</ele>
        <time>2018-03-18T12:22:49.999Z</time>
      </trkpt>
      <trkpt lat="43.93617" lon="5.18718">
        <ele>490.9</ele>
        <time>2018-03-18T12:22:57.999Z</time>
      </trkpt>
      <trkpt lat="43.93618" lon="5.18717">
        <ele>491</ele>
        <time>2018-03-18T12:22:58.999Z</time>
      </trkpt>
      <trkpt lat="43.93626" lon="5.18714">
        <ele>491.9</ele>
        <time>2018-03-18T12:23:21.999Z</time>
      </trkpt>
      <trkpt lat="43.93627" lon="5.18714">
        <ele>492</ele>
        <time>2018-03-18T12:23:22.999Z</time>
      </trkpt>
      <trkpt lat="43.93635" lon="5.18714">
        <ele>493.4</ele>
        <time>2018-03-18T12:23:35.999Z</time>
      </trkpt>
      <trkpt lat="43.93636" lon="5.18714">
        <ele>493.5</ele>
        <time>2018-03-18T12:23:36.999Z</time>
      </trkpt>
      <trkpt lat="43.93645" lon="5.18713">
        <ele>495.2</ele>
        <time>2018-03-18T12:23:46.999Z</time>
      </trkpt>
      <trkpt lat="43.93646" lon="5.18712">
        <ele>495.2</ele>
        <time>2018-03-18T12:23:47.999Z</time>
      </trkpt>
      <trkpt lat="43.93654" lon="5.18707">
        <ele>496.7</ele>
        <time>2018-03-18T12:23:55.999Z</time>
      </trkpt>
      <trkpt lat="43.93655" lon="5.18706">
        <ele>497.1</ele>
        <time>2018-03-18T12:23:56.999Z</time>
      </trkpt>
      <trkpt lat="43.93663" lon="5.18701">
        <ele>498.7</ele>
        <time>2018-03-18T12:24:03.999Z</time>
      </trkpt>
      <trkpt lat="43.93663" lon="5.18701">
        <ele>498.7</ele>
        <time>2018-03-18T12:24:04.999Z</time>
      </trkpt>
      <trkpt lat="43.93672" lon="5.18697">
        <ele>498.9</ele>
        <time>2018-03-18T12:24:18.999Z</time>
      </trkpt>
      <trkpt lat="43.93672" lon="5.18697">
        <ele>498.8</ele>
        <time>2018-03-18T12:24:19.999Z</time>
      </trkpt>
      <trkpt lat="43.93681" lon="5.18695">
        <ele>500.4</ele>
        <time>2018-03-18T12:24:34.999Z</time>
      </trkpt>
      <trkpt lat="43.93681" lon="5.18695">
        <ele>500.6</ele>
        <time>2018-03-18T12:24:35.999Z</time>
      </trkpt>
      <trkpt lat="43.9369" lon="5.18693">
        <ele>502.9</ele>
        <time>2018-03-18T12:24:45.999Z</time>
      </trkpt>
      <trkpt lat="43.93691" lon="5.18693">
        <ele>503.2</ele>
        <time>2018-03-18T12:24:46.999Z</time>
      </trkpt>
      <trkpt lat="43.93699" lon="5.18691">
        <ele>505.2</ele>
        <time>2018-03-18T12:24:56.999Z</time>
      </trkpt>
      <trkpt lat="43.937" lon="5.18691">
        <ele>505.4</ele>
        <time>2018-03-18T12:24:57.999Z</time>
      </trkpt>
      <trkpt lat="43.93708" lon="5.18688">
        <ele>506.8</ele>
        <time>2018-03-18T12:25:05.999Z</time>
      </trkpt>
      <trkpt lat="43.9371" lon="5.18688">
        <ele>507</ele>
        <time>2018-03-18T12:25:06.999Z</time>
      </trkpt>
      <trkpt lat="43.93717" lon="5.18681">
        <ele>508.3</ele>
        <time>2018-03-18T12:25:16.999Z</time>
      </trkpt>
      <trkpt lat="43.93718" lon="5.18681">
        <ele>508.4</ele>
        <time>2018-03-18T12:25:17.999Z</time>
      </trkpt>
      <trkpt lat="43.93723" lon="5.18672">
        <ele>509.6</ele>
        <time>2018-03-18T12:25:25.999Z</time>
      </trkpt>
      <trkpt lat="43.93723" lon="5.18671">
        <ele>509.8</ele>
        <time>2018-03-18T12:25:26.999Z</time>
      </trkpt>
      <trkpt lat="43.93729" lon="5.18663">
        <ele>512.1</ele>
        <time>2018-03-18T12:25:37.999Z</time>
      </trkpt>
      <trkpt lat="43.9373" lon="5.18662">
        <ele>512.4</ele>
        <time>2018-03-18T12:25:38.999Z</time>
      </trkpt>
      <trkpt lat="43.93735" lon="5.18653">
        <ele>513.6</ele>
        <time>2018-03-18T12:25:45.999Z</time>
      </trkpt>
      <trkpt lat="43.93735" lon="5.18652">
        <ele>513.6</ele>
        <time>2018-03-18T12:25:46.999Z</time>
      </trkpt>
      <trkpt lat="43.9374" lon="5.18644">
        <ele>514.7</ele>
        <time>2018-03-18T12:25:54.999Z</time>
      </trkpt>
      <trkpt lat="43.93741" lon="5.18642">
        <ele>514.9</ele>
        <time>2018-03-18T12:25:55.999Z</time>
      </trkpt>
      <trkpt lat="43.93744" lon="5.1863">
        <ele>515.6</ele>
        <time>2018-03-18T12:26:03.999Z</time>
      </trkpt>
      <trkpt lat="43.93744" lon="5.18628">
        <ele>515.6</ele>
        <time>2018-03-18T12:26:04.999Z</time>
      </trkpt>
      <trkpt lat="43.93745" lon="5.18617">
        <ele>515.4</ele>
        <time>2018-03-18T12:26:10.999Z</time>
      </trkpt>
      <trkpt lat="43.93746" lon="5.18615">
        <ele>515.3</ele>
        <time>2018-03-18T12:26:11.999Z</time>
      </trkpt>
      <trkpt lat="43.93747" lon="5.18604">
        <ele>515.5</ele>
        <time>2018-03-18T12:26:17.999Z</time>
      </trkpt>
      <trkpt lat="43.93748" lon="5.18602">
        <ele>515.5</ele>
        <time>2018-03-18T12:26:18.999Z</time>
      </trkpt>
      <trkpt lat="43.9375" lon="5.18591">
        <ele>515.3</ele>
        <time>2018-03-18T12:26:25.999Z</time>
      </trkpt>
      <trkpt lat="43.9375" lon="5.18589">
        <ele>515.3</ele>
        <time>2018-03-18T12:26:26.999Z</time>
      </trkpt>
      <trkpt lat="43.93751" lon="5.18578">
        <ele>515</ele>
        <time>2018-03-18T12:26:32.999Z</time>
      </trkpt>
      <trkpt lat="43.93751" lon="5.18576">
        <ele>515</ele>
        <time>2018-03-18T12:26:33.999Z</time>
      </trkpt>
      <trkpt lat="43.93754" lon="5.18564">
        <ele>516</ele>
        <time>2018-03-18T12:26:42.999Z</time>
      </trkpt>
      <trkpt lat="43.93755" lon="5.18563">
        <ele>516.1</ele>
        <time>2018-03-18T12:26:43.999Z</time>
      </trkpt>
      <trkpt lat="43.9376" lon="5.18554">
        <ele>516.7</ele>
        <time>2018-03-18T12:26:53.999Z</time>
      </trkpt>
      <trkpt lat="43.9376" lon="5.18554">
        <ele>516.8</ele>
        <time>2018-03-18T12:26:54.999Z</time>
      </trkpt>
      <trkpt lat="43.93767" lon="5.18547">
        <ele>517</ele>
        <time>2018-03-18T12:27:05.999Z</time>
      </trkpt>
      <trkpt lat="43.93768" lon="5.18546">
        <ele>517.2</ele>
        <time>2018-03-18T12:27:06.999Z</time>
      </trkpt>
      <trkpt lat="43.93774" lon="5.18538">
        <ele>518.2</ele>
        <time>2018-03-18T12:27:15.999Z</time>
      </trkpt>
      <trkpt lat="43.93775" lon="5.18536">
        <ele>518.3</ele>
        <time>2018-03-18T12:27:16.999Z</time>
      </trkpt>
      <trkpt lat="43.93782" lon="5.1853">
        <ele>518.6</ele>
        <time>2018-03-18T12:27:21.999Z</time>
      </trkpt>
      <trkpt lat="43.93783" lon="5.1853">
        <ele>518.7</ele>
        <time>2018-03-18T12:27:22.999Z</time>
      </trkpt>
      <trkpt lat="43.93791" lon="5.18524">
        <ele>520.2</ele>
        <time>2018-03-18T12:27:30.999Z</time>
      </trkpt>
      <trkpt lat="43.93792" lon="5.18524">
        <ele>520.3</ele>
        <time>2018-03-18T12:27:31.999Z</time>
      </trkpt>
      <trkpt lat="43.93801" lon="5.18521">
        <ele>522.1</ele>
        <time>2018-03-18T12:27:40.999Z</time>
      </trkpt>
      <trkpt lat="43.93801" lon="5.1852">
        <ele>522.3</ele>
        <time>2018-03-18T12:27:41.999Z</time>
      </trkpt>
      <trkpt lat="43.93809" lon="5.18517">
        <ele>524.6</ele>
        <time>2018-03-18T12:27:52.999Z</time>
      </trkpt>
      <trkpt lat="43.93811" lon="5.18516">
        <ele>524.8</ele>
        <time>2018-03-18T12:27:53.999Z</time>
      </trkpt>
      <trkpt lat="43.93817" lon="5.18514">
        <ele>526.2</ele>
        <time>2018-03-18T12:27:59.999Z</time>
      </trkpt>
      <trkpt lat="43.93817" lon="5.18514">
        <ele>526.3</ele>
        <time>2018-03-18T12:28:00.999Z</time>
      </trkpt>
      <trkpt lat="43.93824" lon="5.18511">
        <ele>529.2</ele>
        <time>2018-03-18T12:28:13.999Z</time>
      </trkpt>
      <trkpt lat="43.93826" lon="5.1851">
        <ele>529.5</ele>
        <time>2018-03-18T12:28:14.999Z</time>
      </trkpt>
      <trkpt lat="43.93827" lon="5.18509">
        <ele>529.8</ele>
        <time>2018-03-18T12:28:15.999Z</time>
      </trkpt>
      <trkpt lat="43.93829" lon="5.18508">
        <ele>530</ele>
        <time>2018-03-18T12:28:16.999Z</time>
      </trkpt>
      <trkpt lat="43.93837" lon="5.18505">
        <ele>530.5</ele>
        <time>2018-03-18T12:28:19.999Z</time>
      </trkpt>
      <trkpt lat="43.93838" lon="5.18505">
        <ele>530.6</ele>
        <time>2018-03-18T12:28:20.999Z</time>
      </trkpt>
      <trkpt lat="43.93846" lon="5.18502">
        <ele>532.2</ele>
        <time>2018-03-18T12:28:32.999Z</time>
      </trkpt>
      <trkpt lat="43.93847" lon="5.18501">
        <ele>532.3</ele>
        <time>2018-03-18T12:28:33.999Z</time>
      </trkpt>
      <trkpt lat="43.93848" lon="5.185">
        <ele>532.4</ele>
        <time>2018-03-18T12:28:34.999Z</time>
      </trkpt>
      <trkpt lat="43.93852" lon="5.18497">
        <ele>532.6</ele>
        <time>2018-03-18T12:28:35.999Z</time>
      </trkpt>
      <trkpt lat="43.93853" lon="5.18496">
        <ele>532.8</ele>
        <time>2018-03-18T12:28:36.999Z</time>
      </trkpt>
      <trkpt lat="43.9386" lon="5.1849">
        <ele>534.7</ele>
        <time>2018-03-18T12:28:44.999Z</time>
      </trkpt>
      <trkpt lat="43.93861" lon="5.18489">
        <ele>534.9</ele>
        <time>2018-03-18T12:28:45.999Z</time>
      </trkpt>
      <trkpt lat="43.93868" lon="5.18483">
        <ele>536.5</ele>
        <time>2018-03-18T12:28:51.999Z</time>
      </trkpt>
      <trkpt lat="43.93869" lon="5.18482">
        <ele>536.8</ele>
        <time>2018-03-18T12:28:52.999Z</time>
      </trkpt>
      <trkpt lat="43.93875" lon="5.18474">
        <ele>537.2</ele>
        <time>2018-03-18T12:29:02.999Z</time>
      </trkpt>
      <trkpt lat="43.93875" lon="5.18473">
        <ele>537.2</ele>
        <time>2018-03-18T12:29:03.999Z</time>
      </trkpt>
      <trkpt lat="43.93881" lon="5.18464">
        <ele>538.1</ele>
        <time>2018-03-18T12:29:15.999Z</time>
      </trkpt>
      <trkpt lat="43.93881" lon="5.18463">
        <ele>538.2</ele>
        <time>2018-03-18T12:29:16.999Z</time>
      </trkpt>
      <trkpt lat="43.93884" lon="5.1846">
        <ele>538.8</ele>
        <time>2018-03-18T12:29:23.999Z</time>
      </trkpt>
      <trkpt lat="43.93884" lon="5.1846">
        <ele>538.9</ele>
        <time>2018-03-18T12:29:24.999Z</time>
      </trkpt>
      <trkpt lat="43.93885" lon="5.18459">
        <ele>539.2</ele>
        <time>2018-03-18T12:29:27.999Z</time>
      </trkpt>
      <trkpt lat="43.93885" lon="5.18458">
        <ele>539.2</ele>
        <time>2018-03-18T12:29:28.999Z</time>
      </trkpt>
      <trkpt lat="43.93887" lon="5.18456">
        <ele>539.3</ele>
        <time>2018-03-18T12:29:31.999Z</time>
      </trkpt>
      <trkpt lat="43.93887" lon="5.18455">
        <ele>539.3</ele>
        <time>2018-03-18T12:29:32.999Z</time>
      </trkpt>
      <trkpt lat="43.93889" lon="5.18453">
        <ele>539.9</ele>
        <time>2018-03-18T12:29:37.999Z</time>
      </trkpt>
      <trkpt lat="43.93889" lon="5.18452">
        <ele>540</ele>
        <time>2018-03-18T12:29:38.999Z</time>
      </trkpt>
      <trkpt lat="43.9389" lon="5.18451">
        <ele>540.4</ele>
        <time>2018-03-18T12:29:40.999Z</time>
      </trkpt>
      <trkpt lat="43.93891" lon="5.1845">
        <ele>540.4</ele>
        <time>2018-03-18T12:29:41.999Z</time>
      </trkpt>
      <trkpt lat="43.93896" lon="5.18441">
        <ele>544</ele>
        <time>2018-03-18T12:29:54.999Z</time>
      </trkpt>
      <trkpt lat="43.93897" lon="5.1844">
        <ele>544.3</ele>
        <time>2018-03-18T12:29:55.999Z</time>
      </trkpt>
      <trkpt lat="43.93897" lon="5.1844">
        <ele>544.7</ele>
        <time>2018-03-18T12:29:56.999Z</time>
      </trkpt>
      <trkpt lat="43.93898" lon="5.18439">
        <ele>545</ele>
        <time>2018-03-18T12:29:57.999Z</time>
      </trkpt>
      <trkpt lat="43.93904" lon="5.18431">
        <ele>547.5</ele>
        <time>2018-03-18T12:30:06.999Z</time>
      </trkpt>
      <trkpt lat="43.93905" lon="5.1843">
        <ele>547.7</ele>
        <time>2018-03-18T12:30:07.999Z</time>
      </trkpt>
      <trkpt lat="43.93911" lon="5.18422">
        <ele>549.7</ele>
        <time>2018-03-18T12:30:17.999Z</time>
      </trkpt>
      <trkpt lat="43.93912" lon="5.18421">
        <ele>549.9</ele>
        <time>2018-03-18T12:30:18.999Z</time>
      </trkpt>
      <trkpt lat="43.93918" lon="5.18412">
        <ele>551.8</ele>
        <time>2018-03-18T12:30:32.999Z</time>
      </trkpt>
      <trkpt lat="43.93918" lon="5.18412">
        <ele>551.8</ele>
        <time>2018-03-18T12:30:33.999Z</time>
      </trkpt>
      <trkpt lat="43.93925" lon="5.18406">
        <ele>552.6</ele>
        <time>2018-03-18T12:30:42.999Z</time>
      </trkpt>
      <trkpt lat="43.93926" lon="5.18406">
        <ele>552.8</ele>
        <time>2018-03-18T12:30:43.999Z</time>
      </trkpt>
      <trkpt lat="43.93934" lon="5.18401">
        <ele>554.3</ele>
        <time>2018-03-18T12:30:51.999Z</time>
      </trkpt>
      <trkpt lat="43.93935" lon="5.18401">
        <ele>554.5</ele>
        <time>2018-03-18T12:30:52.999Z</time>
      </trkpt>
      <trkpt lat="43.93943" lon="5.18397">
        <ele>556.1</ele>
        <time>2018-03-18T12:31:05.999Z</time>
      </trkpt>
      <trkpt lat="43.93944" lon="5.18397">
        <ele>556.1</ele>
        <time>2018-03-18T12:31:06.999Z</time>
      </trkpt>
      <trkpt lat="43.93952" lon="5.18393">
        <ele>557.2</ele>
        <time>2018-03-18T12:31:17.999Z</time>
      </trkpt>
      <trkpt lat="43.93952" lon="5.18392">
        <ele>557.4</ele>
        <time>2018-03-18T12:31:18.999Z</time>
      </trkpt>
      <trkpt lat="43.93959" lon="5.18387">
        <ele>558</ele>
        <time>2018-03-18T12:31:25.999Z</time>
      </trkpt>
      <trkpt lat="43.93961" lon="5.18386">
        <ele>558.1</ele>
        <time>2018-03-18T12:31:26.999Z</time>
      </trkpt>
      <trkpt lat="43.93968" lon="5.1838">
        <ele>559.4</ele>
        <time>2018-03-18T12:31:36.999Z</time>
      </trkpt>
      <trkpt lat="43.93969" lon="5.18379">
        <ele>559.7</ele>
        <time>2018-03-18T12:31:37.999Z</time>
      </trkpt>
      <trkpt lat="43.93976" lon="5.18373">
        <ele>562</ele>
        <time>2018-03-18T12:31:47.999Z</time>
      </trkpt>
      <trkpt lat="43.93977" lon="5.18372">
        <ele>562.1</ele>
        <time>2018-03-18T12:31:48.999Z</time>
      </trkpt>
      <trkpt lat="43.93985" lon="5.18367">
        <ele>563.5</ele>
        <time>2018-03-18T12:31:55.999Z</time>
      </trkpt>
      <trkpt lat="43.93986" lon="5.18367">
        <ele>563.7</ele>
        <time>2018-03-18T12:31:56.999Z</time>
      </trkpt>
      <trkpt lat="43.93993" lon="5.1836">
        <ele>565.5</ele>
        <time>2018-03-18T12:32:08.999Z</time>
      </trkpt>
      <trkpt lat="43.93993" lon="5.18359">
        <ele>565.5</ele>
        <time>2018-03-18T12:32:09.999Z</time>
      </trkpt>
      <trkpt lat="43.94001" lon="5.18354">
        <ele>565.3</ele>
        <time>2018-03-18T12:32:20.999Z</time>
      </trkpt>
      <trkpt lat="43.94002" lon="5.18353">
        <ele>565.3</ele>
        <time>2018-03-18T12:32:21.999Z</time>
      </trkpt>
      <trkpt lat="43.94009" lon="5.18346">
        <ele>565.9</ele>
        <time>2018-03-18T12:32:33.999Z</time>
      </trkpt>
      <trkpt lat="43.9401" lon="5.18345">
        <ele>566</ele>
        <time>2018-03-18T12:32:34.999Z</time>
      </trkpt>
      <trkpt lat="43.94016" lon="5.18337">
        <ele>566.9</ele>
        <time>2018-03-18T12:32:43.999Z</time>
      </trkpt>
      <trkpt lat="43.94017" lon="5.18336">
        <ele>566.9</ele>
        <time>2018-03-18T12:32:44.999Z</time>
      </trkpt>
      <trkpt lat="43.94021" lon="5.18326">
        <ele>567.4</ele>
        <time>2018-03-18T12:32:54.999Z</time>
      </trkpt>
      <trkpt lat="43.94021" lon="5.18325">
        <ele>567.4</ele>
        <time>2018-03-18T12:32:55.999Z</time>
      </trkpt>
      <trkpt lat="43.94028" lon="5.18318">
        <ele>567.6</ele>
        <time>2018-03-18T12:33:08.999Z</time>
      </trkpt>
      <trkpt lat="43.94029" lon="5.18318">
        <ele>567.7</ele>
        <time>2018-03-18T12:33:09.999Z</time>
      </trkpt>
      <trkpt lat="43.94035" lon="5.18314">
        <ele>567.9</ele>
        <time>2018-03-18T12:33:21.999Z</time>
      </trkpt>
      <trkpt lat="43.94036" lon="5.18314">
        <ele>568</ele>
        <time>2018-03-18T12:33:22.999Z</time>
      </trkpt>
      <trkpt lat="43.94044" lon="5.18307">
        <ele>576.8</ele>
        <time>2018-03-18T12:33:46.999Z</time>
      </trkpt>
      <trkpt lat="43.94045" lon="5.18306">
        <ele>577.2</ele>
        <time>2018-03-18T12:33:47.999Z</time>
      </trkpt>
      <trkpt lat="43.94046" lon="5.18305">
        <ele>577.3</ele>
        <time>2018-03-18T12:33:48.999Z</time>
      </trkpt>
      <trkpt lat="43.9405" lon="5.18302">
        <ele>579.2</ele>
        <time>2018-03-18T12:33:54.999Z</time>
      </trkpt>
      <trkpt lat="43.94051" lon="5.18302">
        <ele>579.6</ele>
        <time>2018-03-18T12:33:55.999Z</time>
      </trkpt>
      <trkpt lat="43.94058" lon="5.18296">
        <ele>581.1</ele>
        <time>2018-03-18T12:34:03.999Z</time>
      </trkpt>
      <trkpt lat="43.94059" lon="5.18295">
        <ele>581.3</ele>
        <time>2018-03-18T12:34:04.999Z</time>
      </trkpt>
      <trkpt lat="43.94066" lon="5.18289">
        <ele>582.6</ele>
        <time>2018-03-18T12:34:11.999Z</time>
      </trkpt>
      <trkpt lat="43.94067" lon="5.18288">
        <ele>582.8</ele>
        <time>2018-03-18T12:34:12.999Z</time>
      </trkpt>
      <trkpt lat="43.94075" lon="5.18284">
        <ele>584.3</ele>
        <time>2018-03-18T12:34:19.999Z</time>
      </trkpt>
      <trkpt lat="43.94076" lon="5.18284">
        <ele>584.4</ele>
        <time>2018-03-18T12:34:20.999Z</time>
      </trkpt>
      <trkpt lat="43.94084" lon="5.18285">
        <ele>585.2</ele>
        <time>2018-03-18T12:34:34.999Z</time>
      </trkpt>
      <trkpt lat="43.94085" lon="5.18285">
        <ele>585.3</ele>
        <time>2018-03-18T12:34:35.999Z</time>
      </trkpt>
      <trkpt lat="43.94089" lon="5.18285">
        <ele>585.3</ele>
        <time>2018-03-18T12:34:39.999Z</time>
      </trkpt>
      <trkpt lat="43.9409" lon="5.18284">
        <ele>585.3</ele>
        <time>2018-03-18T12:34:40.999Z</time>
      </trkpt>
      <trkpt lat="43.94095" lon="5.18283">
        <ele>586</ele>
        <time>2018-03-18T12:34:49.999Z</time>
      </trkpt>
      <trkpt lat="43.94096" lon="5.18283">
        <ele>586.2</ele>
        <time>2018-03-18T12:34:50.999Z</time>
      </trkpt>
      <trkpt lat="43.94104" lon="5.18282">
        <ele>588.1</ele>
        <time>2018-03-18T12:35:00.999Z</time>
      </trkpt>
      <trkpt lat="43.94105" lon="5.18281">
        <ele>588.2</ele>
        <time>2018-03-18T12:35:01.999Z</time>
      </trkpt>
      <trkpt lat="43.94113" lon="5.1828">
        <ele>589.8</ele>
        <time>2018-03-18T12:35:12.999Z</time>
      </trkpt>
      <trkpt lat="43.94114" lon="5.18279">
        <ele>589.9</ele>
        <time>2018-03-18T12:35:13.999Z</time>
      </trkpt>
      <trkpt lat="43.94122" lon="5.18275">
        <ele>591</ele>
        <time>2018-03-18T12:35:23.999Z</time>
      </trkpt>
      <trkpt lat="43.94123" lon="5.18275">
        <ele>591.1</ele>
        <time>2018-03-18T12:35:24.999Z</time>
      </trkpt>
      <trkpt lat="43.94131" lon="5.18275">
        <ele>592.7</ele>
        <time>2018-03-18T12:35:35.999Z</time>
      </trkpt>
      <trkpt lat="43.94132" lon="5.18275">
        <ele>592.8</ele>
        <time>2018-03-18T12:35:36.999Z</time>
      </trkpt>
      <trkpt lat="43.94141" lon="5.18274">
        <ele>594.2</ele>
        <time>2018-03-18T12:35:48.999Z</time>
      </trkpt>
      <trkpt lat="43.94142" lon="5.18273">
        <ele>594.4</ele>
        <time>2018-03-18T12:35:49.999Z</time>
      </trkpt>
      <trkpt lat="43.9415" lon="5.18273">
        <ele>596.7</ele>
        <time>2018-03-18T12:36:00.999Z</time>
      </trkpt>
      <trkpt lat="43.94151" lon="5.18273">
        <ele>596.9</ele>
        <time>2018-03-18T12:36:01.999Z</time>
      </trkpt>
      <trkpt lat="43.94159" lon="5.18268">
        <ele>598.5</ele>
        <time>2018-03-18T12:36:14.999Z</time>
      </trkpt>
      <trkpt lat="43.94159" lon="5.18268">
        <ele>598.7</ele>
        <time>2018-03-18T12:36:15.999Z</time>
      </trkpt>
      <trkpt lat="43.94167" lon="5.18265">
        <ele>600.1</ele>
        <time>2018-03-18T12:36:28.999Z</time>
      </trkpt>
      <trkpt lat="43.94168" lon="5.18265">
        <ele>600.2</ele>
        <time>2018-03-18T12:36:29.999Z</time>
      </trkpt>
      <trkpt lat="43.94177" lon="5.18261">
        <ele>603.4</ele>
        <time>2018-03-18T12:36:42.999Z</time>
      </trkpt>
      <trkpt lat="43.94177" lon="5.18261">
        <ele>603.7</ele>
        <time>2018-03-18T12:36:43.999Z</time>
      </trkpt>
      <trkpt lat="43.94177" lon="5.18261">
        <ele>603.7</ele>
        <time>2018-03-18T12:36:44.999Z</time>
      </trkpt>
      <trkpt lat="43.94179" lon="5.1826">
        <ele>604.2</ele>
        <time>2018-03-18T12:36:46.999Z</time>
      </trkpt>
      <trkpt lat="43.9418" lon="5.18259">
        <ele>604.3</ele>
        <time>2018-03-18T12:36:47.999Z</time>
      </trkpt>
      <trkpt lat="43.94186" lon="5.1825">
        <ele>606.9</ele>
        <time>2018-03-18T12:36:54.999Z</time>
      </trkpt>
      <trkpt lat="43.94187" lon="5.18249">
        <ele>607.3</ele>
        <time>2018-03-18T12:36:55.999Z</time>
      </trkpt>
      <trkpt lat="43.94182" lon="5.18239">
        <ele>612.6</ele>
        <time>2018-03-18T12:37:25.999Z</time>
      </trkpt>
      <trkpt lat="43.94179" lon="5.18239">
        <ele>612.8</ele>
        <time>2018-03-18T12:37:26.999Z</time>
      </trkpt>
      <trkpt lat="43.94173" lon="5.18248">
        <ele>614.3</ele>
        <time>2018-03-18T12:38:00.999Z</time>
      </trkpt>
      <trkpt lat="43.94172" lon="5.18247">
        <ele>614.3</ele>
        <time>2018-03-18T12:38:01.999Z</time>
      </trkpt>
      <trkpt lat="43.94165" lon="5.18242">
        <ele>614.1</ele>
        <time>2018-03-18T12:38:05.999Z</time>
      </trkpt>
      <trkpt lat="43.94163" lon="5.18241">
        <ele>566.4</ele>
        <time>2018-03-18T12:38:05.371Z</time>
      </trkpt>
      <trkpt lat="43.94156" lon="5.18237">
        <ele>565.7</ele>
        <time>2018-03-18T12:38:10.387Z</time>
      </trkpt>
      <trkpt lat="43.94155" lon="5.18237">
        <ele>612.7</ele>
        <time>2018-03-18T12:38:11.999Z</time>
      </trkpt>
      <trkpt lat="43.94146" lon="5.18238">
        <ele>609.1</ele>
        <time>2018-03-18T12:38:54.999Z</time>
      </trkpt>
      <trkpt lat="43.94145" lon="5.18237">
        <ele>608.9</ele>
        <time>2018-03-18T12:38:55.999Z</time>
      </trkpt>
      <trkpt lat="43.94136" lon="5.18239">
        <ele>607</ele>
        <time>2018-03-18T12:39:03.999Z</time>
      </trkpt>
      <trkpt lat="43.94135" lon="5.1824">
        <ele>606.7</ele>
        <time>2018-03-18T12:39:04.999Z</time>
      </trkpt>
      <trkpt lat="43.94127" lon="5.18243">
        <ele>605.1</ele>
        <time>2018-03-18T12:39:13.999Z</time>
      </trkpt>
      <trkpt lat="43.94125" lon="5.18244">
        <ele>604.9</ele>
        <time>2018-03-18T12:39:14.999Z</time>
      </trkpt>
      <trkpt lat="43.94117" lon="5.1824">
        <ele>604.3</ele>
        <time>2018-03-18T12:39:19.999Z</time>
      </trkpt>
      <trkpt lat="43.94116" lon="5.18239">
        <ele>604.2</ele>
        <time>2018-03-18T12:39:20.999Z</time>
      </trkpt>
      <trkpt lat="43.94112" lon="5.18237">
        <ele>604</ele>
        <time>2018-03-18T12:39:24.999Z</time>
      </trkpt>
      <trkpt lat="43.94111" lon="5.18237">
        <ele>603.9</ele>
        <time>2018-03-18T12:39:25.999Z</time>
      </trkpt>
      <trkpt lat="43.94105" lon="5.18236">
        <ele>604</ele>
        <time>2018-03-18T12:39:28.999Z</time>
      </trkpt>
      <trkpt lat="43.94104" lon="5.18235">
        <ele>604.1</ele>
        <time>2018-03-18T12:39:29.999Z</time>
      </trkpt>
      <trkpt lat="43.94101" lon="5.18235">
        <ele>604.2</ele>
        <time>2018-03-18T12:39:32.999Z</time>
      </trkpt>
      <trkpt lat="43.94098" lon="5.18235">
        <ele>604.2</ele>
        <time>2018-03-18T12:39:33.999Z</time>
      </trkpt>
      <trkpt lat="43.94094" lon="5.18236">
        <ele>604.4</ele>
        <time>2018-03-18T12:39:35.999Z</time>
      </trkpt>
      <trkpt lat="43.94092" lon="5.18236">
        <ele>604.4</ele>
        <time>2018-03-18T12:39:36.999Z</time>
      </trkpt>
      <trkpt lat="43.94084" lon="5.18234">
        <ele>605.5</ele>
        <time>2018-03-18T12:39:43.999Z</time>
      </trkpt>
      <trkpt lat="43.94083" lon="5.18234">
        <ele>605.5</ele>
        <time>2018-03-18T12:39:44.999Z</time>
      </trkpt>
      <trkpt lat="43.94075" lon="5.18232">
        <ele>605.9</ele>
        <time>2018-03-18T12:39:53.999Z</time>
      </trkpt>
      <trkpt lat="43.94073" lon="5.18232">
        <ele>605.9</ele>
        <time>2018-03-18T12:39:54.999Z</time>
      </trkpt>
      <trkpt lat="43.94065" lon="5.18233">
        <ele>605.3</ele>
        <time>2018-03-18T12:40:00.999Z</time>
      </trkpt>
      <trkpt lat="43.94063" lon="5.18233">
        <ele>605.1</ele>
        <time>2018-03-18T12:40:01.999Z</time>
      </trkpt>
      <trkpt lat="43.94055" lon="5.18234">
        <ele>604.5</ele>
        <time>2018-03-18T12:40:07.999Z</time>
      </trkpt>
      <trkpt lat="43.94053" lon="5.18235">
        <ele>604.5</ele>
        <time>2018-03-18T12:40:08.999Z</time>
      </trkpt>
      <trkpt lat="43.94046" lon="5.1824">
        <ele>604.9</ele>
        <time>2018-03-18T12:40:12.999Z</time>
      </trkpt>
      <trkpt lat="43.94045" lon="5.18241">
        <ele>605</ele>
        <time>2018-03-18T12:40:13.999Z</time>
      </trkpt>
      <trkpt lat="43.94043" lon="5.18243">
        <ele>605.1</ele>
        <time>2018-03-18T12:40:15.999Z</time>
      </trkpt>
      <trkpt lat="43.94042" lon="5.18243">
        <ele>605.1</ele>
        <time>2018-03-18T12:40:16.999Z</time>
      </trkpt>
      <trkpt lat="43.9404" lon="5.18245">
        <ele>605</ele>
        <time>2018-03-18T12:40:21.999Z</time>
      </trkpt>
      <trkpt lat="43.94039" lon="5.18245">
        <ele>605</ele>
        <time>2018-03-18T12:40:22.999Z</time>
      </trkpt>
      <trkpt lat="43.94032" lon="5.1825">
        <ele>605.3</ele>
        <time>2018-03-18T12:40:29.999Z</time>
      </trkpt>
      <trkpt lat="43.9403" lon="5.18251">
        <ele>605.3</ele>
        <time>2018-03-18T12:40:30.999Z</time>
      </trkpt>
      <trkpt lat="43.94022" lon="5.18256">
        <ele>605.3</ele>
        <time>2018-03-18T12:40:35.999Z</time>
      </trkpt>
      <trkpt lat="43.94021" lon="5.18256">
        <ele>605.3</ele>
        <time>2018-03-18T12:40:36.999Z</time>
      </trkpt>
      <trkpt lat="43.94017" lon="5.18257">
        <ele>605.4</ele>
        <time>2018-03-18T12:40:39.999Z</time>
      </trkpt>
      <trkpt lat="43.94017" lon="5.18257">
        <ele>605.4</ele>
        <time>2018-03-18T12:40:40.999Z</time>
      </trkpt>
      <trkpt lat="43.9401" lon="5.18258">
        <ele>605.3</ele>
        <time>2018-03-18T12:40:45.999Z</time>
      </trkpt>
      <trkpt lat="43.94009" lon="5.18258">
        <ele>605.3</ele>
        <time>2018-03-18T12:40:46.999Z</time>
      </trkpt>
      <trkpt lat="43.94007" lon="5.18255">
        <ele>605.5</ele>
        <time>2018-03-18T12:40:50.999Z</time>
      </trkpt>
      <trkpt lat="43.94006" lon="5.18254">
        <ele>605.5</ele>
        <time>2018-03-18T12:40:51.999Z</time>
      </trkpt>
      <trkpt lat="43.94001" lon="5.18252">
        <ele>605.4</ele>
        <time>2018-03-18T12:40:55.999Z</time>
      </trkpt>
      <trkpt lat="43.94" lon="5.18253">
        <ele>605.3</ele>
        <time>2018-03-18T12:40:56.999Z</time>
      </trkpt>
      <trkpt lat="43.93993" lon="5.18256">
        <ele>604.8</ele>
        <time>2018-03-18T12:41:02.999Z</time>
      </trkpt>
      <trkpt lat="43.93992" lon="5.18256">
        <ele>604.7</ele>
        <time>2018-03-18T12:41:03.999Z</time>
      </trkpt>
      <trkpt lat="43.93989" lon="5.18257">
        <ele>604.6</ele>
        <time>2018-03-18T12:41:09.999Z</time>
      </trkpt>
      <trkpt lat="43.93988" lon="5.18257">
        <ele>604.6</ele>
        <time>2018-03-18T12:41:10.999Z</time>
      </trkpt>
      <trkpt lat="43.9398" lon="5.18257">
        <ele>606.2</ele>
        <time>2018-03-18T12:41:22.999Z</time>
      </trkpt>
      <trkpt lat="43.9398" lon="5.18256">
        <ele>606.2</ele>
        <time>2018-03-18T12:41:23.999Z</time>
      </trkpt>
      <trkpt lat="43.93974" lon="5.18254">
        <ele>606.2</ele>
        <time>2018-03-18T12:41:28.999Z</time>
      </trkpt>
      <trkpt lat="43.93974" lon="5.18254">
        <ele>606.1</ele>
        <time>2018-03-18T12:41:29.999Z</time>
      </trkpt>
      <trkpt lat="43.93965" lon="5.18253">
        <ele>604.9</ele>
        <time>2018-03-18T12:41:36.999Z</time>
      </trkpt>
      <trkpt lat="43.93963" lon="5.18253">
        <ele>604.8</ele>
        <time>2018-03-18T12:41:37.999Z</time>
      </trkpt>
      <trkpt lat="43.93955" lon="5.18249">
        <ele>602</ele>
        <time>2018-03-18T12:41:46.999Z</time>
      </trkpt>
      <trkpt lat="43.93954" lon="5.18248">
        <ele>601.7</ele>
        <time>2018-03-18T12:41:47.999Z</time>
      </trkpt>
      <trkpt lat="43.93951" lon="5.18248">
        <ele>600.8</ele>
        <time>2018-03-18T12:41:50.999Z</time>
      </trkpt>
      <trkpt lat="43.9395" lon="5.18248">
        <ele>600.8</ele>
        <time>2018-03-18T12:41:51.999Z</time>
      </trkpt>
      <trkpt lat="43.93948" lon="5.18249">
        <ele>600.3</ele>
        <time>2018-03-18T12:41:53.999Z</time>
      </trkpt>
      <trkpt lat="43.93947" lon="5.18249">
        <ele>600.2</ele>
        <time>2018-03-18T12:41:54.999Z</time>
      </trkpt>
      <trkpt lat="43.93939" lon="5.1825">
        <ele>599.3</ele>
        <time>2018-03-18T12:42:00.999Z</time>
      </trkpt>
      <trkpt lat="43.93937" lon="5.1825">
        <ele>599.3</ele>
        <time>2018-03-18T12:42:01.999Z</time>
      </trkpt>
      <trkpt lat="43.93928" lon="5.18252">
        <ele>599.3</ele>
        <time>2018-03-18T12:42:07.999Z</time>
      </trkpt>
      <trkpt lat="43.93927" lon="5.18252">
        <ele>599.2</ele>
        <time>2018-03-18T12:42:08.999Z</time>
      </trkpt>
      <trkpt lat="43.93923" lon="5.18254">
        <ele>562.7</ele>
        <time>2018-03-18T12:42:14.430Z</time>
      </trkpt>
      <trkpt lat="43.93922" lon="5.18254">
        <ele>598</ele>
        <time>2018-03-18T12:42:15.999Z</time>
      </trkpt>
      <trkpt lat="43.93914" lon="5.18256">
        <ele>596.6</ele>
        <time>2018-03-18T12:42:27.999Z</time>
      </trkpt>
      <trkpt lat="43.93912" lon="5.18257">
        <ele>596.6</ele>
        <time>2018-03-18T12:42:28.999Z</time>
      </trkpt>
      <trkpt lat="43.93906" lon="5.18255">
        <ele>595.6</ele>
        <time>2018-03-18T12:42:35.999Z</time>
      </trkpt>
      <trkpt lat="43.93902" lon="5.18254">
        <ele>595.4</ele>
        <time>2018-03-18T12:42:36.999Z</time>
      </trkpt>
      <trkpt lat="43.93893" lon="5.1825">
        <ele>594</ele>
        <time>2018-03-18T12:42:43.999Z</time>
      </trkpt>
      <trkpt lat="43.93893" lon="5.1825">
        <ele>593.9</ele>
        <time>2018-03-18T12:42:44.999Z</time>
      </trkpt>
      <trkpt lat="43.93892" lon="5.18249">
        <ele>562.3</ele>
        <time>2018-03-18T12:42:44.911Z</time>
      </trkpt>
      <trkpt lat="43.93892" lon="5.18249">
        <ele>593.8</ele>
        <time>2018-03-18T12:42:45.999Z</time>
      </trkpt>
      <trkpt lat="43.9389" lon="5.18247">
        <ele>593.6</ele>
        <time>2018-03-18T12:42:48.999Z</time>
      </trkpt>
      <trkpt lat="43.93888" lon="5.18246">
        <ele>593.5</ele>
        <time>2018-03-18T12:42:49.999Z</time>
      </trkpt>
      <trkpt lat="43.9388" lon="5.18246">
        <ele>592.9</ele>
        <time>2018-03-18T12:42:53.999Z</time>
      </trkpt>
      <trkpt lat="43.93878" lon="5.18246">
        <ele>592.9</ele>
        <time>2018-03-18T12:42:54.999Z</time>
      </trkpt>
      <trkpt lat="43.9387" lon="5.18243">
        <ele>592.3</ele>
        <time>2018-03-18T12:43:00.999Z</time>
      </trkpt>
      <trkpt lat="43.93868" lon="5.18243">
        <ele>592.3</ele>
        <time>2018-03-18T12:43:01.999Z</time>
      </trkpt>
      <trkpt lat="43.93866" lon="5.18242">
        <ele>592.2</ele>
        <time>2018-03-18T12:43:03.999Z</time>
      </trkpt>
      <trkpt lat="43.93865" lon="5.18242">
        <ele>592.3</ele>
        <time>2018-03-18T12:43:04.999Z</time>
      </trkpt>
      <trkpt lat="43.93859" lon="5.18241">
        <ele>593.1</ele>
        <time>2018-03-18T12:43:11.999Z</time>
      </trkpt>
      <trkpt lat="43.93858" lon="5.1824">
        <ele>593.3</ele>
        <time>2018-03-18T12:43:12.999Z</time>
      </trkpt>
      <trkpt lat="43.9385" lon="5.18238">
        <ele>594.4</ele>
        <time>2018-03-18T12:43:18.999Z</time>
      </trkpt>
      <trkpt lat="43.93849" lon="5.18238">
        <ele>594.6</ele>
        <time>2018-03-18T12:43:19.999Z</time>
      </trkpt>
      <trkpt lat="43.93848" lon="5.18238">
        <ele>594.8</ele>
        <time>2018-03-18T12:43:20.999Z</time>
      </trkpt>
      <trkpt lat="43.93845" lon="5.18238">
        <ele>595.1</ele>
        <time>2018-03-18T12:43:22.999Z</time>
      </trkpt>
      <trkpt lat="43.93844" lon="5.18237">
        <ele>595.2</ele>
        <time>2018-03-18T12:43:23.999Z</time>
      </trkpt>
      <trkpt lat="43.93835" lon="5.18235">
        <ele>595.9</ele>
        <time>2018-03-18T12:43:29.999Z</time>
      </trkpt>
      <trkpt lat="43.93834" lon="5.18235">
        <ele>554.6</ele>
        <time>2018-03-18T12:43:29.733Z</time>
      </trkpt>
      <trkpt lat="43.93826" lon="5.18231">
        <ele>596.9</ele>
        <time>2018-03-18T12:43:35.999Z</time>
      </trkpt>
      <trkpt lat="43.93825" lon="5.18231">
        <ele>597</ele>
        <time>2018-03-18T12:43:36.999Z</time>
      </trkpt>
      <trkpt lat="43.93817" lon="5.1823">
        <ele>597.9</ele>
        <time>2018-03-18T12:43:44.999Z</time>
      </trkpt>
      <trkpt lat="43.93816" lon="5.18229">
        <ele>552.8</ele>
        <time>2018-03-18T12:43:44.167Z</time>
      </trkpt>
      <trkpt lat="43.93808" lon="5.18225">
        <ele>598.1</ele>
        <time>2018-03-18T12:43:51.999Z</time>
      </trkpt>
      <trkpt lat="43.93805" lon="5.18225">
        <ele>597.9</ele>
        <time>2018-03-18T12:43:52.999Z</time>
      </trkpt>
      <trkpt lat="43.93804" lon="5.18225">
        <ele>597.8</ele>
        <time>2018-03-18T12:43:53.999Z</time>
      </trkpt>
      <trkpt lat="43.93803" lon="5.18224">
        <ele>597.4</ele>
        <time>2018-03-18T12:43:55.999Z</time>
      </trkpt>
      <trkpt lat="43.93799" lon="5.18223">
        <ele>596.9</ele>
        <time>2018-03-18T12:44:04.999Z</time>
      </trkpt>
      <trkpt lat="43.93792" lon="5.18222">
        <ele>596.9</ele>
        <time>2018-03-18T12:44:06.999Z</time>
      </trkpt>
      <trkpt lat="43.93789" lon="5.18221">
        <ele>596.8</ele>
        <time>2018-03-18T12:44:07.999Z</time>
      </trkpt>
      <trkpt lat="43.93782" lon="5.1822">
        <ele>596.5</ele>
        <time>2018-03-18T12:44:11.999Z</time>
      </trkpt>
      <trkpt lat="43.93782" lon="5.1822">
        <ele>596.5</ele>
        <time>2018-03-18T12:44:12.999Z</time>
      </trkpt>
      <trkpt lat="43.93775" lon="5.18223">
        <ele>549.9</ele>
        <time>2018-03-18T12:44:15.406Z</time>
      </trkpt>
      <trkpt lat="43.93774" lon="5.18223">
        <ele>596.5</ele>
        <time>2018-03-18T12:44:15.999Z</time>
      </trkpt>
      <trkpt lat="43.93765" lon="5.18223">
        <ele>596.7</ele>
        <time>2018-03-18T12:44:21.999Z</time>
      </trkpt>
      <trkpt lat="43.93763" lon="5.18223">
        <ele>596.6</ele>
        <time>2018-03-18T12:44:22.999Z</time>
      </trkpt>
      <trkpt lat="43.93755" lon="5.18219">
        <ele>595.9</ele>
        <time>2018-03-18T12:44:29.999Z</time>
      </trkpt>
      <trkpt lat="43.93754" lon="5.18218">
        <ele>595.8</ele>
        <time>2018-03-18T12:44:30.999Z</time>
      </trkpt>
      <trkpt lat="43.93747" lon="5.18212">
        <ele>594.9</ele>
        <time>2018-03-18T12:44:36.999Z</time>
      </trkpt>
      <trkpt lat="43.93746" lon="5.18211">
        <ele>594.8</ele>
        <time>2018-03-18T12:44:37.999Z</time>
      </trkpt>
      <trkpt lat="43.93739" lon="5.18209">
        <ele>594.2</ele>
        <time>2018-03-18T12:44:45.999Z</time>
      </trkpt>
      <trkpt lat="43.93736" lon="5.18211">
        <ele>594.1</ele>
        <time>2018-03-18T12:44:46.999Z</time>
      </trkpt>
      <trkpt lat="43.9373" lon="5.18212">
        <ele>594</ele>
        <time>2018-03-18T12:44:52.999Z</time>
      </trkpt>
      <trkpt lat="43.93727" lon="5.1821">
        <ele>593.9</ele>
        <time>2018-03-18T12:44:53.999Z</time>
      </trkpt>
      <trkpt lat="43.93718" lon="5.1821">
        <ele>593.9</ele>
        <time>2018-03-18T12:45:00.999Z</time>
      </trkpt>
      <trkpt lat="43.93717" lon="5.1821">
        <ele>593.9</ele>
        <time>2018-03-18T12:45:01.999Z</time>
      </trkpt>
      <trkpt lat="43.93708" lon="5.18211">
        <ele>593.8</ele>
        <time>2018-03-18T12:45:08.999Z</time>
      </trkpt>
      <trkpt lat="43.93706" lon="5.18211">
        <ele>593.7</ele>
        <time>2018-03-18T12:45:09.999Z</time>
      </trkpt>
      <trkpt lat="43.937" lon="5.18212">
        <ele>593.5</ele>
        <time>2018-03-18T12:45:13.999Z</time>
      </trkpt>
      <trkpt lat="43.93697" lon="5.18212">
        <ele>593.4</ele>
        <time>2018-03-18T12:45:14.999Z</time>
      </trkpt>
      <trkpt lat="43.93689" lon="5.18213">
        <ele>593.3</ele>
        <time>2018-03-18T12:45:19.999Z</time>
      </trkpt>
      <trkpt lat="43.93687" lon="5.18213">
        <ele>593.3</ele>
        <time>2018-03-18T12:45:20.999Z</time>
      </trkpt>
      <trkpt lat="43.93686" lon="5.18214">
        <ele>593.3</ele>
        <time>2018-03-18T12:45:21.999Z</time>
      </trkpt>
      <trkpt lat="43.93686" lon="5.18214">
        <ele>593.2</ele>
        <time>2018-03-18T12:45:22.999Z</time>
      </trkpt>
      <trkpt lat="43.93678" lon="5.18214">
        <ele>593.2</ele>
        <time>2018-03-18T12:45:31.999Z</time>
      </trkpt>
      <trkpt lat="43.93675" lon="5.18214">
        <ele>593.2</ele>
        <time>2018-03-18T12:45:32.999Z</time>
      </trkpt>
      <trkpt lat="43.93667" lon="5.18213">
        <ele>539.3</ele>
        <time>2018-03-18T12:45:40.759Z</time>
      </trkpt>
      <trkpt lat="43.93666" lon="5.18213">
        <ele>592.7</ele>
        <time>2018-03-18T12:45:40.999Z</time>
      </trkpt>
      <trkpt lat="43.93665" lon="5.18212">
        <ele>592.5</ele>
        <time>2018-03-18T12:45:41.999Z</time>
      </trkpt>
      <trkpt lat="43.93657" lon="5.1821">
        <ele>590.6</ele>
        <time>2018-03-18T12:45:51.999Z</time>
      </trkpt>
      <trkpt lat="43.93656" lon="5.18209">
        <ele>590.3</ele>
        <time>2018-03-18T12:45:52.999Z</time>
      </trkpt>
      <trkpt lat="43.93647" lon="5.18207">
        <ele>589</ele>
        <time>2018-03-18T12:45:57.999Z</time>
      </trkpt>
      <trkpt lat="43.93646" lon="5.18206">
        <ele>588.8</ele>
        <time>2018-03-18T12:45:58.999Z</time>
      </trkpt>
      <trkpt lat="43.93639" lon="5.18202">
        <ele>588.2</ele>
        <time>2018-03-18T12:46:04.999Z</time>
      </trkpt>
      <trkpt lat="43.93637" lon="5.18201">
        <ele>588.1</ele>
        <time>2018-03-18T12:46:05.999Z</time>
      </trkpt>
      <trkpt lat="43.93629" lon="5.18199">
        <ele>587.9</ele>
        <time>2018-03-18T12:46:09.999Z</time>
      </trkpt>
      <trkpt lat="43.93628" lon="5.18199">
        <ele>587.8</ele>
        <time>2018-03-18T12:46:10.999Z</time>
      </trkpt>
      <trkpt lat="43.9362" lon="5.18197">
        <ele>586.6</ele>
        <time>2018-03-18T12:46:16.999Z</time>
      </trkpt>
      <trkpt lat="43.93619" lon="5.18197">
        <ele>586.4</ele>
        <time>2018-03-18T12:46:17.999Z</time>
      </trkpt>
      <trkpt lat="43.9361" lon="5.18192">
        <ele>584.8</ele>
        <time>2018-03-18T12:46:26.999Z</time>
      </trkpt>
      <trkpt lat="43.93608" lon="5.18192">
        <ele>584.2</ele>
        <time>2018-03-18T12:46:28.999Z</time>
      </trkpt>
      <trkpt lat="43.936" lon="5.18193">
        <ele>582.6</ele>
        <time>2018-03-18T12:46:34.999Z</time>
      </trkpt>
      <trkpt lat="43.93598" lon="5.18193">
        <ele>582.2</ele>
        <time>2018-03-18T12:46:35.999Z</time>
      </trkpt>
      <trkpt lat="43.93591" lon="5.18189">
        <ele>580.9</ele>
        <time>2018-03-18T12:46:40.999Z</time>
      </trkpt>
      <trkpt lat="43.93589" lon="5.18188">
        <ele>580.7</ele>
        <time>2018-03-18T12:46:41.999Z</time>
      </trkpt>
      <trkpt lat="43.93581" lon="5.18185">
        <ele>579.1</ele>
        <time>2018-03-18T12:46:49.999Z</time>
      </trkpt>
      <trkpt lat="43.9358" lon="5.18185">
        <ele>579</ele>
        <time>2018-03-18T12:46:50.999Z</time>
      </trkpt>
      <trkpt lat="43.93572" lon="5.18184">
        <ele>577</ele>
        <time>2018-03-18T12:47:01.999Z</time>
      </trkpt>
      <trkpt lat="43.93571" lon="5.18184">
        <ele>576.9</ele>
        <time>2018-03-18T12:47:02.999Z</time>
      </trkpt>
      <trkpt lat="43.93563" lon="5.18184">
        <ele>575.6</ele>
        <time>2018-03-18T12:47:10.999Z</time>
      </trkpt>
      <trkpt lat="43.93561" lon="5.18184">
        <ele>575.4</ele>
        <time>2018-03-18T12:47:11.999Z</time>
      </trkpt>
      <trkpt lat="43.93556" lon="5.18182">
        <ele>574.4</ele>
        <time>2018-03-18T12:47:16.999Z</time>
      </trkpt>
      <trkpt lat="43.93556" lon="5.18182">
        <ele>574.4</ele>
        <time>2018-03-18T12:47:17.999Z</time>
      </trkpt>
      <trkpt lat="43.93551" lon="5.18178">
        <ele>571.6</ele>
        <time>2018-03-18T12:47:26.999Z</time>
      </trkpt>
      <trkpt lat="43.93551" lon="5.18177">
        <ele>571.1</ele>
        <time>2018-03-18T12:47:27.999Z</time>
      </trkpt>
      <trkpt lat="43.93549" lon="5.18174">
        <ele>570.3</ele>
        <time>2018-03-18T12:47:29.999Z</time>
      </trkpt>
      <trkpt lat="43.93549" lon="5.18174">
        <ele>569.9</ele>
        <time>2018-03-18T12:47:30.999Z</time>
      </trkpt>
      <trkpt lat="43.93551" lon="5.18164">
        <ele>568.5</ele>
        <time>2018-03-18T12:47:37.999Z</time>
      </trkpt>
      <trkpt lat="43.9355" lon="5.18162">
        <ele>568.4</ele>
        <time>2018-03-18T12:47:38.999Z</time>
      </trkpt>
      <trkpt lat="43.93549" lon="5.18152">
        <ele>569.2</ele>
        <time>2018-03-18T12:47:49.999Z</time>
      </trkpt>
      <trkpt lat="43.93549" lon="5.18151">
        <ele>569.5</ele>
        <time>2018-03-18T12:47:50.999Z</time>
      </trkpt>
      <trkpt lat="43.93545" lon="5.18141">
        <ele>570.7</ele>
        <time>2018-03-18T12:47:59.999Z</time>
      </trkpt>
      <trkpt lat="43.93544" lon="5.18139">
        <ele>570.9</ele>
        <time>2018-03-18T12:48:00.999Z</time>
      </trkpt>
      <trkpt lat="43.93542" lon="5.18128">
        <ele>571.5</ele>
        <time>2018-03-18T12:48:05.999Z</time>
      </trkpt>
      <trkpt lat="43.93541" lon="5.18126">
        <ele>571.5</ele>
        <time>2018-03-18T12:48:06.999Z</time>
      </trkpt>
      <trkpt lat="43.93535" lon="5.18118">
        <ele>572</ele>
        <time>2018-03-18T12:48:13.999Z</time>
      </trkpt>
      <trkpt lat="43.93533" lon="5.18116">
        <ele>572.2</ele>
        <time>2018-03-18T12:48:14.999Z</time>
      </trkpt>
      <trkpt lat="43.93532" lon="5.18105">
        <ele>572.8</ele>
        <time>2018-03-18T12:48:20.999Z</time>
      </trkpt>
      <trkpt lat="43.93532" lon="5.18103">
        <ele>572.9</ele>
        <time>2018-03-18T12:48:21.999Z</time>
      </trkpt>
      <trkpt lat="43.93532" lon="5.1809">
        <ele>573.1</ele>
        <time>2018-03-18T12:48:27.999Z</time>
      </trkpt>
      <trkpt lat="43.93532" lon="5.1809">
        <ele>573.1</ele>
        <time>2018-03-18T12:48:28.999Z</time>
      </trkpt>
      <trkpt lat="43.93524" lon="5.18085">
        <ele>573.1</ele>
        <time>2018-03-18T12:48:35.999Z</time>
      </trkpt>
      <trkpt lat="43.93524" lon="5.18084">
        <ele>573.1</ele>
        <time>2018-03-18T12:48:36.999Z</time>
      </trkpt>
      <trkpt lat="43.93516" lon="5.18078">
        <ele>573.4</ele>
        <time>2018-03-18T12:48:45.999Z</time>
      </trkpt>
      <trkpt lat="43.93516" lon="5.18077">
        <ele>573.4</ele>
        <time>2018-03-18T12:48:46.999Z</time>
      </trkpt>
      <trkpt lat="43.93509" lon="5.18072">
        <ele>573.3</ele>
        <time>2018-03-18T12:48:53.999Z</time>
      </trkpt>
      <trkpt lat="43.93507" lon="5.18072">
        <ele>573.1</ele>
        <time>2018-03-18T12:48:54.999Z</time>
      </trkpt>
      <trkpt lat="43.93499" lon="5.18068">
        <ele>572.4</ele>
        <time>2018-03-18T12:48:59.999Z</time>
      </trkpt>
      <trkpt lat="43.93497" lon="5.18068">
        <ele>572.2</ele>
        <time>2018-03-18T12:49:00.999Z</time>
      </trkpt>
      <trkpt lat="43.93489" lon="5.18061">
        <ele>571.2</ele>
        <time>2018-03-18T12:49:07.999Z</time>
      </trkpt>
      <trkpt lat="43.93489" lon="5.1806">
        <ele>571.2</ele>
        <time>2018-03-18T12:49:08.999Z</time>
      </trkpt>
      <trkpt lat="43.93483" lon="5.18053">
        <ele>570.9</ele>
        <time>2018-03-18T12:49:16.999Z</time>
      </trkpt>
      <trkpt lat="43.93482" lon="5.18052">
        <ele>570.9</ele>
        <time>2018-03-18T12:49:17.999Z</time>
      </trkpt>
      <trkpt lat="43.93479" lon="5.18048">
        <ele>570.9</ele>
        <time>2018-03-18T12:49:20.999Z</time>
      </trkpt>
      <trkpt lat="43.93478" lon="5.18048">
        <ele>570.8</ele>
        <time>2018-03-18T12:49:21.999Z</time>
      </trkpt>
      <trkpt lat="43.93476" lon="5.18046">
        <ele>570.7</ele>
        <time>2018-03-18T12:49:23.999Z</time>
      </trkpt>
      <trkpt lat="43.93474" lon="5.18045">
        <ele>570.7</ele>
        <time>2018-03-18T12:49:24.999Z</time>
      </trkpt>
      <trkpt lat="43.93468" lon="5.18039">
        <ele>571.2</ele>
        <time>2018-03-18T12:49:30.999Z</time>
      </trkpt>
      <trkpt lat="43.93466" lon="5.18036">
        <ele>571.3</ele>
        <time>2018-03-18T12:49:31.999Z</time>
      </trkpt>
      <trkpt lat="43.93464" lon="5.18033">
        <ele>571.3</ele>
        <time>2018-03-18T12:49:33.999Z</time>
      </trkpt>
      <trkpt lat="43.93464" lon="5.18033">
        <ele>571.3</ele>
        <time>2018-03-18T12:49:34.999Z</time>
      </trkpt>
      <trkpt lat="43.93462" lon="5.18029">
        <ele>571.2</ele>
        <time>2018-03-18T12:49:38.999Z</time>
      </trkpt>
      <trkpt lat="43.93461" lon="5.18028">
        <ele>571.1</ele>
        <time>2018-03-18T12:49:39.999Z</time>
      </trkpt>
      <trkpt lat="43.93455" lon="5.18019">
        <ele>570.6</ele>
        <time>2018-03-18T12:49:44.999Z</time>
      </trkpt>
      <trkpt lat="43.93454" lon="5.18017">
        <ele>570.5</ele>
        <time>2018-03-18T12:49:45.999Z</time>
      </trkpt>
      <trkpt lat="43.93446" lon="5.18012">
        <ele>570.3</ele>
        <time>2018-03-18T12:49:51.999Z</time>
      </trkpt>
      <trkpt lat="43.93445" lon="5.18012">
        <ele>570.3</ele>
        <time>2018-03-18T12:49:52.999Z</time>
      </trkpt>
      <trkpt lat="43.93437" lon="5.18014">
        <ele>569.1</ele>
        <time>2018-03-18T12:49:58.999Z</time>
      </trkpt>
      <trkpt lat="43.93436" lon="5.18016">
        <ele>569</ele>
        <time>2018-03-18T12:49:59.999Z</time>
      </trkpt>
      <trkpt lat="43.9343" lon="5.18023">
        <ele>568.3</ele>
        <time>2018-03-18T12:50:03.999Z</time>
      </trkpt>
      <trkpt lat="43.93429" lon="5.18024">
        <ele>568.1</ele>
        <time>2018-03-18T12:50:04.999Z</time>
      </trkpt>
      <trkpt lat="43.93422" lon="5.1803">
        <ele>567.3</ele>
        <time>2018-03-18T12:50:09.999Z</time>
      </trkpt>
      <trkpt lat="43.93421" lon="5.18032">
        <ele>567.1</ele>
        <time>2018-03-18T12:50:10.999Z</time>
      </trkpt>
      <trkpt lat="43.93416" lon="5.18041">
        <ele>565.5</ele>
        <time>2018-03-18T12:50:16.999Z</time>
      </trkpt>
      <trkpt lat="43.93416" lon="5.18042">
        <ele>565.3</ele>
        <time>2018-03-18T12:50:17.999Z</time>
      </trkpt>
      <trkpt lat="43.93411" lon="5.1805">
        <ele>564.2</ele>
        <time>2018-03-18T12:50:22.999Z</time>
      </trkpt>
      <trkpt lat="43.9341" lon="5.18051">
        <ele>563.9</ele>
        <time>2018-03-18T12:50:23.999Z</time>
      </trkpt>
      <trkpt lat="43.93403" lon="5.18056">
        <ele>563.1</ele>
        <time>2018-03-18T12:50:28.999Z</time>
      </trkpt>
      <trkpt lat="43.93402" lon="5.18058">
        <ele>562.8</ele>
        <time>2018-03-18T12:50:29.999Z</time>
      </trkpt>
      <trkpt lat="43.93396" lon="5.18064">
        <ele>562.1</ele>
        <time>2018-03-18T12:50:33.999Z</time>
      </trkpt>
      <trkpt lat="43.93394" lon="5.18066">
        <ele>562</ele>
        <time>2018-03-18T12:50:34.999Z</time>
      </trkpt>
      <trkpt lat="43.93386" lon="5.18072">
        <ele>561</ele>
        <time>2018-03-18T12:50:41.999Z</time>
      </trkpt>
      <trkpt lat="43.93385" lon="5.18073">
        <ele>560.7</ele>
        <time>2018-03-18T12:50:42.999Z</time>
      </trkpt>
      <trkpt lat="43.93378" lon="5.18078">
        <ele>558.9</ele>
        <time>2018-03-18T12:50:49.999Z</time>
      </trkpt>
      <trkpt lat="43.93376" lon="5.18078">
        <ele>558.6</ele>
        <time>2018-03-18T12:50:50.999Z</time>
      </trkpt>
      <trkpt lat="43.93368" lon="5.18083">
        <ele>557</ele>
        <time>2018-03-18T12:50:57.999Z</time>
      </trkpt>
      <trkpt lat="43.93367" lon="5.18084">
        <ele>556.7</ele>
        <time>2018-03-18T12:50:58.999Z</time>
      </trkpt>
      <trkpt lat="43.93361" lon="5.18092">
        <ele>555</ele>
        <time>2018-03-18T12:51:06.999Z</time>
      </trkpt>
      <trkpt lat="43.93359" lon="5.18094">
        <ele>554.8</ele>
        <time>2018-03-18T12:51:07.999Z</time>
      </trkpt>
      <trkpt lat="43.93352" lon="5.181">
        <ele>553.6</ele>
        <time>2018-03-18T12:51:11.999Z</time>
      </trkpt>
      <trkpt lat="43.9335" lon="5.18101">
        <ele>553.3</ele>
        <time>2018-03-18T12:51:12.999Z</time>
      </trkpt>
      <trkpt lat="43.93342" lon="5.18104">
        <ele>551.7</ele>
        <time>2018-03-18T12:51:19.999Z</time>
      </trkpt>
      <trkpt lat="43.9334" lon="5.18104">
        <ele>551.5</ele>
        <time>2018-03-18T12:51:20.999Z</time>
      </trkpt>
      <trkpt lat="43.93333" lon="5.18103">
        <ele>550.3</ele>
        <time>2018-03-18T12:51:27.999Z</time>
      </trkpt>
      <trkpt lat="43.93331" lon="5.18103">
        <ele>550.2</ele>
        <time>2018-03-18T12:51:28.999Z</time>
      </trkpt>
      <trkpt lat="43.93323" lon="5.18102">
        <ele>549.4</ele>
        <time>2018-03-18T12:51:36.999Z</time>
      </trkpt>
      <trkpt lat="43.93321" lon="5.181">
        <ele>549.3</ele>
        <time>2018-03-18T12:51:37.999Z</time>
      </trkpt>
      <trkpt lat="43.93312" lon="5.18098">
        <ele>548.6</ele>
        <time>2018-03-18T12:51:42.999Z</time>
      </trkpt>
      <trkpt lat="43.9331" lon="5.18097">
        <ele>548.5</ele>
        <time>2018-03-18T12:51:43.999Z</time>
      </trkpt>
      <trkpt lat="43.93302" lon="5.181">
        <ele>547.3</ele>
        <time>2018-03-18T12:51:49.999Z</time>
      </trkpt>
      <trkpt lat="43.933" lon="5.18101">
        <ele>547.2</ele>
        <time>2018-03-18T12:51:50.999Z</time>
      </trkpt>
      <trkpt lat="43.93293" lon="5.18109">
        <ele>545.9</ele>
        <time>2018-03-18T12:51:58.999Z</time>
      </trkpt>
      <trkpt lat="43.93293" lon="5.18109">
        <ele>545.7</ele>
        <time>2018-03-18T12:51:59.999Z</time>
      </trkpt>
      <trkpt lat="43.93287" lon="5.18113">
        <ele>544.4</ele>
        <time>2018-03-18T12:52:05.999Z</time>
      </trkpt>
      <trkpt lat="43.93285" lon="5.18115">
        <ele>544.2</ele>
        <time>2018-03-18T12:52:06.999Z</time>
      </trkpt>
      <trkpt lat="43.93279" lon="5.18124">
        <ele>543</ele>
        <time>2018-03-18T12:52:12.999Z</time>
      </trkpt>
      <trkpt lat="43.93278" lon="5.18125">
        <ele>542.9</ele>
        <time>2018-03-18T12:52:13.999Z</time>
      </trkpt>
      <trkpt lat="43.93272" lon="5.18133">
        <ele>542.7</ele>
        <time>2018-03-18T12:52:17.999Z</time>
      </trkpt>
      <trkpt lat="43.9327" lon="5.18135">
        <ele>542.7</ele>
        <time>2018-03-18T12:52:18.999Z</time>
      </trkpt>
      <trkpt lat="43.93263" lon="5.18142">
        <ele>542.6</ele>
        <time>2018-03-18T12:52:25.999Z</time>
      </trkpt>
      <trkpt lat="43.93262" lon="5.18144">
        <ele>542.7</ele>
        <time>2018-03-18T12:52:26.999Z</time>
      </trkpt>
      <trkpt lat="43.93254" lon="5.18148">
        <ele>543.1</ele>
        <time>2018-03-18T12:52:31.999Z</time>
      </trkpt>
      <trkpt lat="43.93253" lon="5.18149">
        <ele>543.2</ele>
        <time>2018-03-18T12:52:32.999Z</time>
      </trkpt>
      <trkpt lat="43.93246" lon="5.18156">
        <ele>543.2</ele>
        <time>2018-03-18T12:52:38.999Z</time>
      </trkpt>
      <trkpt lat="43.93245" lon="5.18159">
        <ele>543.1</ele>
        <time>2018-03-18T12:52:39.999Z</time>
      </trkpt>
      <trkpt lat="43.93239" lon="5.18166">
        <ele>542.8</ele>
        <time>2018-03-18T12:52:44.999Z</time>
      </trkpt>
      <trkpt lat="43.93238" lon="5.18167">
        <ele>542.8</ele>
        <time>2018-03-18T12:52:45.999Z</time>
      </trkpt>
      <trkpt lat="43.93232" lon="5.18173">
        <ele>542.6</ele>
        <time>2018-03-18T12:52:51.999Z</time>
      </trkpt>
      <trkpt lat="43.9323" lon="5.18174">
        <ele>542.6</ele>
        <time>2018-03-18T12:52:52.999Z</time>
      </trkpt>
      <trkpt lat="43.93224" lon="5.18183">
        <ele>542.5</ele>
        <time>2018-03-18T12:52:59.999Z</time>
      </trkpt>
      <trkpt lat="43.93223" lon="5.18183">
        <ele>542.4</ele>
        <time>2018-03-18T12:53:00.999Z</time>
      </trkpt>
      <trkpt lat="43.93217" lon="5.18189">
        <ele>542.1</ele>
        <time>2018-03-18T12:53:04.999Z</time>
      </trkpt>
      <trkpt lat="43.93215" lon="5.1819">
        <ele>542</ele>
        <time>2018-03-18T12:53:05.999Z</time>
      </trkpt>
      <trkpt lat="43.93208" lon="5.18195">
        <ele>542</ele>
        <time>2018-03-18T12:53:11.999Z</time>
      </trkpt>
      <trkpt lat="43.93206" lon="5.18196">
        <ele>542</ele>
        <time>2018-03-18T12:53:12.999Z</time>
      </trkpt>
      <trkpt lat="43.932" lon="5.18204">
        <ele>541.7</ele>
        <time>2018-03-18T12:53:19.999Z</time>
      </trkpt>
      <trkpt lat="43.93199" lon="5.18205">
        <ele>541.6</ele>
        <time>2018-03-18T12:53:20.999Z</time>
      </trkpt>
      <trkpt lat="43.93192" lon="5.18213">
        <ele>540.7</ele>
        <time>2018-03-18T12:53:27.999Z</time>
      </trkpt>
      <trkpt lat="43.93191" lon="5.18214">
        <ele>540.5</ele>
        <time>2018-03-18T12:53:28.999Z</time>
      </trkpt>
      <trkpt lat="43.93184" lon="5.18218">
        <ele>539.3</ele>
        <time>2018-03-18T12:53:36.999Z</time>
      </trkpt>
      <trkpt lat="43.93182" lon="5.18219">
        <ele>539.3</ele>
        <time>2018-03-18T12:53:37.999Z</time>
      </trkpt>
      <trkpt lat="43.93175" lon="5.18222">
        <ele>539.5</ele>
        <time>2018-03-18T12:53:44.999Z</time>
      </trkpt>
      <trkpt lat="43.93173" lon="5.18222">
        <ele>539.5</ele>
        <time>2018-03-18T12:53:45.999Z</time>
      </trkpt>
      <trkpt lat="43.93165" lon="5.18225">
        <ele>539.4</ele>
        <time>2018-03-18T12:53:50.999Z</time>
      </trkpt>
      <trkpt lat="43.93163" lon="5.18225">
        <ele>539.4</ele>
        <time>2018-03-18T12:53:51.999Z</time>
      </trkpt>
      <trkpt lat="43.93155" lon="5.1823">
        <ele>539.1</ele>
        <time>2018-03-18T12:53:55.999Z</time>
      </trkpt>
      <trkpt lat="43.93154" lon="5.18231">
        <ele>539</ele>
        <time>2018-03-18T12:53:56.999Z</time>
      </trkpt>
      <trkpt lat="43.93146" lon="5.18232">
        <ele>539.4</ele>
        <time>2018-03-18T12:54:07.999Z</time>
      </trkpt>
      <trkpt lat="43.93143" lon="5.18232">
        <ele>539.5</ele>
        <time>2018-03-18T12:54:08.999Z</time>
      </trkpt>
      <trkpt lat="43.93136" lon="5.18229">
        <ele>539.5</ele>
        <time>2018-03-18T12:54:14.999Z</time>
      </trkpt>
      <trkpt lat="43.93134" lon="5.18229">
        <ele>539.4</ele>
        <time>2018-03-18T12:54:15.999Z</time>
      </trkpt>
      <trkpt lat="43.93128" lon="5.18228">
        <ele>539.3</ele>
        <time>2018-03-18T12:54:20.999Z</time>
      </trkpt>
      <trkpt lat="43.93125" lon="5.18228">
        <ele>539.3</ele>
        <time>2018-03-18T12:54:22.999Z</time>
      </trkpt>
      <trkpt lat="43.93116" lon="5.18228">
        <ele>538.6</ele>
        <time>2018-03-18T12:54:29.999Z</time>
      </trkpt>
      <trkpt lat="43.93115" lon="5.18228">
        <ele>538.4</ele>
        <time>2018-03-18T12:54:30.999Z</time>
      </trkpt>
      <trkpt lat="43.93107" lon="5.18225">
        <ele>537.2</ele>
        <time>2018-03-18T12:54:36.999Z</time>
      </trkpt>
      <trkpt lat="43.93106" lon="5.18225">
        <ele>537.1</ele>
        <time>2018-03-18T12:54:37.999Z</time>
      </trkpt>
      <trkpt lat="43.93098" lon="5.1822">
        <ele>536.2</ele>
        <time>2018-03-18T12:54:42.999Z</time>
      </trkpt>
      <trkpt lat="43.93097" lon="5.18219">
        <ele>536</ele>
        <time>2018-03-18T12:54:43.999Z</time>
      </trkpt>
      <trkpt lat="43.93089" lon="5.18214">
        <ele>535.3</ele>
        <time>2018-03-18T12:54:49.999Z</time>
      </trkpt>
      <trkpt lat="43.93088" lon="5.18214">
        <ele>535.1</ele>
        <time>2018-03-18T12:54:50.999Z</time>
      </trkpt>
      <trkpt lat="43.9308" lon="5.18212">
        <ele>534.8</ele>
        <time>2018-03-18T12:54:56.999Z</time>
      </trkpt>
      <trkpt lat="43.93078" lon="5.18211">
        <ele>534.7</ele>
        <time>2018-03-18T12:54:57.999Z</time>
      </trkpt>
      <trkpt lat="43.93071" lon="5.18211">
        <ele>534</ele>
        <time>2018-03-18T12:55:02.999Z</time>
      </trkpt>
      <trkpt lat="43.93069" lon="5.18211">
        <ele>534</ele>
        <time>2018-03-18T12:55:03.999Z</time>
      </trkpt>
      <trkpt lat="43.93061" lon="5.1821">
        <ele>533.6</ele>
        <time>2018-03-18T12:55:09.999Z</time>
      </trkpt>
      <trkpt lat="43.9306" lon="5.1821">
        <ele>533.5</ele>
        <time>2018-03-18T12:55:10.999Z</time>
      </trkpt>
      <trkpt lat="43.93053" lon="5.1821">
        <ele>532.5</ele>
        <time>2018-03-18T12:55:16.999Z</time>
      </trkpt>
      <trkpt lat="43.93051" lon="5.1821">
        <ele>532.2</ele>
        <time>2018-03-18T12:55:17.999Z</time>
      </trkpt>
      <trkpt lat="43.93043" lon="5.18211">
        <ele>531</ele>
        <time>2018-03-18T12:55:23.999Z</time>
      </trkpt>
      <trkpt lat="43.93042" lon="5.18211">
        <ele>530.7</ele>
        <time>2018-03-18T12:55:24.999Z</time>
      </trkpt>
      <trkpt lat="43.93033" lon="5.18213">
        <ele>527.7</ele>
        <time>2018-03-18T12:55:33.999Z</time>
      </trkpt>
      <trkpt lat="43.93033" lon="5.18213">
        <ele>527.3</ele>
        <time>2018-03-18T12:55:34.999Z</time>
      </trkpt>
      <trkpt lat="43.93024" lon="5.18216">
        <ele>524.4</ele>
        <time>2018-03-18T12:55:43.999Z</time>
      </trkpt>
      <trkpt lat="43.93024" lon="5.18216">
        <ele>524.1</ele>
        <time>2018-03-18T12:55:44.999Z</time>
      </trkpt>
      <trkpt lat="43.93015" lon="5.18219">
        <ele>523.2</ele>
        <time>2018-03-18T12:55:52.999Z</time>
      </trkpt>
      <trkpt lat="43.93014" lon="5.1822">
        <ele>523.1</ele>
        <time>2018-03-18T12:55:53.999Z</time>
      </trkpt>
      <trkpt lat="43.93006" lon="5.18219">
        <ele>522.5</ele>
        <time>2018-03-18T12:56:00.999Z</time>
      </trkpt>
      <trkpt lat="43.93004" lon="5.18219">
        <ele>522.4</ele>
        <time>2018-03-18T12:56:01.999Z</time>
      </trkpt>
      <trkpt lat="43.92995" lon="5.18219">
        <ele>522.3</ele>
        <time>2018-03-18T12:56:09.999Z</time>
      </trkpt>
      <trkpt lat="43.92994" lon="5.18219">
        <ele>522.4</ele>
        <time>2018-03-18T12:56:10.999Z</time>
      </trkpt>
      <trkpt lat="43.92986" lon="5.18218">
        <ele>521.8</ele>
        <time>2018-03-18T12:56:16.999Z</time>
      </trkpt>
      <trkpt lat="43.92984" lon="5.18218">
        <ele>521.7</ele>
        <time>2018-03-18T12:56:17.999Z</time>
      </trkpt>
      <trkpt lat="43.92977" lon="5.18218">
        <ele>521.3</ele>
        <time>2018-03-18T12:56:22.999Z</time>
      </trkpt>
      <trkpt lat="43.92974" lon="5.18218">
        <ele>521.2</ele>
        <time>2018-03-18T12:56:23.999Z</time>
      </trkpt>
      <trkpt lat="43.92966" lon="5.18215">
        <ele>520.5</ele>
        <time>2018-03-18T12:56:32.999Z</time>
      </trkpt>
      <trkpt lat="43.92965" lon="5.18213">
        <ele>520.4</ele>
        <time>2018-03-18T12:56:33.999Z</time>
      </trkpt>
      <trkpt lat="43.92959" lon="5.18206">
        <ele>520</ele>
        <time>2018-03-18T12:56:40.999Z</time>
      </trkpt>
      <trkpt lat="43.92958" lon="5.18204">
        <ele>519.9</ele>
        <time>2018-03-18T12:56:41.999Z</time>
      </trkpt>
      <trkpt lat="43.92951" lon="5.18198">
        <ele>517.8</ele>
        <time>2018-03-18T12:56:49.999Z</time>
      </trkpt>
      <trkpt lat="43.92949" lon="5.18196">
        <ele>517.4</ele>
        <time>2018-03-18T12:56:50.999Z</time>
      </trkpt>
      <trkpt lat="43.92944" lon="5.18193">
        <ele>516.5</ele>
        <time>2018-03-18T12:56:52.999Z</time>
      </trkpt>
      <trkpt lat="43.9294" lon="5.1819">
        <ele>516.1</ele>
        <time>2018-03-18T12:56:53.999Z</time>
      </trkpt>
      <trkpt lat="43.92932" lon="5.18185">
        <ele>515.2</ele>
        <time>2018-03-18T12:56:56.999Z</time>
      </trkpt>
      <trkpt lat="43.9293" lon="5.18184">
        <ele>515</ele>
        <time>2018-03-18T12:56:57.999Z</time>
      </trkpt>
      <trkpt lat="43.92924" lon="5.18175">
        <ele>513.8</ele>
        <time>2018-03-18T12:57:06.999Z</time>
      </trkpt>
      <trkpt lat="43.92924" lon="5.18175">
        <ele>513.7</ele>
        <time>2018-03-18T12:57:07.999Z</time>
      </trkpt>
      <trkpt lat="43.92917" lon="5.18167">
        <ele>513.2</ele>
        <time>2018-03-18T12:57:14.999Z</time>
      </trkpt>
      <trkpt lat="43.92915" lon="5.18166">
        <ele>513.1</ele>
        <time>2018-03-18T12:57:15.999Z</time>
      </trkpt>
      <trkpt lat="43.9291" lon="5.18156">
        <ele>512.9</ele>
        <time>2018-03-18T12:57:23.999Z</time>
      </trkpt>
      <trkpt lat="43.9291" lon="5.18155">
        <ele>512.9</ele>
        <time>2018-03-18T12:57:24.999Z</time>
      </trkpt>
      <trkpt lat="43.92906" lon="5.18143">
        <ele>512.3</ele>
        <time>2018-03-18T12:57:34.999Z</time>
      </trkpt>
      <trkpt lat="43.92906" lon="5.18143">
        <ele>512.2</ele>
        <time>2018-03-18T12:57:35.999Z</time>
      </trkpt>
      <trkpt lat="43.92897" lon="5.1814">
        <ele>511.1</ele>
        <time>2018-03-18T12:57:44.999Z</time>
      </trkpt>
      <trkpt lat="43.92896" lon="5.18139">
        <ele>511</ele>
        <time>2018-03-18T12:57:45.999Z</time>
      </trkpt>
      <trkpt lat="43.92888" lon="5.18135">
        <ele>510.1</ele>
        <time>2018-03-18T12:57:51.999Z</time>
      </trkpt>
      <trkpt lat="43.92886" lon="5.18134">
        <ele>509.9</ele>
        <time>2018-03-18T12:57:52.999Z</time>
      </trkpt>
      <trkpt lat="43.92879" lon="5.1813">
        <ele>509.2</ele>
        <time>2018-03-18T12:57:55.999Z</time>
      </trkpt>
      <trkpt lat="43.92877" lon="5.18129">
        <ele>508.9</ele>
        <time>2018-03-18T12:57:56.999Z</time>
      </trkpt>
      <trkpt lat="43.9287" lon="5.18125">
        <ele>507.6</ele>
        <time>2018-03-18T12:58:01.999Z</time>
      </trkpt>
      <trkpt lat="43.92868" lon="5.18123">
        <ele>507.3</ele>
        <time>2018-03-18T12:58:02.999Z</time>
      </trkpt>
      <trkpt lat="43.92861" lon="5.18117">
        <ele>504.7</ele>
        <time>2018-03-18T12:58:10.999Z</time>
      </trkpt>
      <trkpt lat="43.9286" lon="5.18116">
        <ele>504.4</ele>
        <time>2018-03-18T12:58:11.999Z</time>
      </trkpt>
      <trkpt lat="43.92852" lon="5.18113">
        <ele>502.4</ele>
        <time>2018-03-18T12:58:17.999Z</time>
      </trkpt>
      <trkpt lat="43.9285" lon="5.18111">
        <ele>502.1</ele>
        <time>2018-03-18T12:58:18.999Z</time>
      </trkpt>
      <trkpt lat="43.92841" lon="5.18109">
        <ele>501.1</ele>
        <time>2018-03-18T12:58:23.999Z</time>
      </trkpt>
      <trkpt lat="43.9284" lon="5.18109">
        <ele>500.9</ele>
        <time>2018-03-18T12:58:24.999Z</time>
      </trkpt>
      <trkpt lat="43.92832" lon="5.18105">
        <ele>499.6</ele>
        <time>2018-03-18T12:58:31.999Z</time>
      </trkpt>
      <trkpt lat="43.92831" lon="5.18105">
        <ele>499.5</ele>
        <time>2018-03-18T12:58:32.999Z</time>
      </trkpt>
      <trkpt lat="43.92822" lon="5.18101">
        <ele>499.5</ele>
        <time>2018-03-18T12:58:38.999Z</time>
      </trkpt>
      <trkpt lat="43.92821" lon="5.181">
        <ele>499.6</ele>
        <time>2018-03-18T12:58:39.999Z</time>
      </trkpt>
      <trkpt lat="43.92814" lon="5.18096">
        <ele>500.2</ele>
        <time>2018-03-18T12:58:45.999Z</time>
      </trkpt>
      <trkpt lat="43.92812" lon="5.18095">
        <ele>500.3</ele>
        <time>2018-03-18T12:58:46.999Z</time>
      </trkpt>
      <trkpt lat="43.92804" lon="5.18092">
        <ele>501.4</ele>
        <time>2018-03-18T12:58:52.999Z</time>
      </trkpt>
      <trkpt lat="43.92802" lon="5.18091">
        <ele>501.5</ele>
        <time>2018-03-18T12:58:53.999Z</time>
      </trkpt>
      <trkpt lat="43.92794" lon="5.18089">
        <ele>501.7</ele>
        <time>2018-03-18T12:58:57.999Z</time>
      </trkpt>
      <trkpt lat="43.92792" lon="5.18089">
        <ele>501.7</ele>
        <time>2018-03-18T12:58:58.999Z</time>
      </trkpt>
      <trkpt lat="43.92784" lon="5.18087">
        <ele>501.6</ele>
        <time>2018-03-18T12:59:03.999Z</time>
      </trkpt>
      <trkpt lat="43.92783" lon="5.18086">
        <ele>501.6</ele>
        <time>2018-03-18T12:59:04.999Z</time>
      </trkpt>
      <trkpt lat="43.92775" lon="5.18079">
        <ele>501.5</ele>
        <time>2018-03-18T12:59:11.999Z</time>
      </trkpt>
      <trkpt lat="43.92774" lon="5.18078">
        <ele>501.4</ele>
        <time>2018-03-18T12:59:12.999Z</time>
      </trkpt>
      <trkpt lat="43.92767" lon="5.18073">
        <ele>501.1</ele>
        <time>2018-03-18T12:59:19.999Z</time>
      </trkpt>
      <trkpt lat="43.92766" lon="5.18072">
        <ele>501.1</ele>
        <time>2018-03-18T12:59:20.999Z</time>
      </trkpt>
      <trkpt lat="43.92759" lon="5.18067">
        <ele>500.6</ele>
        <time>2018-03-18T12:59:25.999Z</time>
      </trkpt>
      <trkpt lat="43.92758" lon="5.18066">
        <ele>500.5</ele>
        <time>2018-03-18T12:59:26.999Z</time>
      </trkpt>
      <trkpt lat="43.92758" lon="5.18065">
        <ele>500.3</ele>
        <time>2018-03-18T12:59:28.999Z</time>
      </trkpt>
      <trkpt lat="43.92757" lon="5.18064">
        <ele>500.1</ele>
        <time>2018-03-18T12:59:29.999Z</time>
      </trkpt>
      <trkpt lat="43.92752" lon="5.18055">
        <ele>499.5</ele>
        <time>2018-03-18T12:59:33.999Z</time>
      </trkpt>
      <trkpt lat="43.92752" lon="5.18053">
        <ele>499.5</ele>
        <time>2018-03-18T12:59:34.999Z</time>
      </trkpt>
      <trkpt lat="43.92748" lon="5.18048">
        <ele>499.5</ele>
        <time>2018-03-18T12:59:39.999Z</time>
      </trkpt>
      <trkpt lat="43.92747" lon="5.18048">
        <ele>499.5</ele>
        <time>2018-03-18T12:59:40.999Z</time>
      </trkpt>
      <trkpt lat="43.92743" lon="5.18045">
        <ele>500.1</ele>
        <time>2018-03-18T12:59:45.999Z</time>
      </trkpt>
      <trkpt lat="43.9274" lon="5.18044">
        <ele>500.2</ele>
        <time>2018-03-18T12:59:46.999Z</time>
      </trkpt>
      <trkpt lat="43.92732" lon="5.18042">
        <ele>500.5</ele>
        <time>2018-03-18T12:59:49.999Z</time>
      </trkpt>
      <trkpt lat="43.9273" lon="5.18041">
        <ele>500.6</ele>
        <time>2018-03-18T12:59:50.999Z</time>
      </trkpt>
      <trkpt lat="43.92722" lon="5.18036">
        <ele>501.4</ele>
        <time>2018-03-18T12:59:56.999Z</time>
      </trkpt>
      <trkpt lat="43.92719" lon="5.18035">
        <ele>501.6</ele>
        <time>2018-03-18T12:59:57.999Z</time>
      </trkpt>
      <trkpt lat="43.9271" lon="5.18032">
        <ele>502.2</ele>
        <time>2018-03-18T13:00:03.999Z</time>
      </trkpt>
      <trkpt lat="43.92709" lon="5.18032">
        <ele>502.3</ele>
        <time>2018-03-18T13:00:04.999Z</time>
      </trkpt>
      <trkpt lat="43.92701" lon="5.18028">
        <ele>503.2</ele>
        <time>2018-03-18T13:00:09.999Z</time>
      </trkpt>
      <trkpt lat="43.927" lon="5.18027">
        <ele>503.3</ele>
        <time>2018-03-18T13:00:10.999Z</time>
      </trkpt>
      <trkpt lat="43.92694" lon="5.18019">
        <ele>503.5</ele>
        <time>2018-03-18T13:00:16.999Z</time>
      </trkpt>
      <trkpt lat="43.92693" lon="5.18019">
        <ele>503.5</ele>
        <time>2018-03-18T13:00:17.999Z</time>
      </trkpt>
      <trkpt lat="43.92687" lon="5.18013">
        <ele>503.6</ele>
        <time>2018-03-18T13:00:21.999Z</time>
      </trkpt>
      <trkpt lat="43.92685" lon="5.18012">
        <ele>503.6</ele>
        <time>2018-03-18T13:00:22.999Z</time>
      </trkpt>
      <trkpt lat="43.92678" lon="5.18005">
        <ele>503.2</ele>
        <time>2018-03-18T13:00:28.999Z</time>
      </trkpt>
      <trkpt lat="43.92678" lon="5.18005">
        <ele>503</ele>
        <time>2018-03-18T13:00:29.999Z</time>
      </trkpt>
      <trkpt lat="43.92671" lon="5.17997">
        <ele>501.8</ele>
        <time>2018-03-18T13:00:36.999Z</time>
      </trkpt>
      <trkpt lat="43.92669" lon="5.17996">
        <ele>501.6</ele>
        <time>2018-03-18T13:00:37.999Z</time>
      </trkpt>
      <trkpt lat="43.92662" lon="5.17992">
        <ele>501.1</ele>
        <time>2018-03-18T13:00:42.999Z</time>
      </trkpt>
      <trkpt lat="43.92661" lon="5.1799">
        <ele>501</ele>
        <time>2018-03-18T13:00:43.999Z</time>
      </trkpt>
      <trkpt lat="43.92656" lon="5.17983">
        <ele>500.7</ele>
        <time>2018-03-18T13:00:49.999Z</time>
      </trkpt>
      <trkpt lat="43.92655" lon="5.17981">
        <ele>500.6</ele>
        <time>2018-03-18T13:00:50.999Z</time>
      </trkpt>
      <trkpt lat="43.92648" lon="5.17974">
        <ele>500.3</ele>
        <time>2018-03-18T13:00:56.999Z</time>
      </trkpt>
      <trkpt lat="43.92647" lon="5.17973">
        <ele>500.3</ele>
        <time>2018-03-18T13:00:57.999Z</time>
      </trkpt>
      <trkpt lat="43.9264" lon="5.1797">
        <ele>499.9</ele>
        <time>2018-03-18T13:01:02.999Z</time>
      </trkpt>
      <trkpt lat="43.92638" lon="5.17969">
        <ele>499.8</ele>
        <time>2018-03-18T13:01:03.999Z</time>
      </trkpt>
      <trkpt lat="43.92631" lon="5.17961">
        <ele>499.2</ele>
        <time>2018-03-18T13:01:11.999Z</time>
      </trkpt>
      <trkpt lat="43.9263" lon="5.1796">
        <ele>499.1</ele>
        <time>2018-03-18T13:01:12.999Z</time>
      </trkpt>
      <trkpt lat="43.92626" lon="5.1795">
        <ele>498.5</ele>
        <time>2018-03-18T13:01:18.999Z</time>
      </trkpt>
      <trkpt lat="43.92624" lon="5.17948">
        <ele>498.5</ele>
        <time>2018-03-18T13:01:19.999Z</time>
      </trkpt>
      <trkpt lat="43.92617" lon="5.17943">
        <ele>497.8</ele>
        <time>2018-03-18T13:01:27.999Z</time>
      </trkpt>
      <trkpt lat="43.92616" lon="5.17942">
        <ele>497.8</ele>
        <time>2018-03-18T13:01:28.999Z</time>
      </trkpt>
      <trkpt lat="43.92608" lon="5.17943">
        <ele>497.1</ele>
        <time>2018-03-18T13:01:37.999Z</time>
      </trkpt>
      <trkpt lat="43.92606" lon="5.17943">
        <ele>497</ele>
        <time>2018-03-18T13:01:38.999Z</time>
      </trkpt>
      <trkpt lat="43.92599" lon="5.17936">
        <ele>495.5</ele>
        <time>2018-03-18T13:01:48.999Z</time>
      </trkpt>
      <trkpt lat="43.92598" lon="5.17935">
        <ele>495.4</ele>
        <time>2018-03-18T13:01:49.999Z</time>
      </trkpt>
      <trkpt lat="43.92593" lon="5.17927">
        <ele>493.8</ele>
        <time>2018-03-18T13:01:57.999Z</time>
      </trkpt>
      <trkpt lat="43.92592" lon="5.17926">
        <ele>493.6</ele>
        <time>2018-03-18T13:01:58.999Z</time>
      </trkpt>
      <trkpt lat="43.92585" lon="5.17919">
        <ele>493.2</ele>
        <time>2018-03-18T13:02:04.999Z</time>
      </trkpt>
      <trkpt lat="43.92584" lon="5.17918">
        <ele>493.2</ele>
        <time>2018-03-18T13:02:05.999Z</time>
      </trkpt>
      <trkpt lat="43.92579" lon="5.17907">
        <ele>492.6</ele>
        <time>2018-03-18T13:02:13.999Z</time>
      </trkpt>
      <trkpt lat="43.92579" lon="5.17905">
        <ele>492.6</ele>
        <time>2018-03-18T13:02:14.999Z</time>
      </trkpt>
      <trkpt lat="43.92572" lon="5.17898">
        <ele>492.3</ele>
        <time>2018-03-18T13:02:20.999Z</time>
      </trkpt>
      <trkpt lat="43.92571" lon="5.17897">
        <ele>492.3</ele>
        <time>2018-03-18T13:02:21.999Z</time>
      </trkpt>
      <trkpt lat="43.92566" lon="5.1789">
        <ele>491.8</ele>
        <time>2018-03-18T13:02:28.999Z</time>
      </trkpt>
      <trkpt lat="43.92564" lon="5.17888">
        <ele>491.7</ele>
        <time>2018-03-18T13:02:29.999Z</time>
      </trkpt>
      <trkpt lat="43.92556" lon="5.17885">
        <ele>490.8</ele>
        <time>2018-03-18T13:02:36.999Z</time>
      </trkpt>
      <trkpt lat="43.92555" lon="5.17884">
        <ele>490.8</ele>
        <time>2018-03-18T13:02:37.999Z</time>
      </trkpt>
      <trkpt lat="43.92547" lon="5.17882">
        <ele>490</ele>
        <time>2018-03-18T13:02:43.999Z</time>
      </trkpt>
      <trkpt lat="43.92545" lon="5.17882">
        <ele>489.8</ele>
        <time>2018-03-18T13:02:44.999Z</time>
      </trkpt>
      <trkpt lat="43.92536" lon="5.17884">
        <ele>488.5</ele>
        <time>2018-03-18T13:02:50.999Z</time>
      </trkpt>
      <trkpt lat="43.92535" lon="5.17885">
        <ele>488.3</ele>
        <time>2018-03-18T13:02:51.999Z</time>
      </trkpt>
      <trkpt lat="43.92527" lon="5.17887">
        <ele>486.8</ele>
        <time>2018-03-18T13:02:57.999Z</time>
      </trkpt>
      <trkpt lat="43.92525" lon="5.17887">
        <ele>486.5</ele>
        <time>2018-03-18T13:02:58.999Z</time>
      </trkpt>
      <trkpt lat="43.92517" lon="5.1789">
        <ele>484.6</ele>
        <time>2018-03-18T13:03:06.999Z</time>
      </trkpt>
      <trkpt lat="43.92515" lon="5.17891">
        <ele>484.3</ele>
        <time>2018-03-18T13:03:07.999Z</time>
      </trkpt>
      <trkpt lat="43.92508" lon="5.17896">
        <ele>482.9</ele>
        <time>2018-03-18T13:03:12.999Z</time>
      </trkpt>
      <trkpt lat="43.92507" lon="5.17897">
        <ele>482.6</ele>
        <time>2018-03-18T13:03:13.999Z</time>
      </trkpt>
      <trkpt lat="43.92499" lon="5.17901">
        <ele>480.7</ele>
        <time>2018-03-18T13:03:20.999Z</time>
      </trkpt>
      <trkpt lat="43.92498" lon="5.179">
        <ele>480.3</ele>
        <time>2018-03-18T13:03:21.999Z</time>
      </trkpt>
      <trkpt lat="43.92489" lon="5.179">
        <ele>478.8</ele>
        <time>2018-03-18T13:03:28.999Z</time>
      </trkpt>
      <trkpt lat="43.92488" lon="5.179">
        <ele>478.7</ele>
        <time>2018-03-18T13:03:29.999Z</time>
      </trkpt>
      <trkpt lat="43.92479" lon="5.179">
        <ele>477.2</ele>
        <time>2018-03-18T13:03:36.999Z</time>
      </trkpt>
      <trkpt lat="43.92478" lon="5.179">
        <ele>477.1</ele>
        <time>2018-03-18T13:03:37.999Z</time>
      </trkpt>
      <trkpt lat="43.92469" lon="5.17898">
        <ele>476</ele>
        <time>2018-03-18T13:03:43.999Z</time>
      </trkpt>
      <trkpt lat="43.92468" lon="5.17897">
        <ele>475.9</ele>
        <time>2018-03-18T13:03:44.999Z</time>
      </trkpt>
      <trkpt lat="43.92461" lon="5.17894">
        <ele>475.1</ele>
        <time>2018-03-18T13:03:50.999Z</time>
      </trkpt>
      <trkpt lat="43.92459" lon="5.17893">
        <ele>474.9</ele>
        <time>2018-03-18T13:03:51.999Z</time>
      </trkpt>
      <trkpt lat="43.92451" lon="5.17892">
        <ele>473.7</ele>
        <time>2018-03-18T13:03:58.999Z</time>
      </trkpt>
      <trkpt lat="43.9245" lon="5.17892">
        <ele>473.5</ele>
        <time>2018-03-18T13:03:59.999Z</time>
      </trkpt>
      <trkpt lat="43.92443" lon="5.17891">
        <ele>472.7</ele>
        <time>2018-03-18T13:04:03.999Z</time>
      </trkpt>
      <trkpt lat="43.92439" lon="5.1789">
        <ele>472.5</ele>
        <time>2018-03-18T13:04:04.999Z</time>
      </trkpt>
      <trkpt lat="43.92431" lon="5.17891">
        <ele>471.4</ele>
        <time>2018-03-18T13:04:11.999Z</time>
      </trkpt>
      <trkpt lat="43.92429" lon="5.17891">
        <ele>471.3</ele>
        <time>2018-03-18T13:04:12.999Z</time>
      </trkpt>
      <trkpt lat="43.92421" lon="5.17892">
        <ele>470.4</ele>
        <time>2018-03-18T13:04:19.999Z</time>
      </trkpt>
      <trkpt lat="43.9242" lon="5.17892">
        <ele>470.3</ele>
        <time>2018-03-18T13:04:20.999Z</time>
      </trkpt>
      <trkpt lat="43.92411" lon="5.17892">
        <ele>469.3</ele>
        <time>2018-03-18T13:04:27.999Z</time>
      </trkpt>
      <trkpt lat="43.9241" lon="5.17892">
        <ele>469.1</ele>
        <time>2018-03-18T13:04:28.999Z</time>
      </trkpt>
      <trkpt lat="43.92402" lon="5.17889">
        <ele>468</ele>
        <time>2018-03-18T13:04:35.999Z</time>
      </trkpt>
      <trkpt lat="43.924" lon="5.17889">
        <ele>468</ele>
        <time>2018-03-18T13:04:36.999Z</time>
      </trkpt>
      <trkpt lat="43.92393" lon="5.17886">
        <ele>467</ele>
        <time>2018-03-18T13:04:43.999Z</time>
      </trkpt>
      <trkpt lat="43.92391" lon="5.17885">
        <ele>466.9</ele>
        <time>2018-03-18T13:04:44.999Z</time>
      </trkpt>
      <trkpt lat="43.92383" lon="5.17883">
        <ele>466</ele>
        <time>2018-03-18T13:04:50.999Z</time>
      </trkpt>
      <trkpt lat="43.92382" lon="5.17882">
        <ele>465.8</ele>
        <time>2018-03-18T13:04:51.999Z</time>
      </trkpt>
      <trkpt lat="43.92375" lon="5.1788">
        <ele>463.9</ele>
        <time>2018-03-18T13:05:01.999Z</time>
      </trkpt>
      <trkpt lat="43.92371" lon="5.1788">
        <ele>463.7</ele>
        <time>2018-03-18T13:05:02.999Z</time>
      </trkpt>
      <trkpt lat="43.92364" lon="5.17881">
        <ele>462.1</ele>
        <time>2018-03-18T13:05:07.999Z</time>
      </trkpt>
      <trkpt lat="43.92362" lon="5.17881">
        <ele>461.8</ele>
        <time>2018-03-18T13:05:08.999Z</time>
      </trkpt>
      <trkpt lat="43.92354" lon="5.17885">
        <ele>460</ele>
        <time>2018-03-18T13:05:15.999Z</time>
      </trkpt>
      <trkpt lat="43.92353" lon="5.17886">
        <ele>459.8</ele>
        <time>2018-03-18T13:05:16.999Z</time>
      </trkpt>
      <trkpt lat="43.92347" lon="5.17888">
        <ele>459.1</ele>
        <time>2018-03-18T13:05:19.999Z</time>
      </trkpt>
      <trkpt lat="43.92344" lon="5.17889">
        <ele>458.9</ele>
        <time>2018-03-18T13:05:20.999Z</time>
      </trkpt>
      <trkpt lat="43.92338" lon="5.17897">
        <ele>457.6</ele>
        <time>2018-03-18T13:05:25.999Z</time>
      </trkpt>
      <trkpt lat="43.92336" lon="5.179">
        <ele>457.2</ele>
        <time>2018-03-18T13:05:26.999Z</time>
      </trkpt>
      <trkpt lat="43.92333" lon="5.17909">
        <ele>455.5</ele>
        <time>2018-03-18T13:05:35.999Z</time>
      </trkpt>
      <trkpt lat="43.92333" lon="5.17912">
        <ele>455.4</ele>
        <time>2018-03-18T13:05:36.999Z</time>
      </trkpt>
      <trkpt lat="43.92335" lon="5.17919">
        <ele>454.9</ele>
        <time>2018-03-18T13:05:42.999Z</time>
      </trkpt>
      <trkpt lat="43.92335" lon="5.17919">
        <ele>454.8</ele>
        <time>2018-03-18T13:05:43.999Z</time>
      </trkpt>
      <trkpt lat="43.92336" lon="5.17921">
        <ele>455.1</ele>
        <time>2018-03-18T13:06:14.999Z</time>
      </trkpt>
      <trkpt lat="43.92335" lon="5.17923">
        <ele>455.1</ele>
        <time>2018-03-18T13:06:15.999Z</time>
      </trkpt>
      <trkpt lat="43.92331" lon="5.17932">
        <ele>455.3</ele>
        <time>2018-03-18T13:06:22.999Z</time>
      </trkpt>
      <trkpt lat="43.9233" lon="5.17934">
        <ele>455.4</ele>
        <time>2018-03-18T13:06:23.999Z</time>
      </trkpt>
      <trkpt lat="43.92322" lon="5.17936">
        <ele>456</ele>
        <time>2018-03-18T13:06:29.999Z</time>
      </trkpt>
      <trkpt lat="43.92321" lon="5.17935">
        <ele>456.2</ele>
        <time>2018-03-18T13:06:30.999Z</time>
      </trkpt>
      <trkpt lat="43.92313" lon="5.17931">
        <ele>456.4</ele>
        <time>2018-03-18T13:06:36.999Z</time>
      </trkpt>
      <trkpt lat="43.92313" lon="5.17931">
        <ele>456.4</ele>
        <time>2018-03-18T13:06:37.999Z</time>
      </trkpt>
      <trkpt lat="43.92311" lon="5.1793">
        <ele>456.7</ele>
        <time>2018-03-18T13:07:11.999Z</time>
      </trkpt>
      <trkpt lat="43.9231" lon="5.1793">
        <ele>456.8</ele>
        <time>2018-03-18T13:07:12.999Z</time>
      </trkpt>
      <trkpt lat="43.92303" lon="5.17923">
        <ele>457.3</ele>
        <time>2018-03-18T13:07:22.999Z</time>
      </trkpt>
      <trkpt lat="43.92302" lon="5.17923">
        <ele>457.4</ele>
        <time>2018-03-18T13:07:23.999Z</time>
      </trkpt>
      <trkpt lat="43.92294" lon="5.17918">
        <ele>458.3</ele>
        <time>2018-03-18T13:07:31.999Z</time>
      </trkpt>
      <trkpt lat="43.92292" lon="5.17918">
        <ele>458.4</ele>
        <time>2018-03-18T13:07:32.999Z</time>
      </trkpt>
      <trkpt lat="43.92284" lon="5.17915">
        <ele>458.1</ele>
        <time>2018-03-18T13:07:39.999Z</time>
      </trkpt>
      <trkpt lat="43.92283" lon="5.17914">
        <ele>458.1</ele>
        <time>2018-03-18T13:07:40.999Z</time>
      </trkpt>
      <trkpt lat="43.92277" lon="5.17906">
        <ele>457.5</ele>
        <time>2018-03-18T13:07:48.999Z</time>
      </trkpt>
      <trkpt lat="43.92276" lon="5.17906">
        <ele>457.4</ele>
        <time>2018-03-18T13:07:49.999Z</time>
      </trkpt>
      <trkpt lat="43.92268" lon="5.179">
        <ele>456.6</ele>
        <time>2018-03-18T13:07:55.999Z</time>
      </trkpt>
      <trkpt lat="43.92267" lon="5.17899">
        <ele>456.3</ele>
        <time>2018-03-18T13:07:56.999Z</time>
      </trkpt>
      <trkpt lat="43.9226" lon="5.17893">
        <ele>455.2</ele>
        <time>2018-03-18T13:08:02.999Z</time>
      </trkpt>
      <trkpt lat="43.92259" lon="5.17891">
        <ele>455</ele>
        <time>2018-03-18T13:08:03.999Z</time>
      </trkpt>
      <trkpt lat="43.92252" lon="5.17883">
        <ele>454.6</ele>
        <time>2018-03-18T13:08:07.999Z</time>
      </trkpt>
      <trkpt lat="43.92251" lon="5.17882">
        <ele>454.6</ele>
        <time>2018-03-18T13:08:08.999Z</time>
      </trkpt>
      <trkpt lat="43.92243" lon="5.17876">
        <ele>453.6</ele>
        <time>2018-03-18T13:08:15.999Z</time>
      </trkpt>
      <trkpt lat="43.92242" lon="5.17875">
        <ele>453.4</ele>
        <time>2018-03-18T13:08:16.999Z</time>
      </trkpt>
      <trkpt lat="43.92234" lon="5.1787">
        <ele>452.6</ele>
        <time>2018-03-18T13:08:23.999Z</time>
      </trkpt>
      <trkpt lat="43.92234" lon="5.1787">
        <ele>452.6</ele>
        <time>2018-03-18T13:08:24.999Z</time>
      </trkpt>
      <trkpt lat="43.92228" lon="5.17862">
        <ele>452.1</ele>
        <time>2018-03-18T13:08:31.999Z</time>
      </trkpt>
      <trkpt lat="43.92226" lon="5.17861">
        <ele>452.1</ele>
        <time>2018-03-18T13:08:32.999Z</time>
      </trkpt>
      <trkpt lat="43.92218" lon="5.17859">
        <ele>452</ele>
        <time>2018-03-18T13:08:38.999Z</time>
      </trkpt>
      <trkpt lat="43.92217" lon="5.17858">
        <ele>452</ele>
        <time>2018-03-18T13:08:39.999Z</time>
      </trkpt>
      <trkpt lat="43.92208" lon="5.17858">
        <ele>451.2</ele>
        <time>2018-03-18T13:08:46.999Z</time>
      </trkpt>
      <trkpt lat="43.92207" lon="5.17858">
        <ele>451</ele>
        <time>2018-03-18T13:08:47.999Z</time>
      </trkpt>
      <trkpt lat="43.92199" lon="5.17854">
        <ele>448.5</ele>
        <time>2018-03-18T13:08:56.999Z</time>
      </trkpt>
      <trkpt lat="43.92198" lon="5.17853">
        <ele>448.2</ele>
        <time>2018-03-18T13:08:57.999Z</time>
      </trkpt>
      <trkpt lat="43.92191" lon="5.17848">
        <ele>445.5</ele>
        <time>2018-03-18T13:09:06.999Z</time>
      </trkpt>
      <trkpt lat="43.9219" lon="5.17847">
        <ele>445.2</ele>
        <time>2018-03-18T13:09:07.999Z</time>
      </trkpt>
      <trkpt lat="43.92182" lon="5.17847">
        <ele>443.7</ele>
        <time>2018-03-18T13:09:13.999Z</time>
      </trkpt>
      <trkpt lat="43.9218" lon="5.17847">
        <ele>443.4</ele>
        <time>2018-03-18T13:09:14.999Z</time>
      </trkpt>
      <trkpt lat="43.92173" lon="5.17848">
        <ele>442</ele>
        <time>2018-03-18T13:09:20.999Z</time>
      </trkpt>
      <trkpt lat="43.92171" lon="5.17849">
        <ele>441.8</ele>
        <time>2018-03-18T13:09:21.999Z</time>
      </trkpt>
      <trkpt lat="43.92163" lon="5.17852">
        <ele>440.2</ele>
        <time>2018-03-18T13:09:30.999Z</time>
      </trkpt>
      <trkpt lat="43.92163" lon="5.17853">
        <ele>440</ele>
        <time>2018-03-18T13:09:31.999Z</time>
      </trkpt>
      <trkpt lat="43.92161" lon="5.17854">
        <ele>439.7</ele>
        <time>2018-03-18T13:09:33.999Z</time>
      </trkpt>
      <trkpt lat="43.9216" lon="5.17854">
        <ele>439.6</ele>
        <time>2018-03-18T13:09:34.999Z</time>
      </trkpt>
      <trkpt lat="43.92151" lon="5.17853">
        <ele>438.1</ele>
        <time>2018-03-18T13:09:43.999Z</time>
      </trkpt>
      <trkpt lat="43.9215" lon="5.17853">
        <ele>437.9</ele>
        <time>2018-03-18T13:09:44.999Z</time>
      </trkpt>
      <trkpt lat="43.92144" lon="5.17844">
        <ele>436</ele>
        <time>2018-03-18T13:09:52.999Z</time>
      </trkpt>
      <trkpt lat="43.92143" lon="5.17843">
        <ele>435.8</ele>
        <time>2018-03-18T13:09:53.999Z</time>
      </trkpt>
      <trkpt lat="43.92137" lon="5.17835">
        <ele>434.6</ele>
        <time>2018-03-18T13:10:00.999Z</time>
      </trkpt>
      <trkpt lat="43.92136" lon="5.17834">
        <ele>434.4</ele>
        <time>2018-03-18T13:10:01.999Z</time>
      </trkpt>
      <trkpt lat="43.9213" lon="5.17825">
        <ele>433.4</ele>
        <time>2018-03-18T13:10:08.999Z</time>
      </trkpt>
      <trkpt lat="43.92129" lon="5.17824">
        <ele>433.3</ele>
        <time>2018-03-18T13:10:09.999Z</time>
      </trkpt>
      <trkpt lat="43.92122" lon="5.17819">
        <ele>431.8</ele>
        <time>2018-03-18T13:10:16.999Z</time>
      </trkpt>
      <trkpt lat="43.92121" lon="5.17819">
        <ele>431.5</ele>
        <time>2018-03-18T13:10:17.999Z</time>
      </trkpt>
      <trkpt lat="43.92113" lon="5.17818">
        <ele>429.8</ele>
        <time>2018-03-18T13:10:25.999Z</time>
      </trkpt>
      <trkpt lat="43.92111" lon="5.17817">
        <ele>429.5</ele>
        <time>2018-03-18T13:10:26.999Z</time>
      </trkpt>
      <trkpt lat="43.92105" lon="5.17809">
        <ele>427.5</ele>
        <time>2018-03-18T13:10:38.999Z</time>
      </trkpt>
      <trkpt lat="43.92105" lon="5.17808">
        <ele>427.3</ele>
        <time>2018-03-18T13:10:39.999Z</time>
      </trkpt>
      <trkpt lat="43.92104" lon="5.17806">
        <ele>427.3</ele>
        <time>2018-03-18T13:10:41.999Z</time>
      </trkpt>
      <trkpt lat="43.92104" lon="5.17806">
        <ele>427.1</ele>
        <time>2018-03-18T13:10:42.999Z</time>
      </trkpt>
      <trkpt lat="43.92098" lon="5.17798">
        <ele>426.2</ele>
        <time>2018-03-18T13:10:50.999Z</time>
      </trkpt>
      <trkpt lat="43.92097" lon="5.17797">
        <ele>426.1</ele>
        <time>2018-03-18T13:10:51.999Z</time>
      </trkpt>
      <trkpt lat="43.92094" lon="5.17786">
        <ele>425.2</ele>
        <time>2018-03-18T13:11:01.999Z</time>
      </trkpt>
      <trkpt lat="43.92094" lon="5.17785">
        <ele>425</ele>
        <time>2018-03-18T13:11:02.999Z</time>
      </trkpt>
      <trkpt lat="43.92092" lon="5.17774">
        <ele>423.3</ele>
        <time>2018-03-18T13:11:12.999Z</time>
      </trkpt>
      <trkpt lat="43.92091" lon="5.17772">
        <ele>423.1</ele>
        <time>2018-03-18T13:11:13.999Z</time>
      </trkpt>
      <trkpt lat="43.92085" lon="5.17764">
        <ele>421.7</ele>
        <time>2018-03-18T13:11:21.999Z</time>
      </trkpt>
      <trkpt lat="43.92084" lon="5.17763">
        <ele>421.5</ele>
        <time>2018-03-18T13:11:22.999Z</time>
      </trkpt>
      <trkpt lat="43.92081" lon="5.17759">
        <ele>420.5</ele>
        <time>2018-03-18T13:11:28.999Z</time>
      </trkpt>
      <trkpt lat="43.92081" lon="5.17758">
        <ele>420.3</ele>
        <time>2018-03-18T13:11:29.999Z</time>
      </trkpt>
      <trkpt lat="43.92074" lon="5.17751">
        <ele>419.1</ele>
        <time>2018-03-18T13:11:40.999Z</time>
      </trkpt>
      <trkpt lat="43.92073" lon="5.17751">
        <ele>419</ele>
        <time>2018-03-18T13:11:41.999Z</time>
      </trkpt>
      <trkpt lat="43.92069" lon="5.17741">
        <ele>418</ele>
        <time>2018-03-18T13:11:49.999Z</time>
      </trkpt>
      <trkpt lat="43.92068" lon="5.1774">
        <ele>417.9</ele>
        <time>2018-03-18T13:11:50.999Z</time>
      </trkpt>
      <trkpt lat="43.92062" lon="5.17731">
        <ele>416.8</ele>
        <time>2018-03-18T13:11:58.999Z</time>
      </trkpt>
      <trkpt lat="43.92062" lon="5.1773">
        <ele>416.7</ele>
        <time>2018-03-18T13:11:59.999Z</time>
      </trkpt>
      <trkpt lat="43.92055" lon="5.17724">
        <ele>415.5</ele>
        <time>2018-03-18T13:12:09.999Z</time>
      </trkpt>
      <trkpt lat="43.92053" lon="5.17723">
        <ele>415.3</ele>
        <time>2018-03-18T13:12:10.999Z</time>
      </trkpt>
      <trkpt lat="43.92047" lon="5.17715">
        <ele>413.5</ele>
        <time>2018-03-18T13:12:18.999Z</time>
      </trkpt>
      <trkpt lat="43.92046" lon="5.17715">
        <ele>413.2</ele>
        <time>2018-03-18T13:12:19.999Z</time>
      </trkpt>
      <trkpt lat="43.92038" lon="5.17708">
        <ele>410.8</ele>
        <time>2018-03-18T13:12:32.999Z</time>
      </trkpt>
      <trkpt lat="43.92038" lon="5.17707">
        <ele>410.5</ele>
        <time>2018-03-18T13:12:33.999Z</time>
      </trkpt>
      <trkpt lat="43.92033" lon="5.177">
        <ele>407.3</ele>
        <time>2018-03-18T13:12:44.999Z</time>
      </trkpt>
      <trkpt lat="43.92033" lon="5.177">
        <ele>407</ele>
        <time>2018-03-18T13:12:45.999Z</time>
      </trkpt>
      <trkpt lat="43.92031" lon="5.17699">
        <ele>402.9</ele>
        <time>2018-03-18T13:13:12.999Z</time>
      </trkpt>
      <trkpt lat="43.9203" lon="5.17699">
        <ele>402.8</ele>
        <time>2018-03-18T13:13:13.999Z</time>
      </trkpt>
      <trkpt lat="43.9203" lon="5.17699">
        <ele>402.4</ele>
        <time>2018-03-18T13:13:16.999Z</time>
      </trkpt>
      <trkpt lat="43.9203" lon="5.17698">
        <ele>402.2</ele>
        <time>2018-03-18T13:13:17.999Z</time>
      </trkpt>
      <trkpt lat="43.9203" lon="5.17698">
        <ele>402</ele>
        <time>2018-03-18T13:13:18.999Z</time>
      </trkpt>
      <trkpt lat="43.92025" lon="5.17688">
        <ele>398</ele>
        <time>2018-03-18T13:13:37.999Z</time>
      </trkpt>
      <trkpt lat="43.92024" lon="5.17688">
        <ele>398</ele>
        <time>2018-03-18T13:13:38.999Z</time>
      </trkpt>
      <trkpt lat="43.92024" lon="5.17688">
        <ele>398</ele>
        <time>2018-03-18T13:13:39.999Z</time>
      </trkpt>
      <trkpt lat="43.9202" lon="5.17684">
        <ele>396.8</ele>
        <time>2018-03-18T13:13:49.999Z</time>
      </trkpt>
      <trkpt lat="43.9202" lon="5.17684">
        <ele>396.6</ele>
        <time>2018-03-18T13:13:50.999Z</time>
      </trkpt>
      <trkpt lat="43.9202" lon="5.17684">
        <ele>396.6</ele>
        <time>2018-03-18T13:13:51.999Z</time>
      </trkpt>
      <trkpt lat="43.92014" lon="5.17675">
        <ele>394.6</ele>
        <time>2018-03-18T13:14:22.999Z</time>
      </trkpt>
      <trkpt lat="43.92014" lon="5.17674">
        <ele>394.5</ele>
        <time>2018-03-18T13:14:23.999Z</time>
      </trkpt>
      <trkpt lat="43.92013" lon="5.17674">
        <ele>394.4</ele>
        <time>2018-03-18T13:14:24.999Z</time>
      </trkpt>
      <trkpt lat="43.92009" lon="5.17671">
        <ele>394</ele>
        <time>2018-03-18T13:14:31.999Z</time>
      </trkpt>
      <trkpt lat="43.92009" lon="5.17671">
        <ele>394</ele>
        <time>2018-03-18T13:14:32.999Z</time>
      </trkpt>
      <trkpt lat="43.92005" lon="5.1766">
        <ele>392.1</ele>
        <time>2018-03-18T13:14:46.999Z</time>
      </trkpt>
      <trkpt lat="43.92005" lon="5.17659">
        <ele>392</ele>
        <time>2018-03-18T13:14:47.999Z</time>
      </trkpt>
      <trkpt lat="43.92002" lon="5.17655">
        <ele>391.6</ele>
        <time>2018-03-18T13:14:51.999Z</time>
      </trkpt>
      <trkpt lat="43.92001" lon="5.17655">
        <ele>391.6</ele>
        <time>2018-03-18T13:14:52.999Z</time>
      </trkpt>
      <trkpt lat="43.92001" lon="5.17654">
        <ele>391.3</ele>
        <time>2018-03-18T13:14:55.999Z</time>
      </trkpt>
      <trkpt lat="43.91999" lon="5.17652">
        <ele>391.1</ele>
        <time>2018-03-18T13:14:56.999Z</time>
      </trkpt>
      <trkpt lat="43.91996" lon="5.17649">
        <ele>390.9</ele>
        <time>2018-03-18T13:14:58.999Z</time>
      </trkpt>
      <trkpt lat="43.91995" lon="5.17648">
        <ele>390.9</ele>
        <time>2018-03-18T13:14:59.999Z</time>
      </trkpt>
      <trkpt lat="43.9199" lon="5.17639">
        <ele>387.3</ele>
        <time>2018-03-18T13:15:19.999Z</time>
      </trkpt>
      <trkpt lat="43.91989" lon="5.17637">
        <ele>387.2</ele>
        <time>2018-03-18T13:15:20.999Z</time>
      </trkpt>
      <trkpt lat="43.91989" lon="5.17634">
        <ele>386.9</ele>
        <time>2018-03-18T13:15:22.999Z</time>
      </trkpt>
      <trkpt lat="43.91989" lon="5.17633">
        <ele>386.9</ele>
        <time>2018-03-18T13:15:23.999Z</time>
      </trkpt>
      <trkpt lat="43.91989" lon="5.17628">
        <ele>385.5</ele>
        <time>2018-03-18T13:15:34.999Z</time>
      </trkpt>
      <trkpt lat="43.91989" lon="5.17627">
        <ele>385.3</ele>
        <time>2018-03-18T13:15:35.999Z</time>
      </trkpt>
      <trkpt lat="43.91993" lon="5.17618">
        <ele>386.2</ele>
        <time>2018-03-18T13:15:48.999Z</time>
      </trkpt>
      <trkpt lat="43.91994" lon="5.17617">
        <ele>386.3</ele>
        <time>2018-03-18T13:15:49.999Z</time>
      </trkpt>
      <trkpt lat="43.91998" lon="5.17607">
        <ele>385.4</ele>
        <time>2018-03-18T13:16:00.999Z</time>
      </trkpt>
      <trkpt lat="43.91999" lon="5.17605">
        <ele>385.1</ele>
        <time>2018-03-18T13:16:01.999Z</time>
      </trkpt>
      <trkpt lat="43.91995" lon="5.17594">
        <ele>384.1</ele>
        <time>2018-03-18T13:16:07.999Z</time>
      </trkpt>
      <trkpt lat="43.91995" lon="5.17592">
        <ele>383.7</ele>
        <time>2018-03-18T13:16:08.999Z</time>
      </trkpt>
      <trkpt lat="43.9199" lon="5.17583">
        <ele>382.3</ele>
        <time>2018-03-18T13:16:12.999Z</time>
      </trkpt>
      <trkpt lat="43.91989" lon="5.17582">
        <ele>381.9</ele>
        <time>2018-03-18T13:16:13.999Z</time>
      </trkpt>
      <trkpt lat="43.91983" lon="5.17573">
        <ele>379</ele>
        <time>2018-03-18T13:16:20.999Z</time>
      </trkpt>
      <trkpt lat="43.91982" lon="5.17572">
        <ele>378.5</ele>
        <time>2018-03-18T13:16:21.999Z</time>
      </trkpt>
      <trkpt lat="43.91976" lon="5.17562">
        <ele>373.5</ele>
        <time>2018-03-18T13:16:32.999Z</time>
      </trkpt>
      <trkpt lat="43.91976" lon="5.17561">
        <ele>373.1</ele>
        <time>2018-03-18T13:16:33.999Z</time>
      </trkpt>
      <trkpt lat="43.91974" lon="5.17549">
        <ele>369.8</ele>
        <time>2018-03-18T13:16:44.999Z</time>
      </trkpt>
      <trkpt lat="43.91974" lon="5.17548">
        <ele>369.7</ele>
        <time>2018-03-18T13:16:45.999Z</time>
      </trkpt>
      <trkpt lat="43.91976" lon="5.17536">
        <ele>367.3</ele>
        <time>2018-03-18T13:16:57.999Z</time>
      </trkpt>
      <trkpt lat="43.91975" lon="5.17536">
        <ele>367.1</ele>
        <time>2018-03-18T13:16:58.999Z</time>
      </trkpt>
      <trkpt lat="43.91971" lon="5.17525">
        <ele>364.6</ele>
        <time>2018-03-18T13:17:07.999Z</time>
      </trkpt>
      <trkpt lat="43.91971" lon="5.17524">
        <ele>364.3</ele>
        <time>2018-03-18T13:17:08.999Z</time>
      </trkpt>
      <trkpt lat="43.91964" lon="5.17516">
        <ele>362.3</ele>
        <time>2018-03-18T13:17:15.999Z</time>
      </trkpt>
      <trkpt lat="43.91963" lon="5.17515">
        <ele>362.1</ele>
        <time>2018-03-18T13:17:16.999Z</time>
      </trkpt>
      <trkpt lat="43.91962" lon="5.17515">
        <ele>361.9</ele>
        <time>2018-03-18T13:17:17.999Z</time>
      </trkpt>
      <trkpt lat="43.91961" lon="5.17514">
        <ele>361.7</ele>
        <time>2018-03-18T13:17:18.999Z</time>
      </trkpt>
      <trkpt lat="43.91956" lon="5.17509">
        <ele>360.5</ele>
        <time>2018-03-18T13:17:22.999Z</time>
      </trkpt>
      <trkpt lat="43.91954" lon="5.17508">
        <ele>360.3</ele>
        <time>2018-03-18T13:17:23.999Z</time>
      </trkpt>
      <trkpt lat="43.91946" lon="5.17502">
        <ele>359.5</ele>
        <time>2018-03-18T13:17:27.999Z</time>
      </trkpt>
      <trkpt lat="43.91945" lon="5.17502">
        <ele>359.2</ele>
        <time>2018-03-18T13:17:28.999Z</time>
      </trkpt>
      <trkpt lat="43.91938" lon="5.17494">
        <ele>357</ele>
        <time>2018-03-18T13:17:41.999Z</time>
      </trkpt>
      <trkpt lat="43.91938" lon="5.17493">
        <ele>356.8</ele>
        <time>2018-03-18T13:17:42.999Z</time>
      </trkpt>
      <trkpt lat="43.91937" lon="5.17482">
        <ele>353.1</ele>
        <time>2018-03-18T13:17:57.999Z</time>
      </trkpt>
      <trkpt lat="43.91937" lon="5.17481">
        <ele>353.1</ele>
        <time>2018-03-18T13:17:58.999Z</time>
      </trkpt>
      <trkpt lat="43.91934" lon="5.17479">
        <ele>350.5</ele>
        <time>2018-03-18T13:18:04.999Z</time>
      </trkpt>
      <trkpt lat="43.91933" lon="5.17478">
        <ele>350.1</ele>
        <time>2018-03-18T13:18:05.999Z</time>
      </trkpt>
      <trkpt lat="43.91925" lon="5.17474">
        <ele>347.2</ele>
        <time>2018-03-18T13:18:13.999Z</time>
      </trkpt>
      <trkpt lat="43.91924" lon="5.17473">
        <ele>346.9</ele>
        <time>2018-03-18T13:18:14.999Z</time>
      </trkpt>
      <trkpt lat="43.91916" lon="5.1747">
        <ele>345.3</ele>
        <time>2018-03-18T13:18:20.999Z</time>
      </trkpt>
      <trkpt lat="43.91915" lon="5.1747">
        <ele>345</ele>
        <time>2018-03-18T13:18:21.999Z</time>
      </trkpt>
      <trkpt lat="43.91907" lon="5.17469">
        <ele>343.3</ele>
        <time>2018-03-18T13:18:27.999Z</time>
      </trkpt>
      <trkpt lat="43.91905" lon="5.17469">
        <ele>343.1</ele>
        <time>2018-03-18T13:18:28.999Z</time>
      </trkpt>
      <trkpt lat="43.91897" lon="5.17469">
        <ele>342.6</ele>
        <time>2018-03-18T13:18:33.999Z</time>
      </trkpt>
      <trkpt lat="43.91896" lon="5.17469">
        <ele>342.5</ele>
        <time>2018-03-18T13:18:34.999Z</time>
      </trkpt>
      <trkpt lat="43.91887" lon="5.17469">
        <ele>341.8</ele>
        <time>2018-03-18T13:18:40.999Z</time>
      </trkpt>
      <trkpt lat="43.91885" lon="5.17469">
        <ele>341.8</ele>
        <time>2018-03-18T13:18:41.999Z</time>
      </trkpt>
      <trkpt lat="43.91876" lon="5.17469">
        <ele>341.4</ele>
        <time>2018-03-18T13:18:47.999Z</time>
      </trkpt>
      <trkpt lat="43.91875" lon="5.17469">
        <ele>341.3</ele>
        <time>2018-03-18T13:18:48.999Z</time>
      </trkpt>
      <trkpt lat="43.91867" lon="5.17468">
        <ele>340.7</ele>
        <time>2018-03-18T13:18:54.999Z</time>
      </trkpt>
      <trkpt lat="43.91867" lon="5.17468">
        <ele>340.8</ele>
        <time>2018-03-18T13:18:55.999Z</time>
      </trkpt>
      <trkpt lat="43.91863" lon="5.17468">
        <ele>340.9</ele>
        <time>2018-03-18T13:18:58.999Z</time>
      </trkpt>
      <trkpt lat="43.91861" lon="5.17468">
        <ele>340.9</ele>
        <time>2018-03-18T13:18:59.999Z</time>
      </trkpt>
      <trkpt lat="43.91859" lon="5.17468">
        <ele>341</ele>
        <time>2018-03-18T13:19:01.999Z</time>
      </trkpt>
      <trkpt lat="43.91859" lon="5.17468">
        <ele>341</ele>
        <time>2018-03-18T13:19:02.999Z</time>
      </trkpt>
      <trkpt lat="43.91857" lon="5.17468">
        <ele>341.1</ele>
        <time>2018-03-18T13:19:04.999Z</time>
      </trkpt>
      <trkpt lat="43.91856" lon="5.17468">
        <ele>341.2</ele>
        <time>2018-03-18T13:19:05.999Z</time>
      </trkpt>
      <trkpt lat="43.91849" lon="5.17466">
        <ele>341.5</ele>
        <time>2018-03-18T13:19:07.999Z</time>
      </trkpt>
      <trkpt lat="43.91847" lon="5.17466">
        <ele>341.7</ele>
        <time>2018-03-18T13:19:08.999Z</time>
      </trkpt>
      <trkpt lat="43.91838" lon="5.17467">
        <ele>342.1</ele>
        <time>2018-03-18T13:19:14.999Z</time>
      </trkpt>
      <trkpt lat="43.91837" lon="5.17467">
        <ele>342.2</ele>
        <time>2018-03-18T13:19:15.999Z</time>
      </trkpt>
      <trkpt lat="43.9183" lon="5.17467">
        <ele>342.4</ele>
        <time>2018-03-18T13:19:20.999Z</time>
      </trkpt>
      <trkpt lat="43.91828" lon="5.17467">
        <ele>342.4</ele>
        <time>2018-03-18T13:19:21.999Z</time>
      </trkpt>
      <trkpt lat="43.9182" lon="5.1747">
        <ele>343</ele>
        <time>2018-03-18T13:19:27.999Z</time>
      </trkpt>
      <trkpt lat="43.91819" lon="5.1747">
        <ele>343</ele>
        <time>2018-03-18T13:19:28.999Z</time>
      </trkpt>
      <trkpt lat="43.91815" lon="5.17469">
        <ele>343.2</ele>
        <time>2018-03-18T13:19:31.999Z</time>
      </trkpt>
      <trkpt lat="43.91814" lon="5.17469">
        <ele>343.4</ele>
        <time>2018-03-18T13:19:32.999Z</time>
      </trkpt>
      <trkpt lat="43.9181" lon="5.17466">
        <ele>343.7</ele>
        <time>2018-03-18T13:19:38.999Z</time>
      </trkpt>
      <trkpt lat="43.9181" lon="5.17465">
        <ele>343.6</ele>
        <time>2018-03-18T13:19:39.999Z</time>
      </trkpt>
      <trkpt lat="43.91805" lon="5.17455">
        <ele>343.6</ele>
        <time>2018-03-18T13:19:52.999Z</time>
      </trkpt>
      <trkpt lat="43.91805" lon="5.17454">
        <ele>343.6</ele>
        <time>2018-03-18T13:19:53.999Z</time>
      </trkpt>
      <trkpt lat="43.91803" lon="5.17441">
        <ele>343.8</ele>
        <time>2018-03-18T13:20:01.999Z</time>
      </trkpt>
      <trkpt lat="43.91803" lon="5.1744">
        <ele>343.8</ele>
        <time>2018-03-18T13:20:02.999Z</time>
      </trkpt>
      <trkpt lat="43.91798" lon="5.17431">
        <ele>344</ele>
        <time>2018-03-18T13:20:07.999Z</time>
      </trkpt>
      <trkpt lat="43.91797" lon="5.17429">
        <ele>344</ele>
        <time>2018-03-18T13:20:08.999Z</time>
      </trkpt>
      <trkpt lat="43.91796" lon="5.17418">
        <ele>343.5</ele>
        <time>2018-03-18T13:20:15.999Z</time>
      </trkpt>
      <trkpt lat="43.91796" lon="5.17417">
        <ele>343.6</ele>
        <time>2018-03-18T13:20:16.999Z</time>
      </trkpt>
      <trkpt lat="43.91795" lon="5.17404">
        <ele>344</ele>
        <time>2018-03-18T13:20:23.999Z</time>
      </trkpt>
      <trkpt lat="43.91795" lon="5.17403">
        <ele>344.1</ele>
        <time>2018-03-18T13:20:24.999Z</time>
      </trkpt>
      <trkpt lat="43.91795" lon="5.17391">
        <ele>343.8</ele>
        <time>2018-03-18T13:20:33.999Z</time>
      </trkpt>
      <trkpt lat="43.91795" lon="5.1739">
        <ele>343.8</ele>
        <time>2018-03-18T13:20:34.999Z</time>
      </trkpt>
      <trkpt lat="43.91795" lon="5.17378">
        <ele>344.6</ele>
        <time>2018-03-18T13:20:47.999Z</time>
      </trkpt>
      <trkpt lat="43.91794" lon="5.17376">
        <ele>344.6</ele>
        <time>2018-03-18T13:20:48.999Z</time>
      </trkpt>
      <trkpt lat="43.91795" lon="5.17365">
        <ele>344.7</ele>
        <time>2018-03-18T13:20:55.999Z</time>
      </trkpt>
      <trkpt lat="43.91796" lon="5.17362">
        <ele>344.8</ele>
        <time>2018-03-18T13:20:56.999Z</time>
      </trkpt>
      <trkpt lat="43.91797" lon="5.17351">
        <ele>345.1</ele>
        <time>2018-03-18T13:21:03.999Z</time>
      </trkpt>
      <trkpt lat="43.91797" lon="5.17349">
        <ele>345.3</ele>
        <time>2018-03-18T13:21:04.999Z</time>
      </trkpt>
      <trkpt lat="43.91796" lon="5.17338">
        <ele>345.8</ele>
        <time>2018-03-18T13:21:11.999Z</time>
      </trkpt>
      <trkpt lat="43.91795" lon="5.17336">
        <ele>345.8</ele>
        <time>2018-03-18T13:21:12.999Z</time>
      </trkpt>
      <trkpt lat="43.91792" lon="5.17326">
        <ele>345.7</ele>
        <time>2018-03-18T13:21:20.999Z</time>
      </trkpt>
      <trkpt lat="43.91792" lon="5.17324">
        <ele>345.7</ele>
        <time>2018-03-18T13:21:21.999Z</time>
      </trkpt>
      <trkpt lat="43.91797" lon="5.17313">
        <ele>345.8</ele>
        <time>2018-03-18T13:21:29.999Z</time>
      </trkpt>
      <trkpt lat="43.91797" lon="5.17312">
        <ele>345.8</ele>
        <time>2018-03-18T13:21:30.999Z</time>
      </trkpt>
      <trkpt lat="43.91799" lon="5.17301">
        <ele>346</ele>
        <time>2018-03-18T13:21:39.999Z</time>
      </trkpt>
      <trkpt lat="43.918" lon="5.17299">
        <ele>346.1</ele>
        <time>2018-03-18T13:21:40.999Z</time>
      </trkpt>
      <trkpt lat="43.91802" lon="5.17289">
        <ele>348.4</ele>
        <time>2018-03-18T13:21:49.999Z</time>
      </trkpt>
      <trkpt lat="43.91802" lon="5.17287">
        <ele>348.7</ele>
        <time>2018-03-18T13:21:50.999Z</time>
      </trkpt>
      <trkpt lat="43.91802" lon="5.17276">
        <ele>350.3</ele>
        <time>2018-03-18T13:21:56.999Z</time>
      </trkpt>
      <trkpt lat="43.91802" lon="5.17275">
        <ele>350.5</ele>
        <time>2018-03-18T13:21:57.999Z</time>
      </trkpt>
      <trkpt lat="43.91801" lon="5.17263">
        <ele>351.9</ele>
        <time>2018-03-18T13:22:05.999Z</time>
      </trkpt>
      <trkpt lat="43.91801" lon="5.17262">
        <ele>352</ele>
        <time>2018-03-18T13:22:06.999Z</time>
      </trkpt>
      <trkpt lat="43.918" lon="5.1725">
        <ele>352.8</ele>
        <time>2018-03-18T13:22:13.999Z</time>
      </trkpt>
      <trkpt lat="43.918" lon="5.17249">
        <ele>352.8</ele>
        <time>2018-03-18T13:22:14.999Z</time>
      </trkpt>
      <trkpt lat="43.91796" lon="5.17238">
        <ele>354.6</ele>
        <time>2018-03-18T13:22:24.999Z</time>
      </trkpt>
      <trkpt lat="43.91795" lon="5.17236">
        <ele>354.7</ele>
        <time>2018-03-18T13:22:25.999Z</time>
      </trkpt>
      <trkpt lat="43.91791" lon="5.17225">
        <ele>355.6</ele>
        <time>2018-03-18T13:22:33.999Z</time>
      </trkpt>
      <trkpt lat="43.91791" lon="5.17225">
        <ele>355.7</ele>
        <time>2018-03-18T13:22:34.999Z</time>
      </trkpt>
      <trkpt lat="43.91784" lon="5.17227">
        <ele>356.5</ele>
        <time>2018-03-18T13:22:42.999Z</time>
      </trkpt>
      <trkpt lat="43.91782" lon="5.17229">
        <ele>356.6</ele>
        <time>2018-03-18T13:22:43.999Z</time>
      </trkpt>
      <trkpt lat="43.91776" lon="5.17235">
        <ele>356.7</ele>
        <time>2018-03-18T13:22:47.999Z</time>
      </trkpt>
      <trkpt lat="43.91775" lon="5.17237">
        <ele>356.7</ele>
        <time>2018-03-18T13:22:48.999Z</time>
      </trkpt>
      <trkpt lat="43.91774" lon="5.17239">
        <ele>356.7</ele>
        <time>2018-03-18T13:22:50.999Z</time>
      </trkpt>
      <trkpt lat="43.91774" lon="5.17239">
        <ele>356.7</ele>
        <time>2018-03-18T13:22:51.999Z</time>
      </trkpt>
      <trkpt lat="43.91774" lon="5.1724">
        <ele>356.8</ele>
        <time>2018-03-18T13:22:53.999Z</time>
      </trkpt>
      <trkpt lat="43.91774" lon="5.1724">
        <ele>356.8</ele>
        <time>2018-03-18T13:22:54.999Z</time>
      </trkpt>
      <trkpt lat="43.9177" lon="5.1725">
        <ele>357.4</ele>
        <time>2018-03-18T13:22:59.999Z</time>
      </trkpt>
      <trkpt lat="43.91769" lon="5.17252">
        <ele>357.4</ele>
        <time>2018-03-18T13:23:00.999Z</time>
      </trkpt>
      <trkpt lat="43.91768" lon="5.17256">
        <ele>357.7</ele>
        <time>2018-03-18T13:23:03.999Z</time>
      </trkpt>
      <trkpt lat="43.91767" lon="5.17257">
        <ele>357.9</ele>
        <time>2018-03-18T13:23:04.999Z</time>
      </trkpt>
      <trkpt lat="43.91766" lon="5.17269">
        <ele>358.7</ele>
        <time>2018-03-18T13:23:12.999Z</time>
      </trkpt>
      <trkpt lat="43.91766" lon="5.1727">
        <ele>358.8</ele>
        <time>2018-03-18T13:23:13.999Z</time>
      </trkpt>
      <trkpt lat="43.91765" lon="5.17272">
        <ele>358.9</ele>
        <time>2018-03-18T13:23:14.999Z</time>
      </trkpt>
      <trkpt lat="43.91764" lon="5.17277">
        <ele>359</ele>
        <time>2018-03-18T13:23:16.999Z</time>
      </trkpt>
      <trkpt lat="43.91763" lon="5.17278">
        <ele>359</ele>
        <time>2018-03-18T13:23:17.999Z</time>
      </trkpt>
      <trkpt lat="43.91759" lon="5.17289">
        <ele>359.7</ele>
        <time>2018-03-18T13:23:25.999Z</time>
      </trkpt>
      <trkpt lat="43.91758" lon="5.1729">
        <ele>359.8</ele>
        <time>2018-03-18T13:23:26.999Z</time>
      </trkpt>
      <trkpt lat="43.91757" lon="5.17299">
        <ele>361</ele>
        <time>2018-03-18T13:23:31.999Z</time>
      </trkpt>
      <trkpt lat="43.91758" lon="5.17304">
        <ele>361.3</ele>
        <time>2018-03-18T13:23:32.999Z</time>
      </trkpt>
      <trkpt lat="43.91757" lon="5.17315">
        <ele>363.2</ele>
        <time>2018-03-18T13:23:39.999Z</time>
      </trkpt>
      <trkpt lat="43.91757" lon="5.17317">
        <ele>363.6</ele>
        <time>2018-03-18T13:23:40.999Z</time>
      </trkpt>
      <trkpt lat="43.91752" lon="5.17327">
        <ele>365.9</ele>
        <time>2018-03-18T13:23:50.999Z</time>
      </trkpt>
      <trkpt lat="43.91752" lon="5.17328">
        <ele>366.1</ele>
        <time>2018-03-18T13:23:51.999Z</time>
      </trkpt>
      <trkpt lat="43.91748" lon="5.17338">
        <ele>367.6</ele>
        <time>2018-03-18T13:24:00.999Z</time>
      </trkpt>
      <trkpt lat="43.91747" lon="5.17339">
        <ele>367.9</ele>
        <time>2018-03-18T13:24:01.999Z</time>
      </trkpt>
      <trkpt lat="43.91744" lon="5.1735">
        <ele>369.4</ele>
        <time>2018-03-18T13:24:08.999Z</time>
      </trkpt>
      <trkpt lat="43.91743" lon="5.17352">
        <ele>369.6</ele>
        <time>2018-03-18T13:24:09.999Z</time>
      </trkpt>
      <trkpt lat="43.91742" lon="5.17363">
        <ele>370.8</ele>
        <time>2018-03-18T13:24:18.999Z</time>
      </trkpt>
      <trkpt lat="43.91742" lon="5.17365">
        <ele>370.9</ele>
        <time>2018-03-18T13:24:19.999Z</time>
      </trkpt>
      <trkpt lat="43.91739" lon="5.17375">
        <ele>370.8</ele>
        <time>2018-03-18T13:24:25.999Z</time>
      </trkpt>
      <trkpt lat="43.91738" lon="5.17377">
        <ele>370.8</ele>
        <time>2018-03-18T13:24:26.999Z</time>
      </trkpt>
      <trkpt lat="43.91734" lon="5.17388">
        <ele>370.7</ele>
        <time>2018-03-18T13:24:35.999Z</time>
      </trkpt>
      <trkpt lat="43.91733" lon="5.17389">
        <ele>370.7</ele>
        <time>2018-03-18T13:24:36.999Z</time>
      </trkpt>
      <trkpt lat="43.91729" lon="5.17399">
        <ele>370.5</ele>
        <time>2018-03-18T13:24:43.999Z</time>
      </trkpt>
      <trkpt lat="43.91729" lon="5.17401">
        <ele>370.4</ele>
        <time>2018-03-18T13:24:44.999Z</time>
      </trkpt>
      <trkpt lat="43.91721" lon="5.17406">
        <ele>370</ele>
        <time>2018-03-18T13:24:54.999Z</time>
      </trkpt>
      <trkpt lat="43.91718" lon="5.17406">
        <ele>370.1</ele>
        <time>2018-03-18T13:24:55.999Z</time>
      </trkpt>
      <trkpt lat="43.9171" lon="5.17405">
        <ele>370.6</ele>
        <time>2018-03-18T13:25:02.999Z</time>
      </trkpt>
      <trkpt lat="43.91709" lon="5.17405">
        <ele>370.7</ele>
        <time>2018-03-18T13:25:03.999Z</time>
      </trkpt>
      <trkpt lat="43.91701" lon="5.17404">
        <ele>371.9</ele>
        <time>2018-03-18T13:25:09.999Z</time>
      </trkpt>
      <trkpt lat="43.91699" lon="5.17403">
        <ele>372.1</ele>
        <time>2018-03-18T13:25:10.999Z</time>
      </trkpt>
      <trkpt lat="43.91695" lon="5.17403">
        <ele>373.1</ele>
        <time>2018-03-18T13:25:14.999Z</time>
      </trkpt>
      <trkpt lat="43.91694" lon="5.17403">
        <ele>373.1</ele>
        <time>2018-03-18T13:25:15.999Z</time>
      </trkpt>
      <trkpt lat="43.91692" lon="5.17404">
        <ele>373.6</ele>
        <time>2018-03-18T13:25:18.999Z</time>
      </trkpt>
      <trkpt lat="43.91691" lon="5.17405">
        <ele>373.9</ele>
        <time>2018-03-18T13:25:19.999Z</time>
      </trkpt>
      <trkpt lat="43.91687" lon="5.17407">
        <ele>374.6</ele>
        <time>2018-03-18T13:25:23.999Z</time>
      </trkpt>
      <trkpt lat="43.91687" lon="5.17407">
        <ele>374.9</ele>
        <time>2018-03-18T13:25:24.999Z</time>
      </trkpt>
      <trkpt lat="43.91686" lon="5.17407">
        <ele>375.4</ele>
        <time>2018-03-18T13:25:26.999Z</time>
      </trkpt>
      <trkpt lat="43.91685" lon="5.17407">
        <ele>375.6</ele>
        <time>2018-03-18T13:25:27.999Z</time>
      </trkpt>
      <trkpt lat="43.91679" lon="5.174">
        <ele>377.5</ele>
        <time>2018-03-18T13:25:39.999Z</time>
      </trkpt>
      <trkpt lat="43.91678" lon="5.17399">
        <ele>377.7</ele>
        <time>2018-03-18T13:25:40.999Z</time>
      </trkpt>
      <trkpt lat="43.91671" lon="5.17394">
        <ele>378</ele>
        <time>2018-03-18T13:25:46.999Z</time>
      </trkpt>
      <trkpt lat="43.91669" lon="5.17394">
        <ele>378.1</ele>
        <time>2018-03-18T13:25:47.999Z</time>
      </trkpt>
      <trkpt lat="43.91661" lon="5.17393">
        <ele>378.2</ele>
        <time>2018-03-18T13:25:55.999Z</time>
      </trkpt>
      <trkpt lat="43.91658" lon="5.17391">
        <ele>378.2</ele>
        <time>2018-03-18T13:25:56.999Z</time>
      </trkpt>
      <trkpt lat="43.9165" lon="5.17387">
        <ele>378.8</ele>
        <time>2018-03-18T13:26:04.999Z</time>
      </trkpt>
      <trkpt lat="43.91645" lon="5.17387">
        <ele>378.9</ele>
        <time>2018-03-18T13:26:05.999Z</time>
      </trkpt>
      <trkpt lat="43.91636" lon="5.17386">
        <ele>379.7</ele>
        <time>2018-03-18T13:26:11.999Z</time>
      </trkpt>
      <trkpt lat="43.91635" lon="5.17386">
        <ele>379.7</ele>
        <time>2018-03-18T13:26:12.999Z</time>
      </trkpt>
      <trkpt lat="43.91628" lon="5.17385">
        <ele>380</ele>
        <time>2018-03-18T13:26:15.999Z</time>
      </trkpt>
      <trkpt lat="43.91626" lon="5.17386">
        <ele>380.1</ele>
        <time>2018-03-18T13:26:16.999Z</time>
      </trkpt>
      <trkpt lat="43.91618" lon="5.17388">
        <ele>381</ele>
        <time>2018-03-18T13:26:23.999Z</time>
      </trkpt>
      <trkpt lat="43.91616" lon="5.17388">
        <ele>381.2</ele>
        <time>2018-03-18T13:26:24.999Z</time>
      </trkpt>
      <trkpt lat="43.91611" lon="5.17389">
        <ele>381.7</ele>
        <time>2018-03-18T13:26:32.999Z</time>
      </trkpt>
      <trkpt lat="43.9161" lon="5.17389">
        <ele>381.7</ele>
        <time>2018-03-18T13:26:33.999Z</time>
      </trkpt>
      <trkpt lat="43.91603" lon="5.17385">
        <ele>336</ele>
        <time>2018-03-18T13:27:15.476Z</time>
      </trkpt>
      <trkpt lat="43.91602" lon="5.17385">
        <ele>381.1</ele>
        <time>2018-03-18T13:27:16.999Z</time>
      </trkpt>
      <trkpt lat="43.91601" lon="5.17385">
        <ele>335.7</ele>
        <time>2018-03-18T13:27:17.046Z</time>
      </trkpt>
      <trkpt lat="43.91601" lon="5.17385">
        <ele>381.1</ele>
        <time>2018-03-18T13:27:17.999Z</time>
      </trkpt>
      <trkpt lat="43.91599" lon="5.17385">
        <ele>381.1</ele>
        <time>2018-03-18T13:27:23.999Z</time>
      </trkpt>
      <trkpt lat="43.91599" lon="5.17385">
        <ele>381.1</ele>
        <time>2018-03-18T13:27:24.999Z</time>
      </trkpt>
      <trkpt lat="43.91597" lon="5.17384">
        <ele>381.5</ele>
        <time>2018-03-18T13:27:33.999Z</time>
      </trkpt>
      <trkpt lat="43.91597" lon="5.17384">
        <ele>381.6</ele>
        <time>2018-03-18T13:27:34.999Z</time>
      </trkpt>
      <trkpt lat="43.91596" lon="5.17382">
        <ele>381.6</ele>
        <time>2018-03-18T13:27:37.999Z</time>
      </trkpt>
      <trkpt lat="43.91595" lon="5.17382">
        <ele>381.6</ele>
        <time>2018-03-18T13:27:38.999Z</time>
      </trkpt>
      <trkpt lat="43.91593" lon="5.17381">
        <ele>381.7</ele>
        <time>2018-03-18T13:27:40.999Z</time>
      </trkpt>
      <trkpt lat="43.91593" lon="5.17381">
        <ele>381.8</ele>
        <time>2018-03-18T13:27:41.999Z</time>
      </trkpt>
      <trkpt lat="43.91591" lon="5.17383">
        <ele>382.4</ele>
        <time>2018-03-18T13:27:48.999Z</time>
      </trkpt>
      <trkpt lat="43.91596" lon="5.17372">
        <ele>391.4</ele>
        <time>2018-03-18T13:29:02.221Z</time>
      </trkpt>
      <trkpt lat="43.91595" lon="5.17372">
        <ele>389.3</ele>
        <time>2018-03-18T13:29:03.221Z</time>
      </trkpt>
      <trkpt lat="43.91595" lon="5.17372">
        <ele>383.7</ele>
        <time>2018-03-18T13:29:03.999Z</time>
      </trkpt>
      <trkpt lat="43.91588" lon="5.17376">
        <ele>372.2</ele>
        <time>2018-03-18T13:29:43.999Z</time>
      </trkpt>
      <trkpt lat="43.91586" lon="5.17375">
        <ele>372.4</ele>
        <time>2018-03-18T13:29:44.999Z</time>
      </trkpt>
      <trkpt lat="43.91585" lon="5.17375">
        <ele>372.6</ele>
        <time>2018-03-18T13:29:45.999Z</time>
      </trkpt>
      <trkpt lat="43.91583" lon="5.17374">
        <ele>372.7</ele>
        <time>2018-03-18T13:29:46.999Z</time>
      </trkpt>
      <trkpt lat="43.9158" lon="5.17373">
        <ele>373</ele>
        <time>2018-03-18T13:29:48.999Z</time>
      </trkpt>
      <trkpt lat="43.91579" lon="5.17373">
        <ele>373</ele>
        <time>2018-03-18T13:29:49.999Z</time>
      </trkpt>
      <trkpt lat="43.91577" lon="5.17372">
        <ele>373.5</ele>
        <time>2018-03-18T13:30:08.999Z</time>
      </trkpt>
      <trkpt lat="43.91576" lon="5.17371">
        <ele>373.6</ele>
        <time>2018-03-18T13:30:09.999Z</time>
      </trkpt>
      <trkpt lat="43.91575" lon="5.1737">
        <ele>373.9</ele>
        <time>2018-03-18T13:30:11.999Z</time>
      </trkpt>
      <trkpt lat="43.91575" lon="5.17369">
        <ele>374.1</ele>
        <time>2018-03-18T13:30:12.999Z</time>
      </trkpt>
      <trkpt lat="43.91574" lon="5.17369">
        <ele>374.4</ele>
        <time>2018-03-18T13:30:14.999Z</time>
      </trkpt>
      <trkpt lat="43.91573" lon="5.17368">
        <ele>374.5</ele>
        <time>2018-03-18T13:30:15.999Z</time>
      </trkpt>
      <trkpt lat="43.91564" lon="5.17365">
        <ele>375.6</ele>
        <time>2018-03-18T13:30:21.999Z</time>
      </trkpt>
      <trkpt lat="43.91563" lon="5.17365">
        <ele>375.7</ele>
        <time>2018-03-18T13:30:22.999Z</time>
      </trkpt>
      <trkpt lat="43.91556" lon="5.17361">
        <ele>376.5</ele>
        <time>2018-03-18T13:30:28.999Z</time>
      </trkpt>
      <trkpt lat="43.91554" lon="5.17361">
        <ele>376.7</ele>
        <time>2018-03-18T13:30:29.999Z</time>
      </trkpt>
      <trkpt lat="43.91546" lon="5.17358">
        <ele>377.6</ele>
        <time>2018-03-18T13:30:37.999Z</time>
      </trkpt>
      <trkpt lat="43.91545" lon="5.17358">
        <ele>377.7</ele>
        <time>2018-03-18T13:30:38.999Z</time>
      </trkpt>
      <trkpt lat="43.91537" lon="5.17354">
        <ele>378.7</ele>
        <time>2018-03-18T13:30:47.999Z</time>
      </trkpt>
      <trkpt lat="43.91536" lon="5.17354">
        <ele>378.8</ele>
        <time>2018-03-18T13:30:48.999Z</time>
      </trkpt>
      <trkpt lat="43.91527" lon="5.1735">
        <ele>379.5</ele>
        <time>2018-03-18T13:30:55.999Z</time>
      </trkpt>
      <trkpt lat="43.91527" lon="5.1735">
        <ele>379.6</ele>
        <time>2018-03-18T13:30:56.999Z</time>
      </trkpt>
      <trkpt lat="43.91519" lon="5.1735">
        <ele>379.6</ele>
        <time>2018-03-18T13:31:01.999Z</time>
      </trkpt>
      <trkpt lat="43.91518" lon="5.17351">
        <ele>379.6</ele>
        <time>2018-03-18T13:31:02.999Z</time>
      </trkpt>
      <trkpt lat="43.91511" lon="5.17354">
        <ele>379.6</ele>
        <time>2018-03-18T13:31:07.999Z</time>
      </trkpt>
      <trkpt lat="43.91509" lon="5.17355">
        <ele>379.6</ele>
        <time>2018-03-18T13:31:08.999Z</time>
      </trkpt>
      <trkpt lat="43.91502" lon="5.1736">
        <ele>379.5</ele>
        <time>2018-03-18T13:31:14.999Z</time>
      </trkpt>
      <trkpt lat="43.91501" lon="5.17361">
        <ele>379.4</ele>
        <time>2018-03-18T13:31:15.999Z</time>
      </trkpt>
      <trkpt lat="43.91493" lon="5.17367">
        <ele>379.6</ele>
        <time>2018-03-18T13:31:22.999Z</time>
      </trkpt>
      <trkpt lat="43.91492" lon="5.17367">
        <ele>379.6</ele>
        <time>2018-03-18T13:31:23.999Z</time>
      </trkpt>
      <trkpt lat="43.91485" lon="5.17372">
        <ele>379.7</ele>
        <time>2018-03-18T13:31:28.999Z</time>
      </trkpt>
      <trkpt lat="43.91484" lon="5.17373">
        <ele>379.7</ele>
        <time>2018-03-18T13:31:29.999Z</time>
      </trkpt>
      <trkpt lat="43.91476" lon="5.17378">
        <ele>380.5</ele>
        <time>2018-03-18T13:31:37.999Z</time>
      </trkpt>
      <trkpt lat="43.91475" lon="5.17378">
        <ele>380.6</ele>
        <time>2018-03-18T13:31:38.999Z</time>
      </trkpt>
      <trkpt lat="43.91466" lon="5.1738">
        <ele>381.7</ele>
        <time>2018-03-18T13:31:45.999Z</time>
      </trkpt>
      <trkpt lat="43.91465" lon="5.17381">
        <ele>381.9</ele>
        <time>2018-03-18T13:31:46.999Z</time>
      </trkpt>
      <trkpt lat="43.91456" lon="5.17382">
        <ele>382.9</ele>
        <time>2018-03-18T13:31:53.999Z</time>
      </trkpt>
      <trkpt lat="43.91455" lon="5.17382">
        <ele>383.1</ele>
        <time>2018-03-18T13:31:54.999Z</time>
      </trkpt>
      <trkpt lat="43.91446" lon="5.17383">
        <ele>385.6</ele>
        <time>2018-03-18T13:32:05.999Z</time>
      </trkpt>
      <trkpt lat="43.91445" lon="5.17383">
        <ele>385.8</ele>
        <time>2018-03-18T13:32:06.999Z</time>
      </trkpt>
      <trkpt lat="43.91437" lon="5.1738">
        <ele>387.6</ele>
        <time>2018-03-18T13:32:14.999Z</time>
      </trkpt>
      <trkpt lat="43.91436" lon="5.17379">
        <ele>387.8</ele>
        <time>2018-03-18T13:32:15.999Z</time>
      </trkpt>
      <trkpt lat="43.91429" lon="5.17373">
        <ele>389.1</ele>
        <time>2018-03-18T13:32:21.999Z</time>
      </trkpt>
      <trkpt lat="43.91428" lon="5.17372">
        <ele>389.3</ele>
        <time>2018-03-18T13:32:22.999Z</time>
      </trkpt>
      <trkpt lat="43.91423" lon="5.17364">
        <ele>390.1</ele>
        <time>2018-03-18T13:32:28.999Z</time>
      </trkpt>
      <trkpt lat="43.91421" lon="5.17363">
        <ele>390.2</ele>
        <time>2018-03-18T13:32:29.999Z</time>
      </trkpt>
      <trkpt lat="43.91413" lon="5.17358">
        <ele>390.8</ele>
        <time>2018-03-18T13:32:35.999Z</time>
      </trkpt>
      <trkpt lat="43.91412" lon="5.17357">
        <ele>391</ele>
        <time>2018-03-18T13:32:36.999Z</time>
      </trkpt>
      <trkpt lat="43.91406" lon="5.17349">
        <ele>392.3</ele>
        <time>2018-03-18T13:32:44.999Z</time>
      </trkpt>
      <trkpt lat="43.91405" lon="5.17348">
        <ele>392.5</ele>
        <time>2018-03-18T13:32:45.999Z</time>
      </trkpt>
      <trkpt lat="43.91398" lon="5.17341">
        <ele>393.1</ele>
        <time>2018-03-18T13:32:50.999Z</time>
      </trkpt>
      <trkpt lat="43.91397" lon="5.1734">
        <ele>393.2</ele>
        <time>2018-03-18T13:32:51.999Z</time>
      </trkpt>
      <trkpt lat="43.9139" lon="5.17334">
        <ele>393.9</ele>
        <time>2018-03-18T13:32:57.999Z</time>
      </trkpt>
      <trkpt lat="43.91388" lon="5.17332">
        <ele>394</ele>
        <time>2018-03-18T13:32:58.999Z</time>
      </trkpt>
      <trkpt lat="43.9138" lon="5.17327">
        <ele>394.3</ele>
        <time>2018-03-18T13:33:04.999Z</time>
      </trkpt>
      <trkpt lat="43.91379" lon="5.17326">
        <ele>394.4</ele>
        <time>2018-03-18T13:33:05.999Z</time>
      </trkpt>
      <trkpt lat="43.91371" lon="5.17323">
        <ele>394.8</ele>
        <time>2018-03-18T13:33:11.999Z</time>
      </trkpt>
      <trkpt lat="43.9137" lon="5.17323">
        <ele>394.9</ele>
        <time>2018-03-18T13:33:12.999Z</time>
      </trkpt>
      <trkpt lat="43.91362" lon="5.1732">
        <ele>395.3</ele>
        <time>2018-03-18T13:33:20.999Z</time>
      </trkpt>
      <trkpt lat="43.91361" lon="5.1732">
        <ele>395.4</ele>
        <time>2018-03-18T13:33:21.999Z</time>
      </trkpt>
      <trkpt lat="43.91352" lon="5.17318">
        <ele>395.3</ele>
        <time>2018-03-18T13:33:28.999Z</time>
      </trkpt>
      <trkpt lat="43.91351" lon="5.17318">
        <ele>395.2</ele>
        <time>2018-03-18T13:33:29.999Z</time>
      </trkpt>
      <trkpt lat="43.91344" lon="5.17315">
        <ele>395.2</ele>
        <time>2018-03-18T13:33:36.999Z</time>
      </trkpt>
      <trkpt lat="43.91342" lon="5.17315">
        <ele>395.3</ele>
        <time>2018-03-18T13:33:37.999Z</time>
      </trkpt>
      <trkpt lat="43.91335" lon="5.17316">
        <ele>395.3</ele>
        <time>2018-03-18T13:33:41.999Z</time>
      </trkpt>
      <trkpt lat="43.91333" lon="5.17316">
        <ele>395.4</ele>
        <time>2018-03-18T13:33:42.999Z</time>
      </trkpt>
      <trkpt lat="43.91325" lon="5.17317">
        <ele>395.4</ele>
        <time>2018-03-18T13:33:45.999Z</time>
      </trkpt>
      <trkpt lat="43.91323" lon="5.17318">
        <ele>395.3</ele>
        <time>2018-03-18T13:33:46.999Z</time>
      </trkpt>
      <trkpt lat="43.91314" lon="5.17321">
        <ele>395.2</ele>
        <time>2018-03-18T13:33:50.999Z</time>
      </trkpt>
      <trkpt lat="43.91313" lon="5.17322">
        <ele>395.2</ele>
        <time>2018-03-18T13:33:51.999Z</time>
      </trkpt>
      <trkpt lat="43.91306" lon="5.17324">
        <ele>395.2</ele>
        <time>2018-03-18T13:33:57.999Z</time>
      </trkpt>
      <trkpt lat="43.91304" lon="5.17324">
        <ele>395.2</ele>
        <time>2018-03-18T13:33:58.999Z</time>
      </trkpt>
      <trkpt lat="43.91295" lon="5.17325">
        <ele>394.7</ele>
        <time>2018-03-18T13:34:05.999Z</time>
      </trkpt>
      <trkpt lat="43.91295" lon="5.17325">
        <ele>394.6</ele>
        <time>2018-03-18T13:34:06.999Z</time>
      </trkpt>
      <trkpt lat="43.91286" lon="5.17324">
        <ele>394.1</ele>
        <time>2018-03-18T13:34:18.999Z</time>
      </trkpt>
      <trkpt lat="43.91285" lon="5.17323">
        <ele>394</ele>
        <time>2018-03-18T13:34:19.999Z</time>
      </trkpt>
      <trkpt lat="43.91278" lon="5.17321">
        <ele>393.4</ele>
        <time>2018-03-18T13:34:26.999Z</time>
      </trkpt>
      <trkpt lat="43.91276" lon="5.17321">
        <ele>393.4</ele>
        <time>2018-03-18T13:34:27.999Z</time>
      </trkpt>
      <trkpt lat="43.91267" lon="5.17322">
        <ele>392.7</ele>
        <time>2018-03-18T13:34:34.999Z</time>
      </trkpt>
      <trkpt lat="43.91266" lon="5.17323">
        <ele>392.6</ele>
        <time>2018-03-18T13:34:35.999Z</time>
      </trkpt>
      <trkpt lat="43.91257" lon="5.17325">
        <ele>391.9</ele>
        <time>2018-03-18T13:34:40.999Z</time>
      </trkpt>
      <trkpt lat="43.91255" lon="5.17326">
        <ele>391.9</ele>
        <time>2018-03-18T13:34:41.999Z</time>
      </trkpt>
      <trkpt lat="43.91248" lon="5.17328">
        <ele>391.2</ele>
        <time>2018-03-18T13:34:46.999Z</time>
      </trkpt>
      <trkpt lat="43.91246" lon="5.17329">
        <ele>391.2</ele>
        <time>2018-03-18T13:34:47.999Z</time>
      </trkpt>
      <trkpt lat="43.91238" lon="5.17331">
        <ele>390.6</ele>
        <time>2018-03-18T13:34:53.999Z</time>
      </trkpt>
      <trkpt lat="43.91237" lon="5.17331">
        <ele>390.5</ele>
        <time>2018-03-18T13:34:54.999Z</time>
      </trkpt>
      <trkpt lat="43.91228" lon="5.1733">
        <ele>389.3</ele>
        <time>2018-03-18T13:35:03.999Z</time>
      </trkpt>
      <trkpt lat="43.91228" lon="5.17331">
        <ele>389.1</ele>
        <time>2018-03-18T13:35:04.999Z</time>
      </trkpt>
      <trkpt lat="43.91219" lon="5.17332">
        <ele>388.3</ele>
        <time>2018-03-18T13:35:15.999Z</time>
      </trkpt>
      <trkpt lat="43.91218" lon="5.17332">
        <ele>388.3</ele>
        <time>2018-03-18T13:35:16.999Z</time>
      </trkpt>
      <trkpt lat="43.91212" lon="5.17323">
        <ele>387.6</ele>
        <time>2018-03-18T13:35:25.999Z</time>
      </trkpt>
      <trkpt lat="43.91211" lon="5.17322">
        <ele>387.5</ele>
        <time>2018-03-18T13:35:26.999Z</time>
      </trkpt>
      <trkpt lat="43.91204" lon="5.17327">
        <ele>386.9</ele>
        <time>2018-03-18T13:35:32.999Z</time>
      </trkpt>
      <trkpt lat="43.91203" lon="5.17329">
        <ele>386.8</ele>
        <time>2018-03-18T13:35:33.999Z</time>
      </trkpt>
      <trkpt lat="43.91197" lon="5.17338">
        <ele>386.3</ele>
        <time>2018-03-18T13:35:41.999Z</time>
      </trkpt>
      <trkpt lat="43.91196" lon="5.17339">
        <ele>386.3</ele>
        <time>2018-03-18T13:35:42.999Z</time>
      </trkpt>
      <trkpt lat="43.91189" lon="5.17346">
        <ele>385.8</ele>
        <time>2018-03-18T13:35:48.999Z</time>
      </trkpt>
      <trkpt lat="43.91188" lon="5.17347">
        <ele>385.7</ele>
        <time>2018-03-18T13:35:49.999Z</time>
      </trkpt>
      <trkpt lat="43.91182" lon="5.17354">
        <ele>385.3</ele>
        <time>2018-03-18T13:35:55.999Z</time>
      </trkpt>
      <trkpt lat="43.91181" lon="5.17355">
        <ele>385.2</ele>
        <time>2018-03-18T13:35:56.999Z</time>
      </trkpt>
      <trkpt lat="43.91177" lon="5.17363">
        <ele>384.7</ele>
        <time>2018-03-18T13:36:01.999Z</time>
      </trkpt>
      <trkpt lat="43.91176" lon="5.17365">
        <ele>384.6</ele>
        <time>2018-03-18T13:36:02.999Z</time>
      </trkpt>
      <trkpt lat="43.91171" lon="5.17373">
        <ele>384.2</ele>
        <time>2018-03-18T13:36:07.999Z</time>
      </trkpt>
      <trkpt lat="43.9117" lon="5.17375">
        <ele>384.2</ele>
        <time>2018-03-18T13:36:08.999Z</time>
      </trkpt>
      <trkpt lat="43.91162" lon="5.17378">
        <ele>383.4</ele>
        <time>2018-03-18T13:36:17.999Z</time>
      </trkpt>
      <trkpt lat="43.91161" lon="5.17378">
        <ele>383.4</ele>
        <time>2018-03-18T13:36:18.999Z</time>
      </trkpt>
      <trkpt lat="43.91153" lon="5.17376">
        <ele>383.1</ele>
        <time>2018-03-18T13:36:24.999Z</time>
      </trkpt>
      <trkpt lat="43.91152" lon="5.17377">
        <ele>383</ele>
        <time>2018-03-18T13:36:25.999Z</time>
      </trkpt>
      <trkpt lat="43.91144" lon="5.17383">
        <ele>382</ele>
        <time>2018-03-18T13:36:32.999Z</time>
      </trkpt>
      <trkpt lat="43.91143" lon="5.17383">
        <ele>381.9</ele>
        <time>2018-03-18T13:36:33.999Z</time>
      </trkpt>
      <trkpt lat="43.91135" lon="5.17388">
        <ele>381.2</ele>
        <time>2018-03-18T13:36:41.999Z</time>
      </trkpt>
      <trkpt lat="43.91134" lon="5.17388">
        <ele>381.1</ele>
        <time>2018-03-18T13:36:42.999Z</time>
      </trkpt>
      <trkpt lat="43.91126" lon="5.17388">
        <ele>380.6</ele>
        <time>2018-03-18T13:36:49.999Z</time>
      </trkpt>
      <trkpt lat="43.91125" lon="5.17389">
        <ele>380.5</ele>
        <time>2018-03-18T13:36:50.999Z</time>
      </trkpt>
      <trkpt lat="43.91117" lon="5.17393">
        <ele>379.9</ele>
        <time>2018-03-18T13:36:57.999Z</time>
      </trkpt>
      <trkpt lat="43.91116" lon="5.17393">
        <ele>379.9</ele>
        <time>2018-03-18T13:36:58.999Z</time>
      </trkpt>
      <trkpt lat="43.91107" lon="5.17393">
        <ele>379.3</ele>
        <time>2018-03-18T13:37:07.999Z</time>
      </trkpt>
      <trkpt lat="43.91106" lon="5.17393">
        <ele>379.2</ele>
        <time>2018-03-18T13:37:08.999Z</time>
      </trkpt>
      <trkpt lat="43.91098" lon="5.17394">
        <ele>378.5</ele>
        <time>2018-03-18T13:37:14.999Z</time>
      </trkpt>
      <trkpt lat="43.91097" lon="5.17395">
        <ele>378.4</ele>
        <time>2018-03-18T13:37:15.999Z</time>
      </trkpt>
      <trkpt lat="43.91088" lon="5.17398">
        <ele>377.8</ele>
        <time>2018-03-18T13:37:22.999Z</time>
      </trkpt>
      <trkpt lat="43.91087" lon="5.17399">
        <ele>377.7</ele>
        <time>2018-03-18T13:37:23.999Z</time>
      </trkpt>
      <trkpt lat="43.91079" lon="5.174">
        <ele>376.5</ele>
        <time>2018-03-18T13:37:31.999Z</time>
      </trkpt>
      <trkpt lat="43.91078" lon="5.17402">
        <ele>376.4</ele>
        <time>2018-03-18T13:37:32.999Z</time>
      </trkpt>
      <trkpt lat="43.91073" lon="5.17411">
        <ele>376.1</ele>
        <time>2018-03-18T13:37:36.999Z</time>
      </trkpt>
      <trkpt lat="43.91072" lon="5.17413">
        <ele>375.9</ele>
        <time>2018-03-18T13:37:37.999Z</time>
      </trkpt>
      <trkpt lat="43.91072" lon="5.17425">
        <ele>375</ele>
        <time>2018-03-18T13:37:43.999Z</time>
      </trkpt>
      <trkpt lat="43.91072" lon="5.17426">
        <ele>374.9</ele>
        <time>2018-03-18T13:37:44.999Z</time>
      </trkpt>
      <trkpt lat="43.91068" lon="5.17436">
        <ele>373.9</ele>
        <time>2018-03-18T13:37:53.999Z</time>
      </trkpt>
      <trkpt lat="43.91067" lon="5.17437">
        <ele>373.8</ele>
        <time>2018-03-18T13:37:54.999Z</time>
      </trkpt>
      <trkpt lat="43.91062" lon="5.17444">
        <ele>373</ele>
        <time>2018-03-18T13:38:02.999Z</time>
      </trkpt>
      <trkpt lat="43.91063" lon="5.17444">
        <ele>372.9</ele>
        <time>2018-03-18T13:38:03.999Z</time>
      </trkpt>
      <trkpt lat="43.91062" lon="5.17445">
        <ele>371.5</ele>
        <time>2018-03-18T13:38:22.999Z</time>
      </trkpt>
      <trkpt lat="43.91062" lon="5.17446">
        <ele>371.5</ele>
        <time>2018-03-18T13:38:23.999Z</time>
      </trkpt>
      <trkpt lat="43.91062" lon="5.17446">
        <ele>371.7</ele>
        <time>2018-03-18T13:38:25.999Z</time>
      </trkpt>
      <trkpt lat="43.91062" lon="5.17447">
        <ele>371.7</ele>
        <time>2018-03-18T13:38:26.999Z</time>
      </trkpt>
      <trkpt lat="43.91063" lon="5.17443">
        <ele>370</ele>
        <time>2018-03-18T13:38:54.999Z</time>
      </trkpt>
      <trkpt lat="43.91063" lon="5.17443">
        <ele>369.9</ele>
        <time>2018-03-18T13:38:55.999Z</time>
      </trkpt>
      <trkpt lat="43.91063" lon="5.17443">
        <ele>369.5</ele>
        <time>2018-03-18T13:38:57.999Z</time>
      </trkpt>
      <trkpt lat="43.91063" lon="5.17443">
        <ele>369.3</ele>
        <time>2018-03-18T13:38:58.999Z</time>
      </trkpt>
      <trkpt lat="43.91063" lon="5.17442">
        <ele>368.8</ele>
        <time>2018-03-18T13:39:01.999Z</time>
      </trkpt>
      <trkpt lat="43.91063" lon="5.17441">
        <ele>368.7</ele>
        <time>2018-03-18T13:39:02.999Z</time>
      </trkpt>
      <trkpt lat="43.9107" lon="5.17434">
        <ele>368.5</ele>
        <time>2018-03-18T13:39:13.999Z</time>
      </trkpt>
      <trkpt lat="43.91071" lon="5.17433">
        <ele>368.4</ele>
        <time>2018-03-18T13:39:14.999Z</time>
      </trkpt>
      <trkpt lat="43.91072" lon="5.17421">
        <ele>368.2</ele>
        <time>2018-03-18T13:39:22.999Z</time>
      </trkpt>
      <trkpt lat="43.91072" lon="5.1742">
        <ele>368.3</ele>
        <time>2018-03-18T13:39:23.999Z</time>
      </trkpt>
      <trkpt lat="43.91073" lon="5.17409">
        <ele>368.7</ele>
        <time>2018-03-18T13:39:29.999Z</time>
      </trkpt>
      <trkpt lat="43.91074" lon="5.17407">
        <ele>368.7</ele>
        <time>2018-03-18T13:39:30.999Z</time>
      </trkpt>
      <trkpt lat="43.91081" lon="5.17402">
        <ele>368.7</ele>
        <time>2018-03-18T13:39:40.000Z</time>
      </trkpt>
      <trkpt lat="43.91082" lon="5.17401">
        <ele>368.6</ele>
        <time>2018-03-18T13:39:41.000Z</time>
      </trkpt>
      <trkpt lat="43.91087" lon="5.17396">
        <ele>367.6</ele>
        <time>2018-03-18T13:39:53.000Z</time>
      </trkpt>
      <trkpt lat="43.91087" lon="5.17396">
        <ele>367.6</ele>
        <time>2018-03-18T13:39:54.000Z</time>
      </trkpt>
      <trkpt lat="43.91087" lon="5.17396">
        <ele>367</ele>
        <time>2018-03-18T13:39:59.000Z</time>
      </trkpt>
      <trkpt lat="43.91087" lon="5.17395">
        <ele>367</ele>
        <time>2018-03-18T13:40:00.000Z</time>
      </trkpt>
      <trkpt lat="43.91095" lon="5.17399">
        <ele>366.1</ele>
        <time>2018-03-18T13:40:09.000Z</time>
      </trkpt>
      <trkpt lat="43.91096" lon="5.174">
        <ele>366</ele>
        <time>2018-03-18T13:40:10.000Z</time>
      </trkpt>
      <trkpt lat="43.91104" lon="5.17403">
        <ele>365.2</ele>
        <time>2018-03-18T13:40:17.000Z</time>
      </trkpt>
      <trkpt lat="43.91105" lon="5.17404">
        <ele>365.1</ele>
        <time>2018-03-18T13:40:18.000Z</time>
      </trkpt>
      <trkpt lat="43.91114" lon="5.17404">
        <ele>364.2</ele>
        <time>2018-03-18T13:40:24.000Z</time>
      </trkpt>
      <trkpt lat="43.91115" lon="5.17404">
        <ele>364.1</ele>
        <time>2018-03-18T13:40:25.000Z</time>
      </trkpt>
      <trkpt lat="43.91124" lon="5.17405">
        <ele>364</ele>
        <time>2018-03-18T13:40:34.000Z</time>
      </trkpt>
      <trkpt lat="43.91126" lon="5.17406">
        <ele>364</ele>
        <time>2018-03-18T13:40:35.000Z</time>
      </trkpt>
      <trkpt lat="43.91134" lon="5.17406">
        <ele>363.5</ele>
        <time>2018-03-18T13:40:40.000Z</time>
      </trkpt>
      <trkpt lat="43.91136" lon="5.17406">
        <ele>363.4</ele>
        <time>2018-03-18T13:40:41.000Z</time>
      </trkpt>
      <trkpt lat="43.91144" lon="5.17409">
        <ele>362.5</ele>
        <time>2018-03-18T13:40:49.000Z</time>
      </trkpt>
      <trkpt lat="43.91145" lon="5.17409">
        <ele>362.4</ele>
        <time>2018-03-18T13:40:50.000Z</time>
      </trkpt>
      <trkpt lat="43.91153" lon="5.17411">
        <ele>361.7</ele>
        <time>2018-03-18T13:40:56.000Z</time>
      </trkpt>
      <trkpt lat="43.91155" lon="5.17411">
        <ele>361.5</ele>
        <time>2018-03-18T13:40:57.000Z</time>
      </trkpt>
      <trkpt lat="43.91147" lon="5.17405">
        <ele>360.7</ele>
        <time>2018-03-18T13:41:21.000Z</time>
      </trkpt>
      <trkpt lat="43.91147" lon="5.17405">
        <ele>360.7</ele>
        <time>2018-03-18T13:41:22.000Z</time>
      </trkpt>
      <trkpt lat="43.9115" lon="5.17395">
        <ele>363.1</ele>
        <time>2018-03-18T13:41:46.000Z</time>
      </trkpt>
      <trkpt lat="43.91151" lon="5.17393">
        <ele>363.1</ele>
        <time>2018-03-18T13:41:47.000Z</time>
      </trkpt>
      <trkpt lat="43.91159" lon="5.1739">
        <ele>363.5</ele>
        <time>2018-03-18T13:41:53.000Z</time>
      </trkpt>
      <trkpt lat="43.91161" lon="5.1739">
        <ele>363.5</ele>
        <time>2018-03-18T13:41:54.000Z</time>
      </trkpt>
      <trkpt lat="43.91168" lon="5.17388">
        <ele>363</ele>
        <time>2018-03-18T13:41:59.000Z</time>
      </trkpt>
      <trkpt lat="43.9117" lon="5.17388">
        <ele>362.9</ele>
        <time>2018-03-18T13:42:00.000Z</time>
      </trkpt>
      <trkpt lat="43.91178" lon="5.1739">
        <ele>362.1</ele>
        <time>2018-03-18T13:42:06.000Z</time>
      </trkpt>
      <trkpt lat="43.91179" lon="5.17391">
        <ele>362</ele>
        <time>2018-03-18T13:42:07.000Z</time>
      </trkpt>
      <trkpt lat="43.91188" lon="5.17395">
        <ele>361.3</ele>
        <time>2018-03-18T13:42:14.000Z</time>
      </trkpt>
      <trkpt lat="43.91189" lon="5.17396">
        <ele>361.1</ele>
        <time>2018-03-18T13:42:15.000Z</time>
      </trkpt>
      <trkpt lat="43.91196" lon="5.17399">
        <ele>360.4</ele>
        <time>2018-03-18T13:42:20.000Z</time>
      </trkpt>
      <trkpt lat="43.91198" lon="5.174">
        <ele>360.2</ele>
        <time>2018-03-18T13:42:21.000Z</time>
      </trkpt>
      <trkpt lat="43.91206" lon="5.17403">
        <ele>359.9</ele>
        <time>2018-03-18T13:42:29.000Z</time>
      </trkpt>
      <trkpt lat="43.91208" lon="5.17403">
        <ele>359.9</ele>
        <time>2018-03-18T13:42:30.000Z</time>
      </trkpt>
      <trkpt lat="43.91216" lon="5.17408">
        <ele>359.9</ele>
        <time>2018-03-18T13:42:37.000Z</time>
      </trkpt>
      <trkpt lat="43.91217" lon="5.1741">
        <ele>359.8</ele>
        <time>2018-03-18T13:42:38.000Z</time>
      </trkpt>
      <trkpt lat="43.91224" lon="5.17417">
        <ele>359.4</ele>
        <time>2018-03-18T13:42:45.000Z</time>
      </trkpt>
      <trkpt lat="43.91225" lon="5.17417">
        <ele>359.3</ele>
        <time>2018-03-18T13:42:46.000Z</time>
      </trkpt>
      <trkpt lat="43.91232" lon="5.17422">
        <ele>358.4</ele>
        <time>2018-03-18T13:42:54.000Z</time>
      </trkpt>
      <trkpt lat="43.91234" lon="5.17424">
        <ele>358.5</ele>
        <time>2018-03-18T13:42:55.000Z</time>
      </trkpt>
      <trkpt lat="43.9124" lon="5.17431">
        <ele>358.8</ele>
        <time>2018-03-18T13:43:01.000Z</time>
      </trkpt>
      <trkpt lat="43.91241" lon="5.17431">
        <ele>358.7</ele>
        <time>2018-03-18T13:43:02.000Z</time>
      </trkpt>
      <trkpt lat="43.91249" lon="5.17434">
        <ele>358.7</ele>
        <time>2018-03-18T13:43:10.000Z</time>
      </trkpt>
      <trkpt lat="43.9125" lon="5.17435">
        <ele>358.7</ele>
        <time>2018-03-18T13:43:11.000Z</time>
      </trkpt>
      <trkpt lat="43.91256" lon="5.17442">
        <ele>358.4</ele>
        <time>2018-03-18T13:43:17.000Z</time>
      </trkpt>
      <trkpt lat="43.91257" lon="5.17443">
        <ele>358.3</ele>
        <time>2018-03-18T13:43:18.000Z</time>
      </trkpt>
      <trkpt lat="43.91264" lon="5.17448">
        <ele>356.8</ele>
        <time>2018-03-18T13:43:28.000Z</time>
      </trkpt>
      <trkpt lat="43.91266" lon="5.17448">
        <ele>356.7</ele>
        <time>2018-03-18T13:43:29.000Z</time>
      </trkpt>
      <trkpt lat="43.91274" lon="5.17452">
        <ele>354.7</ele>
        <time>2018-03-18T13:43:37.000Z</time>
      </trkpt>
      <trkpt lat="43.91274" lon="5.17453">
        <ele>354.4</ele>
        <time>2018-03-18T13:43:38.000Z</time>
      </trkpt>
      <trkpt lat="43.91281" lon="5.17459">
        <ele>353.4</ele>
        <time>2018-03-18T13:43:45.000Z</time>
      </trkpt>
      <trkpt lat="43.91282" lon="5.1746">
        <ele>353.2</ele>
        <time>2018-03-18T13:43:46.000Z</time>
      </trkpt>
      <trkpt lat="43.91288" lon="5.17468">
        <ele>350.7</ele>
        <time>2018-03-18T13:43:52.000Z</time>
      </trkpt>
      <trkpt lat="43.91288" lon="5.17469">
        <ele>350.1</ele>
        <time>2018-03-18T13:43:53.000Z</time>
      </trkpt>
      <trkpt lat="43.91293" lon="5.17477">
        <ele>347.4</ele>
        <time>2018-03-18T13:44:00.000Z</time>
      </trkpt>
      <trkpt lat="43.91294" lon="5.17479">
        <ele>347.2</ele>
        <time>2018-03-18T13:44:01.000Z</time>
      </trkpt>
      <trkpt lat="43.91299" lon="5.17488">
        <ele>344.3</ele>
        <time>2018-03-18T13:44:08.000Z</time>
      </trkpt>
      <trkpt lat="43.913" lon="5.17489">
        <ele>343.9</ele>
        <time>2018-03-18T13:44:09.000Z</time>
      </trkpt>
      <trkpt lat="43.91305" lon="5.17498">
        <ele>340.1</ele>
        <time>2018-03-18T13:44:17.000Z</time>
      </trkpt>
      <trkpt lat="43.91306" lon="5.17499">
        <ele>339.4</ele>
        <time>2018-03-18T13:44:18.000Z</time>
      </trkpt>
      <trkpt lat="43.91314" lon="5.17504">
        <ele>336.9</ele>
        <time>2018-03-18T13:44:25.000Z</time>
      </trkpt>
      <trkpt lat="43.91314" lon="5.17504">
        <ele>336.6</ele>
        <time>2018-03-18T13:44:26.000Z</time>
      </trkpt>
      <trkpt lat="43.9132" lon="5.17513">
        <ele>334.4</ele>
        <time>2018-03-18T13:44:33.000Z</time>
      </trkpt>
      <trkpt lat="43.91321" lon="5.17514">
        <ele>334</ele>
        <time>2018-03-18T13:44:34.000Z</time>
      </trkpt>
      <trkpt lat="43.91326" lon="5.17523">
        <ele>331.5</ele>
        <time>2018-03-18T13:44:41.000Z</time>
      </trkpt>
      <trkpt lat="43.91327" lon="5.17524">
        <ele>331.2</ele>
        <time>2018-03-18T13:44:42.000Z</time>
      </trkpt>
      <trkpt lat="43.91331" lon="5.17535">
        <ele>327.7</ele>
        <time>2018-03-18T13:44:56.000Z</time>
      </trkpt>
      <trkpt lat="43.91332" lon="5.17536">
        <ele>327.4</ele>
        <time>2018-03-18T13:44:57.000Z</time>
      </trkpt>
      <trkpt lat="43.91337" lon="5.17546">
        <ele>324.9</ele>
        <time>2018-03-18T13:45:08.000Z</time>
      </trkpt>
      <trkpt lat="43.91337" lon="5.17548">
        <ele>324.7</ele>
        <time>2018-03-18T13:45:09.000Z</time>
      </trkpt>
      <trkpt lat="43.9134" lon="5.17557">
        <ele>323.5</ele>
        <time>2018-03-18T13:45:17.000Z</time>
      </trkpt>
      <trkpt lat="43.91341" lon="5.1756">
        <ele>323.4</ele>
        <time>2018-03-18T13:45:18.000Z</time>
      </trkpt>
      <trkpt lat="43.91345" lon="5.17569">
        <ele>321.9</ele>
        <time>2018-03-18T13:45:26.000Z</time>
      </trkpt>
      <trkpt lat="43.91346" lon="5.17571">
        <ele>321.6</ele>
        <time>2018-03-18T13:45:27.000Z</time>
      </trkpt>
      <trkpt lat="43.91349" lon="5.17578">
        <ele>320.3</ele>
        <time>2018-03-18T13:45:31.000Z</time>
      </trkpt>
      <trkpt lat="43.9135" lon="5.17582">
        <ele>319.9</ele>
        <time>2018-03-18T13:45:32.000Z</time>
      </trkpt>
      <trkpt lat="43.91356" lon="5.17591">
        <ele>316.4</ele>
        <time>2018-03-18T13:45:40.000Z</time>
      </trkpt>
      <trkpt lat="43.91357" lon="5.17592">
        <ele>316</ele>
        <time>2018-03-18T13:45:41.000Z</time>
      </trkpt>
      <trkpt lat="43.91362" lon="5.176">
        <ele>315</ele>
        <time>2018-03-18T13:45:45.000Z</time>
      </trkpt>
      <trkpt lat="43.91365" lon="5.17607">
        <ele>312.8</ele>
        <time>2018-03-18T13:45:52.000Z</time>
      </trkpt>
      <trkpt lat="43.9137" lon="5.17617">
        <ele>312</ele>
        <time>2018-03-18T13:45:54.000Z</time>
      </trkpt>
      <trkpt lat="43.91371" lon="5.17619">
        <ele>311.7</ele>
        <time>2018-03-18T13:45:55.000Z</time>
      </trkpt>
      <trkpt lat="43.91372" lon="5.17621">
        <ele>311.4</ele>
        <time>2018-03-18T13:45:56.000Z</time>
      </trkpt>
      <trkpt lat="43.91376" lon="5.17624">
        <ele>310.3</ele>
        <time>2018-03-18T13:46:02.000Z</time>
      </trkpt>
      <trkpt lat="43.91376" lon="5.17624">
        <ele>310.1</ele>
        <time>2018-03-18T13:46:03.000Z</time>
      </trkpt>
      <trkpt lat="43.9138" lon="5.17627">
        <ele>308.5</ele>
        <time>2018-03-18T13:46:10.000Z</time>
      </trkpt>
      <trkpt lat="43.9138" lon="5.17627">
        <ele>308.5</ele>
        <time>2018-03-18T13:46:11.000Z</time>
      </trkpt>
      <trkpt lat="43.91381" lon="5.17625">
        <ele>308</ele>
        <time>2018-03-18T13:46:15.000Z</time>
      </trkpt>
      <trkpt lat="43.9138" lon="5.17623">
        <ele>307.7</ele>
        <time>2018-03-18T13:46:16.000Z</time>
      </trkpt>
      <trkpt lat="43.91374" lon="5.17616">
        <ele>307.3</ele>
        <time>2018-03-18T13:46:27.000Z</time>
      </trkpt>
      <trkpt lat="43.91373" lon="5.17616">
        <ele>307.2</ele>
        <time>2018-03-18T13:46:28.000Z</time>
      </trkpt>
      <trkpt lat="43.91368" lon="5.17612">
        <ele>306.8</ele>
        <time>2018-03-18T13:46:35.000Z</time>
      </trkpt>
      <trkpt lat="43.91367" lon="5.17611">
        <ele>306.8</ele>
        <time>2018-03-18T13:46:36.000Z</time>
      </trkpt>
      <trkpt lat="43.91359" lon="5.17606">
        <ele>305.9</ele>
        <time>2018-03-18T13:46:44.000Z</time>
      </trkpt>
      <trkpt lat="43.91358" lon="5.17606">
        <ele>305.8</ele>
        <time>2018-03-18T13:46:45.000Z</time>
      </trkpt>
      <trkpt lat="43.91357" lon="5.17605">
        <ele>305.7</ele>
        <time>2018-03-18T13:46:46.000Z</time>
      </trkpt>
      <trkpt lat="43.9135" lon="5.176">
        <ele>305</ele>
        <time>2018-03-18T13:46:56.000Z</time>
      </trkpt>
      <trkpt lat="43.91347" lon="5.17598">
        <ele>304.8</ele>
        <time>2018-03-18T13:46:57.000Z</time>
      </trkpt>
      <trkpt lat="43.91345" lon="5.17597">
        <ele>304.8</ele>
        <time>2018-03-18T13:46:58.000Z</time>
      </trkpt>
      <trkpt lat="43.9134" lon="5.17596">
        <ele>304.7</ele>
        <time>2018-03-18T13:47:00.000Z</time>
      </trkpt>
      <trkpt lat="43.91338" lon="5.17595">
        <ele>304.8</ele>
        <time>2018-03-18T13:47:01.000Z</time>
      </trkpt>
      <trkpt lat="43.91331" lon="5.17592">
        <ele>304.7</ele>
        <time>2018-03-18T13:47:09.000Z</time>
      </trkpt>
      <trkpt lat="43.91329" lon="5.17591">
        <ele>304.7</ele>
        <time>2018-03-18T13:47:10.000Z</time>
      </trkpt>
      <trkpt lat="43.91325" lon="5.17586">
        <ele>304.1</ele>
        <time>2018-03-18T13:47:18.000Z</time>
      </trkpt>
      <trkpt lat="43.91323" lon="5.17586">
        <ele>304</ele>
        <time>2018-03-18T13:47:19.000Z</time>
      </trkpt>
      <trkpt lat="43.91321" lon="5.17585">
        <ele>303.8</ele>
        <time>2018-03-18T13:47:21.000Z</time>
      </trkpt>
      <trkpt lat="43.9132" lon="5.17585">
        <ele>303.8</ele>
        <time>2018-03-18T13:47:22.000Z</time>
      </trkpt>
      <trkpt lat="43.91312" lon="5.17585">
        <ele>303.5</ele>
        <time>2018-03-18T13:47:26.000Z</time>
      </trkpt>
      <trkpt lat="43.9131" lon="5.17584">
        <ele>303.4</ele>
        <time>2018-03-18T13:47:27.000Z</time>
      </trkpt>
      <trkpt lat="43.91303" lon="5.17577">
        <ele>303</ele>
        <time>2018-03-18T13:47:37.000Z</time>
      </trkpt>
      <trkpt lat="43.91303" lon="5.17576">
        <ele>303</ele>
        <time>2018-03-18T13:47:38.000Z</time>
      </trkpt>
      <trkpt lat="43.91296" lon="5.17568">
        <ele>303.6</ele>
        <time>2018-03-18T13:47:48.000Z</time>
      </trkpt>
      <trkpt lat="43.91295" lon="5.17567">
        <ele>303.6</ele>
        <time>2018-03-18T13:47:49.000Z</time>
      </trkpt>
      <trkpt lat="43.91287" lon="5.17565">
        <ele>303.5</ele>
        <time>2018-03-18T13:47:54.000Z</time>
      </trkpt>
      <trkpt lat="43.91285" lon="5.17564">
        <ele>303.4</ele>
        <time>2018-03-18T13:47:55.000Z</time>
      </trkpt>
      <trkpt lat="43.9128" lon="5.17562">
        <ele>303.4</ele>
        <time>2018-03-18T13:47:56.000Z</time>
      </trkpt>
      <trkpt lat="43.91276" lon="5.17561">
        <ele>303.4</ele>
        <time>2018-03-18T13:47:57.000Z</time>
      </trkpt>
      <trkpt lat="43.91274" lon="5.17561">
        <ele>303.5</ele>
        <time>2018-03-18T13:47:59.000Z</time>
      </trkpt>
      <trkpt lat="43.91272" lon="5.1756">
        <ele>303.6</ele>
        <time>2018-03-18T13:48:00.000Z</time>
      </trkpt>
      <trkpt lat="43.91263" lon="5.17563">
        <ele>304</ele>
        <time>2018-03-18T13:48:07.000Z</time>
      </trkpt>
      <trkpt lat="43.91261" lon="5.17565">
        <ele>304</ele>
        <time>2018-03-18T13:48:08.000Z</time>
      </trkpt>
      <trkpt lat="43.91254" lon="5.17571">
        <ele>303.8</ele>
        <time>2018-03-18T13:48:11.000Z</time>
      </trkpt>
      <trkpt lat="43.91251" lon="5.17573">
        <ele>303.6</ele>
        <time>2018-03-18T13:48:12.000Z</time>
      </trkpt>
      <trkpt lat="43.91242" lon="5.17573">
        <ele>303.3</ele>
        <time>2018-03-18T13:48:18.000Z</time>
      </trkpt>
      <trkpt lat="43.91242" lon="5.17573">
        <ele>303.3</ele>
        <time>2018-03-18T13:48:19.000Z</time>
      </trkpt>
      <trkpt lat="43.91237" lon="5.1757">
        <ele>302.9</ele>
        <time>2018-03-18T13:48:25.000Z</time>
      </trkpt>
      <trkpt lat="43.91236" lon="5.1757">
        <ele>302.9</ele>
        <time>2018-03-18T13:48:26.000Z</time>
      </trkpt>
      <trkpt lat="43.91236" lon="5.1757">
        <ele>254.8</ele>
        <time>2018-03-18T13:48:26.402Z</time>
      </trkpt>
      <trkpt lat="43.91235" lon="5.1757">
        <ele>302.9</ele>
        <time>2018-03-18T13:48:30.000Z</time>
      </trkpt>
      <trkpt lat="43.91226" lon="5.1757">
        <ele>303.1</ele>
        <time>2018-03-18T13:48:37.000Z</time>
      </trkpt>
      <trkpt lat="43.91225" lon="5.17571">
        <ele>303.1</ele>
        <time>2018-03-18T13:48:38.000Z</time>
      </trkpt>
      <trkpt lat="43.91224" lon="5.17571">
        <ele>303.3</ele>
        <time>2018-03-18T13:48:39.000Z</time>
      </trkpt>
      <trkpt lat="43.91223" lon="5.17571">
        <ele>303.3</ele>
        <time>2018-03-18T13:48:40.000Z</time>
      </trkpt>
      <trkpt lat="43.91219" lon="5.17573">
        <ele>303.5</ele>
        <time>2018-03-18T13:48:45.000Z</time>
      </trkpt>
      <trkpt lat="43.91218" lon="5.17573">
        <ele>303.6</ele>
        <time>2018-03-18T13:48:46.000Z</time>
      </trkpt>
      <trkpt lat="43.9121" lon="5.17573">
        <ele>303.1</ele>
        <time>2018-03-18T13:48:55.000Z</time>
      </trkpt>
      <trkpt lat="43.91209" lon="5.17573">
        <ele>302.9</ele>
        <time>2018-03-18T13:48:56.000Z</time>
      </trkpt>
      <trkpt lat="43.91201" lon="5.17571">
        <ele>301.8</ele>
        <time>2018-03-18T13:49:02.000Z</time>
      </trkpt>
      <trkpt lat="43.912" lon="5.17571">
        <ele>301.3</ele>
        <time>2018-03-18T13:49:03.000Z</time>
      </trkpt>
      <trkpt lat="43.91192" lon="5.1757">
        <ele>253.8</ele>
        <time>2018-03-18T13:49:09.037Z</time>
      </trkpt>
      <trkpt lat="43.91191" lon="5.17571">
        <ele>299.5</ele>
        <time>2018-03-18T13:49:10.000Z</time>
      </trkpt>
      <trkpt lat="43.91183" lon="5.17571">
        <ele>299</ele>
        <time>2018-03-18T13:49:17.000Z</time>
      </trkpt>
      <trkpt lat="43.91182" lon="5.1757">
        <ele>298.9</ele>
        <time>2018-03-18T13:49:18.000Z</time>
      </trkpt>
      <trkpt lat="43.91173" lon="5.17567">
        <ele>298.2</ele>
        <time>2018-03-18T13:49:24.000Z</time>
      </trkpt>
      <trkpt lat="43.91172" lon="5.17567">
        <ele>298.1</ele>
        <time>2018-03-18T13:49:25.000Z</time>
      </trkpt>
      <trkpt lat="43.91164" lon="5.17568">
        <ele>297.8</ele>
        <time>2018-03-18T13:49:29.000Z</time>
      </trkpt>
      <trkpt lat="43.91162" lon="5.17568">
        <ele>297.8</ele>
        <time>2018-03-18T13:49:30.000Z</time>
      </trkpt>
      <trkpt lat="43.91154" lon="5.17571">
        <ele>297.4</ele>
        <time>2018-03-18T13:49:38.000Z</time>
      </trkpt>
      <trkpt lat="43.91151" lon="5.17572">
        <ele>297.3</ele>
        <time>2018-03-18T13:49:39.000Z</time>
      </trkpt>
      <trkpt lat="43.91143" lon="5.17575">
        <ele>296.9</ele>
        <time>2018-03-18T13:49:48.000Z</time>
      </trkpt>
      <trkpt lat="43.9114" lon="5.17576">
        <ele>296.8</ele>
        <time>2018-03-18T13:49:49.000Z</time>
      </trkpt>
      <trkpt lat="43.91132" lon="5.1758">
        <ele>296.9</ele>
        <time>2018-03-18T13:49:56.000Z</time>
      </trkpt>
      <trkpt lat="43.91131" lon="5.1758">
        <ele>250.3</ele>
        <time>2018-03-18T13:50:00.097Z</time>
      </trkpt>
      <trkpt lat="43.91123" lon="5.17583">
        <ele>297.3</ele>
        <time>2018-03-18T13:50:03.000Z</time>
      </trkpt>
      <trkpt lat="43.9112" lon="5.17584">
        <ele>297.2</ele>
        <time>2018-03-18T13:50:04.000Z</time>
      </trkpt>
      <trkpt lat="43.91113" lon="5.17585">
        <ele>250.3</ele>
        <time>2018-03-18T13:50:05.133Z</time>
      </trkpt>
      <trkpt lat="43.9111" lon="5.17584">
        <ele>297.1</ele>
        <time>2018-03-18T13:50:07.000Z</time>
      </trkpt>
      <trkpt lat="43.91102" lon="5.17583">
        <ele>297.5</ele>
        <time>2018-03-18T13:50:12.000Z</time>
      </trkpt>
      <trkpt lat="43.91101" lon="5.17582">
        <ele>297.6</ele>
        <time>2018-03-18T13:50:13.000Z</time>
      </trkpt>
      <trkpt lat="43.91092" lon="5.17581">
        <ele>297.4</ele>
        <time>2018-03-18T13:50:22.000Z</time>
      </trkpt>
      <trkpt lat="43.91092" lon="5.17581">
        <ele>297.2</ele>
        <time>2018-03-18T13:50:23.000Z</time>
      </trkpt>
      <trkpt lat="43.91091" lon="5.1758">
        <ele>296.8</ele>
        <time>2018-03-18T13:50:25.000Z</time>
      </trkpt>
      <trkpt lat="43.9109" lon="5.1758">
        <ele>296.8</ele>
        <time>2018-03-18T13:50:26.000Z</time>
      </trkpt>
      <trkpt lat="43.91087" lon="5.17585">
        <ele>249.2</ele>
        <time>2018-03-18T13:50:30.532Z</time>
      </trkpt>
      <trkpt lat="43.91086" lon="5.17585">
        <ele>295.7</ele>
        <time>2018-03-18T13:50:32.000Z</time>
      </trkpt>
      <trkpt lat="43.91078" lon="5.1759">
        <ele>295</ele>
        <time>2018-03-18T13:50:38.000Z</time>
      </trkpt>
      <trkpt lat="43.91077" lon="5.1759">
        <ele>294.9</ele>
        <time>2018-03-18T13:50:39.000Z</time>
      </trkpt>
      <trkpt lat="43.9107" lon="5.17596">
        <ele>294.7</ele>
        <time>2018-03-18T13:50:42.000Z</time>
      </trkpt>
      <trkpt lat="43.91068" lon="5.17597">
        <ele>294.7</ele>
        <time>2018-03-18T13:50:43.000Z</time>
      </trkpt>
      <trkpt lat="43.9106" lon="5.17599">
        <ele>294.5</ele>
        <time>2018-03-18T13:50:50.000Z</time>
      </trkpt>
      <trkpt lat="43.91058" lon="5.176">
        <ele>294.5</ele>
        <time>2018-03-18T13:50:51.000Z</time>
      </trkpt>
      <trkpt lat="43.9105" lon="5.17604">
        <ele>294.3</ele>
        <time>2018-03-18T13:50:56.000Z</time>
      </trkpt>
      <trkpt lat="43.91047" lon="5.17606">
        <ele>294.1</ele>
        <time>2018-03-18T13:50:57.000Z</time>
      </trkpt>
      <trkpt lat="43.9104" lon="5.17613">
        <ele>293.6</ele>
        <time>2018-03-18T13:51:02.000Z</time>
      </trkpt>
      <trkpt lat="43.91039" lon="5.17614">
        <ele>293.5</ele>
        <time>2018-03-18T13:51:03.000Z</time>
      </trkpt>
      <trkpt lat="43.91031" lon="5.17618">
        <ele>292.9</ele>
        <time>2018-03-18T13:51:14.000Z</time>
      </trkpt>
      <trkpt lat="43.9103" lon="5.17619">
        <ele>292.8</ele>
        <time>2018-03-18T13:51:15.000Z</time>
      </trkpt>
      <trkpt lat="43.91023" lon="5.17622">
        <ele>292.3</ele>
        <time>2018-03-18T13:51:20.000Z</time>
      </trkpt>
      <trkpt lat="43.91021" lon="5.17623">
        <ele>292.2</ele>
        <time>2018-03-18T13:51:21.000Z</time>
      </trkpt>
      <trkpt lat="43.91013" lon="5.17626">
        <ele>292.1</ele>
        <time>2018-03-18T13:51:29.000Z</time>
      </trkpt>
      <trkpt lat="43.91011" lon="5.17626">
        <ele>292</ele>
        <time>2018-03-18T13:51:30.000Z</time>
      </trkpt>
      <trkpt lat="43.91003" lon="5.17625">
        <ele>246.5</ele>
        <time>2018-03-18T13:51:35.147Z</time>
      </trkpt>
      <trkpt lat="43.91002" lon="5.17625">
        <ele>292.1</ele>
        <time>2018-03-18T13:51:37.000Z</time>
      </trkpt>
      <trkpt lat="43.90993" lon="5.17627">
        <ele>291.9</ele>
        <time>2018-03-18T13:51:42.000Z</time>
      </trkpt>
      <trkpt lat="43.90992" lon="5.17628">
        <ele>291.8</ele>
        <time>2018-03-18T13:51:43.000Z</time>
      </trkpt>
      <trkpt lat="43.90985" lon="5.17632">
        <ele>291</ele>
        <time>2018-03-18T13:51:49.000Z</time>
      </trkpt>
      <trkpt lat="43.90983" lon="5.17632">
        <ele>291</ele>
        <time>2018-03-18T13:51:50.000Z</time>
      </trkpt>
      <trkpt lat="43.90976" lon="5.17633">
        <ele>290.8</ele>
        <time>2018-03-18T13:51:55.000Z</time>
      </trkpt>
      <trkpt lat="43.90973" lon="5.17633">
        <ele>290.8</ele>
        <time>2018-03-18T13:51:56.000Z</time>
      </trkpt>
      <trkpt lat="43.90964" lon="5.17634">
        <ele>290.5</ele>
        <time>2018-03-18T13:52:00.000Z</time>
      </trkpt>
      <trkpt lat="43.90964" lon="5.17634">
        <ele>290.4</ele>
        <time>2018-03-18T13:52:01.000Z</time>
      </trkpt>
      <trkpt lat="43.90955" lon="5.17633">
        <ele>289.7</ele>
        <time>2018-03-18T13:52:07.000Z</time>
      </trkpt>
      <trkpt lat="43.90954" lon="5.17633">
        <ele>289.8</ele>
        <time>2018-03-18T13:52:08.000Z</time>
      </trkpt>
      <trkpt lat="43.90947" lon="5.17635">
        <ele>245.8</ele>
        <time>2018-03-18T13:52:13.609Z</time>
      </trkpt>
      <trkpt lat="43.90944" lon="5.17635">
        <ele>290.3</ele>
        <time>2018-03-18T13:52:15.000Z</time>
      </trkpt>
      <trkpt lat="43.90936" lon="5.17636">
        <ele>290.1</ele>
        <time>2018-03-18T13:52:22.000Z</time>
      </trkpt>
      <trkpt lat="43.90934" lon="5.17636">
        <ele>290</ele>
        <time>2018-03-18T13:52:23.000Z</time>
      </trkpt>
      <trkpt lat="43.90926" lon="5.17637">
        <ele>290</ele>
        <time>2018-03-18T13:52:30.000Z</time>
      </trkpt>
      <trkpt lat="43.90925" lon="5.17637">
        <ele>289.8</ele>
        <time>2018-03-18T13:52:31.000Z</time>
      </trkpt>
      <trkpt lat="43.90917" lon="5.17633">
        <ele>289.2</ele>
        <time>2018-03-18T13:52:39.000Z</time>
      </trkpt>
      <trkpt lat="43.90916" lon="5.17632">
        <ele>289</ele>
        <time>2018-03-18T13:52:40.000Z</time>
      </trkpt>
      <trkpt lat="43.90908" lon="5.17629">
        <ele>288.5</ele>
        <time>2018-03-18T13:52:44.000Z</time>
      </trkpt>
      <trkpt lat="43.90905" lon="5.17628">
        <ele>288.5</ele>
        <time>2018-03-18T13:52:45.000Z</time>
      </trkpt>
      <trkpt lat="43.90898" lon="5.17627">
        <ele>288.5</ele>
        <time>2018-03-18T13:52:49.000Z</time>
      </trkpt>
      <trkpt lat="43.90896" lon="5.17626">
        <ele>288.4</ele>
        <time>2018-03-18T13:52:50.000Z</time>
      </trkpt>
      <trkpt lat="43.90889" lon="5.1762">
        <ele>288.3</ele>
        <time>2018-03-18T13:52:55.000Z</time>
      </trkpt>
      <trkpt lat="43.90889" lon="5.17619">
        <ele>288.2</ele>
        <time>2018-03-18T13:52:56.000Z</time>
      </trkpt>
      <trkpt lat="43.90881" lon="5.17614">
        <ele>287.4</ele>
        <time>2018-03-18T13:53:01.000Z</time>
      </trkpt>
      <trkpt lat="43.90879" lon="5.17614">
        <ele>287.3</ele>
        <time>2018-03-18T13:53:02.000Z</time>
      </trkpt>
      <trkpt lat="43.90872" lon="5.17615">
        <ele>287</ele>
        <time>2018-03-18T13:53:05.000Z</time>
      </trkpt>
      <trkpt lat="43.90867" lon="5.17617">
        <ele>287.1</ele>
        <time>2018-03-18T13:53:06.000Z</time>
      </trkpt>
      <trkpt lat="43.90859" lon="5.17618">
        <ele>287.6</ele>
        <time>2018-03-18T13:53:12.000Z</time>
      </trkpt>
      <trkpt lat="43.90857" lon="5.17618">
        <ele>287.6</ele>
        <time>2018-03-18T13:53:13.000Z</time>
      </trkpt>
      <trkpt lat="43.90849" lon="5.17618">
        <ele>287.1</ele>
        <time>2018-03-18T13:53:23.000Z</time>
      </trkpt>
      <trkpt lat="43.90848" lon="5.17618">
        <ele>287</ele>
        <time>2018-03-18T13:53:24.000Z</time>
      </trkpt>
      <trkpt lat="43.90839" lon="5.17614">
        <ele>287.1</ele>
        <time>2018-03-18T13:53:31.000Z</time>
      </trkpt>
      <trkpt lat="43.90838" lon="5.17613">
        <ele>287.2</ele>
        <time>2018-03-18T13:53:32.000Z</time>
      </trkpt>
      <trkpt lat="43.90831" lon="5.17611">
        <ele>287.9</ele>
        <time>2018-03-18T13:53:42.000Z</time>
      </trkpt>
      <trkpt lat="43.90829" lon="5.1761">
        <ele>288.1</ele>
        <time>2018-03-18T13:53:44.000Z</time>
      </trkpt>
      <trkpt lat="43.90821" lon="5.17607">
        <ele>288.3</ele>
        <time>2018-03-18T13:53:47.000Z</time>
      </trkpt>
      <trkpt lat="43.9082" lon="5.17606">
        <ele>288.3</ele>
        <time>2018-03-18T13:53:48.000Z</time>
      </trkpt>
      <trkpt lat="43.90813" lon="5.17599">
        <ele>287.8</ele>
        <time>2018-03-18T13:53:57.000Z</time>
      </trkpt>
      <trkpt lat="43.90813" lon="5.17598">
        <ele>287.7</ele>
        <time>2018-03-18T13:53:58.000Z</time>
      </trkpt>
      <trkpt lat="43.90811" lon="5.17586">
        <ele>287.9</ele>
        <time>2018-03-18T13:54:03.000Z</time>
      </trkpt>
      <trkpt lat="43.90811" lon="5.17583">
        <ele>287.9</ele>
        <time>2018-03-18T13:54:04.000Z</time>
      </trkpt>
      <trkpt lat="43.90809" lon="5.17572">
        <ele>287.8</ele>
        <time>2018-03-18T13:54:10.000Z</time>
      </trkpt>
      <trkpt lat="43.90808" lon="5.17569">
        <ele>287.9</ele>
        <time>2018-03-18T13:54:11.000Z</time>
      </trkpt>
      <trkpt lat="43.90804" lon="5.17558">
        <ele>241.9</ele>
        <time>2018-03-18T13:54:13.768Z</time>
      </trkpt>
      <trkpt lat="43.90804" lon="5.17556">
        <ele>288.1</ele>
        <time>2018-03-18T13:54:15.000Z</time>
      </trkpt>
      <trkpt lat="43.908" lon="5.17551">
        <ele>288.8</ele>
        <time>2018-03-18T13:54:20.000Z</time>
      </trkpt>
      <trkpt lat="43.90795" lon="5.17551">
        <ele>288.9</ele>
        <time>2018-03-18T13:54:21.000Z</time>
      </trkpt>
      <trkpt lat="43.90786" lon="5.1755">
        <ele>288.8</ele>
        <time>2018-03-18T13:54:24.000Z</time>
      </trkpt>
      <trkpt lat="43.90784" lon="5.1755">
        <ele>288.8</ele>
        <time>2018-03-18T13:54:25.000Z</time>
      </trkpt>
      <trkpt lat="43.90775" lon="5.17549">
        <ele>242.1</ele>
        <time>2018-03-18T13:54:29.171Z</time>
      </trkpt>
      <trkpt lat="43.90775" lon="5.17548">
        <ele>288.3</ele>
        <time>2018-03-18T13:54:31.000Z</time>
      </trkpt>
      <trkpt lat="43.90771" lon="5.17546">
        <ele>288.5</ele>
        <time>2018-03-18T13:54:36.000Z</time>
      </trkpt>
      <trkpt lat="43.90771" lon="5.17545">
        <ele>288.6</ele>
        <time>2018-03-18T13:54:37.000Z</time>
      </trkpt>
      <trkpt lat="43.90769" lon="5.17544">
        <ele>288.6</ele>
        <time>2018-03-18T13:54:39.000Z</time>
      </trkpt>
      <trkpt lat="43.90766" lon="5.17543">
        <ele>288.5</ele>
        <time>2018-03-18T13:54:40.000Z</time>
      </trkpt>
      <trkpt lat="43.90759" lon="5.1754">
        <ele>288.4</ele>
        <time>2018-03-18T13:54:43.000Z</time>
      </trkpt>
      <trkpt lat="43.90757" lon="5.17539">
        <ele>288.3</ele>
        <time>2018-03-18T13:54:44.000Z</time>
      </trkpt>
      <trkpt lat="43.90749" lon="5.17535">
        <ele>288.2</ele>
        <time>2018-03-18T13:54:50.000Z</time>
      </trkpt>
      <trkpt lat="43.90747" lon="5.17534">
        <ele>288.2</ele>
        <time>2018-03-18T13:54:51.000Z</time>
      </trkpt>
      <trkpt lat="43.90744" lon="5.17533">
        <ele>288.1</ele>
        <time>2018-03-18T13:54:53.000Z</time>
      </trkpt>
      <trkpt lat="43.90742" lon="5.17532">
        <ele>288</ele>
        <time>2018-03-18T13:54:54.000Z</time>
      </trkpt>
      <trkpt lat="43.90738" lon="5.17532">
        <ele>287.6</ele>
        <time>2018-03-18T13:55:00.000Z</time>
      </trkpt>
      <trkpt lat="43.90736" lon="5.17531">
        <ele>287.5</ele>
        <time>2018-03-18T13:55:01.000Z</time>
      </trkpt>
      <trkpt lat="43.90732" lon="5.17531">
        <ele>287.5</ele>
        <time>2018-03-18T13:55:04.000Z</time>
      </trkpt>
      <trkpt lat="43.90731" lon="5.17531">
        <ele>287.5</ele>
        <time>2018-03-18T13:55:05.000Z</time>
      </trkpt>
      <trkpt lat="43.90724" lon="5.17528">
        <ele>287.5</ele>
        <time>2018-03-18T13:55:09.000Z</time>
      </trkpt>
      <trkpt lat="43.90722" lon="5.17527">
        <ele>287.4</ele>
        <time>2018-03-18T13:55:10.000Z</time>
      </trkpt>
      <trkpt lat="43.90716" lon="5.17525">
        <ele>287.5</ele>
        <time>2018-03-18T13:55:13.000Z</time>
      </trkpt>
      <trkpt lat="43.90715" lon="5.17525">
        <ele>287.6</ele>
        <time>2018-03-18T13:55:14.000Z</time>
      </trkpt>
      <trkpt lat="43.90706" lon="5.17525">
        <ele>288.1</ele>
        <time>2018-03-18T13:55:20.000Z</time>
      </trkpt>
      <trkpt lat="43.90706" lon="5.17526">
        <ele>247.2</ele>
        <time>2018-03-18T13:55:19.203Z</time>
      </trkpt>
      <trkpt lat="43.90704" lon="5.17526">
        <ele>288.3</ele>
        <time>2018-03-18T13:55:21.000Z</time>
      </trkpt>
      <trkpt lat="43.90703" lon="5.17526">
        <ele>288.5</ele>
        <time>2018-03-18T13:55:22.000Z</time>
      </trkpt>
      <trkpt lat="43.90697" lon="5.17527">
        <ele>289.4</ele>
        <time>2018-03-18T13:55:28.000Z</time>
      </trkpt>
      <trkpt lat="43.90693" lon="5.17527">
        <ele>289.5</ele>
        <time>2018-03-18T13:55:29.000Z</time>
      </trkpt>
      <trkpt lat="43.90687" lon="5.1753">
        <ele>289.9</ele>
        <time>2018-03-18T13:55:32.000Z</time>
      </trkpt>
      <trkpt lat="43.90685" lon="5.17531">
        <ele>290.1</ele>
        <time>2018-03-18T13:55:33.000Z</time>
      </trkpt>
      <trkpt lat="43.90676" lon="5.17532">
        <ele>290.5</ele>
        <time>2018-03-18T13:55:41.000Z</time>
      </trkpt>
      <trkpt lat="43.90675" lon="5.17532">
        <ele>290.5</ele>
        <time>2018-03-18T13:55:42.000Z</time>
      </trkpt>
      <trkpt lat="43.90674" lon="5.17532">
        <ele>290.5</ele>
        <time>2018-03-18T13:55:43.000Z</time>
      </trkpt>
      <trkpt lat="43.90669" lon="5.17534">
        <ele>290.8</ele>
        <time>2018-03-18T13:55:47.000Z</time>
      </trkpt>
      <trkpt lat="43.90668" lon="5.17534">
        <ele>290.8</ele>
        <time>2018-03-18T13:55:48.000Z</time>
      </trkpt>
      <trkpt lat="43.90659" lon="5.17535">
        <ele>291.1</ele>
        <time>2018-03-18T13:55:53.000Z</time>
      </trkpt>
      <trkpt lat="43.90658" lon="5.17536">
        <ele>291.1</ele>
        <time>2018-03-18T13:55:54.000Z</time>
      </trkpt>
      <trkpt lat="43.90649" lon="5.17536">
        <ele>290.9</ele>
        <time>2018-03-18T13:56:00.000Z</time>
      </trkpt>
      <trkpt lat="43.90648" lon="5.17535">
        <ele>290.9</ele>
        <time>2018-03-18T13:56:01.000Z</time>
      </trkpt>
      <trkpt lat="43.90639" lon="5.17535">
        <ele>251.5</ele>
        <time>2018-03-18T13:56:09.231Z</time>
      </trkpt>
      <trkpt lat="43.90638" lon="5.17535">
        <ele>291.7</ele>
        <time>2018-03-18T13:56:11.000Z</time>
      </trkpt>
      <trkpt lat="43.90629" lon="5.17534">
        <ele>292.8</ele>
        <time>2018-03-18T13:56:19.000Z</time>
      </trkpt>
      <trkpt lat="43.90627" lon="5.17533">
        <ele>292.7</ele>
        <time>2018-03-18T13:56:20.000Z</time>
      </trkpt>
      <trkpt lat="43.90619" lon="5.17533">
        <ele>292.9</ele>
        <time>2018-03-18T13:56:28.000Z</time>
      </trkpt>
      <trkpt lat="43.90618" lon="5.17533">
        <ele>293</ele>
        <time>2018-03-18T13:56:29.000Z</time>
      </trkpt>
      <trkpt lat="43.9061" lon="5.17536">
        <ele>294.1</ele>
        <time>2018-03-18T13:56:37.000Z</time>
      </trkpt>
      <trkpt lat="43.90609" lon="5.17536">
        <ele>294.3</ele>
        <time>2018-03-18T13:56:38.000Z</time>
      </trkpt>
      <trkpt lat="43.90601" lon="5.1754">
        <ele>295.2</ele>
        <time>2018-03-18T13:56:43.000Z</time>
      </trkpt>
      <trkpt lat="43.906" lon="5.1754">
        <ele>295.5</ele>
        <time>2018-03-18T13:56:44.000Z</time>
      </trkpt>
      <trkpt lat="43.90594" lon="5.1754">
        <ele>296.4</ele>
        <time>2018-03-18T13:56:50.000Z</time>
      </trkpt>
      <trkpt lat="43.90593" lon="5.1754">
        <ele>296.5</ele>
        <time>2018-03-18T13:56:51.000Z</time>
      </trkpt>
      <trkpt lat="43.90588" lon="5.17541">
        <ele>258.3</ele>
        <time>2018-03-18T13:56:53.853Z</time>
      </trkpt>
      <trkpt lat="43.90587" lon="5.17541">
        <ele>297.1</ele>
        <time>2018-03-18T13:56:55.000Z</time>
      </trkpt>
      <trkpt lat="43.90579" lon="5.17544">
        <ele>298</ele>
        <time>2018-03-18T13:56:59.000Z</time>
      </trkpt>
      <trkpt lat="43.90578" lon="5.17545">
        <ele>259.5</ele>
        <time>2018-03-18T13:56:58.930Z</time>
      </trkpt>
      <trkpt lat="43.90571" lon="5.1755">
        <ele>299.1</ele>
        <time>2018-03-18T13:57:04.000Z</time>
      </trkpt>
      <trkpt lat="43.9057" lon="5.17551">
        <ele>299.3</ele>
        <time>2018-03-18T13:57:05.000Z</time>
      </trkpt>
      <trkpt lat="43.90563" lon="5.17556">
        <ele>300.5</ele>
        <time>2018-03-18T13:57:11.000Z</time>
      </trkpt>
      <trkpt lat="43.90562" lon="5.17557">
        <ele>300.5</ele>
        <time>2018-03-18T13:57:12.000Z</time>
      </trkpt>
      <trkpt lat="43.90554" lon="5.17562">
        <ele>300.2</ele>
        <time>2018-03-18T13:57:15.000Z</time>
      </trkpt>
      <trkpt lat="43.90553" lon="5.17562">
        <ele>300.1</ele>
        <time>2018-03-18T13:57:16.000Z</time>
      </trkpt>
      <trkpt lat="43.90545" lon="5.17565">
        <ele>299.7</ele>
        <time>2018-03-18T13:57:21.000Z</time>
      </trkpt>
      <trkpt lat="43.90544" lon="5.17566">
        <ele>299.7</ele>
        <time>2018-03-18T13:57:22.000Z</time>
      </trkpt>
      <trkpt lat="43.90536" lon="5.17572">
        <ele>299.8</ele>
        <time>2018-03-18T13:57:28.000Z</time>
      </trkpt>
      <trkpt lat="43.90535" lon="5.17573">
        <ele>299.9</ele>
        <time>2018-03-18T13:57:29.000Z</time>
      </trkpt>
      <trkpt lat="43.90528" lon="5.17579">
        <ele>300.8</ele>
        <time>2018-03-18T13:57:37.000Z</time>
      </trkpt>
      <trkpt lat="43.90527" lon="5.17579">
        <ele>300.8</ele>
        <time>2018-03-18T13:57:38.000Z</time>
      </trkpt>
      <trkpt lat="43.9052" lon="5.17584">
        <ele>300.4</ele>
        <time>2018-03-18T13:57:43.000Z</time>
      </trkpt>
      <trkpt lat="43.90518" lon="5.17586">
        <ele>300.2</ele>
        <time>2018-03-18T13:57:44.000Z</time>
      </trkpt>
      <trkpt lat="43.90511" lon="5.17592">
        <ele>259.7</ele>
        <time>2018-03-18T13:57:49.578Z</time>
      </trkpt>
      <trkpt lat="43.9051" lon="5.17592">
        <ele>299.5</ele>
        <time>2018-03-18T13:57:51.000Z</time>
      </trkpt>
      <trkpt lat="43.90502" lon="5.17597">
        <ele>298.8</ele>
        <time>2018-03-18T13:57:57.000Z</time>
      </trkpt>
      <trkpt lat="43.90501" lon="5.17598">
        <ele>298.8</ele>
        <time>2018-03-18T13:57:58.000Z</time>
      </trkpt>
      <trkpt lat="43.90495" lon="5.17605">
        <ele>299.6</ele>
        <time>2018-03-18T13:58:06.000Z</time>
      </trkpt>
      <trkpt lat="43.90494" lon="5.17606">
        <ele>299.8</ele>
        <time>2018-03-18T13:58:07.000Z</time>
      </trkpt>
      <trkpt lat="43.90487" lon="5.17614">
        <ele>260.4</ele>
        <time>2018-03-18T13:58:14.269Z</time>
      </trkpt>
      <trkpt lat="43.90487" lon="5.17615">
        <ele>301.2</ele>
        <time>2018-03-18T13:58:15.000Z</time>
      </trkpt>
      <trkpt lat="43.90486" lon="5.17615">
        <ele>301.2</ele>
        <time>2018-03-18T13:58:17.000Z</time>
      </trkpt>
      <trkpt lat="43.90486" lon="5.17616">
        <ele>301.2</ele>
        <time>2018-03-18T13:58:18.000Z</time>
      </trkpt>
      <trkpt lat="43.90484" lon="5.17617">
        <ele>301.4</ele>
        <time>2018-03-18T13:58:20.000Z</time>
      </trkpt>
      <trkpt lat="43.90484" lon="5.17617">
        <ele>301.5</ele>
        <time>2018-03-18T13:58:21.000Z</time>
      </trkpt>
      <trkpt lat="43.90475" lon="5.17617">
        <ele>302.3</ele>
        <time>2018-03-18T13:58:27.000Z</time>
      </trkpt>
      <trkpt lat="43.90474" lon="5.17617">
        <ele>302.3</ele>
        <time>2018-03-18T13:58:28.000Z</time>
      </trkpt>
      <trkpt lat="43.90467" lon="5.17619">
        <ele>303.3</ele>
        <time>2018-03-18T13:58:33.000Z</time>
      </trkpt>
      <trkpt lat="43.90465" lon="5.1762">
        <ele>303.5</ele>
        <time>2018-03-18T13:58:34.000Z</time>
      </trkpt>
      <trkpt lat="43.90457" lon="5.17624">
        <ele>303.9</ele>
        <time>2018-03-18T13:58:40.000Z</time>
      </trkpt>
      <trkpt lat="43.90456" lon="5.17624">
        <ele>304.1</ele>
        <time>2018-03-18T13:58:41.000Z</time>
      </trkpt>
      <trkpt lat="43.90449" lon="5.17628">
        <ele>305.1</ele>
        <time>2018-03-18T13:58:47.000Z</time>
      </trkpt>
      <trkpt lat="43.90447" lon="5.17629">
        <ele>305.3</ele>
        <time>2018-03-18T13:58:48.000Z</time>
      </trkpt>
      <trkpt lat="43.9044" lon="5.17636">
        <ele>306.1</ele>
        <time>2018-03-18T13:58:54.000Z</time>
      </trkpt>
      <trkpt lat="43.90439" lon="5.17637">
        <ele>306.1</ele>
        <time>2018-03-18T13:58:55.000Z</time>
      </trkpt>
      <trkpt lat="43.90433" lon="5.17645">
        <ele>306.4</ele>
        <time>2018-03-18T13:59:01.000Z</time>
      </trkpt>
      <trkpt lat="43.90432" lon="5.17646">
        <ele>306.3</ele>
        <time>2018-03-18T13:59:02.000Z</time>
      </trkpt>
      <trkpt lat="43.90428" lon="5.17656">
        <ele>306</ele>
        <time>2018-03-18T13:59:07.000Z</time>
      </trkpt>
      <trkpt lat="43.90427" lon="5.17658">
        <ele>306</ele>
        <time>2018-03-18T13:59:08.000Z</time>
      </trkpt>
      <trkpt lat="43.90423" lon="5.17664">
        <ele>305.8</ele>
        <time>2018-03-18T13:59:15.000Z</time>
      </trkpt>
      <trkpt lat="43.90423" lon="5.17664">
        <ele>305.8</ele>
        <time>2018-03-18T13:59:16.000Z</time>
      </trkpt>
      <trkpt lat="43.90421" lon="5.17669">
        <ele>305.6</ele>
        <time>2018-03-18T13:59:23.000Z</time>
      </trkpt>
      <trkpt lat="43.90421" lon="5.17668">
        <ele>305.5</ele>
        <time>2018-03-18T13:59:24.000Z</time>
      </trkpt>
      <trkpt lat="43.90423" lon="5.17665">
        <ele>305.2</ele>
        <time>2018-03-18T13:59:28.000Z</time>
      </trkpt>
      <trkpt lat="43.90424" lon="5.17665">
        <ele>305.1</ele>
        <time>2018-03-18T13:59:29.000Z</time>
      </trkpt>
      <trkpt lat="43.90423" lon="5.17664">
        <ele>304.9</ele>
        <time>2018-03-18T13:59:31.000Z</time>
      </trkpt>
      <trkpt lat="43.90423" lon="5.17664">
        <ele>304.8</ele>
        <time>2018-03-18T13:59:32.000Z</time>
      </trkpt>
      <trkpt lat="43.90415" lon="5.17664">
        <ele>304.8</ele>
        <time>2018-03-18T13:59:39.000Z</time>
      </trkpt>
      <trkpt lat="43.90412" lon="5.17665">
        <ele>304.8</ele>
        <time>2018-03-18T13:59:40.000Z</time>
      </trkpt>
      <trkpt lat="43.9041" lon="5.17666">
        <ele>304.7</ele>
        <time>2018-03-18T13:59:42.000Z</time>
      </trkpt>
      <trkpt lat="43.9041" lon="5.17666">
        <ele>304.7</ele>
        <time>2018-03-18T13:59:43.000Z</time>
      </trkpt>
      <trkpt lat="43.90402" lon="5.17672">
        <ele>305</ele>
        <time>2018-03-18T13:59:52.000Z</time>
      </trkpt>
      <trkpt lat="43.90401" lon="5.17673">
        <ele>305</ele>
        <time>2018-03-18T13:59:53.000Z</time>
      </trkpt>
      <trkpt lat="43.90395" lon="5.17682">
        <ele>304.7</ele>
        <time>2018-03-18T13:59:57.000Z</time>
      </trkpt>
      <trkpt lat="43.90394" lon="5.17683">
        <ele>304.8</ele>
        <time>2018-03-18T13:59:58.000Z</time>
      </trkpt>
      <trkpt lat="43.90387" lon="5.1769">
        <ele>305.6</ele>
        <time>2018-03-18T14:00:03.000Z</time>
      </trkpt>
      <trkpt lat="43.90385" lon="5.17691">
        <ele>305.6</ele>
        <time>2018-03-18T14:00:04.000Z</time>
      </trkpt>
      <trkpt lat="43.90377" lon="5.17696">
        <ele>305.7</ele>
        <time>2018-03-18T14:00:10.000Z</time>
      </trkpt>
      <trkpt lat="43.90375" lon="5.17697">
        <ele>305.7</ele>
        <time>2018-03-18T14:00:11.000Z</time>
      </trkpt>
      <trkpt lat="43.90367" lon="5.17701">
        <ele>305.1</ele>
        <time>2018-03-18T14:00:19.000Z</time>
      </trkpt>
      <trkpt lat="43.90367" lon="5.17701">
        <ele>256.7</ele>
        <time>2018-03-18T14:00:19.003Z</time>
      </trkpt>
      <trkpt lat="43.9036" lon="5.17708">
        <ele>255.9</ele>
        <time>2018-03-18T14:00:24.020Z</time>
      </trkpt>
      <trkpt lat="43.90358" lon="5.17708">
        <ele>304.1</ele>
        <time>2018-03-18T14:00:25.000Z</time>
      </trkpt>
      <trkpt lat="43.90352" lon="5.17714">
        <ele>303.3</ele>
        <time>2018-03-18T14:00:33.000Z</time>
      </trkpt>
      <trkpt lat="43.90351" lon="5.17716">
        <ele>303.1</ele>
        <time>2018-03-18T14:00:34.000Z</time>
      </trkpt>
      <trkpt lat="43.90345" lon="5.17724">
        <ele>302.6</ele>
        <time>2018-03-18T14:00:41.000Z</time>
      </trkpt>
      <trkpt lat="43.90344" lon="5.17726">
        <ele>302.5</ele>
        <time>2018-03-18T14:00:42.000Z</time>
      </trkpt>
      <trkpt lat="43.90341" lon="5.17731">
        <ele>253.4</ele>
        <time>2018-03-18T14:00:45.458Z</time>
      </trkpt>
      <trkpt lat="43.90341" lon="5.17732">
        <ele>302.3</ele>
        <time>2018-03-18T14:00:47.000Z</time>
      </trkpt>
      <trkpt lat="43.90341" lon="5.17742">
        <ele>302</ele>
        <time>2018-03-18T14:01:15.000Z</time>
      </trkpt>
      <trkpt lat="43.9034" lon="5.17743">
        <ele>302</ele>
        <time>2018-03-18T14:01:16.000Z</time>
      </trkpt>
      <trkpt lat="43.90334" lon="5.17747">
        <ele>302.3</ele>
        <time>2018-03-18T14:01:21.000Z</time>
      </trkpt>
      <trkpt lat="43.90333" lon="5.17748">
        <ele>302.3</ele>
        <time>2018-03-18T14:01:22.000Z</time>
      </trkpt>
      <trkpt lat="43.90327" lon="5.17755">
        <ele>302.6</ele>
        <time>2018-03-18T14:01:29.000Z</time>
      </trkpt>
      <trkpt lat="43.90327" lon="5.17757">
        <ele>302.6</ele>
        <time>2018-03-18T14:01:30.000Z</time>
      </trkpt>
      <trkpt lat="43.90323" lon="5.17767">
        <ele>302.5</ele>
        <time>2018-03-18T14:01:36.000Z</time>
      </trkpt>
      <trkpt lat="43.90322" lon="5.1777">
        <ele>302.3</ele>
        <time>2018-03-18T14:01:37.000Z</time>
      </trkpt>
      <trkpt lat="43.90318" lon="5.17781">
        <ele>301.6</ele>
        <time>2018-03-18T14:01:45.000Z</time>
      </trkpt>
      <trkpt lat="43.90317" lon="5.17784">
        <ele>301.5</ele>
        <time>2018-03-18T14:01:46.000Z</time>
      </trkpt>
      <trkpt lat="43.90314" lon="5.17794">
        <ele>300.7</ele>
        <time>2018-03-18T14:01:52.000Z</time>
      </trkpt>
      <trkpt lat="43.90314" lon="5.17797">
        <ele>300.6</ele>
        <time>2018-03-18T14:01:53.000Z</time>
      </trkpt>
      <trkpt lat="43.90311" lon="5.17806">
        <ele>300.4</ele>
        <time>2018-03-18T14:01:58.000Z</time>
      </trkpt>
      <trkpt lat="43.9031" lon="5.17809">
        <ele>300.4</ele>
        <time>2018-03-18T14:01:59.000Z</time>
      </trkpt>
      <trkpt lat="43.90311" lon="5.17819">
        <ele>299.6</ele>
        <time>2018-03-18T14:02:05.000Z</time>
      </trkpt>
      <trkpt lat="43.90311" lon="5.17822">
        <ele>299.4</ele>
        <time>2018-03-18T14:02:06.000Z</time>
      </trkpt>
      <trkpt lat="43.90315" lon="5.17824">
        <ele>298.7</ele>
        <time>2018-03-18T14:02:12.000Z</time>
      </trkpt>
      <trkpt lat="43.90315" lon="5.17824">
        <ele>298.5</ele>
        <time>2018-03-18T14:02:13.000Z</time>
      </trkpt>
      <trkpt lat="43.90315" lon="5.17825">
        <ele>298.1</ele>
        <time>2018-03-18T14:02:16.000Z</time>
      </trkpt>
      <trkpt lat="43.90314" lon="5.17825">
        <ele>298</ele>
        <time>2018-03-18T14:02:17.000Z</time>
      </trkpt>
      <trkpt lat="43.90312" lon="5.17836">
        <ele>297.1</ele>
        <time>2018-03-18T14:02:25.000Z</time>
      </trkpt>
      <trkpt lat="43.90312" lon="5.17837">
        <ele>297</ele>
        <time>2018-03-18T14:02:26.000Z</time>
      </trkpt>
      <trkpt lat="43.90313" lon="5.17848">
        <ele>296.3</ele>
        <time>2018-03-18T14:02:33.000Z</time>
      </trkpt>
      <trkpt lat="43.90314" lon="5.17851">
        <ele>296.3</ele>
        <time>2018-03-18T14:02:34.000Z</time>
      </trkpt>
      <trkpt lat="43.90321" lon="5.17857">
        <ele>296</ele>
        <time>2018-03-18T14:02:45.000Z</time>
      </trkpt>
      <trkpt lat="43.90322" lon="5.17857">
        <ele>296</ele>
        <time>2018-03-18T14:02:46.000Z</time>
      </trkpt>
      <trkpt lat="43.90329" lon="5.17862">
        <ele>295.9</ele>
        <time>2018-03-18T14:03:02.000Z</time>
      </trkpt>
      <trkpt lat="43.90329" lon="5.17862">
        <ele>295.9</ele>
        <time>2018-03-18T14:03:03.000Z</time>
      </trkpt>
      <trkpt lat="43.90332" lon="5.17866">
        <ele>296.5</ele>
        <time>2018-03-18T14:03:16.000Z</time>
      </trkpt>
      <trkpt lat="43.90332" lon="5.17866">
        <ele>296.5</ele>
        <time>2018-03-18T14:03:17.000Z</time>
      </trkpt>
      <trkpt lat="43.90332" lon="5.17866">
        <ele>296.3</ele>
        <time>2018-03-18T14:03:19.000Z</time>
      </trkpt>
      <trkpt lat="43.90332" lon="5.17866">
        <ele>296.3</ele>
        <time>2018-03-18T14:03:20.000Z</time>
      </trkpt>
      <trkpt lat="43.90334" lon="5.17865">
        <ele>294.8</ele>
        <time>2018-03-18T14:03:30.000Z</time>
      </trkpt>
      <trkpt lat="43.90335" lon="5.17864">
        <ele>294.7</ele>
        <time>2018-03-18T14:03:31.000Z</time>
      </trkpt>
      <trkpt lat="43.90337" lon="5.17863">
        <ele>293.7</ele>
        <time>2018-03-18T14:03:37.000Z</time>
      </trkpt>
      <trkpt lat="43.90338" lon="5.17864">
        <ele>293.6</ele>
        <time>2018-03-18T14:03:38.000Z</time>
      </trkpt>
      <trkpt lat="43.90344" lon="5.17872">
        <ele>292.3</ele>
        <time>2018-03-18T14:03:58.000Z</time>
      </trkpt>
      <trkpt lat="43.90344" lon="5.17874">
        <ele>292.3</ele>
        <time>2018-03-18T14:03:59.000Z</time>
      </trkpt>
      <trkpt lat="43.90344" lon="5.17874">
        <ele>292.3</ele>
        <time>2018-03-18T14:04:00.000Z</time>
      </trkpt>
      <trkpt lat="43.90345" lon="5.17868">
        <ele>289.8</ele>
        <time>2018-03-18T14:04:34.000Z</time>
      </trkpt>
      <trkpt lat="43.90345" lon="5.17868">
        <ele>289.6</ele>
        <time>2018-03-18T14:04:35.000Z</time>
      </trkpt>
      <trkpt lat="43.90346" lon="5.17873">
        <ele>238.6</ele>
        <time>2018-03-18T14:04:40.675Z</time>
      </trkpt>
      <trkpt lat="43.90346" lon="5.17874">
        <ele>288.1</ele>
        <time>2018-03-18T14:04:42.000Z</time>
      </trkpt>
      <trkpt lat="43.90347" lon="5.17875">
        <ele>287.6</ele>
        <time>2018-03-18T14:04:44.000Z</time>
      </trkpt>
      <trkpt lat="43.90348" lon="5.17875">
        <ele>287.2</ele>
        <time>2018-03-18T14:04:45.000Z</time>
      </trkpt>
      <trkpt lat="43.90348" lon="5.17876">
        <ele>286.6</ele>
        <time>2018-03-18T14:04:47.000Z</time>
      </trkpt>
      <trkpt lat="43.90348" lon="5.17876">
        <ele>286.6</ele>
        <time>2018-03-18T14:04:48.000Z</time>
      </trkpt>
      <trkpt lat="43.90351" lon="5.17884">
        <ele>236.5</ele>
        <time>2018-03-18T14:05:35.011Z</time>
      </trkpt>
      <trkpt lat="43.90351" lon="5.17887">
        <ele>287.4</ele>
        <time>2018-03-18T14:05:36.000Z</time>
      </trkpt>
      <trkpt lat="43.90352" lon="5.1789">
        <ele>287.5</ele>
        <time>2018-03-18T14:05:38.000Z</time>
      </trkpt>
      <trkpt lat="43.90352" lon="5.17891">
        <ele>287.5</ele>
        <time>2018-03-18T14:05:39.000Z</time>
      </trkpt>
      <trkpt lat="43.90353" lon="5.17886">
        <ele>288.3</ele>
        <time>2018-03-18T14:06:03.000Z</time>
      </trkpt>
      <trkpt lat="43.90352" lon="5.17885">
        <ele>288.4</ele>
        <time>2018-03-18T14:06:04.000Z</time>
      </trkpt>
      <trkpt lat="43.90351" lon="5.1788">
        <ele>289</ele>
        <time>2018-03-18T14:06:13.000Z</time>
      </trkpt>
      <trkpt lat="43.90351" lon="5.1788">
        <ele>289</ele>
        <time>2018-03-18T14:06:14.000Z</time>
      </trkpt>
      <trkpt lat="43.90357" lon="5.17888">
        <ele>231.8</ele>
        <time>2018-03-18T14:07:19.626Z</time>
      </trkpt>
      <trkpt lat="43.90357" lon="5.17889">
        <ele>231.9</ele>
        <time>2018-03-18T14:07:24.958Z</time>
      </trkpt>
      <trkpt lat="43.90357" lon="5.1789">
        <ele>289.4</ele>
        <time>2018-03-18T14:07:30.000Z</time>
      </trkpt>
      <trkpt lat="43.90358" lon="5.17902">
        <ele>288.3</ele>
        <time>2018-03-18T14:07:51.000Z</time>
      </trkpt>
      <trkpt lat="43.90358" lon="5.17903">
        <ele>234.5</ele>
        <time>2018-03-18T14:07:50.273Z</time>
      </trkpt>
      <trkpt lat="43.90358" lon="5.17903">
        <ele>288.1</ele>
        <time>2018-03-18T14:07:52.000Z</time>
      </trkpt>
      <trkpt lat="43.90354" lon="5.17912">
        <ele>289</ele>
        <time>2018-03-18T14:08:38.000Z</time>
      </trkpt>
      <trkpt lat="43.90352" lon="5.17913">
        <ele>289.2</ele>
        <time>2018-03-18T14:08:39.000Z</time>
      </trkpt>
      <trkpt lat="43.90351" lon="5.17914">
        <ele>289.3</ele>
        <time>2018-03-18T14:08:40.000Z</time>
      </trkpt>
      <trkpt lat="43.90345" lon="5.17922">
        <ele>243.1</ele>
        <time>2018-03-18T14:08:46.761Z</time>
      </trkpt>
      <trkpt lat="43.90343" lon="5.17923">
        <ele>289.4</ele>
        <time>2018-03-18T14:08:47.000Z</time>
      </trkpt>
      <trkpt lat="43.90343" lon="5.17925">
        <ele>289.4</ele>
        <time>2018-03-18T14:08:48.000Z</time>
      </trkpt>
      <trkpt lat="43.90336" lon="5.17929">
        <ele>291.1</ele>
        <time>2018-03-18T14:09:18.000Z</time>
      </trkpt>
      <trkpt lat="43.90334" lon="5.1793">
        <ele>291.2</ele>
        <time>2018-03-18T14:09:19.000Z</time>
      </trkpt>
      <trkpt lat="43.90334" lon="5.1793">
        <ele>291.2</ele>
        <time>2018-03-18T14:09:20.000Z</time>
      </trkpt>
      <trkpt lat="43.90326" lon="5.17932">
        <ele>291.3</ele>
        <time>2018-03-18T14:09:24.000Z</time>
      </trkpt>
      <trkpt lat="43.90323" lon="5.17933">
        <ele>291.4</ele>
        <time>2018-03-18T14:09:25.000Z</time>
      </trkpt>
      <trkpt lat="43.90322" lon="5.17933">
        <ele>291.4</ele>
        <time>2018-03-18T14:09:26.000Z</time>
      </trkpt>
      <trkpt lat="43.90323" lon="5.17946">
        <ele>291.9</ele>
        <time>2018-03-18T14:09:51.000Z</time>
      </trkpt>
      <trkpt lat="43.90323" lon="5.17946">
        <ele>291.9</ele>
        <time>2018-03-18T14:09:52.000Z</time>
      </trkpt>
      <trkpt lat="43.90324" lon="5.17947">
        <ele>292</ele>
        <time>2018-03-18T14:09:53.000Z</time>
      </trkpt>
      <trkpt lat="43.90327" lon="5.17949">
        <ele>292.3</ele>
        <time>2018-03-18T14:09:57.000Z</time>
      </trkpt>
      <trkpt lat="43.90327" lon="5.17948">
        <ele>292.2</ele>
        <time>2018-03-18T14:09:58.000Z</time>
      </trkpt>
      <trkpt lat="43.90328" lon="5.17948">
        <ele>290.2</ele>
        <time>2018-03-18T14:10:05.000Z</time>
      </trkpt>
      <trkpt lat="43.90328" lon="5.17948">
        <ele>289.9</ele>
        <time>2018-03-18T14:10:06.000Z</time>
      </trkpt>
      <trkpt lat="43.90324" lon="5.17937">
        <ele>286.5</ele>
        <time>2018-03-18T14:10:52.000Z</time>
      </trkpt>
      <trkpt lat="43.90323" lon="5.17937">
        <ele>286.5</ele>
        <time>2018-03-18T14:10:53.000Z</time>
      </trkpt>
      <trkpt lat="43.90323" lon="5.17937">
        <ele>286.5</ele>
        <time>2018-03-18T14:10:54.000Z</time>
      </trkpt>
      <trkpt lat="43.90322" lon="5.17936">
        <ele>286.7</ele>
        <time>2018-03-18T14:10:56.000Z</time>
      </trkpt>
      <trkpt lat="43.90321" lon="5.17936">
        <ele>286.8</ele>
        <time>2018-03-18T14:10:57.000Z</time>
      </trkpt>
      <trkpt lat="43.90313" lon="5.17932">
        <ele>287.2</ele>
        <time>2018-03-18T14:11:10.000Z</time>
      </trkpt>
      <trkpt lat="43.90313" lon="5.17932">
        <ele>287.3</ele>
        <time>2018-03-18T14:11:11.000Z</time>
      </trkpt>
      <trkpt lat="43.90304" lon="5.17929">
        <ele>288</ele>
        <time>2018-03-18T14:11:18.000Z</time>
      </trkpt>
      <trkpt lat="43.90304" lon="5.17929">
        <ele>288</ele>
        <time>2018-03-18T14:11:19.000Z</time>
      </trkpt>
      <trkpt lat="43.90295" lon="5.17928">
        <ele>290.5</ele>
        <time>2018-03-18T14:11:31.000Z</time>
      </trkpt>
      <trkpt lat="43.90295" lon="5.17928">
        <ele>290.8</ele>
        <time>2018-03-18T14:11:32.000Z</time>
      </trkpt>
      <trkpt lat="43.90287" lon="5.17931">
        <ele>292.8</ele>
        <time>2018-03-18T14:11:40.000Z</time>
      </trkpt>
      <trkpt lat="43.90286" lon="5.17932">
        <ele>293.1</ele>
        <time>2018-03-18T14:11:41.000Z</time>
      </trkpt>
      <trkpt lat="43.90278" lon="5.1793">
        <ele>294.4</ele>
        <time>2018-03-18T14:11:50.000Z</time>
      </trkpt>
      <trkpt lat="43.90277" lon="5.17929">
        <ele>294.5</ele>
        <time>2018-03-18T14:11:51.000Z</time>
      </trkpt>
      <trkpt lat="43.9027" lon="5.1792">
        <ele>294.5</ele>
        <time>2018-03-18T14:12:00.000Z</time>
      </trkpt>
      <trkpt lat="43.9027" lon="5.1792">
        <ele>294.5</ele>
        <time>2018-03-18T14:12:01.000Z</time>
      </trkpt>
      <trkpt lat="43.90261" lon="5.17917">
        <ele>294.2</ele>
        <time>2018-03-18T14:12:09.000Z</time>
      </trkpt>
      <trkpt lat="43.90261" lon="5.17917">
        <ele>294.1</ele>
        <time>2018-03-18T14:12:10.000Z</time>
      </trkpt>
      <trkpt lat="43.90252" lon="5.17917">
        <ele>292.9</ele>
        <time>2018-03-18T14:12:19.000Z</time>
      </trkpt>
      <trkpt lat="43.90251" lon="5.17918">
        <ele>292.8</ele>
        <time>2018-03-18T14:12:20.000Z</time>
      </trkpt>
      <trkpt lat="43.90246" lon="5.17927">
        <ele>292</ele>
        <time>2018-03-18T14:12:27.000Z</time>
      </trkpt>
      <trkpt lat="43.90246" lon="5.17929">
        <ele>292</ele>
        <time>2018-03-18T14:12:28.000Z</time>
      </trkpt>
      <trkpt lat="43.90248" lon="5.17941">
        <ele>291.4</ele>
        <time>2018-03-18T14:12:34.000Z</time>
      </trkpt>
      <trkpt lat="43.90248" lon="5.17943">
        <ele>291.3</ele>
        <time>2018-03-18T14:12:35.000Z</time>
      </trkpt>
      <trkpt lat="43.90248" lon="5.17955">
        <ele>291.3</ele>
        <time>2018-03-18T14:12:41.000Z</time>
      </trkpt>
      <trkpt lat="43.90248" lon="5.17956">
        <ele>291.3</ele>
        <time>2018-03-18T14:12:42.000Z</time>
      </trkpt>
      <trkpt lat="43.90246" lon="5.17968">
        <ele>290.3</ele>
        <time>2018-03-18T14:12:49.000Z</time>
      </trkpt>
      <trkpt lat="43.90246" lon="5.1797">
        <ele>290.1</ele>
        <time>2018-03-18T14:12:50.000Z</time>
      </trkpt>
      <trkpt lat="43.90242" lon="5.17981">
        <ele>289.3</ele>
        <time>2018-03-18T14:12:56.000Z</time>
      </trkpt>
      <trkpt lat="43.90242" lon="5.17982">
        <ele>289.1</ele>
        <time>2018-03-18T14:12:57.000Z</time>
      </trkpt>
      <trkpt lat="43.90239" lon="5.17993">
        <ele>288.1</ele>
        <time>2018-03-18T14:13:03.000Z</time>
      </trkpt>
      <trkpt lat="43.90238" lon="5.17994">
        <ele>287.9</ele>
        <time>2018-03-18T14:13:04.000Z</time>
      </trkpt>
      <trkpt lat="43.90237" lon="5.17997">
        <ele>287.6</ele>
        <time>2018-03-18T14:13:06.000Z</time>
      </trkpt>
      <trkpt lat="43.90236" lon="5.17999">
        <ele>287.6</ele>
        <time>2018-03-18T14:13:07.000Z</time>
      </trkpt>
      <trkpt lat="43.90235" lon="5.18005">
        <ele>287.4</ele>
        <time>2018-03-18T14:13:11.000Z</time>
      </trkpt>
      <trkpt lat="43.90235" lon="5.18006">
        <ele>287.3</ele>
        <time>2018-03-18T14:13:12.000Z</time>
      </trkpt>
      <trkpt lat="43.90232" lon="5.18017">
        <ele>287.1</ele>
        <time>2018-03-18T14:13:19.000Z</time>
      </trkpt>
      <trkpt lat="43.90232" lon="5.18018">
        <ele>287.2</ele>
        <time>2018-03-18T14:13:20.000Z</time>
      </trkpt>
      <trkpt lat="43.90237" lon="5.18028">
        <ele>287.5</ele>
        <time>2018-03-18T14:13:32.000Z</time>
      </trkpt>
      <trkpt lat="43.90237" lon="5.18029">
        <ele>287.5</ele>
        <time>2018-03-18T14:13:33.000Z</time>
      </trkpt>
      <trkpt lat="43.90238" lon="5.1803">
        <ele>287.5</ele>
        <time>2018-03-18T14:13:34.000Z</time>
      </trkpt>
      <trkpt lat="43.90238" lon="5.1803">
        <ele>287.5</ele>
        <time>2018-03-18T14:13:35.000Z</time>
      </trkpt>
      <trkpt lat="43.90239" lon="5.18031">
        <ele>287.7</ele>
        <time>2018-03-18T14:13:39.000Z</time>
      </trkpt>
      <trkpt lat="43.90239" lon="5.1803">
        <ele>287.8</ele>
        <time>2018-03-18T14:13:40.000Z</time>
      </trkpt>
      <trkpt lat="43.90231" lon="5.18024">
        <ele>287.5</ele>
        <time>2018-03-18T14:13:51.000Z</time>
      </trkpt>
      <trkpt lat="43.9023" lon="5.18025">
        <ele>287.5</ele>
        <time>2018-03-18T14:13:52.000Z</time>
      </trkpt>
      <trkpt lat="43.90222" lon="5.18027">
        <ele>287.8</ele>
        <time>2018-03-18T14:14:01.000Z</time>
      </trkpt>
      <trkpt lat="43.90221" lon="5.18028">
        <ele>287.9</ele>
        <time>2018-03-18T14:14:02.000Z</time>
      </trkpt>
      <trkpt lat="43.90213" lon="5.18031">
        <ele>288</ele>
        <time>2018-03-18T14:14:07.000Z</time>
      </trkpt>
      <trkpt lat="43.90212" lon="5.18032">
        <ele>288</ele>
        <time>2018-03-18T14:14:08.000Z</time>
      </trkpt>
      <trkpt lat="43.90205" lon="5.18036">
        <ele>288.1</ele>
        <time>2018-03-18T14:14:13.000Z</time>
      </trkpt>
      <trkpt lat="43.90203" lon="5.18037">
        <ele>288.1</ele>
        <time>2018-03-18T14:14:14.000Z</time>
      </trkpt>
      <trkpt lat="43.90198" lon="5.18046">
        <ele>288.2</ele>
        <time>2018-03-18T14:14:20.000Z</time>
      </trkpt>
      <trkpt lat="43.90196" lon="5.18048">
        <ele>288.1</ele>
        <time>2018-03-18T14:14:21.000Z</time>
      </trkpt>
      <trkpt lat="43.9019" lon="5.18054">
        <ele>287.8</ele>
        <time>2018-03-18T14:14:26.000Z</time>
      </trkpt>
      <trkpt lat="43.90188" lon="5.18055">
        <ele>287.8</ele>
        <time>2018-03-18T14:14:27.000Z</time>
      </trkpt>
      <trkpt lat="43.90181" lon="5.18061">
        <ele>287.2</ele>
        <time>2018-03-18T14:14:33.000Z</time>
      </trkpt>
      <trkpt lat="43.90179" lon="5.18061">
        <ele>287.1</ele>
        <time>2018-03-18T14:14:34.000Z</time>
      </trkpt>
      <trkpt lat="43.90171" lon="5.18066">
        <ele>286.8</ele>
        <time>2018-03-18T14:14:40.000Z</time>
      </trkpt>
      <trkpt lat="43.90169" lon="5.18066">
        <ele>286.8</ele>
        <time>2018-03-18T14:14:41.000Z</time>
      </trkpt>
      <trkpt lat="43.90161" lon="5.18069">
        <ele>286.6</ele>
        <time>2018-03-18T14:14:46.000Z</time>
      </trkpt>
      <trkpt lat="43.9016" lon="5.1807">
        <ele>286.5</ele>
        <time>2018-03-18T14:14:47.000Z</time>
      </trkpt>
      <trkpt lat="43.90153" lon="5.18074">
        <ele>286.1</ele>
        <time>2018-03-18T14:14:52.000Z</time>
      </trkpt>
      <trkpt lat="43.90151" lon="5.18074">
        <ele>286.1</ele>
        <time>2018-03-18T14:14:53.000Z</time>
      </trkpt>
      <trkpt lat="43.90144" lon="5.18078">
        <ele>285.9</ele>
        <time>2018-03-18T14:14:58.000Z</time>
      </trkpt>
      <trkpt lat="43.90143" lon="5.1808">
        <ele>285.8</ele>
        <time>2018-03-18T14:14:59.000Z</time>
      </trkpt>
      <trkpt lat="43.90139" lon="5.18087">
        <ele>285.5</ele>
        <time>2018-03-18T14:15:04.000Z</time>
      </trkpt>
      <trkpt lat="43.90137" lon="5.1809">
        <ele>285.4</ele>
        <time>2018-03-18T14:15:05.000Z</time>
      </trkpt>
      <trkpt lat="43.9014" lon="5.18102">
        <ele>285.1</ele>
        <time>2018-03-18T14:15:15.000Z</time>
      </trkpt>
      <trkpt lat="43.90141" lon="5.18103">
        <ele>285</ele>
        <time>2018-03-18T14:15:16.000Z</time>
      </trkpt>
      <trkpt lat="43.90144" lon="5.1811">
        <ele>234.7</ele>
        <time>2018-03-18T14:15:18.002Z</time>
      </trkpt>
      <trkpt lat="43.90147" lon="5.18114">
        <ele>284.4</ele>
        <time>2018-03-18T14:15:19.000Z</time>
      </trkpt>
      <trkpt lat="43.90151" lon="5.18124">
        <ele>283.1</ele>
        <time>2018-03-18T14:15:24.000Z</time>
      </trkpt>
      <trkpt lat="43.90152" lon="5.18125">
        <ele>282.8</ele>
        <time>2018-03-18T14:15:25.000Z</time>
      </trkpt>
      <trkpt lat="43.90156" lon="5.18136">
        <ele>281.2</ele>
        <time>2018-03-18T14:15:33.000Z</time>
      </trkpt>
      <trkpt lat="43.90156" lon="5.18137">
        <ele>228.7</ele>
        <time>2018-03-18T14:15:33.106Z</time>
      </trkpt>
      <trkpt lat="43.90164" lon="5.18138">
        <ele>279.5</ele>
        <time>2018-03-18T14:15:46.000Z</time>
      </trkpt>
      <trkpt lat="43.90165" lon="5.18138">
        <ele>279.3</ele>
        <time>2018-03-18T14:15:47.000Z</time>
      </trkpt>
      <trkpt lat="43.90174" lon="5.18141">
        <ele>277.4</ele>
        <time>2018-03-18T14:15:57.000Z</time>
      </trkpt>
      <trkpt lat="43.90174" lon="5.18141">
        <ele>224.9</ele>
        <time>2018-03-18T14:15:57.496Z</time>
      </trkpt>
      <trkpt lat="43.90166" lon="5.18146">
        <ele>275.5</ele>
        <time>2018-03-18T14:16:09.000Z</time>
      </trkpt>
      <trkpt lat="43.90166" lon="5.18147">
        <ele>275.3</ele>
        <time>2018-03-18T14:16:10.000Z</time>
      </trkpt>
      <trkpt lat="43.90164" lon="5.18153">
        <ele>274.2</ele>
        <time>2018-03-18T14:16:16.000Z</time>
      </trkpt>
      <trkpt lat="43.90163" lon="5.18154">
        <ele>274.1</ele>
        <time>2018-03-18T14:16:17.000Z</time>
      </trkpt>
      <trkpt lat="43.90164" lon="5.18155">
        <ele>273.7</ele>
        <time>2018-03-18T14:16:19.000Z</time>
      </trkpt>
      <trkpt lat="43.90165" lon="5.18155">
        <ele>273.4</ele>
        <time>2018-03-18T14:16:20.000Z</time>
      </trkpt>
      <trkpt lat="43.90173" lon="5.18154">
        <ele>271.5</ele>
        <time>2018-03-18T14:16:29.000Z</time>
      </trkpt>
      <trkpt lat="43.90174" lon="5.18154">
        <ele>271.3</ele>
        <time>2018-03-18T14:16:30.000Z</time>
      </trkpt>
      <trkpt lat="43.90175" lon="5.18154">
        <ele>271.1</ele>
        <time>2018-03-18T14:16:31.000Z</time>
      </trkpt>
      <trkpt lat="43.90175" lon="5.18154">
        <ele>271</ele>
        <time>2018-03-18T14:16:32.000Z</time>
      </trkpt>
      <trkpt lat="43.90183" lon="5.18157">
        <ele>269.6</ele>
        <time>2018-03-18T14:16:46.000Z</time>
      </trkpt>
      <trkpt lat="43.90184" lon="5.18158">
        <ele>269.6</ele>
        <time>2018-03-18T14:16:47.000Z</time>
      </trkpt>
      <trkpt lat="43.90184" lon="5.18159">
        <ele>269.6</ele>
        <time>2018-03-18T14:16:48.000Z</time>
      </trkpt>
      <trkpt lat="43.90191" lon="5.18166">
        <ele>268.6</ele>
        <time>2018-03-18T14:16:59.000Z</time>
      </trkpt>
      <trkpt lat="43.90191" lon="5.18167">
        <ele>268.6</ele>
        <time>2018-03-18T14:17:00.000Z</time>
      </trkpt>
      <trkpt lat="43.90192" lon="5.18169">
        <ele>268.5</ele>
        <time>2018-03-18T14:17:01.000Z</time>
      </trkpt>
      <trkpt lat="43.90191" lon="5.18179">
        <ele>214.9</ele>
        <time>2018-03-18T14:17:09.670Z</time>
      </trkpt>
      <trkpt lat="43.9019" lon="5.18181">
        <ele>267.7</ele>
        <time>2018-03-18T14:17:10.000Z</time>
      </trkpt>
      <trkpt lat="43.90189" lon="5.18183">
        <ele>267.7</ele>
        <time>2018-03-18T14:17:11.000Z</time>
      </trkpt>
      <trkpt lat="43.90187" lon="5.18194">
        <ele>266.6</ele>
        <time>2018-03-18T14:17:19.000Z</time>
      </trkpt>
      <trkpt lat="43.90186" lon="5.18196">
        <ele>266.6</ele>
        <time>2018-03-18T14:17:20.000Z</time>
      </trkpt>
      <trkpt lat="43.90186" lon="5.18196">
        <ele>212.9</ele>
        <time>2018-03-18T14:17:19.992Z</time>
      </trkpt>
      <trkpt lat="43.90186" lon="5.18199">
        <ele>266.6</ele>
        <time>2018-03-18T14:17:21.000Z</time>
      </trkpt>
      <trkpt lat="43.90185" lon="5.18204">
        <ele>266.2</ele>
        <time>2018-03-18T14:17:25.000Z</time>
      </trkpt>
      <trkpt lat="43.90185" lon="5.18206">
        <ele>265.9</ele>
        <time>2018-03-18T14:17:26.000Z</time>
      </trkpt>
      <trkpt lat="43.90183" lon="5.18218">
        <ele>264</ele>
        <time>2018-03-18T14:17:36.000Z</time>
      </trkpt>
      <trkpt lat="43.90184" lon="5.1822">
        <ele>263.9</ele>
        <time>2018-03-18T14:17:37.000Z</time>
      </trkpt>
      <trkpt lat="43.90189" lon="5.1823">
        <ele>263.6</ele>
        <time>2018-03-18T14:17:43.000Z</time>
      </trkpt>
      <trkpt lat="43.9019" lon="5.1823">
        <ele>263.6</ele>
        <time>2018-03-18T14:17:44.000Z</time>
      </trkpt>
      <trkpt lat="43.90191" lon="5.18234">
        <ele>263.1</ele>
        <time>2018-03-18T14:17:51.000Z</time>
      </trkpt>
      <trkpt lat="43.90191" lon="5.18235">
        <ele>263.1</ele>
        <time>2018-03-18T14:17:52.000Z</time>
      </trkpt>
      <trkpt lat="43.90195" lon="5.18245">
        <ele>263.1</ele>
        <time>2018-03-18T14:18:10.000Z</time>
      </trkpt>
      <trkpt lat="43.90196" lon="5.18247">
        <ele>263.1</ele>
        <time>2018-03-18T14:18:11.000Z</time>
      </trkpt>
      <trkpt lat="43.90198" lon="5.18249">
        <ele>263.1</ele>
        <time>2018-03-18T14:18:12.000Z</time>
      </trkpt>
      <trkpt lat="43.90199" lon="5.18251">
        <ele>263</ele>
        <time>2018-03-18T14:18:13.000Z</time>
      </trkpt>
      <trkpt lat="43.902" lon="5.18252">
        <ele>263</ele>
        <time>2018-03-18T14:18:14.000Z</time>
      </trkpt>
      <trkpt lat="43.90203" lon="5.1826">
        <ele>262.5</ele>
        <time>2018-03-18T14:18:20.000Z</time>
      </trkpt>
      <trkpt lat="43.90203" lon="5.1826">
        <ele>262.6</ele>
        <time>2018-03-18T14:18:21.000Z</time>
      </trkpt>
      <trkpt lat="43.90206" lon="5.1826">
        <ele>215.5</ele>
        <time>2018-03-18T14:18:44.627Z</time>
      </trkpt>
      <trkpt lat="43.90208" lon="5.18257">
        <ele>263.4</ele>
        <time>2018-03-18T14:18:47.000Z</time>
      </trkpt>
      <trkpt lat="43.90212" lon="5.18251">
        <ele>217</ele>
        <time>2018-03-18T14:19:06.832Z</time>
      </trkpt>
      <trkpt lat="43.90203" lon="5.18268">
        <ele>243.2</ele>
        <time>2018-03-18T14:19:29.000Z</time>
      </trkpt>
      <trkpt lat="43.90204" lon="5.18265">
        <ele>243.4</ele>
        <time>2018-03-18T14:19:30.000Z</time>
      </trkpt>
      <trkpt lat="43.90204" lon="5.18264">
        <ele>243.7</ele>
        <time>2018-03-18T14:19:31.000Z</time>
      </trkpt>
      <trkpt lat="43.90204" lon="5.18263">
        <ele>244.4</ele>
        <time>2018-03-18T14:19:33.000Z</time>
      </trkpt>
      <trkpt lat="43.90204" lon="5.18263">
        <ele>244.7</ele>
        <time>2018-03-18T14:19:34.000Z</time>
      </trkpt>
      <trkpt lat="43.90212" lon="5.18259">
        <ele>251.3</ele>
        <time>2018-03-18T14:20:08.000Z</time>
      </trkpt>
      <trkpt lat="43.90213" lon="5.18259">
        <ele>251.5</ele>
        <time>2018-03-18T14:20:09.000Z</time>
      </trkpt>
      <trkpt lat="43.90213" lon="5.1826">
        <ele>251.8</ele>
        <time>2018-03-18T14:20:10.000Z</time>
      </trkpt>
      <trkpt lat="43.90222" lon="5.18259">
        <ele>257.3</ele>
        <time>2018-03-18T14:20:30.000Z</time>
      </trkpt>
      <trkpt lat="43.90223" lon="5.18259">
        <ele>257.6</ele>
        <time>2018-03-18T14:20:31.000Z</time>
      </trkpt>
      <trkpt lat="43.90223" lon="5.18259">
        <ele>257.9</ele>
        <time>2018-03-18T14:20:32.000Z</time>
      </trkpt>
      <trkpt lat="43.90224" lon="5.18258">
        <ele>258.1</ele>
        <time>2018-03-18T14:20:33.000Z</time>
      </trkpt>
      <trkpt lat="43.90231" lon="5.18254">
        <ele>260.4</ele>
        <time>2018-03-18T14:20:41.000Z</time>
      </trkpt>
      <trkpt lat="43.90234" lon="5.1825">
        <ele>260.5</ele>
        <time>2018-03-18T14:20:42.000Z</time>
      </trkpt>
      <trkpt lat="43.90242" lon="5.18244">
        <ele>262.2</ele>
        <time>2018-03-18T14:20:55.000Z</time>
      </trkpt>
      <trkpt lat="43.90242" lon="5.18244">
        <ele>262.4</ele>
        <time>2018-03-18T14:20:56.000Z</time>
      </trkpt>
      <trkpt lat="43.9025" lon="5.18245">
        <ele>264.3</ele>
        <time>2018-03-18T14:21:06.000Z</time>
      </trkpt>
      <trkpt lat="43.90252" lon="5.18245">
        <ele>264.5</ele>
        <time>2018-03-18T14:21:07.000Z</time>
      </trkpt>
      <trkpt lat="43.9026" lon="5.18243">
        <ele>266.9</ele>
        <time>2018-03-18T14:21:19.000Z</time>
      </trkpt>
      <trkpt lat="43.90261" lon="5.18243">
        <ele>267</ele>
        <time>2018-03-18T14:21:20.000Z</time>
      </trkpt>
      <trkpt lat="43.90269" lon="5.1824">
        <ele>269.5</ele>
        <time>2018-03-18T14:21:33.000Z</time>
      </trkpt>
      <trkpt lat="43.9027" lon="5.1824">
        <ele>269.7</ele>
        <time>2018-03-18T14:21:34.000Z</time>
      </trkpt>
      <trkpt lat="43.90277" lon="5.18239">
        <ele>271.5</ele>
        <time>2018-03-18T14:21:46.000Z</time>
      </trkpt>
      <trkpt lat="43.90277" lon="5.18239">
        <ele>271.5</ele>
        <time>2018-03-18T14:21:47.000Z</time>
      </trkpt>
      <trkpt lat="43.90278" lon="5.18238">
        <ele>271.3</ele>
        <time>2018-03-18T14:21:56.000Z</time>
      </trkpt>
      <trkpt lat="43.90279" lon="5.18237">
        <ele>271.1</ele>
        <time>2018-03-18T14:21:57.000Z</time>
      </trkpt>
      <trkpt lat="43.90287" lon="5.18235">
        <ele>273.3</ele>
        <time>2018-03-18T14:22:15.000Z</time>
      </trkpt>
      <trkpt lat="43.90288" lon="5.18235">
        <ele>273.5</ele>
        <time>2018-03-18T14:22:16.000Z</time>
      </trkpt>
      <trkpt lat="43.90296" lon="5.18234">
        <ele>275</ele>
        <time>2018-03-18T14:22:26.000Z</time>
      </trkpt>
      <trkpt lat="43.90296" lon="5.18233">
        <ele>275.2</ele>
        <time>2018-03-18T14:22:27.000Z</time>
      </trkpt>
      <trkpt lat="43.90304" lon="5.18234">
        <ele>277.8</ele>
        <time>2018-03-18T14:22:39.000Z</time>
      </trkpt>
      <trkpt lat="43.90306" lon="5.18234">
        <ele>277.9</ele>
        <time>2018-03-18T14:22:40.000Z</time>
      </trkpt>
      <trkpt lat="43.90313" lon="5.18236">
        <ele>278.3</ele>
        <time>2018-03-18T14:22:46.000Z</time>
      </trkpt>
      <trkpt lat="43.90315" lon="5.18237">
        <ele>278.3</ele>
        <time>2018-03-18T14:22:47.000Z</time>
      </trkpt>
      <trkpt lat="43.90323" lon="5.18238">
        <ele>278.1</ele>
        <time>2018-03-18T14:22:56.000Z</time>
      </trkpt>
      <trkpt lat="43.90325" lon="5.18238">
        <ele>278.2</ele>
        <time>2018-03-18T14:22:57.000Z</time>
      </trkpt>
      <trkpt lat="43.90333" lon="5.18237">
        <ele>278.6</ele>
        <time>2018-03-18T14:23:06.000Z</time>
      </trkpt>
      <trkpt lat="43.90334" lon="5.18237">
        <ele>278.7</ele>
        <time>2018-03-18T14:23:07.000Z</time>
      </trkpt>
      <trkpt lat="43.90343" lon="5.18237">
        <ele>279.6</ele>
        <time>2018-03-18T14:23:16.000Z</time>
      </trkpt>
      <trkpt lat="43.90343" lon="5.18237">
        <ele>279.7</ele>
        <time>2018-03-18T14:23:17.000Z</time>
      </trkpt>
      <trkpt lat="43.90351" lon="5.18233">
        <ele>281.9</ele>
        <time>2018-03-18T14:23:30.000Z</time>
      </trkpt>
      <trkpt lat="43.90352" lon="5.18233">
        <ele>282.2</ele>
        <time>2018-03-18T14:23:31.000Z</time>
      </trkpt>
      <trkpt lat="43.9036" lon="5.18231">
        <ele>284.3</ele>
        <time>2018-03-18T14:23:39.000Z</time>
      </trkpt>
      <trkpt lat="43.90361" lon="5.18231">
        <ele>284.5</ele>
        <time>2018-03-18T14:23:40.000Z</time>
      </trkpt>
      <trkpt lat="43.90369" lon="5.18228">
        <ele>286.3</ele>
        <time>2018-03-18T14:23:49.000Z</time>
      </trkpt>
      <trkpt lat="43.9037" lon="5.18227">
        <ele>286.4</ele>
        <time>2018-03-18T14:23:50.000Z</time>
      </trkpt>
      <trkpt lat="43.90377" lon="5.18221">
        <ele>287.2</ele>
        <time>2018-03-18T14:23:58.000Z</time>
      </trkpt>
      <trkpt lat="43.90378" lon="5.1822">
        <ele>287.3</ele>
        <time>2018-03-18T14:23:59.000Z</time>
      </trkpt>
      <trkpt lat="43.90387" lon="5.18218">
        <ele>288.2</ele>
        <time>2018-03-18T14:24:07.000Z</time>
      </trkpt>
      <trkpt lat="43.90389" lon="5.18218">
        <ele>288.3</ele>
        <time>2018-03-18T14:24:08.000Z</time>
      </trkpt>
      <trkpt lat="43.90397" lon="5.18219">
        <ele>289</ele>
        <time>2018-03-18T14:24:15.000Z</time>
      </trkpt>
      <trkpt lat="43.90399" lon="5.18219">
        <ele>289.2</ele>
        <time>2018-03-18T14:24:16.000Z</time>
      </trkpt>
      <trkpt lat="43.90407" lon="5.18218">
        <ele>290.6</ele>
        <time>2018-03-18T14:24:24.000Z</time>
      </trkpt>
      <trkpt lat="43.90408" lon="5.18218">
        <ele>290.8</ele>
        <time>2018-03-18T14:24:25.000Z</time>
      </trkpt>
      <trkpt lat="43.90416" lon="5.18222">
        <ele>292.5</ele>
        <time>2018-03-18T14:24:34.000Z</time>
      </trkpt>
      <trkpt lat="43.90417" lon="5.18223">
        <ele>292.7</ele>
        <time>2018-03-18T14:24:35.000Z</time>
      </trkpt>
      <trkpt lat="43.90424" lon="5.18229">
        <ele>293.8</ele>
        <time>2018-03-18T14:24:42.000Z</time>
      </trkpt>
      <trkpt lat="43.90425" lon="5.18229">
        <ele>294</ele>
        <time>2018-03-18T14:24:43.000Z</time>
      </trkpt>
      <trkpt lat="43.90433" lon="5.18234">
        <ele>295.1</ele>
        <time>2018-03-18T14:24:50.000Z</time>
      </trkpt>
      <trkpt lat="43.90434" lon="5.18234">
        <ele>295.2</ele>
        <time>2018-03-18T14:24:51.000Z</time>
      </trkpt>
      <trkpt lat="43.90442" lon="5.18237">
        <ele>296.2</ele>
        <time>2018-03-18T14:24:58.000Z</time>
      </trkpt>
      <trkpt lat="43.90443" lon="5.18237">
        <ele>296.4</ele>
        <time>2018-03-18T14:24:59.000Z</time>
      </trkpt>
      <trkpt lat="43.9045" lon="5.18233">
        <ele>296.9</ele>
        <time>2018-03-18T14:25:03.000Z</time>
      </trkpt>
      <trkpt lat="43.90451" lon="5.18232">
        <ele>297</ele>
        <time>2018-03-18T14:25:04.000Z</time>
      </trkpt>
      <trkpt lat="43.90458" lon="5.18225">
        <ele>297.4</ele>
        <time>2018-03-18T14:25:10.000Z</time>
      </trkpt>
      <trkpt lat="43.9046" lon="5.18225">
        <ele>297.5</ele>
        <time>2018-03-18T14:25:11.000Z</time>
      </trkpt>
      <trkpt lat="43.90469" lon="5.18228">
        <ele>298.1</ele>
        <time>2018-03-18T14:25:17.000Z</time>
      </trkpt>
      <trkpt lat="43.9047" lon="5.18229">
        <ele>298.2</ele>
        <time>2018-03-18T14:25:18.000Z</time>
      </trkpt>
      <trkpt lat="43.90478" lon="5.18231">
        <ele>299.4</ele>
        <time>2018-03-18T14:25:26.000Z</time>
      </trkpt>
      <trkpt lat="43.9048" lon="5.18232">
        <ele>299.6</ele>
        <time>2018-03-18T14:25:27.000Z</time>
      </trkpt>
      <trkpt lat="43.90488" lon="5.18228">
        <ele>301</ele>
        <time>2018-03-18T14:25:34.000Z</time>
      </trkpt>
      <trkpt lat="43.90489" lon="5.18227">
        <ele>301.3</ele>
        <time>2018-03-18T14:25:35.000Z</time>
      </trkpt>
      <trkpt lat="43.90496" lon="5.18222">
        <ele>303</ele>
        <time>2018-03-18T14:25:44.000Z</time>
      </trkpt>
      <trkpt lat="43.90497" lon="5.18221">
        <ele>303.2</ele>
        <time>2018-03-18T14:25:45.000Z</time>
      </trkpt>
      <trkpt lat="43.90503" lon="5.18222">
        <ele>304.7</ele>
        <time>2018-03-18T14:25:50.000Z</time>
      </trkpt>
      <trkpt lat="43.90506" lon="5.18223">
        <ele>305</ele>
        <time>2018-03-18T14:25:51.000Z</time>
      </trkpt>
      <trkpt lat="43.90514" lon="5.18228">
        <ele>305.9</ele>
        <time>2018-03-18T14:25:57.000Z</time>
      </trkpt>
      <trkpt lat="43.90515" lon="5.18228">
        <ele>306.1</ele>
        <time>2018-03-18T14:25:58.000Z</time>
      </trkpt>
      <trkpt lat="43.90523" lon="5.18226">
        <ele>307</ele>
        <time>2018-03-18T14:26:03.000Z</time>
      </trkpt>
      <trkpt lat="43.90525" lon="5.18225">
        <ele>307.2</ele>
        <time>2018-03-18T14:26:04.000Z</time>
      </trkpt>
      <trkpt lat="43.90531" lon="5.18221">
        <ele>307.7</ele>
        <time>2018-03-18T14:26:07.000Z</time>
      </trkpt>
      <trkpt lat="43.90533" lon="5.18219">
        <ele>307.8</ele>
        <time>2018-03-18T14:26:08.000Z</time>
      </trkpt>
      <trkpt lat="43.9054" lon="5.18212">
        <ele>308.1</ele>
        <time>2018-03-18T14:26:13.000Z</time>
      </trkpt>
      <trkpt lat="43.90541" lon="5.18211">
        <ele>308.2</ele>
        <time>2018-03-18T14:26:14.000Z</time>
      </trkpt>
      <trkpt lat="43.90549" lon="5.1821">
        <ele>309</ele>
        <time>2018-03-18T14:26:21.000Z</time>
      </trkpt>
      <trkpt lat="43.9055" lon="5.1821">
        <ele>309.1</ele>
        <time>2018-03-18T14:26:22.000Z</time>
      </trkpt>
      <trkpt lat="43.90559" lon="5.18213">
        <ele>310.1</ele>
        <time>2018-03-18T14:26:29.000Z</time>
      </trkpt>
      <trkpt lat="43.9056" lon="5.18211">
        <ele>310.1</ele>
        <time>2018-03-18T14:26:30.000Z</time>
      </trkpt>
      <trkpt lat="43.90566" lon="5.18203">
        <ele>310.5</ele>
        <time>2018-03-18T14:26:35.000Z</time>
      </trkpt>
      <trkpt lat="43.90567" lon="5.18201">
        <ele>310.6</ele>
        <time>2018-03-18T14:26:36.000Z</time>
      </trkpt>
      <trkpt lat="43.90574" lon="5.18193">
        <ele>311.5</ele>
        <time>2018-03-18T14:26:42.000Z</time>
      </trkpt>
      <trkpt lat="43.90575" lon="5.18192">
        <ele>311.7</ele>
        <time>2018-03-18T14:26:43.000Z</time>
      </trkpt>
      <trkpt lat="43.90581" lon="5.18185">
        <ele>312.1</ele>
        <time>2018-03-18T14:26:48.000Z</time>
      </trkpt>
      <trkpt lat="43.90582" lon="5.18183">
        <ele>312.1</ele>
        <time>2018-03-18T14:26:49.000Z</time>
      </trkpt>
      <trkpt lat="43.90582" lon="5.18171">
        <ele>311.9</ele>
        <time>2018-03-18T14:26:55.000Z</time>
      </trkpt>
      <trkpt lat="43.90582" lon="5.1817">
        <ele>311.8</ele>
        <time>2018-03-18T14:26:56.000Z</time>
      </trkpt>
      <trkpt lat="43.90577" lon="5.18162">
        <ele>311.6</ele>
        <time>2018-03-18T14:27:10.000Z</time>
      </trkpt>
      <trkpt lat="43.90576" lon="5.18161">
        <ele>311.5</ele>
        <time>2018-03-18T14:27:11.000Z</time>
      </trkpt>
      <trkpt lat="43.90579" lon="5.18149">
        <ele>309.3</ele>
        <time>2018-03-18T14:27:21.000Z</time>
      </trkpt>
      <trkpt lat="43.90581" lon="5.18149">
        <ele>309.3</ele>
        <time>2018-03-18T14:27:22.000Z</time>
      </trkpt>
      <trkpt lat="43.90587" lon="5.18147">
        <ele>309.1</ele>
        <time>2018-03-18T14:27:29.000Z</time>
      </trkpt>
      <trkpt lat="43.9059" lon="5.18146">
        <ele>309.1</ele>
        <time>2018-03-18T14:27:30.000Z</time>
      </trkpt>
      <trkpt lat="43.90596" lon="5.18141">
        <ele>309.4</ele>
        <time>2018-03-18T14:27:34.000Z</time>
      </trkpt>
      <trkpt lat="43.90598" lon="5.18139">
        <ele>309.4</ele>
        <time>2018-03-18T14:27:35.000Z</time>
      </trkpt>
      <trkpt lat="43.90602" lon="5.18129">
        <ele>309.5</ele>
        <time>2018-03-18T14:27:41.000Z</time>
      </trkpt>
      <trkpt lat="43.90603" lon="5.18128">
        <ele>309.5</ele>
        <time>2018-03-18T14:27:42.000Z</time>
      </trkpt>
      <trkpt lat="43.90604" lon="5.18116">
        <ele>310.1</ele>
        <time>2018-03-18T14:27:52.000Z</time>
      </trkpt>
      <trkpt lat="43.90604" lon="5.18114">
        <ele>310.1</ele>
        <time>2018-03-18T14:27:53.000Z</time>
      </trkpt>
      <trkpt lat="43.9061" lon="5.18105">
        <ele>309.7</ele>
        <time>2018-03-18T14:28:00.000Z</time>
      </trkpt>
      <trkpt lat="43.90611" lon="5.18104">
        <ele>309.7</ele>
        <time>2018-03-18T14:28:01.000Z</time>
      </trkpt>
      <trkpt lat="43.90618" lon="5.18099">
        <ele>310.6</ele>
        <time>2018-03-18T14:28:07.000Z</time>
      </trkpt>
      <trkpt lat="43.9062" lon="5.18099">
        <ele>310.7</ele>
        <time>2018-03-18T14:28:08.000Z</time>
      </trkpt>
      <trkpt lat="43.90628" lon="5.18097">
        <ele>312.8</ele>
        <time>2018-03-18T14:28:17.000Z</time>
      </trkpt>
      <trkpt lat="43.90628" lon="5.18096">
        <ele>312.9</ele>
        <time>2018-03-18T14:28:18.000Z</time>
      </trkpt>
      <trkpt lat="43.90632" lon="5.18086">
        <ele>313.8</ele>
        <time>2018-03-18T14:28:27.000Z</time>
      </trkpt>
      <trkpt lat="43.90633" lon="5.18085">
        <ele>313.9</ele>
        <time>2018-03-18T14:28:28.000Z</time>
      </trkpt>
      <trkpt lat="43.90639" lon="5.18076">
        <ele>314.7</ele>
        <time>2018-03-18T14:28:36.000Z</time>
      </trkpt>
      <trkpt lat="43.9064" lon="5.18076">
        <ele>314.8</ele>
        <time>2018-03-18T14:28:37.000Z</time>
      </trkpt>
      <trkpt lat="43.90647" lon="5.18071">
        <ele>315.9</ele>
        <time>2018-03-18T14:28:43.000Z</time>
      </trkpt>
      <trkpt lat="43.90648" lon="5.1807">
        <ele>315.9</ele>
        <time>2018-03-18T14:28:44.000Z</time>
      </trkpt>
      <trkpt lat="43.90652" lon="5.1806">
        <ele>316.7</ele>
        <time>2018-03-18T14:28:50.000Z</time>
      </trkpt>
      <trkpt lat="43.90652" lon="5.18059">
        <ele>316.9</ele>
        <time>2018-03-18T14:28:51.000Z</time>
      </trkpt>
      <trkpt lat="43.90651" lon="5.18048">
        <ele>317.9</ele>
        <time>2018-03-18T14:28:58.000Z</time>
      </trkpt>
      <trkpt lat="43.9065" lon="5.18046">
        <ele>318</ele>
        <time>2018-03-18T14:28:59.000Z</time>
      </trkpt>
      <trkpt lat="43.90647" lon="5.18034">
        <ele>318.8</ele>
        <time>2018-03-18T14:29:06.000Z</time>
      </trkpt>
      <trkpt lat="43.90646" lon="5.18033">
        <ele>318.9</ele>
        <time>2018-03-18T14:29:07.000Z</time>
      </trkpt>
      <trkpt lat="43.90644" lon="5.18025">
        <ele>319.8</ele>
        <time>2018-03-18T14:29:13.000Z</time>
      </trkpt>
      <trkpt lat="43.90642" lon="5.18022">
        <ele>319.9</ele>
        <time>2018-03-18T14:29:14.000Z</time>
      </trkpt>
      <trkpt lat="43.90638" lon="5.18011">
        <ele>320.6</ele>
        <time>2018-03-18T14:29:21.000Z</time>
      </trkpt>
      <trkpt lat="43.90638" lon="5.18009">
        <ele>320.7</ele>
        <time>2018-03-18T14:29:22.000Z</time>
      </trkpt>
      <trkpt lat="43.90635" lon="5.17999">
        <ele>321.4</ele>
        <time>2018-03-18T14:29:31.000Z</time>
      </trkpt>
      <trkpt lat="43.90635" lon="5.17996">
        <ele>321.3</ele>
        <time>2018-03-18T14:29:32.000Z</time>
      </trkpt>
      <trkpt lat="43.90635" lon="5.17986">
        <ele>321.7</ele>
        <time>2018-03-18T14:29:37.000Z</time>
      </trkpt>
      <trkpt lat="43.90635" lon="5.17984">
        <ele>321.8</ele>
        <time>2018-03-18T14:29:38.000Z</time>
      </trkpt>
      <trkpt lat="43.90639" lon="5.17973">
        <ele>322</ele>
        <time>2018-03-18T14:29:48.000Z</time>
      </trkpt>
      <trkpt lat="43.9064" lon="5.17972">
        <ele>322.1</ele>
        <time>2018-03-18T14:29:49.000Z</time>
      </trkpt>
      <trkpt lat="43.90648" lon="5.1797">
        <ele>322</ele>
        <time>2018-03-18T14:29:57.000Z</time>
      </trkpt>
      <trkpt lat="43.90649" lon="5.1797">
        <ele>322</ele>
        <time>2018-03-18T14:29:58.000Z</time>
      </trkpt>
      <trkpt lat="43.90657" lon="5.1797">
        <ele>322.5</ele>
        <time>2018-03-18T14:30:04.000Z</time>
      </trkpt>
      <trkpt lat="43.90659" lon="5.1797">
        <ele>322.5</ele>
        <time>2018-03-18T14:30:05.000Z</time>
      </trkpt>
      <trkpt lat="43.90666" lon="5.17965">
        <ele>322.3</ele>
        <time>2018-03-18T14:30:11.000Z</time>
      </trkpt>
      <trkpt lat="43.90667" lon="5.17964">
        <ele>322.3</ele>
        <time>2018-03-18T14:30:12.000Z</time>
      </trkpt>
      <trkpt lat="43.90676" lon="5.17961">
        <ele>322.9</ele>
        <time>2018-03-18T14:30:21.000Z</time>
      </trkpt>
      <trkpt lat="43.90677" lon="5.1796">
        <ele>322.9</ele>
        <time>2018-03-18T14:30:22.000Z</time>
      </trkpt>
      <trkpt lat="43.90685" lon="5.17957">
        <ele>323.4</ele>
        <time>2018-03-18T14:30:28.000Z</time>
      </trkpt>
      <trkpt lat="43.90686" lon="5.17956">
        <ele>323.5</ele>
        <time>2018-03-18T14:30:29.000Z</time>
      </trkpt>
      <trkpt lat="43.90692" lon="5.17948">
        <ele>323.8</ele>
        <time>2018-03-18T14:30:37.000Z</time>
      </trkpt>
      <trkpt lat="43.90692" lon="5.17946">
        <ele>323.8</ele>
        <time>2018-03-18T14:30:38.000Z</time>
      </trkpt>
      <trkpt lat="43.90691" lon="5.17933">
        <ele>323.8</ele>
        <time>2018-03-18T14:30:44.000Z</time>
      </trkpt>
      <trkpt lat="43.90691" lon="5.17933">
        <ele>323.8</ele>
        <time>2018-03-18T14:30:45.000Z</time>
      </trkpt>
      <trkpt lat="43.90689" lon="5.17922">
        <ele>324.3</ele>
        <time>2018-03-18T14:30:53.000Z</time>
      </trkpt>
      <trkpt lat="43.90689" lon="5.17921">
        <ele>324.4</ele>
        <time>2018-03-18T14:30:54.000Z</time>
      </trkpt>
      <trkpt lat="43.90689" lon="5.17909">
        <ele>324.4</ele>
        <time>2018-03-18T14:31:01.000Z</time>
      </trkpt>
      <trkpt lat="43.90689" lon="5.17907">
        <ele>324.4</ele>
        <time>2018-03-18T14:31:02.000Z</time>
      </trkpt>
      <trkpt lat="43.90686" lon="5.17896">
        <ele>323.8</ele>
        <time>2018-03-18T14:31:12.000Z</time>
      </trkpt>
      <trkpt lat="43.90684" lon="5.1789">
        <ele>323.7</ele>
        <time>2018-03-18T14:31:13.000Z</time>
      </trkpt>
      <trkpt lat="43.90683" lon="5.17878">
        <ele>323.7</ele>
        <time>2018-03-18T14:31:19.000Z</time>
      </trkpt>
      <trkpt lat="43.90683" lon="5.17875">
        <ele>323.9</ele>
        <time>2018-03-18T14:31:20.000Z</time>
      </trkpt>
      <trkpt lat="43.90683" lon="5.17864">
        <ele>324.2</ele>
        <time>2018-03-18T14:31:25.000Z</time>
      </trkpt>
      <trkpt lat="43.90683" lon="5.17862">
        <ele>324.4</ele>
        <time>2018-03-18T14:31:26.000Z</time>
      </trkpt>
      <trkpt lat="43.90681" lon="5.1785">
        <ele>325</ele>
        <time>2018-03-18T14:31:32.000Z</time>
      </trkpt>
      <trkpt lat="43.90681" lon="5.17849">
        <ele>325</ele>
        <time>2018-03-18T14:31:33.000Z</time>
      </trkpt>
      <trkpt lat="43.9068" lon="5.17838">
        <ele>325.1</ele>
        <time>2018-03-18T14:31:40.000Z</time>
      </trkpt>
      <trkpt lat="43.90679" lon="5.17836">
        <ele>325.1</ele>
        <time>2018-03-18T14:31:41.000Z</time>
      </trkpt>
      <trkpt lat="43.90678" lon="5.17825">
        <ele>325</ele>
        <time>2018-03-18T14:31:46.000Z</time>
      </trkpt>
      <trkpt lat="43.90678" lon="5.17823">
        <ele>325</ele>
        <time>2018-03-18T14:31:47.000Z</time>
      </trkpt>
      <trkpt lat="43.90678" lon="5.17812">
        <ele>325.1</ele>
        <time>2018-03-18T14:31:54.000Z</time>
      </trkpt>
      <trkpt lat="43.90678" lon="5.1781">
        <ele>325.2</ele>
        <time>2018-03-18T14:31:55.000Z</time>
      </trkpt>
      <trkpt lat="43.90676" lon="5.17799">
        <ele>325.7</ele>
        <time>2018-03-18T14:32:02.000Z</time>
      </trkpt>
      <trkpt lat="43.90675" lon="5.17797">
        <ele>325.8</ele>
        <time>2018-03-18T14:32:03.000Z</time>
      </trkpt>
      <trkpt lat="43.90674" lon="5.17785">
        <ele>326.1</ele>
        <time>2018-03-18T14:32:09.000Z</time>
      </trkpt>
      <trkpt lat="43.90674" lon="5.17784">
        <ele>326.1</ele>
        <time>2018-03-18T14:32:10.000Z</time>
      </trkpt>
      <trkpt lat="43.90673" lon="5.17772">
        <ele>325.9</ele>
        <time>2018-03-18T14:32:16.000Z</time>
      </trkpt>
      <trkpt lat="43.90674" lon="5.17771">
        <ele>325.8</ele>
        <time>2018-03-18T14:32:17.000Z</time>
      </trkpt>
      <trkpt lat="43.90676" lon="5.1776">
        <ele>325.2</ele>
        <time>2018-03-18T14:32:23.000Z</time>
      </trkpt>
      <trkpt lat="43.90677" lon="5.17758">
        <ele>325.1</ele>
        <time>2018-03-18T14:32:24.000Z</time>
      </trkpt>
      <trkpt lat="43.90682" lon="5.17749">
        <ele>325.1</ele>
        <time>2018-03-18T14:32:30.000Z</time>
      </trkpt>
      <trkpt lat="43.90683" lon="5.17747">
        <ele>325.1</ele>
        <time>2018-03-18T14:32:31.000Z</time>
      </trkpt>
      <trkpt lat="43.90691" lon="5.17743">
        <ele>325</ele>
        <time>2018-03-18T14:32:40.000Z</time>
      </trkpt>
      <trkpt lat="43.90692" lon="5.17742">
        <ele>325.1</ele>
        <time>2018-03-18T14:32:41.000Z</time>
      </trkpt>
      <trkpt lat="43.90698" lon="5.17736">
        <ele>325.4</ele>
        <time>2018-03-18T14:32:47.000Z</time>
      </trkpt>
      <trkpt lat="43.907" lon="5.17736">
        <ele>325.4</ele>
        <time>2018-03-18T14:32:48.000Z</time>
      </trkpt>
      <trkpt lat="43.90708" lon="5.17734">
        <ele>325.6</ele>
        <time>2018-03-18T14:32:55.000Z</time>
      </trkpt>
      <trkpt lat="43.9071" lon="5.17734">
        <ele>325.7</ele>
        <time>2018-03-18T14:32:56.000Z</time>
      </trkpt>
      <trkpt lat="43.90718" lon="5.17737">
        <ele>326.1</ele>
        <time>2018-03-18T14:33:04.000Z</time>
      </trkpt>
      <trkpt lat="43.90719" lon="5.17737">
        <ele>326.1</ele>
        <time>2018-03-18T14:33:05.000Z</time>
      </trkpt>
      <trkpt lat="43.90726" lon="5.17742">
        <ele>326.2</ele>
        <time>2018-03-18T14:33:12.000Z</time>
      </trkpt>
      <trkpt lat="43.90728" lon="5.17743">
        <ele>326.2</ele>
        <time>2018-03-18T14:33:13.000Z</time>
      </trkpt>
      <trkpt lat="43.90735" lon="5.17746">
        <ele>326.4</ele>
        <time>2018-03-18T14:33:19.000Z</time>
      </trkpt>
      <trkpt lat="43.90736" lon="5.17747">
        <ele>326.4</ele>
        <time>2018-03-18T14:33:20.000Z</time>
      </trkpt>
      <trkpt lat="43.90745" lon="5.17749">
        <ele>326.1</ele>
        <time>2018-03-18T14:33:27.000Z</time>
      </trkpt>
      <trkpt lat="43.90745" lon="5.1775">
        <ele>326.1</ele>
        <time>2018-03-18T14:33:28.000Z</time>
      </trkpt>
      <trkpt lat="43.90754" lon="5.1775">
        <ele>326.6</ele>
        <time>2018-03-18T14:33:35.000Z</time>
      </trkpt>
      <trkpt lat="43.90755" lon="5.17749">
        <ele>326.7</ele>
        <time>2018-03-18T14:33:36.000Z</time>
      </trkpt>
      <trkpt lat="43.90763" lon="5.17748">
        <ele>327.4</ele>
        <time>2018-03-18T14:33:43.000Z</time>
      </trkpt>
      <trkpt lat="43.90763" lon="5.17748">
        <ele>327.6</ele>
        <time>2018-03-18T14:33:44.000Z</time>
      </trkpt>
      <trkpt lat="43.90764" lon="5.17749">
        <ele>327.7</ele>
        <time>2018-03-18T14:33:46.000Z</time>
      </trkpt>
      <trkpt lat="43.90765" lon="5.17749">
        <ele>328</ele>
        <time>2018-03-18T14:33:47.000Z</time>
      </trkpt>
      <trkpt lat="43.90772" lon="5.17756">
        <ele>329.2</ele>
        <time>2018-03-18T14:33:55.000Z</time>
      </trkpt>
      <trkpt lat="43.90773" lon="5.17757">
        <ele>329.3</ele>
        <time>2018-03-18T14:33:56.000Z</time>
      </trkpt>
      <trkpt lat="43.90782" lon="5.17757">
        <ele>330.4</ele>
        <time>2018-03-18T14:34:03.000Z</time>
      </trkpt>
      <trkpt lat="43.90783" lon="5.17757">
        <ele>330.7</ele>
        <time>2018-03-18T14:34:04.000Z</time>
      </trkpt>
      <trkpt lat="43.90792" lon="5.17754">
        <ele>331.7</ele>
        <time>2018-03-18T14:34:10.000Z</time>
      </trkpt>
      <trkpt lat="43.90793" lon="5.17754">
        <ele>331.9</ele>
        <time>2018-03-18T14:34:11.000Z</time>
      </trkpt>
      <trkpt lat="43.90802" lon="5.17752">
        <ele>332.1</ele>
        <time>2018-03-18T14:34:16.000Z</time>
      </trkpt>
      <trkpt lat="43.90803" lon="5.17752">
        <ele>332.1</ele>
        <time>2018-03-18T14:34:17.000Z</time>
      </trkpt>
      <trkpt lat="43.90812" lon="5.17752">
        <ele>332.1</ele>
        <time>2018-03-18T14:34:23.000Z</time>
      </trkpt>
      <trkpt lat="43.90813" lon="5.17752">
        <ele>332.1</ele>
        <time>2018-03-18T14:34:24.000Z</time>
      </trkpt>
      <trkpt lat="43.90822" lon="5.17754">
        <ele>332.6</ele>
        <time>2018-03-18T14:34:30.000Z</time>
      </trkpt>
      <trkpt lat="43.90823" lon="5.17754">
        <ele>332.7</ele>
        <time>2018-03-18T14:34:31.000Z</time>
      </trkpt>
      <trkpt lat="43.90831" lon="5.17756">
        <ele>333.4</ele>
        <time>2018-03-18T14:34:36.000Z</time>
      </trkpt>
      <trkpt lat="43.90832" lon="5.17756">
        <ele>333.5</ele>
        <time>2018-03-18T14:34:37.000Z</time>
      </trkpt>
      <trkpt lat="43.9084" lon="5.1776">
        <ele>333.6</ele>
        <time>2018-03-18T14:34:43.000Z</time>
      </trkpt>
      <trkpt lat="43.90843" lon="5.17762">
        <ele>333.5</ele>
        <time>2018-03-18T14:34:44.000Z</time>
      </trkpt>
      <trkpt lat="43.90851" lon="5.17766">
        <ele>332.7</ele>
        <time>2018-03-18T14:34:49.000Z</time>
      </trkpt>
      <trkpt lat="43.90852" lon="5.17767">
        <ele>332.5</ele>
        <time>2018-03-18T14:34:50.000Z</time>
      </trkpt>
      <trkpt lat="43.90853" lon="5.17767">
        <ele>332.4</ele>
        <time>2018-03-18T14:34:51.000Z</time>
      </trkpt>
      <trkpt lat="43.90855" lon="5.17768">
        <ele>332.2</ele>
        <time>2018-03-18T14:34:52.000Z</time>
      </trkpt>
      <trkpt lat="43.90856" lon="5.17768">
        <ele>332</ele>
        <time>2018-03-18T14:34:53.000Z</time>
      </trkpt>
      <trkpt lat="43.90864" lon="5.17769">
        <ele>331</ele>
        <time>2018-03-18T14:34:59.000Z</time>
      </trkpt>
      <trkpt lat="43.90866" lon="5.17769">
        <ele>330.8</ele>
        <time>2018-03-18T14:35:00.000Z</time>
      </trkpt>
      <trkpt lat="43.90874" lon="5.17772">
        <ele>329.5</ele>
        <time>2018-03-18T14:35:06.000Z</time>
      </trkpt>
      <trkpt lat="43.90876" lon="5.17773">
        <ele>329.3</ele>
        <time>2018-03-18T14:35:07.000Z</time>
      </trkpt>
      <trkpt lat="43.90883" lon="5.17773">
        <ele>328.6</ele>
        <time>2018-03-18T14:35:12.000Z</time>
      </trkpt>
      <trkpt lat="43.90885" lon="5.17772">
        <ele>328.5</ele>
        <time>2018-03-18T14:35:13.000Z</time>
      </trkpt>
      <trkpt lat="43.90893" lon="5.17774">
        <ele>327.1</ele>
        <time>2018-03-18T14:35:21.000Z</time>
      </trkpt>
      <trkpt lat="43.90895" lon="5.17774">
        <ele>326.9</ele>
        <time>2018-03-18T14:35:22.000Z</time>
      </trkpt>
      <trkpt lat="43.90903" lon="5.17777">
        <ele>326</ele>
        <time>2018-03-18T14:35:28.000Z</time>
      </trkpt>
      <trkpt lat="43.90904" lon="5.17777">
        <ele>325.8</ele>
        <time>2018-03-18T14:35:29.000Z</time>
      </trkpt>
      <trkpt lat="43.90912" lon="5.17781">
        <ele>324.7</ele>
        <time>2018-03-18T14:35:38.000Z</time>
      </trkpt>
      <trkpt lat="43.90913" lon="5.17781">
        <ele>324.7</ele>
        <time>2018-03-18T14:35:39.000Z</time>
      </trkpt>
      <trkpt lat="43.90921" lon="5.17782">
        <ele>324.4</ele>
        <time>2018-03-18T14:35:48.000Z</time>
      </trkpt>
      <trkpt lat="43.90923" lon="5.17782">
        <ele>324.3</ele>
        <time>2018-03-18T14:35:49.000Z</time>
      </trkpt>
      <trkpt lat="43.90923" lon="5.17781">
        <ele>324.2</ele>
        <time>2018-03-18T14:35:50.000Z</time>
      </trkpt>
      <trkpt lat="43.90924" lon="5.17781">
        <ele>324.2</ele>
        <time>2018-03-18T14:35:51.000Z</time>
      </trkpt>
      <trkpt lat="43.90933" lon="5.1778">
        <ele>324.7</ele>
        <time>2018-03-18T14:35:59.000Z</time>
      </trkpt>
      <trkpt lat="43.90934" lon="5.1778">
        <ele>324.7</ele>
        <time>2018-03-18T14:36:00.000Z</time>
      </trkpt>
      <trkpt lat="43.90935" lon="5.1778">
        <ele>324.8</ele>
        <time>2018-03-18T14:36:01.000Z</time>
      </trkpt>
      <trkpt lat="43.90938" lon="5.1778">
        <ele>325</ele>
        <time>2018-03-18T14:36:03.000Z</time>
      </trkpt>
      <trkpt lat="43.90939" lon="5.17779">
        <ele>325.1</ele>
        <time>2018-03-18T14:36:04.000Z</time>
      </trkpt>
      <trkpt lat="43.90946" lon="5.17779">
        <ele>325.3</ele>
        <time>2018-03-18T14:36:09.000Z</time>
      </trkpt>
      <trkpt lat="43.90948" lon="5.17778">
        <ele>325.3</ele>
        <time>2018-03-18T14:36:10.000Z</time>
      </trkpt>
      <trkpt lat="43.90952" lon="5.17777">
        <ele>325.3</ele>
        <time>2018-03-18T14:36:12.000Z</time>
      </trkpt>
      <trkpt lat="43.90953" lon="5.17776">
        <ele>325.3</ele>
        <time>2018-03-18T14:36:13.000Z</time>
      </trkpt>
      <trkpt lat="43.90955" lon="5.17776">
        <ele>325.5</ele>
        <time>2018-03-18T14:36:15.000Z</time>
      </trkpt>
      <trkpt lat="43.90956" lon="5.17776">
        <ele>325.6</ele>
        <time>2018-03-18T14:36:16.000Z</time>
      </trkpt>
      <trkpt lat="43.90963" lon="5.17771">
        <ele>325.9</ele>
        <time>2018-03-18T14:36:23.000Z</time>
      </trkpt>
      <trkpt lat="43.90964" lon="5.1777">
        <ele>325.9</ele>
        <time>2018-03-18T14:36:24.000Z</time>
      </trkpt>
      <trkpt lat="43.90972" lon="5.17769">
        <ele>326.2</ele>
        <time>2018-03-18T14:36:31.000Z</time>
      </trkpt>
      <trkpt lat="43.90974" lon="5.17769">
        <ele>326.3</ele>
        <time>2018-03-18T14:36:32.000Z</time>
      </trkpt>
      <trkpt lat="43.90981" lon="5.17776">
        <ele>326.8</ele>
        <time>2018-03-18T14:36:42.000Z</time>
      </trkpt>
      <trkpt lat="43.90982" lon="5.17776">
        <ele>326.9</ele>
        <time>2018-03-18T14:36:43.000Z</time>
      </trkpt>
      <trkpt lat="43.9099" lon="5.17777">
        <ele>326.9</ele>
        <time>2018-03-18T14:36:51.000Z</time>
      </trkpt>
      <trkpt lat="43.90991" lon="5.17777">
        <ele>327</ele>
        <time>2018-03-18T14:36:52.000Z</time>
      </trkpt>
      <trkpt lat="43.90998" lon="5.17774">
        <ele>327.3</ele>
        <time>2018-03-18T14:37:00.000Z</time>
      </trkpt>
      <trkpt lat="43.90999" lon="5.17774">
        <ele>327.2</ele>
        <time>2018-03-18T14:37:01.000Z</time>
      </trkpt>
      <trkpt lat="43.91007" lon="5.17768">
        <ele>326.9</ele>
        <time>2018-03-18T14:37:08.000Z</time>
      </trkpt>
      <trkpt lat="43.91008" lon="5.17766">
        <ele>326.8</ele>
        <time>2018-03-18T14:37:09.000Z</time>
      </trkpt>
      <trkpt lat="43.91015" lon="5.1776">
        <ele>327</ele>
        <time>2018-03-18T14:37:17.000Z</time>
      </trkpt>
      <trkpt lat="43.91015" lon="5.17759">
        <ele>327</ele>
        <time>2018-03-18T14:37:18.000Z</time>
      </trkpt>
      <trkpt lat="43.91016" lon="5.17759">
        <ele>327</ele>
        <time>2018-03-18T14:37:19.000Z</time>
      </trkpt>
      <trkpt lat="43.91017" lon="5.1776">
        <ele>327.1</ele>
        <time>2018-03-18T14:37:21.000Z</time>
      </trkpt>
      <trkpt lat="43.91018" lon="5.1776">
        <ele>327.2</ele>
        <time>2018-03-18T14:37:22.000Z</time>
      </trkpt>
      <trkpt lat="43.91018" lon="5.17761">
        <ele>327.2</ele>
        <time>2018-03-18T14:37:23.000Z</time>
      </trkpt>
      <trkpt lat="43.91018" lon="5.17761">
        <ele>327.2</ele>
        <time>2018-03-18T14:37:24.000Z</time>
      </trkpt>
      <trkpt lat="43.9102" lon="5.17764">
        <ele>327.8</ele>
        <time>2018-03-18T14:37:28.000Z</time>
      </trkpt>
      <trkpt lat="43.9102" lon="5.17764">
        <ele>327.9</ele>
        <time>2018-03-18T14:37:29.000Z</time>
      </trkpt>
      <trkpt lat="43.91028" lon="5.17764">
        <ele>328.5</ele>
        <time>2018-03-18T14:37:35.000Z</time>
      </trkpt>
      <trkpt lat="43.91029" lon="5.17763">
        <ele>328.6</ele>
        <time>2018-03-18T14:37:36.000Z</time>
      </trkpt>
      <trkpt lat="43.91037" lon="5.17759">
        <ele>329.2</ele>
        <time>2018-03-18T14:37:44.000Z</time>
      </trkpt>
      <trkpt lat="43.91038" lon="5.17758">
        <ele>329.3</ele>
        <time>2018-03-18T14:37:45.000Z</time>
      </trkpt>
      <trkpt lat="43.91045" lon="5.17755">
        <ele>329.2</ele>
        <time>2018-03-18T14:37:52.000Z</time>
      </trkpt>
      <trkpt lat="43.91047" lon="5.17755">
        <ele>329.1</ele>
        <time>2018-03-18T14:37:53.000Z</time>
      </trkpt>
      <trkpt lat="43.91055" lon="5.17755">
        <ele>327.8</ele>
        <time>2018-03-18T14:38:01.000Z</time>
      </trkpt>
      <trkpt lat="43.91056" lon="5.17754">
        <ele>327.8</ele>
        <time>2018-03-18T14:38:02.000Z</time>
      </trkpt>
      <trkpt lat="43.91063" lon="5.17749">
        <ele>328.7</ele>
        <time>2018-03-18T14:38:16.000Z</time>
      </trkpt>
      <trkpt lat="43.91064" lon="5.17748">
        <ele>328.8</ele>
        <time>2018-03-18T14:38:17.000Z</time>
      </trkpt>
      <trkpt lat="43.91069" lon="5.17738">
        <ele>329.2</ele>
        <time>2018-03-18T14:38:24.000Z</time>
      </trkpt>
      <trkpt lat="43.91069" lon="5.17737">
        <ele>329.3</ele>
        <time>2018-03-18T14:38:25.000Z</time>
      </trkpt>
      <trkpt lat="43.91078" lon="5.17736">
        <ele>330.6</ele>
        <time>2018-03-18T14:38:37.000Z</time>
      </trkpt>
      <trkpt lat="43.91078" lon="5.17736">
        <ele>330.8</ele>
        <time>2018-03-18T14:38:38.000Z</time>
      </trkpt>
      <trkpt lat="43.91087" lon="5.17732">
        <ele>335.4</ele>
        <time>2018-03-18T14:38:56.000Z</time>
      </trkpt>
      <trkpt lat="43.91087" lon="5.17732">
        <ele>335.7</ele>
        <time>2018-03-18T14:38:57.000Z</time>
      </trkpt>
      <trkpt lat="43.91091" lon="5.1773">
        <ele>337.9</ele>
        <time>2018-03-18T14:39:05.000Z</time>
      </trkpt>
      <trkpt lat="43.91091" lon="5.1773">
        <ele>337.9</ele>
        <time>2018-03-18T14:39:06.000Z</time>
      </trkpt>
      <trkpt lat="43.91093" lon="5.17728">
        <ele>339.1</ele>
        <time>2018-03-18T14:39:11.000Z</time>
      </trkpt>
      <trkpt lat="43.91094" lon="5.17727">
        <ele>339.4</ele>
        <time>2018-03-18T14:39:12.000Z</time>
      </trkpt>
      <trkpt lat="43.91101" lon="5.17722">
        <ele>341.7</ele>
        <time>2018-03-18T14:39:24.000Z</time>
      </trkpt>
      <trkpt lat="43.91102" lon="5.17722">
        <ele>341.8</ele>
        <time>2018-03-18T14:39:25.000Z</time>
      </trkpt>
      <trkpt lat="43.91105" lon="5.1772">
        <ele>341.9</ele>
        <time>2018-03-18T14:39:29.000Z</time>
      </trkpt>
      <trkpt lat="43.91105" lon="5.1772">
        <ele>342</ele>
        <time>2018-03-18T14:39:30.000Z</time>
      </trkpt>
      <trkpt lat="43.91106" lon="5.17718">
        <ele>342.2</ele>
        <time>2018-03-18T14:39:32.000Z</time>
      </trkpt>
      <trkpt lat="43.91106" lon="5.17716">
        <ele>342.3</ele>
        <time>2018-03-18T14:39:33.000Z</time>
      </trkpt>
      <trkpt lat="43.91109" lon="5.1771">
        <ele>343</ele>
        <time>2018-03-18T14:39:39.000Z</time>
      </trkpt>
      <trkpt lat="43.91109" lon="5.1771">
        <ele>343</ele>
        <time>2018-03-18T14:39:40.000Z</time>
      </trkpt>
      <trkpt lat="43.9111" lon="5.1771">
        <ele>343.6</ele>
        <time>2018-03-18T14:39:46.000Z</time>
      </trkpt>
      <trkpt lat="43.9111" lon="5.17711">
        <ele>343.7</ele>
        <time>2018-03-18T14:39:47.000Z</time>
      </trkpt>
      <trkpt lat="43.91112" lon="5.17712">
        <ele>344.4</ele>
        <time>2018-03-18T14:39:50.000Z</time>
      </trkpt>
      <trkpt lat="43.91112" lon="5.17712">
        <ele>344.7</ele>
        <time>2018-03-18T14:39:51.000Z</time>
      </trkpt>
      <trkpt lat="43.91115" lon="5.17713">
        <ele>346.8</ele>
        <time>2018-03-18T14:39:59.000Z</time>
      </trkpt>
      <trkpt lat="43.91116" lon="5.17713">
        <ele>347</ele>
        <time>2018-03-18T14:40:00.000Z</time>
      </trkpt>
      <trkpt lat="43.91124" lon="5.1771">
        <ele>348.7</ele>
        <time>2018-03-18T14:40:08.000Z</time>
      </trkpt>
      <trkpt lat="43.91125" lon="5.1771">
        <ele>349</ele>
        <time>2018-03-18T14:40:09.000Z</time>
      </trkpt>
      <trkpt lat="43.91128" lon="5.1771">
        <ele>349.8</ele>
        <time>2018-03-18T14:40:13.000Z</time>
      </trkpt>
      <trkpt lat="43.91128" lon="5.1771">
        <ele>349.8</ele>
        <time>2018-03-18T14:40:14.000Z</time>
      </trkpt>
      <trkpt lat="43.91129" lon="5.1771">
        <ele>350.4</ele>
        <time>2018-03-18T14:40:19.000Z</time>
      </trkpt>
      <trkpt lat="43.91129" lon="5.1771">
        <ele>350.5</ele>
        <time>2018-03-18T14:40:20.000Z</time>
      </trkpt>
      <trkpt lat="43.91137" lon="5.17707">
        <ele>351.2</ele>
        <time>2018-03-18T14:40:32.000Z</time>
      </trkpt>
      <trkpt lat="43.91138" lon="5.17707">
        <ele>351.3</ele>
        <time>2018-03-18T14:40:33.000Z</time>
      </trkpt>
      <trkpt lat="43.91146" lon="5.17704">
        <ele>352.8</ele>
        <time>2018-03-18T14:40:43.000Z</time>
      </trkpt>
      <trkpt lat="43.91147" lon="5.17704">
        <ele>353</ele>
        <time>2018-03-18T14:40:44.000Z</time>
      </trkpt>
      <trkpt lat="43.91155" lon="5.17702">
        <ele>354.5</ele>
        <time>2018-03-18T14:40:56.000Z</time>
      </trkpt>
      <trkpt lat="43.91156" lon="5.17702">
        <ele>354.6</ele>
        <time>2018-03-18T14:40:57.000Z</time>
      </trkpt>
      <trkpt lat="43.91165" lon="5.17699">
        <ele>355.7</ele>
        <time>2018-03-18T14:41:05.000Z</time>
      </trkpt>
      <trkpt lat="43.91166" lon="5.177">
        <ele>355.9</ele>
        <time>2018-03-18T14:41:06.000Z</time>
      </trkpt>
      <trkpt lat="43.91174" lon="5.17701">
        <ele>356.7</ele>
        <time>2018-03-18T14:41:15.000Z</time>
      </trkpt>
      <trkpt lat="43.91175" lon="5.17701">
        <ele>356.8</ele>
        <time>2018-03-18T14:41:16.000Z</time>
      </trkpt>
      <trkpt lat="43.91182" lon="5.17693">
        <ele>356.7</ele>
        <time>2018-03-18T14:41:31.000Z</time>
      </trkpt>
      <trkpt lat="43.91182" lon="5.17693">
        <ele>356.6</ele>
        <time>2018-03-18T14:41:32.000Z</time>
      </trkpt>
      <trkpt lat="43.91189" lon="5.17685">
        <ele>356.1</ele>
        <time>2018-03-18T14:41:45.000Z</time>
      </trkpt>
      <trkpt lat="43.91189" lon="5.17684">
        <ele>356.1</ele>
        <time>2018-03-18T14:41:46.000Z</time>
      </trkpt>
      <trkpt lat="43.91197" lon="5.17677">
        <ele>355.1</ele>
        <time>2018-03-18T14:41:58.000Z</time>
      </trkpt>
      <trkpt lat="43.91197" lon="5.17676">
        <ele>355</ele>
        <time>2018-03-18T14:41:59.000Z</time>
      </trkpt>
      <trkpt lat="43.91206" lon="5.17673">
        <ele>355.1</ele>
        <time>2018-03-18T14:42:09.000Z</time>
      </trkpt>
      <trkpt lat="43.91207" lon="5.17673">
        <ele>355.2</ele>
        <time>2018-03-18T14:42:10.000Z</time>
      </trkpt>
      <trkpt lat="43.91216" lon="5.17672">
        <ele>355.2</ele>
        <time>2018-03-18T14:42:19.000Z</time>
      </trkpt>
      <trkpt lat="43.91217" lon="5.17673">
        <ele>355.2</ele>
        <time>2018-03-18T14:42:20.000Z</time>
      </trkpt>
      <trkpt lat="43.91225" lon="5.17676">
        <ele>354.8</ele>
        <time>2018-03-18T14:42:26.000Z</time>
      </trkpt>
      <trkpt lat="43.91227" lon="5.17677">
        <ele>354.7</ele>
        <time>2018-03-18T14:42:27.000Z</time>
      </trkpt>
      <trkpt lat="43.91235" lon="5.17678">
        <ele>354.2</ele>
        <time>2018-03-18T14:42:33.000Z</time>
      </trkpt>
      <trkpt lat="43.91236" lon="5.17679">
        <ele>354.1</ele>
        <time>2018-03-18T14:42:34.000Z</time>
      </trkpt>
      <trkpt lat="43.91244" lon="5.17682">
        <ele>352.8</ele>
        <time>2018-03-18T14:42:44.000Z</time>
      </trkpt>
      <trkpt lat="43.91245" lon="5.17683">
        <ele>352.6</ele>
        <time>2018-03-18T14:42:45.000Z</time>
      </trkpt>
      <trkpt lat="43.91253" lon="5.17685">
        <ele>351.5</ele>
        <time>2018-03-18T14:42:50.000Z</time>
      </trkpt>
      <trkpt lat="43.91254" lon="5.17685">
        <ele>351.4</ele>
        <time>2018-03-18T14:42:51.000Z</time>
      </trkpt>
      <trkpt lat="43.91263" lon="5.17687">
        <ele>350.6</ele>
        <time>2018-03-18T14:42:57.000Z</time>
      </trkpt>
      <trkpt lat="43.91264" lon="5.17687">
        <ele>350.4</ele>
        <time>2018-03-18T14:42:58.000Z</time>
      </trkpt>
      <trkpt lat="43.91272" lon="5.17692">
        <ele>348.8</ele>
        <time>2018-03-18T14:43:05.000Z</time>
      </trkpt>
      <trkpt lat="43.91274" lon="5.17692">
        <ele>348.5</ele>
        <time>2018-03-18T14:43:06.000Z</time>
      </trkpt>
      <trkpt lat="43.9128" lon="5.17694">
        <ele>346.6</ele>
        <time>2018-03-18T14:43:13.000Z</time>
      </trkpt>
      <trkpt lat="43.91283" lon="5.17695">
        <ele>346.4</ele>
        <time>2018-03-18T14:43:14.000Z</time>
      </trkpt>
      <trkpt lat="43.91291" lon="5.17697">
        <ele>343.8</ele>
        <time>2018-03-18T14:43:22.000Z</time>
      </trkpt>
      <trkpt lat="43.91292" lon="5.17697">
        <ele>343.4</ele>
        <time>2018-03-18T14:43:23.000Z</time>
      </trkpt>
      <trkpt lat="43.913" lon="5.177">
        <ele>340.1</ele>
        <time>2018-03-18T14:43:32.000Z</time>
      </trkpt>
      <trkpt lat="43.91301" lon="5.177">
        <ele>339.8</ele>
        <time>2018-03-18T14:43:33.000Z</time>
      </trkpt>
      <trkpt lat="43.9131" lon="5.17702">
        <ele>337.6</ele>
        <time>2018-03-18T14:43:40.000Z</time>
      </trkpt>
      <trkpt lat="43.9131" lon="5.17703">
        <ele>337.4</ele>
        <time>2018-03-18T14:43:41.000Z</time>
      </trkpt>
      <trkpt lat="43.91319" lon="5.17704">
        <ele>334.5</ele>
        <time>2018-03-18T14:43:54.000Z</time>
      </trkpt>
      <trkpt lat="43.9132" lon="5.17704">
        <ele>334.2</ele>
        <time>2018-03-18T14:43:55.000Z</time>
      </trkpt>
      <trkpt lat="43.91328" lon="5.17704">
        <ele>331.7</ele>
        <time>2018-03-18T14:44:05.000Z</time>
      </trkpt>
      <trkpt lat="43.91329" lon="5.17703">
        <ele>331.5</ele>
        <time>2018-03-18T14:44:06.000Z</time>
      </trkpt>
      <trkpt lat="43.91338" lon="5.17701">
        <ele>329.7</ele>
        <time>2018-03-18T14:44:18.000Z</time>
      </trkpt>
      <trkpt lat="43.91339" lon="5.17701">
        <ele>329.5</ele>
        <time>2018-03-18T14:44:19.000Z</time>
      </trkpt>
      <trkpt lat="43.91339" lon="5.17701">
        <ele>329.3</ele>
        <time>2018-03-18T14:44:20.000Z</time>
      </trkpt>
      <trkpt lat="43.91345" lon="5.177">
        <ele>328.3</ele>
        <time>2018-03-18T14:44:28.000Z</time>
      </trkpt>
      <trkpt lat="43.91345" lon="5.177">
        <ele>328.3</ele>
        <time>2018-03-18T14:44:29.000Z</time>
      </trkpt>
      <trkpt lat="43.91354" lon="5.177">
        <ele>328.9</ele>
        <time>2018-03-18T14:44:39.000Z</time>
      </trkpt>
      <trkpt lat="43.91355" lon="5.177">
        <ele>329</ele>
        <time>2018-03-18T14:44:40.000Z</time>
      </trkpt>
      <trkpt lat="43.91364" lon="5.177">
        <ele>329.1</ele>
        <time>2018-03-18T14:44:51.000Z</time>
      </trkpt>
      <trkpt lat="43.91364" lon="5.17699">
        <ele>329.1</ele>
        <time>2018-03-18T14:44:52.000Z</time>
      </trkpt>
      <trkpt lat="43.91372" lon="5.17698">
        <ele>328.7</ele>
        <time>2018-03-18T14:44:59.000Z</time>
      </trkpt>
      <trkpt lat="43.91373" lon="5.17698">
        <ele>328.6</ele>
        <time>2018-03-18T14:45:00.000Z</time>
      </trkpt>
      <trkpt lat="43.91381" lon="5.17701">
        <ele>327.4</ele>
        <time>2018-03-18T14:45:07.000Z</time>
      </trkpt>
      <trkpt lat="43.91382" lon="5.17702">
        <ele>327.3</ele>
        <time>2018-03-18T14:45:08.000Z</time>
      </trkpt>
      <trkpt lat="43.91389" lon="5.17702">
        <ele>326.9</ele>
        <time>2018-03-18T14:45:16.000Z</time>
      </trkpt>
      <trkpt lat="43.91392" lon="5.17702">
        <ele>326.7</ele>
        <time>2018-03-18T14:45:17.000Z</time>
      </trkpt>
      <trkpt lat="43.91396" lon="5.17702">
        <ele>326.1</ele>
        <time>2018-03-18T14:45:20.000Z</time>
      </trkpt>
      <trkpt lat="43.91397" lon="5.17703">
        <ele>326</ele>
        <time>2018-03-18T14:45:21.000Z</time>
      </trkpt>
      <trkpt lat="43.914" lon="5.17704">
        <ele>325.7</ele>
        <time>2018-03-18T14:45:23.000Z</time>
      </trkpt>
      <trkpt lat="43.91401" lon="5.17704">
        <ele>325.6</ele>
        <time>2018-03-18T14:45:24.000Z</time>
      </trkpt>
      <trkpt lat="43.91404" lon="5.17705">
        <ele>325.2</ele>
        <time>2018-03-18T14:45:27.000Z</time>
      </trkpt>
      <trkpt lat="43.91404" lon="5.17705">
        <ele>325</ele>
        <time>2018-03-18T14:45:28.000Z</time>
      </trkpt>
      <trkpt lat="43.91407" lon="5.17705">
        <ele>324.5</ele>
        <time>2018-03-18T14:45:30.000Z</time>
      </trkpt>
      <trkpt lat="43.91408" lon="5.17704">
        <ele>324.3</ele>
        <time>2018-03-18T14:45:31.000Z</time>
      </trkpt>
      <trkpt lat="43.91416" lon="5.17706">
        <ele>323.2</ele>
        <time>2018-03-18T14:45:37.000Z</time>
      </trkpt>
      <trkpt lat="43.91417" lon="5.17706">
        <ele>323</ele>
        <time>2018-03-18T14:45:38.000Z</time>
      </trkpt>
      <trkpt lat="43.91423" lon="5.17707">
        <ele>322.2</ele>
        <time>2018-03-18T14:45:42.000Z</time>
      </trkpt>
      <trkpt lat="43.91427" lon="5.17707">
        <ele>321.9</ele>
        <time>2018-03-18T14:45:43.000Z</time>
      </trkpt>
      <trkpt lat="43.91435" lon="5.17705">
        <ele>320.7</ele>
        <time>2018-03-18T14:45:47.000Z</time>
      </trkpt>
      <trkpt lat="43.91436" lon="5.17705">
        <ele>320.4</ele>
        <time>2018-03-18T14:45:48.000Z</time>
      </trkpt>
      <trkpt lat="43.91445" lon="5.17704">
        <ele>317.9</ele>
        <time>2018-03-18T14:45:56.000Z</time>
      </trkpt>
      <trkpt lat="43.91446" lon="5.17704">
        <ele>317.6</ele>
        <time>2018-03-18T14:45:57.000Z</time>
      </trkpt>
      <trkpt lat="43.91454" lon="5.17708">
        <ele>316.2</ele>
        <time>2018-03-18T14:46:07.000Z</time>
      </trkpt>
      <trkpt lat="43.91455" lon="5.17709">
        <ele>316.1</ele>
        <time>2018-03-18T14:46:08.000Z</time>
      </trkpt>
      <trkpt lat="43.91463" lon="5.17713">
        <ele>316.3</ele>
        <time>2018-03-18T14:46:17.000Z</time>
      </trkpt>
      <trkpt lat="43.91464" lon="5.17714">
        <ele>316.3</ele>
        <time>2018-03-18T14:46:18.000Z</time>
      </trkpt>
      <trkpt lat="43.9147" lon="5.17721">
        <ele>316.2</ele>
        <time>2018-03-18T14:46:25.000Z</time>
      </trkpt>
      <trkpt lat="43.91471" lon="5.17722">
        <ele>316.1</ele>
        <time>2018-03-18T14:46:26.000Z</time>
      </trkpt>
      <trkpt lat="43.91478" lon="5.17727">
        <ele>315.8</ele>
        <time>2018-03-18T14:46:34.000Z</time>
      </trkpt>
      <trkpt lat="43.91479" lon="5.17728">
        <ele>315.8</ele>
        <time>2018-03-18T14:46:35.000Z</time>
      </trkpt>
      <trkpt lat="43.91485" lon="5.17737">
        <ele>315.5</ele>
        <time>2018-03-18T14:46:44.000Z</time>
      </trkpt>
      <trkpt lat="43.91485" lon="5.17738">
        <ele>315.5</ele>
        <time>2018-03-18T14:46:45.000Z</time>
      </trkpt>
      <trkpt lat="43.91492" lon="5.17731">
        <ele>316.2</ele>
        <time>2018-03-18T14:46:53.000Z</time>
      </trkpt>
      <trkpt lat="43.91494" lon="5.17729">
        <ele>316.2</ele>
        <time>2018-03-18T14:46:54.000Z</time>
      </trkpt>
      <trkpt lat="43.91495" lon="5.17729">
        <ele>316.2</ele>
        <time>2018-03-18T14:46:55.000Z</time>
      </trkpt>
      <trkpt lat="43.91502" lon="5.17735">
        <ele>316.4</ele>
        <time>2018-03-18T14:47:26.000Z</time>
      </trkpt>
      <trkpt lat="43.91503" lon="5.17735">
        <ele>316.2</ele>
        <time>2018-03-18T14:47:27.000Z</time>
      </trkpt>
      <trkpt lat="43.91503" lon="5.17735">
        <ele>266.3</ele>
        <time>2018-03-18T14:47:26.251Z</time>
      </trkpt>
      <trkpt lat="43.91503" lon="5.17736">
        <ele>316.1</ele>
        <time>2018-03-18T14:47:28.000Z</time>
      </trkpt>
      <trkpt lat="43.91505" lon="5.1774">
        <ele>315.7</ele>
        <time>2018-03-18T14:47:33.000Z</time>
      </trkpt>
      <trkpt lat="43.91506" lon="5.17742">
        <ele>315.6</ele>
        <time>2018-03-18T14:47:34.000Z</time>
      </trkpt>
      <trkpt lat="43.91509" lon="5.17754">
        <ele>315.4</ele>
        <time>2018-03-18T14:47:41.000Z</time>
      </trkpt>
      <trkpt lat="43.91509" lon="5.17754">
        <ele>315.3</ele>
        <time>2018-03-18T14:47:42.000Z</time>
      </trkpt>
      <trkpt lat="43.91509" lon="5.17755">
        <ele>315.3</ele>
        <time>2018-03-18T14:47:43.000Z</time>
      </trkpt>
      <trkpt lat="43.91513" lon="5.17765">
        <ele>315.4</ele>
        <time>2018-03-18T14:47:52.000Z</time>
      </trkpt>
      <trkpt lat="43.91515" lon="5.17767">
        <ele>315.4</ele>
        <time>2018-03-18T14:47:53.000Z</time>
      </trkpt>
      <trkpt lat="43.91521" lon="5.17775">
        <ele>315.6</ele>
        <time>2018-03-18T14:47:59.000Z</time>
      </trkpt>
      <trkpt lat="43.91521" lon="5.17776">
        <ele>315.7</ele>
        <time>2018-03-18T14:48:00.000Z</time>
      </trkpt>
      <trkpt lat="43.91528" lon="5.17783">
        <ele>316.2</ele>
        <time>2018-03-18T14:48:06.000Z</time>
      </trkpt>
      <trkpt lat="43.9153" lon="5.17784">
        <ele>316.3</ele>
        <time>2018-03-18T14:48:07.000Z</time>
      </trkpt>
      <trkpt lat="43.91537" lon="5.1779">
        <ele>317</ele>
        <time>2018-03-18T14:48:15.000Z</time>
      </trkpt>
      <trkpt lat="43.9154" lon="5.17792">
        <ele>317</ele>
        <time>2018-03-18T14:48:16.000Z</time>
      </trkpt>
      <trkpt lat="43.91548" lon="5.17797">
        <ele>317</ele>
        <time>2018-03-18T14:48:22.000Z</time>
      </trkpt>
      <trkpt lat="43.91549" lon="5.17798">
        <ele>317</ele>
        <time>2018-03-18T14:48:23.000Z</time>
      </trkpt>
      <trkpt lat="43.91556" lon="5.17806">
        <ele>316.6</ele>
        <time>2018-03-18T14:48:31.000Z</time>
      </trkpt>
      <trkpt lat="43.91557" lon="5.17807">
        <ele>316.6</ele>
        <time>2018-03-18T14:48:32.000Z</time>
      </trkpt>
      <trkpt lat="43.91564" lon="5.17814">
        <ele>316.3</ele>
        <time>2018-03-18T14:48:38.000Z</time>
      </trkpt>
      <trkpt lat="43.91565" lon="5.17814">
        <ele>316.2</ele>
        <time>2018-03-18T14:48:39.000Z</time>
      </trkpt>
      <trkpt lat="43.9157" lon="5.17823">
        <ele>316.2</ele>
        <time>2018-03-18T14:48:46.000Z</time>
      </trkpt>
      <trkpt lat="43.91571" lon="5.17825">
        <ele>316.3</ele>
        <time>2018-03-18T14:48:47.000Z</time>
      </trkpt>
      <trkpt lat="43.91577" lon="5.17834">
        <ele>316.1</ele>
        <time>2018-03-18T14:48:53.000Z</time>
      </trkpt>
      <trkpt lat="43.91578" lon="5.17836">
        <ele>316.2</ele>
        <time>2018-03-18T14:48:54.000Z</time>
      </trkpt>
      <trkpt lat="43.91586" lon="5.17841">
        <ele>315.8</ele>
        <time>2018-03-18T14:49:01.000Z</time>
      </trkpt>
      <trkpt lat="43.91586" lon="5.17841">
        <ele>315.8</ele>
        <time>2018-03-18T14:49:02.000Z</time>
      </trkpt>
      <trkpt lat="43.91586" lon="5.17841">
        <ele>315.8</ele>
        <time>2018-03-18T14:49:03.000Z</time>
      </trkpt>
      <trkpt lat="43.91587" lon="5.17843">
        <ele>315.6</ele>
        <time>2018-03-18T14:49:05.000Z</time>
      </trkpt>
      <trkpt lat="43.91587" lon="5.17843">
        <ele>315.6</ele>
        <time>2018-03-18T14:49:06.000Z</time>
      </trkpt>
      <trkpt lat="43.9159" lon="5.17855">
        <ele>316.1</ele>
        <time>2018-03-18T14:49:17.000Z</time>
      </trkpt>
      <trkpt lat="43.9159" lon="5.17856">
        <ele>316.3</ele>
        <time>2018-03-18T14:49:18.000Z</time>
      </trkpt>
      <trkpt lat="43.91594" lon="5.17866">
        <ele>317</ele>
        <time>2018-03-18T14:49:27.000Z</time>
      </trkpt>
      <trkpt lat="43.91595" lon="5.17868">
        <ele>317.1</ele>
        <time>2018-03-18T14:49:28.000Z</time>
      </trkpt>
      <trkpt lat="43.91599" lon="5.17879">
        <ele>317.5</ele>
        <time>2018-03-18T14:49:36.000Z</time>
      </trkpt>
      <trkpt lat="43.916" lon="5.17881">
        <ele>317.5</ele>
        <time>2018-03-18T14:49:37.000Z</time>
      </trkpt>
      <trkpt lat="43.91604" lon="5.17889">
        <ele>317.5</ele>
        <time>2018-03-18T14:49:42.000Z</time>
      </trkpt>
      <trkpt lat="43.91605" lon="5.17892">
        <ele>317.6</ele>
        <time>2018-03-18T14:49:43.000Z</time>
      </trkpt>
      <trkpt lat="43.91606" lon="5.17894">
        <ele>317.6</ele>
        <time>2018-03-18T14:49:44.000Z</time>
      </trkpt>
      <trkpt lat="43.91606" lon="5.17896">
        <ele>317.6</ele>
        <time>2018-03-18T14:49:45.000Z</time>
      </trkpt>
      <trkpt lat="43.91607" lon="5.17899">
        <ele>317.6</ele>
        <time>2018-03-18T14:49:47.000Z</time>
      </trkpt>
      <trkpt lat="43.91607" lon="5.17901">
        <ele>317.6</ele>
        <time>2018-03-18T14:49:48.000Z</time>
      </trkpt>
      <trkpt lat="43.9161" lon="5.17912">
        <ele>318.1</ele>
        <time>2018-03-18T14:49:55.000Z</time>
      </trkpt>
      <trkpt lat="43.9161" lon="5.17914">
        <ele>318.2</ele>
        <time>2018-03-18T14:49:56.000Z</time>
      </trkpt>
      <trkpt lat="43.91614" lon="5.17923">
        <ele>318.1</ele>
        <time>2018-03-18T14:50:01.000Z</time>
      </trkpt>
      <trkpt lat="43.91615" lon="5.17925">
        <ele>318.1</ele>
        <time>2018-03-18T14:50:02.000Z</time>
      </trkpt>
      <trkpt lat="43.91619" lon="5.17935">
        <ele>317.1</ele>
        <time>2018-03-18T14:50:09.000Z</time>
      </trkpt>
      <trkpt lat="43.9162" lon="5.17936">
        <ele>316.8</ele>
        <time>2018-03-18T14:50:10.000Z</time>
      </trkpt>
      <trkpt lat="43.91626" lon="5.17944">
        <ele>314.7</ele>
        <time>2018-03-18T14:50:17.000Z</time>
      </trkpt>
      <trkpt lat="43.91627" lon="5.17946">
        <ele>314.4</ele>
        <time>2018-03-18T14:50:18.000Z</time>
      </trkpt>
      <trkpt lat="43.91631" lon="5.17957">
        <ele>313.6</ele>
        <time>2018-03-18T14:50:22.000Z</time>
      </trkpt>
      <trkpt lat="43.91632" lon="5.17958">
        <ele>313.5</ele>
        <time>2018-03-18T14:50:23.000Z</time>
      </trkpt>
      <trkpt lat="43.91632" lon="5.1796">
        <ele>313.3</ele>
        <time>2018-03-18T14:50:25.000Z</time>
      </trkpt>
      <trkpt lat="43.91632" lon="5.1796">
        <ele>313.3</ele>
        <time>2018-03-18T14:50:26.000Z</time>
      </trkpt>
      <trkpt lat="43.91633" lon="5.17966">
        <ele>313.7</ele>
        <time>2018-03-18T14:50:33.000Z</time>
      </trkpt>
      <trkpt lat="43.91633" lon="5.17968">
        <ele>314</ele>
        <time>2018-03-18T14:50:34.000Z</time>
      </trkpt>
      <trkpt lat="43.91635" lon="5.17973">
        <ele>314.5</ele>
        <time>2018-03-18T14:50:37.000Z</time>
      </trkpt>
      <trkpt lat="43.91635" lon="5.17974">
        <ele>314.8</ele>
        <time>2018-03-18T14:50:38.000Z</time>
      </trkpt>
      <trkpt lat="43.91636" lon="5.17975">
        <ele>315.1</ele>
        <time>2018-03-18T14:50:40.000Z</time>
      </trkpt>
      <trkpt lat="43.91636" lon="5.17976">
        <ele>315.3</ele>
        <time>2018-03-18T14:50:41.000Z</time>
      </trkpt>
      <trkpt lat="43.91637" lon="5.17988">
        <ele>315.7</ele>
        <time>2018-03-18T14:50:55.000Z</time>
      </trkpt>
      <trkpt lat="43.91637" lon="5.17989">
        <ele>315.6</ele>
        <time>2018-03-18T14:50:56.000Z</time>
      </trkpt>
      <trkpt lat="43.91633" lon="5.17995">
        <ele>315.7</ele>
        <time>2018-03-18T14:51:03.000Z</time>
      </trkpt>
      <trkpt lat="43.91633" lon="5.17996">
        <ele>315.8</ele>
        <time>2018-03-18T14:51:04.000Z</time>
      </trkpt>
      <trkpt lat="43.91636" lon="5.18002">
        <ele>317.1</ele>
        <time>2018-03-18T14:51:16.000Z</time>
      </trkpt>
      <trkpt lat="43.91637" lon="5.18004">
        <ele>317.1</ele>
        <time>2018-03-18T14:51:17.000Z</time>
      </trkpt>
      <trkpt lat="43.91644" lon="5.18009">
        <ele>317.3</ele>
        <time>2018-03-18T14:51:27.000Z</time>
      </trkpt>
      <trkpt lat="43.91645" lon="5.1801">
        <ele>317.5</ele>
        <time>2018-03-18T14:51:28.000Z</time>
      </trkpt>
      <trkpt lat="43.91648" lon="5.18012">
        <ele>318.2</ele>
        <time>2018-03-18T14:51:31.000Z</time>
      </trkpt>
      <trkpt lat="43.91649" lon="5.18012">
        <ele>318.5</ele>
        <time>2018-03-18T14:51:32.000Z</time>
      </trkpt>
      <trkpt lat="43.91657" lon="5.18017">
        <ele>320.5</ele>
        <time>2018-03-18T14:51:38.000Z</time>
      </trkpt>
      <trkpt lat="43.9166" lon="5.18018">
        <ele>320.8</ele>
        <time>2018-03-18T14:51:39.000Z</time>
      </trkpt>
      <trkpt lat="43.91666" lon="5.18024">
        <ele>322</ele>
        <time>2018-03-18T14:51:44.000Z</time>
      </trkpt>
      <trkpt lat="43.91668" lon="5.18024">
        <ele>322.3</ele>
        <time>2018-03-18T14:51:45.000Z</time>
      </trkpt>
      <trkpt lat="43.91675" lon="5.18028">
        <ele>322.8</ele>
        <time>2018-03-18T14:51:49.000Z</time>
      </trkpt>
      <trkpt lat="43.91677" lon="5.18029">
        <ele>322.9</ele>
        <time>2018-03-18T14:51:50.000Z</time>
      </trkpt>
      <trkpt lat="43.91683" lon="5.18033">
        <ele>323.1</ele>
        <time>2018-03-18T14:51:55.000Z</time>
      </trkpt>
      <trkpt lat="43.91685" lon="5.18033">
        <ele>323.2</ele>
        <time>2018-03-18T14:51:56.000Z</time>
      </trkpt>
      <trkpt lat="43.91693" lon="5.18038">
        <ele>324.4</ele>
        <time>2018-03-18T14:52:05.000Z</time>
      </trkpt>
      <trkpt lat="43.91694" lon="5.18038">
        <ele>324.6</ele>
        <time>2018-03-18T14:52:06.000Z</time>
      </trkpt>
      <trkpt lat="43.91698" lon="5.18042">
        <ele>325.5</ele>
        <time>2018-03-18T14:52:12.000Z</time>
      </trkpt>
      <trkpt lat="43.91698" lon="5.18043">
        <ele>325.7</ele>
        <time>2018-03-18T14:52:13.000Z</time>
      </trkpt>
      <trkpt lat="43.91697" lon="5.18048">
        <ele>326.2</ele>
        <time>2018-03-18T14:52:27.000Z</time>
      </trkpt>
      <trkpt lat="43.91697" lon="5.18049">
        <ele>326.3</ele>
        <time>2018-03-18T14:52:28.000Z</time>
      </trkpt>
      <trkpt lat="43.9169" lon="5.18056">
        <ele>326.7</ele>
        <time>2018-03-18T14:52:33.000Z</time>
      </trkpt>
      <trkpt lat="43.9169" lon="5.18058">
        <ele>326.7</ele>
        <time>2018-03-18T14:52:34.000Z</time>
      </trkpt>
      <trkpt lat="43.91689" lon="5.1806">
        <ele>326.7</ele>
        <time>2018-03-18T14:52:36.000Z</time>
      </trkpt>
      <trkpt lat="43.91689" lon="5.1806">
        <ele>326.7</ele>
        <time>2018-03-18T14:52:37.000Z</time>
      </trkpt>
      <trkpt lat="43.91686" lon="5.18069">
        <ele>328.1</ele>
        <time>2018-03-18T14:52:47.000Z</time>
      </trkpt>
      <trkpt lat="43.91684" lon="5.18073">
        <ele>328.3</ele>
        <time>2018-03-18T14:52:48.000Z</time>
      </trkpt>
      <trkpt lat="43.91683" lon="5.18085">
        <ele>329.2</ele>
        <time>2018-03-18T14:52:59.000Z</time>
      </trkpt>
      <trkpt lat="43.91683" lon="5.18086">
        <ele>329.3</ele>
        <time>2018-03-18T14:53:00.000Z</time>
      </trkpt>
      <trkpt lat="43.91689" lon="5.18094">
        <ele>331.1</ele>
        <time>2018-03-18T14:53:11.000Z</time>
      </trkpt>
      <trkpt lat="43.9169" lon="5.18096">
        <ele>331.3</ele>
        <time>2018-03-18T14:53:12.000Z</time>
      </trkpt>
      <trkpt lat="43.91691" lon="5.18108">
        <ele>332.6</ele>
        <time>2018-03-18T14:53:19.000Z</time>
      </trkpt>
      <trkpt lat="43.91691" lon="5.18111">
        <ele>332.8</ele>
        <time>2018-03-18T14:53:20.000Z</time>
      </trkpt>
      <trkpt lat="43.91696" lon="5.18121">
        <ele>335</ele>
        <time>2018-03-18T14:53:30.000Z</time>
      </trkpt>
      <trkpt lat="43.91696" lon="5.18122">
        <ele>335.1</ele>
        <time>2018-03-18T14:53:31.000Z</time>
      </trkpt>
      <trkpt lat="43.91696" lon="5.18129">
        <ele>335.9</ele>
        <time>2018-03-18T14:53:39.000Z</time>
      </trkpt>
      <trkpt lat="43.91696" lon="5.18129">
        <ele>336.1</ele>
        <time>2018-03-18T14:53:40.000Z</time>
      </trkpt>
      <trkpt lat="43.91696" lon="5.18131">
        <ele>336.4</ele>
        <time>2018-03-18T14:53:44.000Z</time>
      </trkpt>
      <trkpt lat="43.91695" lon="5.18133">
        <ele>336.5</ele>
        <time>2018-03-18T14:53:45.000Z</time>
      </trkpt>
      <trkpt lat="43.91697" lon="5.18143">
        <ele>336.4</ele>
        <time>2018-03-18T14:53:52.000Z</time>
      </trkpt>
      <trkpt lat="43.91699" lon="5.18148">
        <ele>336.4</ele>
        <time>2018-03-18T14:53:53.000Z</time>
      </trkpt>
      <trkpt lat="43.91701" lon="5.18152">
        <ele>336.4</ele>
        <time>2018-03-18T14:53:54.000Z</time>
      </trkpt>
      <trkpt lat="43.91703" lon="5.18163">
        <ele>336.4</ele>
        <time>2018-03-18T14:54:09.000Z</time>
      </trkpt>
      <trkpt lat="43.91703" lon="5.18164">
        <ele>336.4</ele>
        <time>2018-03-18T14:54:10.000Z</time>
      </trkpt>
      <trkpt lat="43.91706" lon="5.1817">
        <ele>336.5</ele>
        <time>2018-03-18T14:54:13.000Z</time>
      </trkpt>
      <trkpt lat="43.91707" lon="5.18171">
        <ele>336.4</ele>
        <time>2018-03-18T14:54:14.000Z</time>
      </trkpt>
      <trkpt lat="43.9171" lon="5.18177">
        <ele>336</ele>
        <time>2018-03-18T14:54:19.000Z</time>
      </trkpt>
      <trkpt lat="43.91712" lon="5.18179">
        <ele>336</ele>
        <time>2018-03-18T14:54:20.000Z</time>
      </trkpt>
      <trkpt lat="43.91717" lon="5.18189">
        <ele>335.8</ele>
        <time>2018-03-18T14:54:24.000Z</time>
      </trkpt>
      <trkpt lat="43.91717" lon="5.18191">
        <ele>335.8</ele>
        <time>2018-03-18T14:54:25.000Z</time>
      </trkpt>
      <trkpt lat="43.91721" lon="5.18201">
        <ele>336.2</ele>
        <time>2018-03-18T14:54:32.000Z</time>
      </trkpt>
      <trkpt lat="43.91721" lon="5.18202">
        <ele>336.3</ele>
        <time>2018-03-18T14:54:33.000Z</time>
      </trkpt>
      <trkpt lat="43.91727" lon="5.18211">
        <ele>337.3</ele>
        <time>2018-03-18T14:54:42.000Z</time>
      </trkpt>
      <trkpt lat="43.91728" lon="5.18212">
        <ele>337.5</ele>
        <time>2018-03-18T14:54:43.000Z</time>
      </trkpt>
      <trkpt lat="43.91735" lon="5.18215">
        <ele>338</ele>
        <time>2018-03-18T14:54:48.000Z</time>
      </trkpt>
      <trkpt lat="43.91738" lon="5.18217">
        <ele>338</ele>
        <time>2018-03-18T14:54:49.000Z</time>
      </trkpt>
      <trkpt lat="43.91746" lon="5.18222">
        <ele>338.3</ele>
        <time>2018-03-18T14:54:54.000Z</time>
      </trkpt>
      <trkpt lat="43.91747" lon="5.18223">
        <ele>338.5</ele>
        <time>2018-03-18T14:54:55.000Z</time>
      </trkpt>
      <trkpt lat="43.91748" lon="5.18225">
        <ele>338.7</ele>
        <time>2018-03-18T14:54:57.000Z</time>
      </trkpt>
      <trkpt lat="43.91749" lon="5.18225">
        <ele>338.9</ele>
        <time>2018-03-18T14:54:58.000Z</time>
      </trkpt>
      <trkpt lat="43.91756" lon="5.1823">
        <ele>340.6</ele>
        <time>2018-03-18T14:55:06.000Z</time>
      </trkpt>
      <trkpt lat="43.91757" lon="5.18231">
        <ele>340.7</ele>
        <time>2018-03-18T14:55:07.000Z</time>
      </trkpt>
      <trkpt lat="43.91758" lon="5.18231">
        <ele>340.9</ele>
        <time>2018-03-18T14:55:08.000Z</time>
      </trkpt>
      <trkpt lat="43.91758" lon="5.18232">
        <ele>341.1</ele>
        <time>2018-03-18T14:55:09.000Z</time>
      </trkpt>
      <trkpt lat="43.91767" lon="5.18233">
        <ele>341.9</ele>
        <time>2018-03-18T14:55:14.000Z</time>
      </trkpt>
      <trkpt lat="43.91769" lon="5.18233">
        <ele>342.1</ele>
        <time>2018-03-18T14:55:15.000Z</time>
      </trkpt>
      <trkpt lat="43.91778" lon="5.18232">
        <ele>342.7</ele>
        <time>2018-03-18T14:55:22.000Z</time>
      </trkpt>
      <trkpt lat="43.9178" lon="5.18232">
        <ele>342.8</ele>
        <time>2018-03-18T14:55:23.000Z</time>
      </trkpt>
      <trkpt lat="43.91788" lon="5.18232">
        <ele>343.4</ele>
        <time>2018-03-18T14:55:30.000Z</time>
      </trkpt>
      <trkpt lat="43.91789" lon="5.18232">
        <ele>343.4</ele>
        <time>2018-03-18T14:55:31.000Z</time>
      </trkpt>
      <trkpt lat="43.91797" lon="5.18235">
        <ele>342.3</ele>
        <time>2018-03-18T14:55:40.000Z</time>
      </trkpt>
      <trkpt lat="43.91798" lon="5.18235">
        <ele>342.2</ele>
        <time>2018-03-18T14:55:41.000Z</time>
      </trkpt>
      <trkpt lat="43.91806" lon="5.18235">
        <ele>342.5</ele>
        <time>2018-03-18T14:55:48.000Z</time>
      </trkpt>
      <trkpt lat="43.91806" lon="5.18235">
        <ele>342.5</ele>
        <time>2018-03-18T14:55:49.000Z</time>
      </trkpt>
      <trkpt lat="43.91809" lon="5.18231">
        <ele>345.8</ele>
        <time>2018-03-18T14:56:02.000Z</time>
      </trkpt>
      <trkpt lat="43.9181" lon="5.18231">
        <ele>346.3</ele>
        <time>2018-03-18T14:56:03.000Z</time>
      </trkpt>
      <trkpt lat="43.91818" lon="5.18227">
        <ele>348.7</ele>
        <time>2018-03-18T14:56:10.000Z</time>
      </trkpt>
      <trkpt lat="43.91819" lon="5.18227">
        <ele>349</ele>
        <time>2018-03-18T14:56:11.000Z</time>
      </trkpt>
      <trkpt lat="43.91827" lon="5.18224">
        <ele>350.6</ele>
        <time>2018-03-18T14:56:20.000Z</time>
      </trkpt>
      <trkpt lat="43.91829" lon="5.18223">
        <ele>350.8</ele>
        <time>2018-03-18T14:56:21.000Z</time>
      </trkpt>
      <trkpt lat="43.91837" lon="5.18222">
        <ele>351.6</ele>
        <time>2018-03-18T14:56:28.000Z</time>
      </trkpt>
      <trkpt lat="43.91838" lon="5.18222">
        <ele>351.7</ele>
        <time>2018-03-18T14:56:29.000Z</time>
      </trkpt>
      <trkpt lat="43.91846" lon="5.18221">
        <ele>352</ele>
        <time>2018-03-18T14:56:35.000Z</time>
      </trkpt>
      <trkpt lat="43.91848" lon="5.18219">
        <ele>352.1</ele>
        <time>2018-03-18T14:56:36.000Z</time>
      </trkpt>
      <trkpt lat="43.91854" lon="5.1821">
        <ele>351.8</ele>
        <time>2018-03-18T14:56:45.000Z</time>
      </trkpt>
      <trkpt lat="43.91854" lon="5.18209">
        <ele>351.7</ele>
        <time>2018-03-18T14:56:46.000Z</time>
      </trkpt>
      <trkpt lat="43.9186" lon="5.18203">
        <ele>349.8</ele>
        <time>2018-03-18T14:56:55.000Z</time>
      </trkpt>
      <trkpt lat="43.91862" lon="5.18202">
        <ele>349.7</ele>
        <time>2018-03-18T14:56:56.000Z</time>
      </trkpt>
      <trkpt lat="43.91867" lon="5.182">
        <ele>349.6</ele>
        <time>2018-03-18T14:57:01.000Z</time>
      </trkpt>
      <trkpt lat="43.91867" lon="5.182">
        <ele>349.6</ele>
        <time>2018-03-18T14:57:02.000Z</time>
      </trkpt>
      <trkpt lat="43.91876" lon="5.18199">
        <ele>350.1</ele>
        <time>2018-03-18T14:57:10.000Z</time>
      </trkpt>
      <trkpt lat="43.91877" lon="5.18199">
        <ele>350.3</ele>
        <time>2018-03-18T14:57:11.000Z</time>
      </trkpt>
      <trkpt lat="43.91883" lon="5.18199">
        <ele>351.4</ele>
        <time>2018-03-18T14:57:21.000Z</time>
      </trkpt>
      <trkpt lat="43.91884" lon="5.182">
        <ele>351.6</ele>
        <time>2018-03-18T14:57:22.000Z</time>
      </trkpt>
      <trkpt lat="43.91884" lon="5.182">
        <ele>351.9</ele>
        <time>2018-03-18T14:57:24.000Z</time>
      </trkpt>
      <trkpt lat="43.91885" lon="5.182">
        <ele>352</ele>
        <time>2018-03-18T14:57:25.000Z</time>
      </trkpt>
      <trkpt lat="43.91893" lon="5.18199">
        <ele>352.8</ele>
        <time>2018-03-18T14:57:32.000Z</time>
      </trkpt>
      <trkpt lat="43.91894" lon="5.18199">
        <ele>352.9</ele>
        <time>2018-03-18T14:57:33.000Z</time>
      </trkpt>
      <trkpt lat="43.91903" lon="5.18198">
        <ele>354.7</ele>
        <time>2018-03-18T14:57:42.000Z</time>
      </trkpt>
      <trkpt lat="43.91903" lon="5.18197">
        <ele>355</ele>
        <time>2018-03-18T14:57:43.000Z</time>
      </trkpt>
      <trkpt lat="43.91909" lon="5.18192">
        <ele>356.5</ele>
        <time>2018-03-18T14:57:48.000Z</time>
      </trkpt>
      <trkpt lat="43.91911" lon="5.18191">
        <ele>356.9</ele>
        <time>2018-03-18T14:57:49.000Z</time>
      </trkpt>
      <trkpt lat="43.91911" lon="5.1819">
        <ele>357.1</ele>
        <time>2018-03-18T14:57:50.000Z</time>
      </trkpt>
      <trkpt lat="43.91912" lon="5.1819">
        <ele>357.5</ele>
        <time>2018-03-18T14:57:51.000Z</time>
      </trkpt>
      <trkpt lat="43.91913" lon="5.1819">
        <ele>357.8</ele>
        <time>2018-03-18T14:57:52.000Z</time>
      </trkpt>
      <trkpt lat="43.91916" lon="5.18186">
        <ele>358.4</ele>
        <time>2018-03-18T14:57:57.000Z</time>
      </trkpt>
      <trkpt lat="43.91916" lon="5.18185">
        <ele>358.4</ele>
        <time>2018-03-18T14:57:58.000Z</time>
      </trkpt>
      <trkpt lat="43.91918" lon="5.18183">
        <ele>360.5</ele>
        <time>2018-03-18T14:58:17.000Z</time>
      </trkpt>
      <trkpt lat="43.91919" lon="5.18184">
        <ele>360.4</ele>
        <time>2018-03-18T14:58:18.000Z</time>
      </trkpt>
      <trkpt lat="43.91927" lon="5.18187">
        <ele>360.2</ele>
        <time>2018-03-18T14:58:30.000Z</time>
      </trkpt>
      <trkpt lat="43.91928" lon="5.18187">
        <ele>360.2</ele>
        <time>2018-03-18T14:58:31.000Z</time>
      </trkpt>
      <trkpt lat="43.91937" lon="5.1819">
        <ele>361.6</ele>
        <time>2018-03-18T14:58:39.000Z</time>
      </trkpt>
      <trkpt lat="43.91938" lon="5.1819">
        <ele>361.7</ele>
        <time>2018-03-18T14:58:40.000Z</time>
      </trkpt>
      <trkpt lat="43.91947" lon="5.1819">
        <ele>361.9</ele>
        <time>2018-03-18T14:58:53.000Z</time>
      </trkpt>
      <trkpt lat="43.91947" lon="5.1819">
        <ele>362</ele>
        <time>2018-03-18T14:58:54.000Z</time>
      </trkpt>
      <trkpt lat="43.91956" lon="5.1819">
        <ele>362</ele>
        <time>2018-03-18T14:59:01.000Z</time>
      </trkpt>
      <trkpt lat="43.91956" lon="5.18191">
        <ele>362</ele>
        <time>2018-03-18T14:59:02.000Z</time>
      </trkpt>
      <trkpt lat="43.91964" lon="5.18191">
        <ele>361.9</ele>
        <time>2018-03-18T14:59:16.000Z</time>
      </trkpt>
      <trkpt lat="43.91965" lon="5.18191">
        <ele>361.6</ele>
        <time>2018-03-18T14:59:17.000Z</time>
      </trkpt>
      <trkpt lat="43.91966" lon="5.18189">
        <ele>359.8</ele>
        <time>2018-03-18T14:59:23.000Z</time>
      </trkpt>
      <trkpt lat="43.91967" lon="5.18188">
        <ele>359.6</ele>
        <time>2018-03-18T14:59:24.000Z</time>
      </trkpt>
      <trkpt lat="43.91973" lon="5.18181">
        <ele>357.4</ele>
        <time>2018-03-18T14:59:34.000Z</time>
      </trkpt>
      <trkpt lat="43.91973" lon="5.18181">
        <ele>357.4</ele>
        <time>2018-03-18T14:59:35.000Z</time>
      </trkpt>
      <trkpt lat="43.91976" lon="5.18179">
        <ele>357</ele>
        <time>2018-03-18T14:59:38.000Z</time>
      </trkpt>
      <trkpt lat="43.91977" lon="5.18178">
        <ele>356.8</ele>
        <time>2018-03-18T14:59:39.000Z</time>
      </trkpt>
      <trkpt lat="43.91986" lon="5.18178">
        <ele>356.1</ele>
        <time>2018-03-18T14:59:54.000Z</time>
      </trkpt>
      <trkpt lat="43.91986" lon="5.18179">
        <ele>356.1</ele>
        <time>2018-03-18T14:59:55.000Z</time>
      </trkpt>
      <trkpt lat="43.91995" lon="5.18182">
        <ele>356.7</ele>
        <time>2018-03-18T15:00:06.000Z</time>
      </trkpt>
      <trkpt lat="43.91995" lon="5.18182">
        <ele>356.8</ele>
        <time>2018-03-18T15:00:07.000Z</time>
      </trkpt>
      <trkpt lat="43.92004" lon="5.18181">
        <ele>357.5</ele>
        <time>2018-03-18T15:00:24.000Z</time>
      </trkpt>
      <trkpt lat="43.92005" lon="5.18181">
        <ele>357.5</ele>
        <time>2018-03-18T15:00:25.000Z</time>
      </trkpt>
      <trkpt lat="43.92013" lon="5.18185">
        <ele>358.2</ele>
        <time>2018-03-18T15:00:39.000Z</time>
      </trkpt>
      <trkpt lat="43.92014" lon="5.18185">
        <ele>358.2</ele>
        <time>2018-03-18T15:00:40.000Z</time>
      </trkpt>
      <trkpt lat="43.92021" lon="5.18191">
        <ele>358.8</ele>
        <time>2018-03-18T15:00:50.000Z</time>
      </trkpt>
      <trkpt lat="43.92022" lon="5.18192">
        <ele>358.9</ele>
        <time>2018-03-18T15:00:51.000Z</time>
      </trkpt>
      <trkpt lat="43.92027" lon="5.182">
        <ele>360.6</ele>
        <time>2018-03-18T15:01:03.000Z</time>
      </trkpt>
      <trkpt lat="43.92027" lon="5.18202">
        <ele>360.7</ele>
        <time>2018-03-18T15:01:04.000Z</time>
      </trkpt>
      <trkpt lat="43.9203" lon="5.18214">
        <ele>361.4</ele>
        <time>2018-03-18T15:01:13.000Z</time>
      </trkpt>
      <trkpt lat="43.9203" lon="5.18215">
        <ele>361.5</ele>
        <time>2018-03-18T15:01:14.000Z</time>
      </trkpt>
      <trkpt lat="43.92034" lon="5.18225">
        <ele>362.7</ele>
        <time>2018-03-18T15:01:24.000Z</time>
      </trkpt>
      <trkpt lat="43.92034" lon="5.18227">
        <ele>362.7</ele>
        <time>2018-03-18T15:01:25.000Z</time>
      </trkpt>
      <trkpt lat="43.92038" lon="5.18237">
        <ele>362.9</ele>
        <time>2018-03-18T15:01:32.000Z</time>
      </trkpt>
      <trkpt lat="43.92038" lon="5.18238">
        <ele>362.9</ele>
        <time>2018-03-18T15:01:33.000Z</time>
      </trkpt>
      <trkpt lat="43.92044" lon="5.18247">
        <ele>362.8</ele>
        <time>2018-03-18T15:01:41.000Z</time>
      </trkpt>
      <trkpt lat="43.92045" lon="5.18248">
        <ele>362.8</ele>
        <time>2018-03-18T15:01:42.000Z</time>
      </trkpt>
      <trkpt lat="43.92048" lon="5.1825">
        <ele>363</ele>
        <time>2018-03-18T15:01:46.000Z</time>
      </trkpt>
      <trkpt lat="43.92049" lon="5.18251">
        <ele>363</ele>
        <time>2018-03-18T15:01:47.000Z</time>
      </trkpt>
      <trkpt lat="43.9205" lon="5.18253">
        <ele>363</ele>
        <time>2018-03-18T15:01:49.000Z</time>
      </trkpt>
      <trkpt lat="43.9205" lon="5.18253">
        <ele>362.9</ele>
        <time>2018-03-18T15:01:50.000Z</time>
      </trkpt>
      <trkpt lat="43.92053" lon="5.18265">
        <ele>363.6</ele>
        <time>2018-03-18T15:01:59.000Z</time>
      </trkpt>
      <trkpt lat="43.92053" lon="5.18266">
        <ele>363.8</ele>
        <time>2018-03-18T15:02:00.000Z</time>
      </trkpt>
      <trkpt lat="43.92056" lon="5.18277">
        <ele>364.4</ele>
        <time>2018-03-18T15:02:11.000Z</time>
      </trkpt>
      <trkpt lat="43.92057" lon="5.18278">
        <ele>364.5</ele>
        <time>2018-03-18T15:02:12.000Z</time>
      </trkpt>
      <trkpt lat="43.92061" lon="5.18287">
        <ele>364.5</ele>
        <time>2018-03-18T15:02:19.000Z</time>
      </trkpt>
      <trkpt lat="43.92061" lon="5.18289">
        <ele>364.4</ele>
        <time>2018-03-18T15:02:20.000Z</time>
      </trkpt>
      <trkpt lat="43.92062" lon="5.183">
        <ele>363.9</ele>
        <time>2018-03-18T15:02:27.000Z</time>
      </trkpt>
      <trkpt lat="43.92062" lon="5.18303">
        <ele>364</ele>
        <time>2018-03-18T15:02:28.000Z</time>
      </trkpt>
      <trkpt lat="43.92067" lon="5.18312">
        <ele>365.4</ele>
        <time>2018-03-18T15:02:38.000Z</time>
      </trkpt>
      <trkpt lat="43.92067" lon="5.18314">
        <ele>365.3</ele>
        <time>2018-03-18T15:02:39.000Z</time>
      </trkpt>
      <trkpt lat="43.9207" lon="5.18324">
        <ele>364.3</ele>
        <time>2018-03-18T15:02:44.000Z</time>
      </trkpt>
      <trkpt lat="43.92071" lon="5.18325">
        <ele>364.3</ele>
        <time>2018-03-18T15:02:45.000Z</time>
      </trkpt>
      <trkpt lat="43.92076" lon="5.18335">
        <ele>362.9</ele>
        <time>2018-03-18T15:02:52.000Z</time>
      </trkpt>
      <trkpt lat="43.92076" lon="5.18336">
        <ele>362.6</ele>
        <time>2018-03-18T15:02:53.000Z</time>
      </trkpt>
      <trkpt lat="43.92077" lon="5.18338">
        <ele>362.3</ele>
        <time>2018-03-18T15:02:56.000Z</time>
      </trkpt>
      <trkpt lat="43.92077" lon="5.18339">
        <ele>362.3</ele>
        <time>2018-03-18T15:02:57.000Z</time>
      </trkpt>
      <trkpt lat="43.92079" lon="5.18341">
        <ele>362.3</ele>
        <time>2018-03-18T15:03:02.000Z</time>
      </trkpt>
      <trkpt lat="43.9208" lon="5.18342">
        <ele>362.5</ele>
        <time>2018-03-18T15:03:03.000Z</time>
      </trkpt>
      <trkpt lat="43.92086" lon="5.18348">
        <ele>364.7</ele>
        <time>2018-03-18T15:03:13.000Z</time>
      </trkpt>
      <trkpt lat="43.92088" lon="5.1835">
        <ele>365</ele>
        <time>2018-03-18T15:03:14.000Z</time>
      </trkpt>
      <trkpt lat="43.92095" lon="5.18357">
        <ele>366.1</ele>
        <time>2018-03-18T15:03:23.000Z</time>
      </trkpt>
      <trkpt lat="43.92095" lon="5.18357">
        <ele>366.1</ele>
        <time>2018-03-18T15:03:24.000Z</time>
      </trkpt>
      <trkpt lat="43.92095" lon="5.18368">
        <ele>365</ele>
        <time>2018-03-18T15:03:40.000Z</time>
      </trkpt>
      <trkpt lat="43.92095" lon="5.18368">
        <ele>365</ele>
        <time>2018-03-18T15:03:41.000Z</time>
      </trkpt>
      <trkpt lat="43.92095" lon="5.18378">
        <ele>364.4</ele>
        <time>2018-03-18T15:04:08.000Z</time>
      </trkpt>
      <trkpt lat="43.92095" lon="5.18383">
        <ele>364.3</ele>
        <time>2018-03-18T15:04:09.000Z</time>
      </trkpt>
      <trkpt lat="43.921" lon="5.18392">
        <ele>363.8</ele>
        <time>2018-03-18T15:04:18.000Z</time>
      </trkpt>
      <trkpt lat="43.92101" lon="5.18393">
        <ele>363.8</ele>
        <time>2018-03-18T15:04:19.000Z</time>
      </trkpt>
      <trkpt lat="43.92105" lon="5.184">
        <ele>364.2</ele>
        <time>2018-03-18T15:04:24.000Z</time>
      </trkpt>
      <trkpt lat="43.92105" lon="5.184">
        <ele>364.3</ele>
        <time>2018-03-18T15:04:25.000Z</time>
      </trkpt>
      <trkpt lat="43.92111" lon="5.18403">
        <ele>364.6</ele>
        <time>2018-03-18T15:04:32.000Z</time>
      </trkpt>
      <trkpt lat="43.92112" lon="5.18403">
        <ele>364.6</ele>
        <time>2018-03-18T15:04:33.000Z</time>
      </trkpt>
      <trkpt lat="43.92121" lon="5.18404">
        <ele>365</ele>
        <time>2018-03-18T15:04:38.000Z</time>
      </trkpt>
      <trkpt lat="43.92122" lon="5.18405">
        <ele>365.2</ele>
        <time>2018-03-18T15:04:39.000Z</time>
      </trkpt>
      <trkpt lat="43.92123" lon="5.18406">
        <ele>365.6</ele>
        <time>2018-03-18T15:04:42.000Z</time>
      </trkpt>
      <trkpt lat="43.92123" lon="5.18406">
        <ele>365.7</ele>
        <time>2018-03-18T15:04:43.000Z</time>
      </trkpt>
      <trkpt lat="43.92125" lon="5.18407">
        <ele>366.5</ele>
        <time>2018-03-18T15:04:47.000Z</time>
      </trkpt>
      <trkpt lat="43.92125" lon="5.18407">
        <ele>366.7</ele>
        <time>2018-03-18T15:04:48.000Z</time>
      </trkpt>
      <trkpt lat="43.92134" lon="5.18409">
        <ele>367.3</ele>
        <time>2018-03-18T15:04:54.000Z</time>
      </trkpt>
      <trkpt lat="43.92135" lon="5.18409">
        <ele>367.4</ele>
        <time>2018-03-18T15:04:55.000Z</time>
      </trkpt>
      <trkpt lat="43.92143" lon="5.18411">
        <ele>368.5</ele>
        <time>2018-03-18T15:05:03.000Z</time>
      </trkpt>
      <trkpt lat="43.92145" lon="5.18411">
        <ele>368.6</ele>
        <time>2018-03-18T15:05:04.000Z</time>
      </trkpt>
      <trkpt lat="43.92152" lon="5.18413">
        <ele>370.3</ele>
        <time>2018-03-18T15:05:10.000Z</time>
      </trkpt>
      <trkpt lat="43.92154" lon="5.18414">
        <ele>370.6</ele>
        <time>2018-03-18T15:05:11.000Z</time>
      </trkpt>
      <trkpt lat="43.92162" lon="5.18418">
        <ele>373.4</ele>
        <time>2018-03-18T15:05:20.000Z</time>
      </trkpt>
      <trkpt lat="43.92164" lon="5.18417">
        <ele>373.6</ele>
        <time>2018-03-18T15:05:21.000Z</time>
      </trkpt>
      <trkpt lat="43.92173" lon="5.18415">
        <ele>374.2</ele>
        <time>2018-03-18T15:05:27.000Z</time>
      </trkpt>
      <trkpt lat="43.92174" lon="5.18415">
        <ele>374.2</ele>
        <time>2018-03-18T15:05:28.000Z</time>
      </trkpt>
      <trkpt lat="43.92179" lon="5.18413">
        <ele>374.9</ele>
        <time>2018-03-18T15:05:37.000Z</time>
      </trkpt>
      <trkpt lat="43.92179" lon="5.18413">
        <ele>375</ele>
        <time>2018-03-18T15:05:38.000Z</time>
      </trkpt>
      <trkpt lat="43.9218" lon="5.18414">
        <ele>375.3</ele>
        <time>2018-03-18T15:05:42.000Z</time>
      </trkpt>
      <trkpt lat="43.92183" lon="5.18416">
        <ele>375.5</ele>
        <time>2018-03-18T15:05:43.000Z</time>
      </trkpt>
      <trkpt lat="43.92192" lon="5.18419">
        <ele>375.9</ele>
        <time>2018-03-18T15:05:50.000Z</time>
      </trkpt>
      <trkpt lat="43.92192" lon="5.18419">
        <ele>375.9</ele>
        <time>2018-03-18T15:05:51.000Z</time>
      </trkpt>
      <trkpt lat="43.92197" lon="5.18421">
        <ele>376</ele>
        <time>2018-03-18T15:05:56.000Z</time>
      </trkpt>
      <trkpt lat="43.92197" lon="5.18421">
        <ele>376.1</ele>
        <time>2018-03-18T15:05:57.000Z</time>
      </trkpt>
      <trkpt lat="43.92198" lon="5.18421">
        <ele>376.4</ele>
        <time>2018-03-18T15:05:59.000Z</time>
      </trkpt>
      <trkpt lat="43.922" lon="5.18422">
        <ele>376.5</ele>
        <time>2018-03-18T15:06:00.000Z</time>
      </trkpt>
      <trkpt lat="43.92207" lon="5.18428">
        <ele>377.2</ele>
        <time>2018-03-18T15:06:04.000Z</time>
      </trkpt>
      <trkpt lat="43.92208" lon="5.18428">
        <ele>377.3</ele>
        <time>2018-03-18T15:06:05.000Z</time>
      </trkpt>
      <trkpt lat="43.92217" lon="5.18429">
        <ele>377.1</ele>
        <time>2018-03-18T15:06:14.000Z</time>
      </trkpt>
      <trkpt lat="43.92217" lon="5.18429">
        <ele>376.9</ele>
        <time>2018-03-18T15:06:15.000Z</time>
      </trkpt>
      <trkpt lat="43.9222" lon="5.1843">
        <ele>376.6</ele>
        <time>2018-03-18T15:06:18.000Z</time>
      </trkpt>
      <trkpt lat="43.9222" lon="5.18428">
        <ele>376.4</ele>
        <time>2018-03-18T15:06:19.000Z</time>
      </trkpt>
      <trkpt lat="43.92227" lon="5.1842">
        <ele>375.9</ele>
        <time>2018-03-18T15:06:32.000Z</time>
      </trkpt>
      <trkpt lat="43.92227" lon="5.18419">
        <ele>375.9</ele>
        <time>2018-03-18T15:06:33.000Z</time>
      </trkpt>
      <trkpt lat="43.92227" lon="5.18419">
        <ele>375.9</ele>
        <time>2018-03-18T15:06:34.000Z</time>
      </trkpt>
      <trkpt lat="43.92229" lon="5.18416">
        <ele>376</ele>
        <time>2018-03-18T15:06:36.000Z</time>
      </trkpt>
      <trkpt lat="43.9223" lon="5.18415">
        <ele>376</ele>
        <time>2018-03-18T15:06:37.000Z</time>
      </trkpt>
      <trkpt lat="43.92231" lon="5.18413">
        <ele>375.8</ele>
        <time>2018-03-18T15:06:39.000Z</time>
      </trkpt>
      <trkpt lat="43.92232" lon="5.18413">
        <ele>375.7</ele>
        <time>2018-03-18T15:06:40.000Z</time>
      </trkpt>
      <trkpt lat="43.92235" lon="5.18411">
        <ele>375.8</ele>
        <time>2018-03-18T15:06:44.000Z</time>
      </trkpt>
      <trkpt lat="43.92236" lon="5.18411">
        <ele>375.9</ele>
        <time>2018-03-18T15:06:45.000Z</time>
      </trkpt>
      <trkpt lat="43.92239" lon="5.18411">
        <ele>376.2</ele>
        <time>2018-03-18T15:06:50.000Z</time>
      </trkpt>
      <trkpt lat="43.9224" lon="5.18411">
        <ele>376.2</ele>
        <time>2018-03-18T15:06:51.000Z</time>
      </trkpt>
      <trkpt lat="43.92241" lon="5.18411">
        <ele>376.3</ele>
        <time>2018-03-18T15:06:54.000Z</time>
      </trkpt>
      <trkpt lat="43.92243" lon="5.18412">
        <ele>376.3</ele>
        <time>2018-03-18T15:06:55.000Z</time>
      </trkpt>
      <trkpt lat="43.92246" lon="5.18413">
        <ele>376.4</ele>
        <time>2018-03-18T15:06:58.000Z</time>
      </trkpt>
      <trkpt lat="43.92246" lon="5.18414">
        <ele>376.4</ele>
        <time>2018-03-18T15:06:59.000Z</time>
      </trkpt>
      <trkpt lat="43.92251" lon="5.18413">
        <ele>375.7</ele>
        <time>2018-03-18T15:07:10.000Z</time>
      </trkpt>
      <trkpt lat="43.92252" lon="5.18413">
        <ele>375.6</ele>
        <time>2018-03-18T15:07:11.000Z</time>
      </trkpt>
      <trkpt lat="43.92261" lon="5.18415">
        <ele>374.7</ele>
        <time>2018-03-18T15:07:22.000Z</time>
      </trkpt>
      <trkpt lat="43.92261" lon="5.18415">
        <ele>374.7</ele>
        <time>2018-03-18T15:07:23.000Z</time>
      </trkpt>
      <trkpt lat="43.9227" lon="5.18413">
        <ele>375.7</ele>
        <time>2018-03-18T15:07:31.000Z</time>
      </trkpt>
      <trkpt lat="43.92271" lon="5.18413">
        <ele>375.7</ele>
        <time>2018-03-18T15:07:32.000Z</time>
      </trkpt>
      <trkpt lat="43.92278" lon="5.18411">
        <ele>377.7</ele>
        <time>2018-03-18T15:07:40.000Z</time>
      </trkpt>
      <trkpt lat="43.9228" lon="5.18411">
        <ele>377.9</ele>
        <time>2018-03-18T15:07:41.000Z</time>
      </trkpt>
      <trkpt lat="43.92287" lon="5.18412">
        <ele>379.1</ele>
        <time>2018-03-18T15:07:48.000Z</time>
      </trkpt>
      <trkpt lat="43.9229" lon="5.18411">
        <ele>379.2</ele>
        <time>2018-03-18T15:07:49.000Z</time>
      </trkpt>
      <trkpt lat="43.92292" lon="5.1841">
        <ele>379.3</ele>
        <time>2018-03-18T15:07:50.000Z</time>
      </trkpt>
      <trkpt lat="43.92293" lon="5.1841">
        <ele>379.3</ele>
        <time>2018-03-18T15:07:51.000Z</time>
      </trkpt>
      <trkpt lat="43.92295" lon="5.18409">
        <ele>379.4</ele>
        <time>2018-03-18T15:07:53.000Z</time>
      </trkpt>
      <trkpt lat="43.92296" lon="5.1841">
        <ele>379.4</ele>
        <time>2018-03-18T15:07:54.000Z</time>
      </trkpt>
      <trkpt lat="43.92301" lon="5.18407">
        <ele>379.4</ele>
        <time>2018-03-18T15:08:03.000Z</time>
      </trkpt>
      <trkpt lat="43.92302" lon="5.18407">
        <ele>379.4</ele>
        <time>2018-03-18T15:08:04.000Z</time>
      </trkpt>
      <trkpt lat="43.92311" lon="5.18406">
        <ele>379.7</ele>
        <time>2018-03-18T15:08:17.000Z</time>
      </trkpt>
      <trkpt lat="43.92311" lon="5.18406">
        <ele>379.8</ele>
        <time>2018-03-18T15:08:18.000Z</time>
      </trkpt>
      <trkpt lat="43.92311" lon="5.18406">
        <ele>379.8</ele>
        <time>2018-03-18T15:08:19.000Z</time>
      </trkpt>
      <trkpt lat="43.92312" lon="5.18405">
        <ele>379.3</ele>
        <time>2018-03-18T15:08:25.000Z</time>
      </trkpt>
      <trkpt lat="43.92315" lon="5.18405">
        <ele>379.1</ele>
        <time>2018-03-18T15:08:26.000Z</time>
      </trkpt>
      <trkpt lat="43.92324" lon="5.18403">
        <ele>376</ele>
        <time>2018-03-18T15:08:36.000Z</time>
      </trkpt>
      <trkpt lat="43.92325" lon="5.18403">
        <ele>375.6</ele>
        <time>2018-03-18T15:08:37.000Z</time>
      </trkpt>
      <trkpt lat="43.92325" lon="5.18404">
        <ele>375.4</ele>
        <time>2018-03-18T15:08:38.000Z</time>
      </trkpt>
      <trkpt lat="43.92326" lon="5.18404">
        <ele>375.2</ele>
        <time>2018-03-18T15:08:39.000Z</time>
      </trkpt>
      <trkpt lat="43.9233" lon="5.18403">
        <ele>374.7</ele>
        <time>2018-03-18T15:08:43.000Z</time>
      </trkpt>
      <trkpt lat="43.92331" lon="5.18403">
        <ele>374.7</ele>
        <time>2018-03-18T15:08:44.000Z</time>
      </trkpt>
      <trkpt lat="43.92338" lon="5.18403">
        <ele>375.4</ele>
        <time>2018-03-18T15:08:54.000Z</time>
      </trkpt>
      <trkpt lat="43.92338" lon="5.18403">
        <ele>375.6</ele>
        <time>2018-03-18T15:08:55.000Z</time>
      </trkpt>
      <trkpt lat="43.92347" lon="5.18402">
        <ele>375.1</ele>
        <time>2018-03-18T15:09:07.000Z</time>
      </trkpt>
      <trkpt lat="43.92348" lon="5.18403">
        <ele>374.9</ele>
        <time>2018-03-18T15:09:08.000Z</time>
      </trkpt>
      <trkpt lat="43.92349" lon="5.18403">
        <ele>374.7</ele>
        <time>2018-03-18T15:09:09.000Z</time>
      </trkpt>
      <trkpt lat="43.92351" lon="5.18402">
        <ele>374.6</ele>
        <time>2018-03-18T15:09:10.000Z</time>
      </trkpt>
      <trkpt lat="43.92358" lon="5.18398">
        <ele>374.1</ele>
        <time>2018-03-18T15:09:16.000Z</time>
      </trkpt>
      <trkpt lat="43.92359" lon="5.18398">
        <ele>374</ele>
        <time>2018-03-18T15:09:17.000Z</time>
      </trkpt>
      <trkpt lat="43.92368" lon="5.18399">
        <ele>373.9</ele>
        <time>2018-03-18T15:09:25.000Z</time>
      </trkpt>
      <trkpt lat="43.92369" lon="5.18399">
        <ele>373.9</ele>
        <time>2018-03-18T15:09:26.000Z</time>
      </trkpt>
      <trkpt lat="43.92378" lon="5.18397">
        <ele>374</ele>
        <time>2018-03-18T15:09:34.000Z</time>
      </trkpt>
      <trkpt lat="43.92378" lon="5.18397">
        <ele>374.1</ele>
        <time>2018-03-18T15:09:35.000Z</time>
      </trkpt>
      <trkpt lat="43.92387" lon="5.18399">
        <ele>374.7</ele>
        <time>2018-03-18T15:09:43.000Z</time>
      </trkpt>
      <trkpt lat="43.92388" lon="5.18399">
        <ele>374.9</ele>
        <time>2018-03-18T15:09:44.000Z</time>
      </trkpt>
      <trkpt lat="43.92395" lon="5.18401">
        <ele>375.6</ele>
        <time>2018-03-18T15:09:51.000Z</time>
      </trkpt>
      <trkpt lat="43.92397" lon="5.18402">
        <ele>375.6</ele>
        <time>2018-03-18T15:09:52.000Z</time>
      </trkpt>
      <trkpt lat="43.92405" lon="5.18398">
        <ele>375.6</ele>
        <time>2018-03-18T15:10:03.000Z</time>
      </trkpt>
      <trkpt lat="43.92406" lon="5.18397">
        <ele>375.6</ele>
        <time>2018-03-18T15:10:04.000Z</time>
      </trkpt>
      <trkpt lat="43.92414" lon="5.18395">
        <ele>375.7</ele>
        <time>2018-03-18T15:10:15.000Z</time>
      </trkpt>
      <trkpt lat="43.92415" lon="5.18395">
        <ele>375.6</ele>
        <time>2018-03-18T15:10:16.000Z</time>
      </trkpt>
      <trkpt lat="43.92416" lon="5.18394">
        <ele>375.6</ele>
        <time>2018-03-18T15:10:17.000Z</time>
      </trkpt>
      <trkpt lat="43.92417" lon="5.18394">
        <ele>375.5</ele>
        <time>2018-03-18T15:10:18.000Z</time>
      </trkpt>
      <trkpt lat="43.92417" lon="5.18393">
        <ele>375.5</ele>
        <time>2018-03-18T15:10:19.000Z</time>
      </trkpt>
      <trkpt lat="43.9242" lon="5.18391">
        <ele>375.1</ele>
        <time>2018-03-18T15:10:24.000Z</time>
      </trkpt>
      <trkpt lat="43.92421" lon="5.1839">
        <ele>374.9</ele>
        <time>2018-03-18T15:10:25.000Z</time>
      </trkpt>
      <trkpt lat="43.92422" lon="5.18389">
        <ele>374.7</ele>
        <time>2018-03-18T15:10:27.000Z</time>
      </trkpt>
      <trkpt lat="43.92423" lon="5.18389">
        <ele>374.6</ele>
        <time>2018-03-18T15:10:28.000Z</time>
      </trkpt>
      <trkpt lat="43.92428" lon="5.18379">
        <ele>368.5</ele>
        <time>2018-03-18T15:10:47.000Z</time>
      </trkpt>
      <trkpt lat="43.92428" lon="5.18379">
        <ele>368.1</ele>
        <time>2018-03-18T15:10:48.000Z</time>
      </trkpt>
      <trkpt lat="43.92429" lon="5.18379">
        <ele>367.4</ele>
        <time>2018-03-18T15:10:50.000Z</time>
      </trkpt>
      <trkpt lat="43.92429" lon="5.18378">
        <ele>367.2</ele>
        <time>2018-03-18T15:10:51.000Z</time>
      </trkpt>
      <trkpt lat="43.92438" lon="5.18379">
        <ele>368.5</ele>
        <time>2018-03-18T15:11:09.000Z</time>
      </trkpt>
      <trkpt lat="43.92439" lon="5.18378">
        <ele>368.6</ele>
        <time>2018-03-18T15:11:10.000Z</time>
      </trkpt>
      <trkpt lat="43.92439" lon="5.18378">
        <ele>368.6</ele>
        <time>2018-03-18T15:11:11.000Z</time>
      </trkpt>
      <trkpt lat="43.92447" lon="5.18377">
        <ele>372.7</ele>
        <time>2018-03-18T15:11:31.000Z</time>
      </trkpt>
      <trkpt lat="43.92448" lon="5.18376">
        <ele>372.7</ele>
        <time>2018-03-18T15:11:32.000Z</time>
      </trkpt>
      <trkpt lat="43.92449" lon="5.18376">
        <ele>372.8</ele>
        <time>2018-03-18T15:11:33.000Z</time>
      </trkpt>
      <trkpt lat="43.92453" lon="5.18373">
        <ele>379</ele>
        <time>2018-03-18T15:11:49.000Z</time>
      </trkpt>
      <trkpt lat="43.92453" lon="5.18373">
        <ele>379.3</ele>
        <time>2018-03-18T15:11:50.000Z</time>
      </trkpt>
      <trkpt lat="43.92454" lon="5.18374">
        <ele>379.9</ele>
        <time>2018-03-18T15:11:52.000Z</time>
      </trkpt>
      <trkpt lat="43.92454" lon="5.18374">
        <ele>380</ele>
        <time>2018-03-18T15:11:53.000Z</time>
      </trkpt>
      <trkpt lat="43.92454" lon="5.18362">
        <ele>385.1</ele>
        <time>2018-03-18T15:12:24.000Z</time>
      </trkpt>
      <trkpt lat="43.92454" lon="5.18362">
        <ele>385.4</ele>
        <time>2018-03-18T15:12:25.000Z</time>
      </trkpt>
      <trkpt lat="43.92454" lon="5.1836">
        <ele>385.7</ele>
        <time>2018-03-18T15:12:27.000Z</time>
      </trkpt>
      <trkpt lat="43.92454" lon="5.1836">
        <ele>385.9</ele>
        <time>2018-03-18T15:12:28.000Z</time>
      </trkpt>
      <trkpt lat="43.92456" lon="5.18355">
        <ele>398.2</ele>
        <time>2018-03-18T15:13:14.000Z</time>
      </trkpt>
      <trkpt lat="43.92456" lon="5.18355">
        <ele>398.4</ele>
        <time>2018-03-18T15:13:15.000Z</time>
      </trkpt>
      <trkpt lat="43.92456" lon="5.18352">
        <ele>398.4</ele>
        <time>2018-03-18T15:13:20.000Z</time>
      </trkpt>
      <trkpt lat="43.92457" lon="5.18352">
        <ele>398.4</ele>
        <time>2018-03-18T15:13:21.000Z</time>
      </trkpt>
      <trkpt lat="43.92464" lon="5.18346">
        <ele>399.8</ele>
        <time>2018-03-18T15:14:10.000Z</time>
      </trkpt>
      <trkpt lat="43.92465" lon="5.18346">
        <ele>400</ele>
        <time>2018-03-18T15:14:11.000Z</time>
      </trkpt>
      <trkpt lat="43.92465" lon="5.18346">
        <ele>400</ele>
        <time>2018-03-18T15:14:12.000Z</time>
      </trkpt>
      <trkpt lat="43.92464" lon="5.18345">
        <ele>401.3</ele>
        <time>2018-03-18T15:14:44.000Z</time>
      </trkpt>
      <trkpt lat="43.92465" lon="5.18345">
        <ele>401.3</ele>
        <time>2018-03-18T15:14:45.000Z</time>
      </trkpt>
      <trkpt lat="43.92468" lon="5.18347">
        <ele>401.4</ele>
        <time>2018-03-18T15:14:48.000Z</time>
      </trkpt>
      <trkpt lat="43.92469" lon="5.18348">
        <ele>401.4</ele>
        <time>2018-03-18T15:14:49.000Z</time>
      </trkpt>
      <trkpt lat="43.9247" lon="5.18349">
        <ele>401.4</ele>
        <time>2018-03-18T15:14:51.000Z</time>
      </trkpt>
      <trkpt lat="43.9247" lon="5.18349">
        <ele>401.4</ele>
        <time>2018-03-18T15:14:52.000Z</time>
      </trkpt>
      <trkpt lat="43.92476" lon="5.18359">
        <ele>400.6</ele>
        <time>2018-03-18T15:14:59.000Z</time>
      </trkpt>
      <trkpt lat="43.92476" lon="5.1836">
        <ele>400.6</ele>
        <time>2018-03-18T15:15:00.000Z</time>
      </trkpt>
      <trkpt lat="43.92482" lon="5.18364">
        <ele>400.1</ele>
        <time>2018-03-18T15:15:10.000Z</time>
      </trkpt>
      <trkpt lat="43.92482" lon="5.18364">
        <ele>400.1</ele>
        <time>2018-03-18T15:15:11.000Z</time>
      </trkpt>
      <trkpt lat="43.92483" lon="5.18365">
        <ele>400.3</ele>
        <time>2018-03-18T15:15:14.000Z</time>
      </trkpt>
      <trkpt lat="43.92484" lon="5.18365">
        <ele>400.4</ele>
        <time>2018-03-18T15:15:15.000Z</time>
      </trkpt>
      <trkpt lat="43.92487" lon="5.18364">
        <ele>400.3</ele>
        <time>2018-03-18T15:15:21.000Z</time>
      </trkpt>
      <trkpt lat="43.92488" lon="5.18364">
        <ele>400.2</ele>
        <time>2018-03-18T15:15:22.000Z</time>
      </trkpt>
      <trkpt lat="43.92496" lon="5.18361">
        <ele>397.4</ele>
        <time>2018-03-18T15:15:54.000Z</time>
      </trkpt>
      <trkpt lat="43.92497" lon="5.1836">
        <ele>397.2</ele>
        <time>2018-03-18T15:15:55.000Z</time>
      </trkpt>
      <trkpt lat="43.92497" lon="5.1836">
        <ele>397.1</ele>
        <time>2018-03-18T15:15:56.000Z</time>
      </trkpt>
      <trkpt lat="43.925" lon="5.18363">
        <ele>395.7</ele>
        <time>2018-03-18T15:16:04.000Z</time>
      </trkpt>
      <trkpt lat="43.925" lon="5.18363">
        <ele>395.5</ele>
        <time>2018-03-18T15:16:05.000Z</time>
      </trkpt>
      <trkpt lat="43.92503" lon="5.18368">
        <ele>394.4</ele>
        <time>2018-03-18T15:16:13.000Z</time>
      </trkpt>
      <trkpt lat="43.92503" lon="5.18369">
        <ele>394.2</ele>
        <time>2018-03-18T15:16:14.000Z</time>
      </trkpt>
      <trkpt lat="43.92508" lon="5.18378">
        <ele>393.1</ele>
        <time>2018-03-18T15:16:38.000Z</time>
      </trkpt>
      <trkpt lat="43.92508" lon="5.18379">
        <ele>393.1</ele>
        <time>2018-03-18T15:16:39.000Z</time>
      </trkpt>
      <trkpt lat="43.92508" lon="5.18379">
        <ele>393.1</ele>
        <time>2018-03-18T15:16:40.000Z</time>
      </trkpt>
      <trkpt lat="43.92512" lon="5.18389">
        <ele>394.6</ele>
        <time>2018-03-18T15:16:57.000Z</time>
      </trkpt>
      <trkpt lat="43.92513" lon="5.1839">
        <ele>394.6</ele>
        <time>2018-03-18T15:16:58.000Z</time>
      </trkpt>
      <trkpt lat="43.92514" lon="5.18392">
        <ele>394.6</ele>
        <time>2018-03-18T15:16:59.000Z</time>
      </trkpt>
      <trkpt lat="43.92517" lon="5.18401">
        <ele>394.6</ele>
        <time>2018-03-18T15:17:06.000Z</time>
      </trkpt>
      <trkpt lat="43.92518" lon="5.18403">
        <ele>394.6</ele>
        <time>2018-03-18T15:17:07.000Z</time>
      </trkpt>
      <trkpt lat="43.92518" lon="5.18405">
        <ele>394.6</ele>
        <time>2018-03-18T15:17:08.000Z</time>
      </trkpt>
      <trkpt lat="43.92521" lon="5.18409">
        <ele>394.3</ele>
        <time>2018-03-18T15:17:11.000Z</time>
      </trkpt>
      <trkpt lat="43.92523" lon="5.1841">
        <ele>394.3</ele>
        <time>2018-03-18T15:17:12.000Z</time>
      </trkpt>
      <trkpt lat="43.92524" lon="5.18411">
        <ele>394.3</ele>
        <time>2018-03-18T15:17:14.000Z</time>
      </trkpt>
      <trkpt lat="43.92524" lon="5.18412">
        <ele>394.3</ele>
        <time>2018-03-18T15:17:15.000Z</time>
      </trkpt>
      <trkpt lat="43.92529" lon="5.18413">
        <ele>394.3</ele>
        <time>2018-03-18T15:17:19.000Z</time>
      </trkpt>
      <trkpt lat="43.9253" lon="5.18413">
        <ele>394.4</ele>
        <time>2018-03-18T15:17:20.000Z</time>
      </trkpt>
      <trkpt lat="43.92536" lon="5.18416">
        <ele>395.2</ele>
        <time>2018-03-18T15:17:28.000Z</time>
      </trkpt>
      <trkpt lat="43.92537" lon="5.18417">
        <ele>395.5</ele>
        <time>2018-03-18T15:17:29.000Z</time>
      </trkpt>
      <trkpt lat="43.92537" lon="5.18417">
        <ele>396.3</ele>
        <time>2018-03-18T15:17:31.000Z</time>
      </trkpt>
      <trkpt lat="43.92538" lon="5.18418">
        <ele>396.6</ele>
        <time>2018-03-18T15:17:32.000Z</time>
      </trkpt>
      <trkpt lat="43.92539" lon="5.18419">
        <ele>396.9</ele>
        <time>2018-03-18T15:17:33.000Z</time>
      </trkpt>
      <trkpt lat="43.9254" lon="5.1842">
        <ele>397</ele>
        <time>2018-03-18T15:17:34.000Z</time>
      </trkpt>
      <trkpt lat="43.92548" lon="5.18424">
        <ele>399.4</ele>
        <time>2018-03-18T15:17:52.000Z</time>
      </trkpt>
      <trkpt lat="43.92548" lon="5.18425">
        <ele>399.4</ele>
        <time>2018-03-18T15:17:53.000Z</time>
      </trkpt>
      <trkpt lat="43.92549" lon="5.18426">
        <ele>399.4</ele>
        <time>2018-03-18T15:17:54.000Z</time>
      </trkpt>
      <trkpt lat="43.92549" lon="5.18427">
        <ele>399.5</ele>
        <time>2018-03-18T15:17:55.000Z</time>
      </trkpt>
      <trkpt lat="43.92557" lon="5.18431">
        <ele>400</ele>
        <time>2018-03-18T15:18:04.000Z</time>
      </trkpt>
      <trkpt lat="43.92559" lon="5.18431">
        <ele>399.9</ele>
        <time>2018-03-18T15:18:05.000Z</time>
      </trkpt>
      <trkpt lat="43.92567" lon="5.18429">
        <ele>400.3</ele>
        <time>2018-03-18T15:18:15.000Z</time>
      </trkpt>
      <trkpt lat="43.92568" lon="5.18429">
        <ele>400.3</ele>
        <time>2018-03-18T15:18:16.000Z</time>
      </trkpt>
      <trkpt lat="43.92576" lon="5.18432">
        <ele>399</ele>
        <time>2018-03-18T15:18:26.000Z</time>
      </trkpt>
      <trkpt lat="43.92577" lon="5.18433">
        <ele>398.8</ele>
        <time>2018-03-18T15:18:27.000Z</time>
      </trkpt>
      <trkpt lat="43.92585" lon="5.18437">
        <ele>398</ele>
        <time>2018-03-18T15:18:40.000Z</time>
      </trkpt>
      <trkpt lat="43.92586" lon="5.18438">
        <ele>398</ele>
        <time>2018-03-18T15:18:41.000Z</time>
      </trkpt>
      <trkpt lat="43.9259" lon="5.18444">
        <ele>397.2</ele>
        <time>2018-03-18T15:18:50.000Z</time>
      </trkpt>
      <trkpt lat="43.92591" lon="5.18445">
        <ele>397</ele>
        <time>2018-03-18T15:18:51.000Z</time>
      </trkpt>
      <trkpt lat="43.92597" lon="5.18447">
        <ele>395</ele>
        <time>2018-03-18T15:19:09.000Z</time>
      </trkpt>
      <trkpt lat="43.92599" lon="5.18449">
        <ele>394.9</ele>
        <time>2018-03-18T15:19:10.000Z</time>
      </trkpt>
      <trkpt lat="43.926" lon="5.1845">
        <ele>394.9</ele>
        <time>2018-03-18T15:19:11.000Z</time>
      </trkpt>
      <trkpt lat="43.92607" lon="5.18453">
        <ele>402.2</ele>
        <time>2018-03-18T15:19:50.000Z</time>
      </trkpt>
      <trkpt lat="43.92609" lon="5.18452">
        <ele>402.6</ele>
        <time>2018-03-18T15:19:51.000Z</time>
      </trkpt>
      <trkpt lat="43.92616" lon="5.18452">
        <ele>404.2</ele>
        <time>2018-03-18T15:19:56.000Z</time>
      </trkpt>
      <trkpt lat="43.92617" lon="5.18452">
        <ele>404.4</ele>
        <time>2018-03-18T15:19:57.000Z</time>
      </trkpt>
      <trkpt lat="43.92625" lon="5.18451">
        <ele>408</ele>
        <time>2018-03-18T15:21:06.000Z</time>
      </trkpt>
      <trkpt lat="43.92626" lon="5.18448">
        <ele>408.5</ele>
        <time>2018-03-18T15:21:07.000Z</time>
      </trkpt>
      <trkpt lat="43.92626" lon="5.18447">
        <ele>408.9</ele>
        <time>2018-03-18T15:21:08.000Z</time>
      </trkpt>
      <trkpt lat="43.92626" lon="5.18446">
        <ele>409.6</ele>
        <time>2018-03-18T15:21:11.000Z</time>
      </trkpt>
      <trkpt lat="43.92626" lon="5.18445">
        <ele>410</ele>
        <time>2018-03-18T15:21:12.000Z</time>
      </trkpt>
      <trkpt lat="43.92627" lon="5.18457">
        <ele>411.7</ele>
        <time>2018-03-18T15:21:25.000Z</time>
      </trkpt>
      <trkpt lat="43.92627" lon="5.18459">
        <ele>411.8</ele>
        <time>2018-03-18T15:21:26.000Z</time>
      </trkpt>
      <trkpt lat="43.9263" lon="5.18467">
        <ele>412.1</ele>
        <time>2018-03-18T15:21:31.000Z</time>
      </trkpt>
      <trkpt lat="43.9263" lon="5.18468">
        <ele>412.3</ele>
        <time>2018-03-18T15:21:32.000Z</time>
      </trkpt>
      <trkpt lat="43.92631" lon="5.18471">
        <ele>412.5</ele>
        <time>2018-03-18T15:21:34.000Z</time>
      </trkpt>
      <trkpt lat="43.92631" lon="5.18472">
        <ele>412.7</ele>
        <time>2018-03-18T15:21:35.000Z</time>
      </trkpt>
      <trkpt lat="43.92633" lon="5.18477">
        <ele>413.1</ele>
        <time>2018-03-18T15:21:38.000Z</time>
      </trkpt>
      <trkpt lat="43.92634" lon="5.18478">
        <ele>413.2</ele>
        <time>2018-03-18T15:21:39.000Z</time>
      </trkpt>
      <trkpt lat="43.92635" lon="5.1848">
        <ele>413.4</ele>
        <time>2018-03-18T15:21:41.000Z</time>
      </trkpt>
      <trkpt lat="43.92635" lon="5.18481">
        <ele>413.4</ele>
        <time>2018-03-18T15:21:42.000Z</time>
      </trkpt>
      <trkpt lat="43.92641" lon="5.1849">
        <ele>414</ele>
        <time>2018-03-18T15:21:47.000Z</time>
      </trkpt>
      <trkpt lat="43.92642" lon="5.18492">
        <ele>414.1</ele>
        <time>2018-03-18T15:21:48.000Z</time>
      </trkpt>
      <trkpt lat="43.92645" lon="5.18503">
        <ele>414.7</ele>
        <time>2018-03-18T15:21:58.000Z</time>
      </trkpt>
      <trkpt lat="43.92645" lon="5.18504">
        <ele>414.8</ele>
        <time>2018-03-18T15:21:59.000Z</time>
      </trkpt>
      <trkpt lat="43.92646" lon="5.18504">
        <ele>414.8</ele>
        <time>2018-03-18T15:22:00.000Z</time>
      </trkpt>
      <trkpt lat="43.92646" lon="5.18505">
        <ele>414.8</ele>
        <time>2018-03-18T15:22:01.000Z</time>
      </trkpt>
      <trkpt lat="43.9265" lon="5.18516">
        <ele>414.3</ele>
        <time>2018-03-18T15:22:12.000Z</time>
      </trkpt>
      <trkpt lat="43.9265" lon="5.18517">
        <ele>414.2</ele>
        <time>2018-03-18T15:22:13.000Z</time>
      </trkpt>
      <trkpt lat="43.9265" lon="5.18517">
        <ele>414.1</ele>
        <time>2018-03-18T15:22:14.000Z</time>
      </trkpt>
      <trkpt lat="43.92654" lon="5.18528">
        <ele>413.8</ele>
        <time>2018-03-18T15:22:18.000Z</time>
      </trkpt>
      <trkpt lat="43.92654" lon="5.1853">
        <ele>413.7</ele>
        <time>2018-03-18T15:22:19.000Z</time>
      </trkpt>
      <trkpt lat="43.92655" lon="5.18532">
        <ele>413.8</ele>
        <time>2018-03-18T15:22:20.000Z</time>
      </trkpt>
      <trkpt lat="43.92658" lon="5.18541">
        <ele>413.8</ele>
        <time>2018-03-18T15:22:23.000Z</time>
      </trkpt>
      <trkpt lat="43.92659" lon="5.18544">
        <ele>413.7</ele>
        <time>2018-03-18T15:22:24.000Z</time>
      </trkpt>
      <trkpt lat="43.92662" lon="5.18555">
        <ele>413.2</ele>
        <time>2018-03-18T15:22:29.000Z</time>
      </trkpt>
      <trkpt lat="43.92663" lon="5.18558">
        <ele>413.2</ele>
        <time>2018-03-18T15:22:30.000Z</time>
      </trkpt>
      <trkpt lat="43.92665" lon="5.18568">
        <ele>412.7</ele>
        <time>2018-03-18T15:22:39.000Z</time>
      </trkpt>
      <trkpt lat="43.92666" lon="5.1857">
        <ele>412.8</ele>
        <time>2018-03-18T15:22:40.000Z</time>
      </trkpt>
      <trkpt lat="43.92672" lon="5.18579">
        <ele>414.2</ele>
        <time>2018-03-18T15:22:49.000Z</time>
      </trkpt>
      <trkpt lat="43.92675" lon="5.18583">
        <ele>414.3</ele>
        <time>2018-03-18T15:22:50.000Z</time>
      </trkpt>
      <trkpt lat="43.92678" lon="5.18588">
        <ele>414.2</ele>
        <time>2018-03-18T15:22:52.000Z</time>
      </trkpt>
      <trkpt lat="43.92681" lon="5.18592">
        <ele>414.2</ele>
        <time>2018-03-18T15:22:53.000Z</time>
      </trkpt>
      <trkpt lat="43.92688" lon="5.186">
        <ele>414.5</ele>
        <time>2018-03-18T15:22:59.000Z</time>
      </trkpt>
      <trkpt lat="43.92689" lon="5.186">
        <ele>414.8</ele>
        <time>2018-03-18T15:23:00.000Z</time>
      </trkpt>
      <trkpt lat="43.92694" lon="5.18609">
        <ele>418.1</ele>
        <time>2018-03-18T15:23:12.000Z</time>
      </trkpt>
      <trkpt lat="43.92695" lon="5.1861">
        <ele>418.3</ele>
        <time>2018-03-18T15:23:13.000Z</time>
      </trkpt>
      <trkpt lat="43.92698" lon="5.18617">
        <ele>418.3</ele>
        <time>2018-03-18T15:23:22.000Z</time>
      </trkpt>
      <trkpt lat="43.92698" lon="5.18617">
        <ele>418.3</ele>
        <time>2018-03-18T15:23:23.000Z</time>
      </trkpt>
      <trkpt lat="43.927" lon="5.18629">
        <ele>416.8</ele>
        <time>2018-03-18T15:23:42.000Z</time>
      </trkpt>
      <trkpt lat="43.927" lon="5.1863">
        <ele>416.8</ele>
        <time>2018-03-18T15:23:43.000Z</time>
      </trkpt>
      <trkpt lat="43.927" lon="5.18631">
        <ele>416.7</ele>
        <time>2018-03-18T15:23:44.000Z</time>
      </trkpt>
      <trkpt lat="43.927" lon="5.18637">
        <ele>416.8</ele>
        <time>2018-03-18T15:23:47.000Z</time>
      </trkpt>
      <trkpt lat="43.92701" lon="5.18641">
        <ele>416.9</ele>
        <time>2018-03-18T15:23:48.000Z</time>
      </trkpt>
      <trkpt lat="43.92703" lon="5.18648">
        <ele>417.1</ele>
        <time>2018-03-18T15:23:50.000Z</time>
      </trkpt>
      <trkpt lat="43.92703" lon="5.18651">
        <ele>417.2</ele>
        <time>2018-03-18T15:23:51.000Z</time>
      </trkpt>
      <trkpt lat="43.92708" lon="5.18661">
        <ele>417.4</ele>
        <time>2018-03-18T15:23:57.000Z</time>
      </trkpt>
      <trkpt lat="43.92711" lon="5.18662">
        <ele>417.4</ele>
        <time>2018-03-18T15:23:58.000Z</time>
      </trkpt>
      <trkpt lat="43.92712" lon="5.18663">
        <ele>417.6</ele>
        <time>2018-03-18T15:23:59.000Z</time>
      </trkpt>
      <trkpt lat="43.92713" lon="5.18663">
        <ele>417.7</ele>
        <time>2018-03-18T15:24:00.000Z</time>
      </trkpt>
      <trkpt lat="43.9272" lon="5.1867">
        <ele>417.7</ele>
        <time>2018-03-18T15:24:04.000Z</time>
      </trkpt>
      <trkpt lat="43.92722" lon="5.18672">
        <ele>417.7</ele>
        <time>2018-03-18T15:24:05.000Z</time>
      </trkpt>
      <trkpt lat="43.92727" lon="5.18678">
        <ele>416.9</ele>
        <time>2018-03-18T15:24:11.000Z</time>
      </trkpt>
      <trkpt lat="43.92729" lon="5.18681">
        <ele>416.9</ele>
        <time>2018-03-18T15:24:12.000Z</time>
      </trkpt>
      <trkpt lat="43.92737" lon="5.18686">
        <ele>416.8</ele>
        <time>2018-03-18T15:24:20.000Z</time>
      </trkpt>
      <trkpt lat="43.92738" lon="5.18687">
        <ele>416.9</ele>
        <time>2018-03-18T15:24:21.000Z</time>
      </trkpt>
      <trkpt lat="43.92744" lon="5.18693">
        <ele>416.8</ele>
        <time>2018-03-18T15:24:30.000Z</time>
      </trkpt>
      <trkpt lat="43.92746" lon="5.18694">
        <ele>416.8</ele>
        <time>2018-03-18T15:24:31.000Z</time>
      </trkpt>
      <trkpt lat="43.92754" lon="5.18699">
        <ele>417</ele>
        <time>2018-03-18T15:24:37.000Z</time>
      </trkpt>
      <trkpt lat="43.92755" lon="5.187">
        <ele>417.1</ele>
        <time>2018-03-18T15:24:38.000Z</time>
      </trkpt>
      <trkpt lat="43.92762" lon="5.18707">
        <ele>417.3</ele>
        <time>2018-03-18T15:24:45.000Z</time>
      </trkpt>
      <trkpt lat="43.92762" lon="5.18707">
        <ele>417.3</ele>
        <time>2018-03-18T15:24:46.000Z</time>
      </trkpt>
      <trkpt lat="43.92769" lon="5.18714">
        <ele>417.5</ele>
        <time>2018-03-18T15:24:52.000Z</time>
      </trkpt>
      <trkpt lat="43.9277" lon="5.18715">
        <ele>417.4</ele>
        <time>2018-03-18T15:24:53.000Z</time>
      </trkpt>
      <trkpt lat="43.92778" lon="5.18721">
        <ele>416.2</ele>
        <time>2018-03-18T15:25:00.000Z</time>
      </trkpt>
      <trkpt lat="43.92779" lon="5.18722">
        <ele>416</ele>
        <time>2018-03-18T15:25:01.000Z</time>
      </trkpt>
      <trkpt lat="43.92786" lon="5.18728">
        <ele>415.4</ele>
        <time>2018-03-18T15:25:06.000Z</time>
      </trkpt>
      <trkpt lat="43.92787" lon="5.18728">
        <ele>415.4</ele>
        <time>2018-03-18T15:25:07.000Z</time>
      </trkpt>
      <trkpt lat="43.92795" lon="5.18733">
        <ele>413.9</ele>
        <time>2018-03-18T15:25:15.000Z</time>
      </trkpt>
      <trkpt lat="43.92796" lon="5.18733">
        <ele>413.8</ele>
        <time>2018-03-18T15:25:16.000Z</time>
      </trkpt>
      <trkpt lat="43.92804" lon="5.18739">
        <ele>412.3</ele>
        <time>2018-03-18T15:25:23.000Z</time>
      </trkpt>
      <trkpt lat="43.92806" lon="5.1874">
        <ele>412.2</ele>
        <time>2018-03-18T15:25:24.000Z</time>
      </trkpt>
      <trkpt lat="43.92814" lon="5.18745">
        <ele>411.6</ele>
        <time>2018-03-18T15:25:31.000Z</time>
      </trkpt>
      <trkpt lat="43.92815" lon="5.18746">
        <ele>411.7</ele>
        <time>2018-03-18T15:25:32.000Z</time>
      </trkpt>
      <trkpt lat="43.92823" lon="5.1875">
        <ele>412</ele>
        <time>2018-03-18T15:25:38.000Z</time>
      </trkpt>
      <trkpt lat="43.92825" lon="5.18752">
        <ele>412.1</ele>
        <time>2018-03-18T15:25:39.000Z</time>
      </trkpt>
      <trkpt lat="43.92832" lon="5.18758">
        <ele>413.1</ele>
        <time>2018-03-18T15:25:46.000Z</time>
      </trkpt>
      <trkpt lat="43.92834" lon="5.18761">
        <ele>413.2</ele>
        <time>2018-03-18T15:25:47.000Z</time>
      </trkpt>
      <trkpt lat="43.9284" lon="5.18767">
        <ele>414.1</ele>
        <time>2018-03-18T15:25:53.000Z</time>
      </trkpt>
      <trkpt lat="43.92844" lon="5.18772">
        <ele>414.2</ele>
        <time>2018-03-18T15:25:54.000Z</time>
      </trkpt>
      <trkpt lat="43.92851" lon="5.18779">
        <ele>415.2</ele>
        <time>2018-03-18T15:26:03.000Z</time>
      </trkpt>
      <trkpt lat="43.92851" lon="5.1878">
        <ele>415.3</ele>
        <time>2018-03-18T15:26:04.000Z</time>
      </trkpt>
      <trkpt lat="43.92859" lon="5.18786">
        <ele>416.4</ele>
        <time>2018-03-18T15:26:14.000Z</time>
      </trkpt>
      <trkpt lat="43.92859" lon="5.18787">
        <ele>416.4</ele>
        <time>2018-03-18T15:26:15.000Z</time>
      </trkpt>
      <trkpt lat="43.92867" lon="5.18792">
        <ele>416.9</ele>
        <time>2018-03-18T15:26:22.000Z</time>
      </trkpt>
      <trkpt lat="43.92868" lon="5.18792">
        <ele>417.1</ele>
        <time>2018-03-18T15:26:23.000Z</time>
      </trkpt>
      <trkpt lat="43.92872" lon="5.18797">
        <ele>417.9</ele>
        <time>2018-03-18T15:26:27.000Z</time>
      </trkpt>
      <trkpt lat="43.92875" lon="5.188">
        <ele>418.1</ele>
        <time>2018-03-18T15:26:28.000Z</time>
      </trkpt>
      <trkpt lat="43.92883" lon="5.18804">
        <ele>419.2</ele>
        <time>2018-03-18T15:26:34.000Z</time>
      </trkpt>
      <trkpt lat="43.92884" lon="5.18804">
        <ele>419.3</ele>
        <time>2018-03-18T15:26:35.000Z</time>
      </trkpt>
      <trkpt lat="43.92892" lon="5.18808">
        <ele>420.4</ele>
        <time>2018-03-18T15:26:42.000Z</time>
      </trkpt>
      <trkpt lat="43.92893" lon="5.18808">
        <ele>420.6</ele>
        <time>2018-03-18T15:26:43.000Z</time>
      </trkpt>
      <trkpt lat="43.92901" lon="5.18811">
        <ele>421.5</ele>
        <time>2018-03-18T15:26:49.000Z</time>
      </trkpt>
      <trkpt lat="43.92902" lon="5.18811">
        <ele>421.6</ele>
        <time>2018-03-18T15:26:50.000Z</time>
      </trkpt>
      <trkpt lat="43.9291" lon="5.18814">
        <ele>422.7</ele>
        <time>2018-03-18T15:26:56.000Z</time>
      </trkpt>
      <trkpt lat="43.92911" lon="5.18814">
        <ele>422.9</ele>
        <time>2018-03-18T15:26:57.000Z</time>
      </trkpt>
      <trkpt lat="43.92919" lon="5.18815">
        <ele>424.1</ele>
        <time>2018-03-18T15:27:02.000Z</time>
      </trkpt>
      <trkpt lat="43.9292" lon="5.18815">
        <ele>424.3</ele>
        <time>2018-03-18T15:27:03.000Z</time>
      </trkpt>
      <trkpt lat="43.92928" lon="5.18818">
        <ele>425.2</ele>
        <time>2018-03-18T15:27:08.000Z</time>
      </trkpt>
      <trkpt lat="43.9293" lon="5.18819">
        <ele>425.3</ele>
        <time>2018-03-18T15:27:09.000Z</time>
      </trkpt>
      <trkpt lat="43.92937" lon="5.18821">
        <ele>426.1</ele>
        <time>2018-03-18T15:27:14.000Z</time>
      </trkpt>
      <trkpt lat="43.92939" lon="5.18822">
        <ele>426.3</ele>
        <time>2018-03-18T15:27:15.000Z</time>
      </trkpt>
      <trkpt lat="43.92946" lon="5.18825">
        <ele>427.6</ele>
        <time>2018-03-18T15:27:21.000Z</time>
      </trkpt>
      <trkpt lat="43.92948" lon="5.18826">
        <ele>427.9</ele>
        <time>2018-03-18T15:27:22.000Z</time>
      </trkpt>
      <trkpt lat="43.92954" lon="5.18831">
        <ele>429.1</ele>
        <time>2018-03-18T15:27:28.000Z</time>
      </trkpt>
      <trkpt lat="43.92956" lon="5.18832">
        <ele>429.3</ele>
        <time>2018-03-18T15:27:29.000Z</time>
      </trkpt>
      <trkpt lat="43.92963" lon="5.18838">
        <ele>430.8</ele>
        <time>2018-03-18T15:27:36.000Z</time>
      </trkpt>
      <trkpt lat="43.92965" lon="5.18839">
        <ele>431.1</ele>
        <time>2018-03-18T15:27:37.000Z</time>
      </trkpt>
      <trkpt lat="43.92972" lon="5.18845">
        <ele>432.5</ele>
        <time>2018-03-18T15:27:45.000Z</time>
      </trkpt>
      <trkpt lat="43.92973" lon="5.18845">
        <ele>432.6</ele>
        <time>2018-03-18T15:27:46.000Z</time>
      </trkpt>
      <trkpt lat="43.9298" lon="5.18851">
        <ele>433.2</ele>
        <time>2018-03-18T15:27:53.000Z</time>
      </trkpt>
      <trkpt lat="43.92981" lon="5.18852">
        <ele>433.4</ele>
        <time>2018-03-18T15:27:54.000Z</time>
      </trkpt>
      <trkpt lat="43.92988" lon="5.18857">
        <ele>434.2</ele>
        <time>2018-03-18T15:28:01.000Z</time>
      </trkpt>
      <trkpt lat="43.92989" lon="5.18858">
        <ele>434.3</ele>
        <time>2018-03-18T15:28:02.000Z</time>
      </trkpt>
      <trkpt lat="43.92997" lon="5.18863">
        <ele>434.1</ele>
        <time>2018-03-18T15:28:10.000Z</time>
      </trkpt>
      <trkpt lat="43.92997" lon="5.18863">
        <ele>434</ele>
        <time>2018-03-18T15:28:11.000Z</time>
      </trkpt>
      <trkpt lat="43.93006" lon="5.18868">
        <ele>433.6</ele>
        <time>2018-03-18T15:28:16.000Z</time>
      </trkpt>
      <trkpt lat="43.93006" lon="5.18868">
        <ele>433.4</ele>
        <time>2018-03-18T15:28:17.000Z</time>
      </trkpt>
      <trkpt lat="43.93013" lon="5.18874">
        <ele>432.9</ele>
        <time>2018-03-18T15:28:21.000Z</time>
      </trkpt>
      <trkpt lat="43.93014" lon="5.18875">
        <ele>432.7</ele>
        <time>2018-03-18T15:28:22.000Z</time>
      </trkpt>
      <trkpt lat="43.93021" lon="5.1888">
        <ele>432</ele>
        <time>2018-03-18T15:28:27.000Z</time>
      </trkpt>
      <trkpt lat="43.93023" lon="5.18881">
        <ele>431.9</ele>
        <time>2018-03-18T15:28:28.000Z</time>
      </trkpt>
      <trkpt lat="43.93029" lon="5.18889">
        <ele>431.2</ele>
        <time>2018-03-18T15:28:34.000Z</time>
      </trkpt>
      <trkpt lat="43.9303" lon="5.18889">
        <ele>431</ele>
        <time>2018-03-18T15:28:35.000Z</time>
      </trkpt>
      <trkpt lat="43.93036" lon="5.18895">
        <ele>430.8</ele>
        <time>2018-03-18T15:28:40.000Z</time>
      </trkpt>
      <trkpt lat="43.93038" lon="5.18896">
        <ele>430.8</ele>
        <time>2018-03-18T15:28:41.000Z</time>
      </trkpt>
      <trkpt lat="43.93044" lon="5.18901">
        <ele>430.7</ele>
        <time>2018-03-18T15:28:45.000Z</time>
      </trkpt>
      <trkpt lat="43.93046" lon="5.18902">
        <ele>430.6</ele>
        <time>2018-03-18T15:28:46.000Z</time>
      </trkpt>
      <trkpt lat="43.93053" lon="5.18908">
        <ele>430.4</ele>
        <time>2018-03-18T15:28:53.000Z</time>
      </trkpt>
      <trkpt lat="43.93054" lon="5.18909">
        <ele>430.4</ele>
        <time>2018-03-18T15:28:54.000Z</time>
      </trkpt>
      <trkpt lat="43.93062" lon="5.1891">
        <ele>431.2</ele>
        <time>2018-03-18T15:29:01.000Z</time>
      </trkpt>
      <trkpt lat="43.93063" lon="5.18909">
        <ele>431.4</ele>
        <time>2018-03-18T15:29:02.000Z</time>
      </trkpt>
      <trkpt lat="43.93065" lon="5.18909">
        <ele>431.7</ele>
        <time>2018-03-18T15:29:05.000Z</time>
      </trkpt>
      <trkpt lat="43.93066" lon="5.18909">
        <ele>432</ele>
        <time>2018-03-18T15:29:06.000Z</time>
      </trkpt>
      <trkpt lat="43.93066" lon="5.18909">
        <ele>432.7</ele>
        <time>2018-03-18T15:29:12.000Z</time>
      </trkpt>
      <trkpt lat="43.93066" lon="5.1891">
        <ele>432.9</ele>
        <time>2018-03-18T15:29:13.000Z</time>
      </trkpt>
      <trkpt lat="43.93068" lon="5.18911">
        <ele>433.1</ele>
        <time>2018-03-18T15:29:15.000Z</time>
      </trkpt>
      <trkpt lat="43.93068" lon="5.18911">
        <ele>433.2</ele>
        <time>2018-03-18T15:29:16.000Z</time>
      </trkpt>
      <trkpt lat="43.93069" lon="5.18912">
        <ele>433.5</ele>
        <time>2018-03-18T15:30:41.000Z</time>
      </trkpt>
    </trkseg>
  </trk>
</gpx>